# Wetter Temperatur Luftdruck Luftfeuchtigkeit Sichtweite Windgeschwindigkeit Windrichtung Zeit
1 Clear 12 1016 76 10000 1 0 20:18 17.10.2019
2 Clear 12 1016 76 10000 1 0 20:18 17.10.2019
3 Clear 13 1015 81 10000 1 0 19:42 17.10.2019
4 Clear 13 1015 81 10000 1 0 19:42 17.10.2019
5 Clear 13 1015 82 10000 1 0 19:20 17.10.2019
6 Clear 13 1015 82 10000 1 0 19:20 17.10.2019
7 Clear 13 1015 82 10000 1 0 18:59 17.10.2019
8 Clear 13 1015 76 10000 1 230 18:38 17.10.2019
9 Clear 14 1015 76 10000 1 230 18:20 17.10.2019
10 Clouds 16 1015 55 10000 1.5 0 17:43 17.10.2019
11 Clouds 16 1015 55 10000 1.5 0 17:43 17.10.2019
12 Clouds 17 1015 48 10000 3.6 100 17:24 17.10.2019
13 Clouds 17 1015 48 10000 1.5 0 16:58 17.10.2019
14 Clouds 17 1015 55 10000 2.1 300 16:40 17.10.2019
15 Clouds 17 1015 55 10000 2.1 300 16:40 17.10.2019
16 Clouds 18 1015 51 10000 1.5 310 16:19 17.10.2019
17 Clouds 17 1015 51 10000 1.5 310 15:57 17.10.2019
18 Clouds 17 1015 48 10000 1.5 40 15:38 17.10.2019
19 Clouds 17 1015 48 10000 1.5 40 15:20 17.10.2019
20 -273 0 0 0 0 0 14:56 17.10.2019
21 Clouds 18 1016 51 10000 1.5 310 14:37 17.10.2019
22 Clouds 17 1016 77 10000 2.1 280 14:19 17.10.2019
23 Clouds 18 1016 77 10000 2.1 280 13:39 17.10.2019
24 Clouds 18 1016 77 10000 2.1 280 13:39 17.10.2019
25 Clouds 17 1017 76 10000 2.1 290 13:20 17.10.2019
26 Clouds 17 1017 87 10000 2.1 290 12:57 17.10.2019
27 Clouds 17 1017 87 10000 2.1 290 12:37 17.10.2019
28 Clouds 17 1017 87 10000 2.1 290 12:37 17.10.2019
29 Clouds 16 1017 87 10000 2.1 290 12:18 17.10.2019
30 Clouds 16 1017 87 10000 2.1 290 12:18 17.10.2019
31 Clouds 15 1017 87 10000 2.1 290 11:42 17.10.2019
32 Clouds 15 1017 87 10000 2.1 290 11:42 17.10.2019
33 Clouds 14 1017 93 10000 1.5 0 11:22 17.10.2019
34 Clouds 13 1017 93 10000 1.5 0 10:59 17.10.2019
35 Clouds 12 1017 93 10000 1.5 0 10:41 17.10.2019
36 Clouds 11 1017 100 10000 2.1 110 10:19 17.10.2019
37 Clouds 10 1017 81 10000 2.6 190 09:56 17.10.2019
38 Clouds 9 1018 100 10000 2.1 110 09:37 17.10.2019
39 Clouds 8 1017 100 10000 1.5 270 09:19 17.10.2019
40 Clouds 7 1017 100 10000 1.5 270 08:48 17.10.2019
41 Clouds 7 1017 100 10000 2.1 100 08:27 17.10.2019
42 Clouds 7 1017 100 10000 2.1 100 07:59 17.10.2019
43 Clouds 7 1017 100 10000 2.1 100 07:41 17.10.2019
44 Clouds 7 1017 100 10000 1.5 120 07:20 17.10.2019
45 Clouds 6 1017 100 10000 2.1 110 06:42 17.10.2019
46 Clouds 6 1017 100 10000 2.1 110 06:42 17.10.2019
47 Clouds 6 1017 100 10000 0.5 0 06:23 17.10.2019
48 Clouds 6 1017 100 10000 0.5 0 05:58 17.10.2019
49 Clouds 6 1017 100 10000 1 0 05:35 17.10.2019
50 Clouds 6 1017 100 10000 1 240 04:57 17.10.2019
51 Clouds 6 1017 100 10000 1 110 03:58 17.10.2019
52 Clouds 6 1017 100 10000 1 130 03:38 17.10.2019
53 Clouds 6 1016 100 10000 1 0 01:55 17.10.2019
54 Clouds 7 1016 100 10000 0.5 130 00:41 17.10.2019
55 Clear 7 1016 100 10000 1 110 00:20 17.10.2019
56 Clear 7 1016 100 10000 1 220 23:42 16.10.2019
57 Clear 7 1016 100 10000 0.5 0 23:21 16.10.2019
58 Clear 7 1016 100 10000 0.5 0 22:57 16.10.2019
59 Clear 7 1016 93 10000 1.5 100 22:38 16.10.2019
60 Clear 7 1016 93 10000 1 130 22:20 16.10.2019
61 Clear 8 1016 93 10000 1 130 21:58 16.10.2019
62 Clear 8 1016 93 10000 1 130 21:58 16.10.2019
63 Clear 8 1016 87 10000 0.5 0 21:38 16.10.2019
64 Clear 8 1016 87 10000 0.5 0 21:38 16.10.2019
65 Clear 8 1016 87 10000 1.5 130 21:20 16.10.2019
66 Clear 8 1016 87 10000 1.5 130 20:58 16.10.2019
67 Clear 9 1015 93 10000 1 0 20:40 16.10.2019
68 Clear 9 1015 93 10000 1 0 20:21 16.10.2019
69 Clear 9 1015 87 10000 1 0 19:59 16.10.2019
70 Clear 9 1015 87 10000 1 0 19:39 16.10.2019
71 Clear 9 1015 87 10000 1 0 19:39 16.10.2019
72 Clear 10 1015 87 10000 1 0 19:21 16.10.2019
73 -273 0 0 0 0 0 18:56 16.10.2019
74 -273 0 0 0 0 0 18:56 16.10.2019
75 Clear 12 1015 62 10000 0.5 0 18:37 16.10.2019
76 Clear 13 1015 62 10000 0.5 0 18:18 16.10.2019
77 Clear 14 1016 58 10000 1.5 240 17:54 16.10.2019
78 Clear 14 1016 58 10000 2.1 280 17:36 16.10.2019
79 Clear 15 1016 58 10000 2.1 280 17:18 16.10.2019
80 Clear 15 1016 58 10000 2.6 300 16:43 16.10.2019
81 Clear 15 1016 58 10000 2.6 300 16:21 16.10.2019
82 Clear 15 1016 58 10000 2.6 300 15:58 16.10.2019
83 -273 0 0 0 0 0 15:39 16.10.2019
84 Clear 15 1017 51 10000 1.5 0 15:19 16.10.2019
85 Clear 15 1017 51 10000 1.5 0 14:58 16.10.2019
86 Clear 16 1017 51 10000 1.5 0 14:39 16.10.2019
87 Clear 15 1017 51 10000 1.5 0 14:19 16.10.2019
88 -273 0 0 0 0 0 13:57 16.10.2019
89 Clear 14 1018 62 10000 2.6 270 13:38 16.10.2019
90 Clear 14 1018 62 10000 2.6 270 13:38 16.10.2019
91 Clear 14 1018 62 10000 2.6 270 13:19 16.10.2019
92 Clear 14 1018 58 10000 3.6 160 12:42 16.10.2019
93 Clear 13 1018 58 10000 3.6 160 12:19 16.10.2019
94 Clear 12 1018 66 10000 1 0 11:45 16.10.2019
95 Clear 11 1018 66 10000 1 0 11:19 16.10.2019
96 Clear 11 1019 66 10000 2.1 270 10:41 16.10.2019
97 Clear 10 1018 76 10000 6.7 240 10:22 16.10.2019
98 Clear 10 1018 66 10000 3.6 170 09:58 16.10.2019
99 Clear 10 1018 66 10000 3.6 170 09:58 16.10.2019
100 Clear 9 1018 81 10000 2.1 140 09:39 16.10.2019
101 Clear 9 1018 81 10000 2.1 140 09:39 16.10.2019
102 Clouds 8 1018 87 10000 1 0 09:20 16.10.2019
103 Clouds 7 1018 87 10000 1 0 08:44 16.10.2019
104 Clouds 7 1017 87 10000 6.2 220 08:26 16.10.2019
105 Clouds 7 1017 87 10000 5.1 220 07:56 16.10.2019
106 Clouds 7 1018 93 10000 1.5 100 07:38 16.10.2019
107 Clouds 8 1017 76 10000 1 0 07:20 16.10.2019
108 Clouds 8 1017 76 10000 1 0 06:40 16.10.2019
109 Clouds 8 1017 81 10000 0.5 0 06:19 16.10.2019
110 Clouds 9 1017 71 10000 2.1 240 03:33 16.10.2019
111 Clouds 9 1017 76 10000 1.5 250 02:50 16.10.2019
112 Clouds 9 1016 71 10000 3.1 230 01:20 16.10.2019
113 -273 0 0 0 0 0 00:54 16.10.2019
114 Clouds 9 1016 71 10000 2.6 0 00:35 16.10.2019
115 Rain 9 1015 76 10000 3.1 0 23:42 15.10.2019
116 Rain 9 1015 76 10000 3.1 0 23:42 15.10.2019
117 Rain 9 1013 93 10000 9.3 230 23:22 15.10.2019
118 Rain 10 1015 76 10000 3.1 240 22:57 15.10.2019
119 Rain 10 1015 81 10000 2.1 0 22:38 15.10.2019
120 Rain 10 1014 81 10000 3.1 260 22:20 15.10.2019
121 Rain 10 1014 93 10000 5.1 240 21:56 15.10.2019
122 Rain 10 1014 93 10000 5.1 240 21:56 15.10.2019
123 Rain 11 1013 87 10000 3.1 260 21:38 15.10.2019
124 Rain 11 1012 93 8000 6.7 290 21:20 15.10.2019
125 Rain 11 1012 93 8000 6.7 290 20:57 15.10.2019
126 Rain 12 1012 93 8000 6.7 290 20:39 15.10.2019
127 Rain 12 1012 93 8000 6.7 290 20:39 15.10.2019
128 Rain 12 1011 93 10000 3.6 270 20:20 15.10.2019
129 Rain 12 1011 93 10000 3.6 270 19:58 15.10.2019
130 Rain 12 1011 93 10000 3.6 270 19:40 15.10.2019
131 Clouds 12 1009 87 10000 5.1 240 19:20 15.10.2019
132 Clouds 12 1008 82 10000 5.7 230 18:47 15.10.2019
133 Rain 13 1008 67 10000 3.6 270 18:29 15.10.2019
134 Rain 14 1008 67 10000 3.6 270 17:59 15.10.2019
135 Rain 14 1009 82 10000 3.6 270 17:40 15.10.2019
136 Rain 15 1008 67 10000 4.6 270 17:20 15.10.2019
137 Clouds 15 1008 59 10000 6.2 270 16:56 15.10.2019
138 Clouds 15 1008 59 10000 6.2 270 16:37 15.10.2019
139 Clouds 16 1008 59 10000 6.2 270 16:19 15.10.2019
140 Clouds 17 1008 72 10000 5.7 270 15:43 15.10.2019
141 Clouds 18 1008 72 10000 5.7 270 15:21 15.10.2019
142 Clouds 18 1008 72 10000 5.7 270 14:59 15.10.2019
143 Clouds 19 1008 72 10000 7.7 270 14:38 15.10.2019
144 Clouds 19 1008 72 10000 7.7 270 14:20 15.10.2019
145 Clouds 19 1008 72 10000 7.7 270 14:20 15.10.2019
146 Clouds 19 1008 72 10000 7.7 270 13:58 15.10.2019
147 Clouds 18 1008 87 10000 7.7 290 13:40 15.10.2019
148 Clouds 19 1008 87 10000 7.7 290 13:19 15.10.2019
149 Clouds 19 1007 87 10000 3.1 260 12:43 15.10.2019
150 Clouds 18 1007 87 10000 3.1 260 12:22 15.10.2019
151 Clouds 17 1007 87 10000 3.1 260 11:57 15.10.2019
152 Clouds 17 1006 100 10000 5.1 300 11:38 15.10.2019
153 Clouds 16 1006 100 10000 5.1 300 11:19 15.10.2019
154 Clouds 17 1007 100 10000 3.1 280 10:45 15.10.2019
155 Mist 15 1007 100 10000 3.1 290 10:22 15.10.2019
156 Mist 14 1007 71 10000 2.1 40 09:58 15.10.2019
157 Mist 14 1007 100 10000 3.1 290 09:38 15.10.2019
158 Fog 11 1007 100 550 3.6 280 09:20 15.10.2019
159 Mist 10 1009 100 10000 2.1 80 08:55 15.10.2019
160 Fog 9 1009 93 10000 2.6 30 08:36 15.10.2019
161 Mist 9 1007 100 2000 2.6 310 08:36 15.10.2019
162 Fog 9 1008 100 250 3.6 280 08:18 15.10.2019
163 Fog 9 1008 100 250 3.6 280 07:41 15.10.2019
164 Mist 8 1008 100 6000 1.5 270 07:21 15.10.2019
165 Mist 9 1008 100 6000 2.1 230 06:45 15.10.2019
166 Fog 8 1009 100 4000 1 0 06:27 15.10.2019
167 Fog 8 1009 100 3500 1 0 05:44 15.10.2019
168 -273 0 0 0 0 0 05:24 15.10.2019
169 Mist 9 1010 100 3900 1 0 04:33 15.10.2019
170 Clouds 9 1011 100 7000 0.5 0 03:38 15.10.2019
171 Clear 10 1012 93 10000 2.6 0 02:42 15.10.2019
172 Clear 10 1012 93 10000 2.1 280 01:49 15.10.2019
173 Clear 11 1012 93 10000 2.1 310 01:22 15.10.2019
174 Clear 11 1012 93 10000 2.1 0 00:49 15.10.2019
175 Clear 11 1012 87 10000 2.6 260 00:22 15.10.2019
176 Clear 12 1013 87 10000 3.1 210 23:45 14.10.2019
177 Clear 12 1012 100 10000 1 0 23:20 14.10.2019
178 Clear 12 1012 100 10000 1 0 22:58 14.10.2019
179 Clear 12 1013 93 10000 2.1 150 22:38 14.10.2019
180 Clear 12 1013 87 10000 2.1 150 22:18 14.10.2019
181 Clear 12 1013 87 10000 2.1 150 22:18 14.10.2019
182 Clear 13 1013 87 10000 2.1 150 21:55 14.10.2019
183 Clear 12 1013 93 10000 0.5 0 21:36 14.10.2019
184 Clear 13 1012 87 10000 3.6 100 21:18 14.10.2019
185 Clear 14 1013 100 10000 1.5 0 20:55 14.10.2019
186 Clear 13 1013 93 10000 2.1 30 20:54 14.10.2019
187 Clear 13 1013 93 10000 2.1 30 20:54 14.10.2019
188 Clear 14 1013 100 10000 1.5 0 20:36 14.10.2019
189 Clear 14 1013 100 10000 1.5 0 20:18 14.10.2019
190 Clear 15 1013 93 10000 2.1 100 19:41 14.10.2019
191 Clear 15 1014 87 10000 1.5 170 19:23 14.10.2019
192 Clear 15 1014 87 10000 1.5 170 19:23 14.10.2019
193 Clear 16 1014 77 10000 0.5 110 18:58 14.10.2019
194 Clear 17 1013 88 10000 1 0 18:39 14.10.2019
195 Clear 19 1013 77 10000 1.5 110 18:19 14.10.2019
196 Clear 19 1014 77 10000 2.6 80 17:56 14.10.2019
197 Clear 20 1014 77 10000 2.6 80 17:37 14.10.2019
198 Clear 20 1014 77 10000 1 0 17:19 14.10.2019
199 Clear 20 1014 77 10000 1 0 16:43 14.10.2019
200 Clear 21 1015 77 10000 1.5 0 16:21 14.10.2019
201 Clear 20 1015 72 10000 2.1 60 15:42 14.10.2019
202 Clear 20 1015 77 10000 1.5 330 15:23 14.10.2019
203 Clear 20 1015 77 10000 1.5 330 14:57 14.10.2019
204 Clear 20 1015 77 10000 1.5 330 14:57 14.10.2019
205 Clear 19 1015 77 10000 1.5 330 14:39 14.10.2019
206 Clear 20 1016 87 10000 2.1 290 14:19 14.10.2019
207 Clear 19 1016 100 10000 2.1 310 13:44 14.10.2019
208 Clouds 19 1016 100 10000 2.1 310 13:21 14.10.2019
209 Clear 19 1016 56 10000 3.1 60 12:55 14.10.2019
210 Clouds 19 1017 100 10000 2.6 280 12:37 14.10.2019
211 Clouds 18 1017 100 6000 2.6 280 12:18 14.10.2019
212 Clouds 18 1017 100 6000 2.6 280 12:18 14.10.2019
213 Clouds 18 1017 100 6000 2.6 280 12:18 14.10.2019
214 Fog 17 1017 100 1000 3.1 290 11:44 14.10.2019
215 Fog 17 1017 68 10000 2.6 70 11:26 14.10.2019
216 Clear 17 1017 77 10000 1.5 30 10:57 14.10.2019
217 Clouds 17 1017 100 10000 1.5 300 10:57 14.10.2019
218 Clouds 16 1017 100 10000 1.5 300 10:38 14.10.2019
219 Clouds 14 1017 100 10000 1 0 10:19 14.10.2019
220 Mist 11 1017 100 1200 1 0 09:42 14.10.2019
221 Fog 10 1017 100 1500 1 0 09:21 14.10.2019
222 Fog 10 1017 100 2600 0.5 0 08:51 14.10.2019
223 Fog 9 1017 100 1000 1 0 08:23 14.10.2019
224 Clouds 8 1017 100 3000 0.5 0 07:47 14.10.2019
225 Clouds 9 1017 100 10000 0.5 0 07:26 14.10.2019
226 Clear 9 1017 100 10000 1 0 06:59 14.10.2019
227 Clear 9 1018 100 10000 1.64 134.381 06:28 14.10.2019
228 Clouds 9 1017 100 9000 1 0 05:57 14.10.2019
229 Clear 10 1018 93 10000 2.1 170 05:29 14.10.2019
230 Clear 10 1018 93 10000 2.6 180 04:34 14.10.2019
231 Clear 10 1018 93 10000 1.5 250 03:26 14.10.2019
232 Clear 10 1018 93 10000 1.5 250 03:26 14.10.2019
233 Clear 10 1018 100 10000 1 240 02:34 14.10.2019
234 Clear 11 1018 100 10000 0.5 0 01:22 14.10.2019
235 Clear 11 1018 100 10000 0.5 0 00:44 14.10.2019
236 Clear 12 1018 100 10000 1 0 00:19 14.10.2019
237 Clear 12 1018 100 10000 2.1 110 23:43 13.10.2019
238 Clear 12 1017 100 10000 2.1 110 23:20 13.10.2019
239 Clear 13 1017 100 10000 2.1 110 22:58 13.10.2019
240 Clear 13 1017 100 10000 1 0 22:40 13.10.2019
241 Clear 13 1017 100 10000 1 0 22:20 13.10.2019
242 Clear 13 1017 100 10000 0.5 0 21:57 13.10.2019
243 Clear 13 1017 100 10000 0.5 0 21:37 13.10.2019
244 Clear 13 1017 100 10000 0.5 0 21:36 13.10.2019
245 Clear 14 1017 100 10000 1 0 21:18 13.10.2019
246 Clear 14 1017 100 10000 0.5 0 20:57 13.10.2019
247 Clear 15 1017 100 10000 0.5 0 20:37 13.10.2019
248 Clear 15 1017 93 10000 1 0 20:19 13.10.2019
249 Clear 15 1017 93 10000 1 0 19:56 13.10.2019
250 Clear 15 1017 93 10000 1 0 19:56 13.10.2019
251 Clear 15 1017 87 10000 2.1 160 19:56 13.10.2019
252 Clear 15 1017 87 10000 2.1 160 19:55 13.10.2019
253 Clear 15 1017 93 10000 1 0 19:37 13.10.2019
254 Clear 15 1017 93 10000 1 0 19:37 13.10.2019
255 Clear 16 1017 77 10000 1 0 19:19 13.10.2019
256 Clear 17 1017 82 10000 2.1 170 18:55 13.10.2019
257 -273 0 0 0 0 0 18:55 13.10.2019
258 Clear 19 1017 60 10000 1 0 18:36 13.10.2019
259 Clear 19 1017 60 10000 1 0 18:18 13.10.2019
260 Clear 19 1017 60 10000 1 0 18:18 13.10.2019
261 Clear 21 1017 60 10000 1 0 17:42 13.10.2019
262 Clear 21 1017 60 10000 1.5 190 17:24 13.10.2019
263 Clear 21 1017 64 10000 1.5 190 16:54 13.10.2019
264 Clear 22 1017 60 10000 2.1 90 16:36 13.10.2019
265 Clear 22 1017 64 10000 2.1 90 16:18 13.10.2019
266 Clear 22 1017 72 10000 2.6 90 15:40 13.10.2019
267 Clear 22 1018 68 10000 1.5 0 15:22 13.10.2019
268 Clear 22 1018 53 10000 3.1 260 14:59 13.10.2019
269 Clear 22 1018 68 10000 1.5 0 14:40 13.10.2019
270 Clear 21 1018 72 10000 3.1 280 14:22 13.10.2019
271 Clear 21 1018 53 10000 2.1 230 13:59 13.10.2019
272 Clear 21 1018 77 10000 3.1 280 13:38 13.10.2019
273 Clear 21 1018 77 10000 3.1 280 13:38 13.10.2019
274 Clear 20 1018 82 10000 2.6 270 13:20 13.10.2019
275 Clear 20 1018 56 10000 2.1 250 12:56 13.10.2019
276 Clear 20 1018 82 10000 2.6 270 12:38 13.10.2019
277 Clear 19 1018 82 10000 3.1 280 12:19 13.10.2019
278 Clear 19 1018 82 10000 3.1 280 11:55 13.10.2019
279 Clear 18 1018 82 10000 3.1 280 11:37 13.10.2019
280 Clear 17 1017 77 10000 2.1 280 11:18 13.10.2019
281 Clear 16 1018 82 10000 1 0 10:41 13.10.2019
282 Clear 15 1018 87 10000 1 0 10:23 13.10.2019
283 Clear 13 1018 87 10000 1 0 09:41 13.10.2019
284 Clear 11 1018 100 10000 2.6 90 09:22 13.10.2019
285 Clear 11 1018 100 10000 2.6 90 08:59 13.10.2019
286 Clouds 10 1018 100 10000 2.1 110 08:40 13.10.2019
287 Clouds 10 1018 100 10000 1 0 08:21 13.10.2019
288 Clear 9 1018 100 10000 1 120 07:46 13.10.2019
289 Clear 10 1018 100 10000 1 0 07:21 13.10.2019
290 Clear 9 1018 100 10000 0.5 0 06:41 13.10.2019
291 Clear 10 1018 100 10000 0.5 0 05:46 13.10.2019
292 Clear 10 1018 100 10000 2.1 110 04:49 13.10.2019
293 Clear 10 1018 87 10000 3.6 210 04:29 13.10.2019
294 Clear 11 1018 100 10000 1 0 02:42 13.10.2019
295 Clouds 12 1018 81 10000 3.6 220 01:54 13.10.2019
296 Clouds 12 1018 100 10000 0.5 0 01:30 13.10.2019
297 Clear 13 1018 93 10000 0.5 0 00:47 13.10.2019
298 Clear 13 1018 93 10000 0.5 0 00:47 13.10.2019
299 Clear 13 1018 87 10000 0.5 110 00:21 13.10.2019
300 Clouds 13 1018 76 10000 2.6 190 23:56 12.10.2019
301 Clouds 13 1018 72 10000 3.1 180 23:37 12.10.2019
302 Clear 13 1018 82 10000 0.5 0 23:19 12.10.2019
303 Clear 13 1018 82 10000 0.5 0 22:57 12.10.2019
304 Clear 13 1018 59 10000 2.6 0 22:38 12.10.2019
305 Clear 13 1018 72 10000 1.5 0 22:20 12.10.2019
306 Clear 13 1018 87 10000 1.5 0 21:54 12.10.2019
307 Clear 13 1018 87 10000 1.5 0 21:54 12.10.2019
308 Clear 13 1018 87 10000 1.5 0 21:36 12.10.2019
309 Clear 14 1018 82 10000 1.5 0 21:18 12.10.2019
310 Clear 13 1018 93 10000 2.1 120 20:40 12.10.2019
311 Clear 13 1018 87 10000 1 0 20:22 12.10.2019
312 Clear 14 1018 93 10000 1 0 19:38 12.10.2019
313 Clear 14 1018 93 10000 0.5 0 19:20 12.10.2019
314 Clear 15 1018 93 10000 1 0 18:56 12.10.2019
315 Clear 15 1018 93 10000 1 0 18:56 12.10.2019
316 Clear 16 1018 93 10000 1 0 18:37 12.10.2019
317 Clear 17 1018 72 10000 1 290 18:19 12.10.2019
318 Clear 19 1018 72 10000 1 290 17:42 12.10.2019
319 Clear 19 1018 82 10000 2.6 290 17:19 12.10.2019
320 Clear 19 1018 52 10000 3.1 240 16:54 12.10.2019
321 Clear 19 1018 52 10000 3.1 240 16:54 12.10.2019
322 Clear 20 1018 82 10000 2.6 290 16:36 12.10.2019
323 Clear 20 1018 77 10000 1.5 290 16:18 12.10.2019
324 Clear 20 1018 77 10000 1.5 290 15:40 12.10.2019
325 Clear 20 1018 82 10000 2.1 300 15:22 12.10.2019
326 Clear 20 1018 52 10000 5.1 240 14:41 12.10.2019
327 Clear 20 1018 82 10000 2.1 290 14:22 12.10.2019
328 Clear 20 1019 82 10000 2.1 290 13:53 12.10.2019
329 Clear 20 1019 48 10000 1 0 13:33 12.10.2019
330 Clear 19 1019 87 10000 1.5 0 12:59 12.10.2019
331 Clear 19 1019 87 10000 1.5 0 12:39 12.10.2019
332 Clear 17 1019 87 10000 2.1 290 12:20 12.10.2019
333 Clear 17 1019 51 10000 6.2 220 11:58 12.10.2019
334 Clear 17 1019 87 10000 2.1 290 11:38 12.10.2019
335 Clear 15 1019 93 10000 1.5 0 11:19 12.10.2019
336 Clear 14 1019 93 10000 1.5 0 10:41 12.10.2019
337 Clear 13 1019 100 10000 1.5 110 10:23 12.10.2019
338 Clear 12 1019 100 10000 1.5 110 09:58 12.10.2019
339 Clear 12 1019 100 10000 1.5 110 09:57 12.10.2019
340 Clear 11 1019 100 10000 1.5 110 09:39 12.10.2019
341 Clear 9 1019 100 10000 1 0 09:20 12.10.2019
342 Clear 8 1019 100 10000 1 0 08:56 12.10.2019
343 Clear 8 1019 100 10000 1 0 08:55 12.10.2019
344 Clear 7 1019 100 10000 1 0 08:36 12.10.2019
345 Clear 6 1019 100 10000 0.5 0 08:18 12.10.2019
346 Clear 7 1019 100 10000 1 0 07:33 12.10.2019
347 Clear 6 1019 100 10000 1.5 0 06:44 12.10.2019
348 Clear 6 1018 100 10000 0.5 0 05:46 12.10.2019
349 Fog 7 1018 100 10000 0.5 0 04:47 12.10.2019
350 Clear 7 1018 81 10000 3.6 220 03:56 12.10.2019
351 Clouds 7 1018 76 10000 4.6 210 02:57 12.10.2019
352 Clear 8 1019 100 10000 1.5 0 01:36 12.10.2019
353 Clouds 8 1018 87 10000 1 0 00:58 12.10.2019
354 Clear 8 1019 100 10000 1 0 00:39 12.10.2019
355 Clouds 8 1018 87 10000 2.6 220 23:56 11.10.2019
356 Clouds 9 1018 87 10000 4.1 220 23:37 11.10.2019
357 Clear 9 1018 100 10000 1 220 23:19 11.10.2019
358 Clear 9 1018 100 10000 0.5 0 22:39 11.10.2019
359 Clear 9 1018 100 10000 0.5 0 22:20 11.10.2019
360 Clear 9 1018 87 10000 2.1 200 21:55 11.10.2019
361 Clear 9 1018 100 10000 0.5 0 21:36 11.10.2019
362 Clear 10 1018 100 10000 1 0 21:18 11.10.2019
363 Clear 10 1018 100 10000 1 0 20:42 11.10.2019
364 Clear 10 1018 87 10000 2.1 200 20:24 11.10.2019
365 Clear 11 1018 81 10000 2.6 190 19:56 11.10.2019
366 Clear 12 1019 93 10000 1 0 19:38 11.10.2019
367 Clear 12 1019 93 10000 0.5 0 19:18 11.10.2019
368 Clear 13 1019 63 10000 1 80 18:56 11.10.2019
369 Clear 13 1019 63 10000 1 80 18:56 11.10.2019
370 Clear 14 1019 63 10000 1 80 18:37 11.10.2019
371 Clear 15 1019 63 10000 1 80 18:18 11.10.2019
372 Clear 16 1018 62 10000 3.1 200 17:57 11.10.2019
373 Clear 16 1019 59 10000 1 0 17:37 11.10.2019
374 Clear 16 1019 59 10000 0.5 0 17:18 11.10.2019
375 Clear 17 1019 59 10000 2.1 40 16:42 11.10.2019
376 Clear 17 1019 59 10000 2.1 40 16:21 11.10.2019
377 Clear 17 1019 59 10000 4.1 220 15:59 11.10.2019
378 Clear 17 1020 82 10000 2.1 280 15:39 11.10.2019
379 Clear 16 1020 82 10000 2.1 280 15:19 11.10.2019
380 Clear 16 1021 87 10000 4.6 270 14:47 11.10.2019
381 Clear 16 1020 59 10000 4.6 230 14:29 11.10.2019
382 Clear 16 1021 72 10000 1.5 30 13:57 11.10.2019
383 Clear 16 1021 72 10000 1.5 30 13:38 11.10.2019
384 Clear 16 1021 72 10000 1.5 30 13:19 11.10.2019
385 Clear 15 1021 62 10000 4.6 230 12:56 11.10.2019
386 Clear 14 1022 87 10000 2.1 60 12:38 11.10.2019
387 Clear 14 1022 87 10000 2.1 60 12:18 11.10.2019
388 Clear 13 1023 87 10000 0.5 0 11:41 11.10.2019
389 Clouds 12 1023 100 10000 1.5 280 11:22 11.10.2019
390 Clear 11 1022 76 10000 4.1 200 10:58 11.10.2019
391 Clouds 11 1023 93 10000 3.1 280 10:40 11.10.2019
392 Clouds 10 1023 93 10000 3.1 280 10:22 11.10.2019
393 Clear 9 1023 87 10000 1.5 220 09:55 11.10.2019
394 Clear 8 1022 100 10000 0.5 0 09:37 11.10.2019
395 Clear 6 1022 100 10000 1.5 200 09:18 11.10.2019
396 Clear 6 1022 100 10000 1.5 200 09:18 11.10.2019
397 Clear 5 1022 100 10000 1.5 200 08:54 11.10.2019
398 Clear 5 1022 100 10000 1.5 200 08:36 11.10.2019
399 Clear 5 1022 100 10000 0.5 190 08:18 11.10.2019
400 Clear 4 1022 100 10000 0.5 190 07:41 11.10.2019
401 Clear 4 1022 100 10000 1 200 07:22 11.10.2019
402 Clear 4 1022 100 10000 1 200 06:47 11.10.2019
403 Clear 4 1022 93 10000 1.5 210 06:22 11.10.2019
404 Clouds 5 1022 100 10000 1 190 05:37 11.10.2019
405 Clouds 5 1022 93 10000 2.6 190 04:59 11.10.2019
406 Clouds 5 1022 93 10000 2.6 190 04:24 11.10.2019
407 Clear 6 1023 87 10000 1.5 230 02:18 11.10.2019
408 Clear 7 1023 93 10000 3.6 210 00:43 11.10.2019
409 Clear 7 1023 93 10000 3.6 210 00:25 11.10.2019
410 Clear 7 1023 93 10000 0.5 0 23:42 10.10.2019
411 Clear 8 1023 71 10000 1.5 190 23:21 10.10.2019
412 Clouds 8 1023 87 10000 2.6 200 22:57 10.10.2019
413 Clouds 8 1023 71 10000 1 0 22:38 10.10.2019
414 Clear 9 1023 71 10000 0.5 0 22:20 10.10.2019
415 Clear 9 1023 76 10000 0.5 0 21:56 10.10.2019
416 Clouds 9 1023 93 10000 1 0 21:56 10.10.2019
417 Clear 9 1023 76 10000 0.5 0 21:56 10.10.2019
418 Clear 9 1022 93 10000 2.6 210 21:38 10.10.2019
419 Clouds 9 1023 81 10000 1 190 21:20 10.10.2019
420 Clouds 10 1022 71 10000 1 0 20:42 10.10.2019
421 Clouds 10 1022 71 10000 1 0 20:21 10.10.2019
422 Clear 10 1021 87 10000 4.1 220 19:58 10.10.2019
423 Clouds 9 1022 82 10000 1.5 0 19:40 10.10.2019
424 Clouds 10 1022 82 10000 1.5 0 19:20 10.10.2019
425 Clouds 10 1021 81 10000 4.6 250 18:56 10.10.2019
426 Clouds 10 1020 76 10000 7.2 250 18:38 10.10.2019
427 Clouds 12 1021 62 10000 0.5 0 18:19 10.10.2019
428 Clouds 12 1021 71 10000 5.7 280 17:41 10.10.2019
429 Clouds 12 1021 71 10000 5.7 280 17:20 10.10.2019
430 Clouds 12 1021 71 10000 5.7 280 16:58 10.10.2019
431 Rain 12 1021 76 10000 3.6 260 16:40 10.10.2019
432 Rain 12 1021 76 10000 3.6 260 16:21 10.10.2019
433 Clouds 12 1020 67 10000 6.2 280 15:44 10.10.2019
434 Clouds 12 1020 67 10000 6.7 290 15:25 10.10.2019
435 Clouds 12 1019 87 10000 5.7 250 14:59 10.10.2019
436 Clouds 12 1020 67 10000 6.7 290 14:38 10.10.2019
437 Clouds 12 1020 67 10000 6.7 290 14:38 10.10.2019
438 Rain 12 1020 62 10000 6.2 260 14:19 10.10.2019
439 Rain 12 1020 62 10000 6.2 260 13:59 10.10.2019
440 Rain 12 1020 62 10000 6.2 260 13:40 10.10.2019
441 Clouds 12 1020 55 10000 7.7 260 13:18 10.10.2019
442 Rain 11 1020 55 10000 7.7 260 12:55 10.10.2019
443 Rain 11 1019 93 10000 7.2 280 12:37 10.10.2019
444 Rain 11 1019 93 10000 7.7 280 12:18 10.10.2019
445 Rain 12 1019 58 10000 5.7 260 11:42 10.10.2019
446 Clouds 12 1017 71 10000 10.3 260 11:21 10.10.2019
447 Clouds 11 1018 76 10000 9.3 240 10:59 10.10.2019
448 Clouds 11 1019 67 10000 2.1 260 10:41 10.10.2019
449 Clouds 11 1018 67 10000 3.1 230 10:22 10.10.2019
450 Clouds 10 1018 66 10000 2.1 250 09:54 10.10.2019
451 Clouds 10 1018 66 10000 2.1 250 09:36 10.10.2019
452 Clouds 10 1018 66 10000 2.1 250 09:18 10.10.2019
453 Clouds 9 1017 71 10000 1.5 0 08:41 10.10.2019
454 Rain 9 1017 76 10000 1 0 08:21 10.10.2019
455 Rain 9 1016 87 9000 5.1 250 07:58 10.10.2019
456 Rain 8 1016 87 9000 5.1 250 07:37 10.10.2019
457 Rain 8 1017 81 10000 1 0 07:19 10.10.2019
458 Rain 9 1017 81 10000 1 0 06:40 10.10.2019
459 Clouds 9 1015 87 10000 5.7 220 05:57 10.10.2019
460 Rain 8 1017 93 10000 1 0 05:22 10.10.2019
461 Rain 8 1017 93 10000 1 0 05:22 10.10.2019
462 Rain 9 1016 81 10000 4.6 220 04:36 10.10.2019
463 Rain 8 1017 93 10000 1.5 0 02:49 10.10.2019
464 Clouds 9 1017 93 10000 2.6 240 01:41 10.10.2019
465 Rain 9 1017 93 10000 3.6 260 01:22 10.10.2019
466 Clouds 9 1017 87 10000 2.1 230 00:41 10.10.2019
467 Rain 9 1017 87 10000 5.7 280 00:19 10.10.2019
468 Clouds 9 1016 93 10000 2.6 100 23:38 09.10.2019
469 Clouds 9 1016 93 10000 0.5 0 23:19 09.10.2019
470 Clouds 9 1016 93 10000 0.5 0 23:19 09.10.2019
471 Clouds 9 1016 76 10000 3.1 320 22:42 09.10.2019
472 Clouds 9 1015 87 10000 7.2 220 22:23 09.10.2019
473 Clouds 9 1015 87 10000 7.2 220 21:59 09.10.2019
474 Clouds 9 1015 87 10000 6.7 220 21:39 09.10.2019
475 Rain 8 1015 87 10000 5.7 230 21:19 09.10.2019
476 Rain 9 1015 87 10000 5.7 230 20:55 09.10.2019
477 Rain 8 1016 87 10000 2.1 230 20:37 09.10.2019
478 Clouds 9 1016 87 10000 2.1 230 20:18 09.10.2019
479 Clouds 9 1016 87 10000 2.1 230 20:18 09.10.2019
480 Clouds 9 1016 87 10000 2.1 230 20:18 09.10.2019
481 Clouds 9 1016 81 10000 1.5 0 19:45 09.10.2019
482 Rain 9 1016 81 10000 1.5 0 19:23 09.10.2019
483 Drizzle 9 1014 87 10000 8.7 230 18:57 09.10.2019
484 Drizzle 9 1016 81 10000 1 0 18:37 09.10.2019
485 Drizzle 9 1016 81 10000 1 0 18:18 09.10.2019
486 Rain 9 1014 87 10000 8.2 220 17:54 09.10.2019
487 Rain 9 1016 81 10000 2.1 0 17:36 09.10.2019
488 Rain 9 1016 81 10000 2.1 0 17:18 09.10.2019
489 Rain 9 1016 93 8000 1 0 16:40 09.10.2019
490 Rain 9 1016 93 8000 1 0 16:21 09.10.2019
491 Rain 9 1016 93 8000 1 0 16:21 09.10.2019
492 Rain 9 1014 87 10000 11.8 300 15:57 09.10.2019
493 Rain 9 1014 87 10000 11.8 300 15:57 09.10.2019
494 Rain 9 1014 87 10000 11.8 300 15:39 09.10.2019
495 Rain 10 1015 100 8000 6.7 280 15:19 09.10.2019
496 Rain 10 1014 87 10000 7.2 250 14:56 09.10.2019
497 Rain 10 1015 100 7000 1 0 14:37 09.10.2019
498 Rain 10 1015 100 7000 1 0 14:18 09.10.2019
499 Rain 10 1015 100 7000 1 0 14:18 09.10.2019
500 Rain 10 1013 93 10000 4.1 200 13:39 09.10.2019
501 Rain 10 1014 100 10000 1 0 13:20 09.10.2019
502 Rain 10 1014 100 6000 1.5 260 12:57 09.10.2019
503 Rain 10 1014 100 6000 1.5 260 12:38 09.10.2019
504 Rain 10 1014 100 6000 1.5 260 12:20 09.10.2019
505 Rain 10 1014 100 6000 1.5 260 11:55 09.10.2019
506 Rain 10 1014 100 6000 1.5 260 11:55 09.10.2019
507 Rain 10 1014 100 6000 1.5 260 11:36 09.10.2019
508 Rain 10 1014 100 6000 1.5 260 11:36 09.10.2019
509 Rain 10 1015 100 8000 1.5 0 11:18 09.10.2019
510 Rain 10 1015 100 8000 1.5 0 10:42 09.10.2019
511 Rain 10 1015 100 5000 1.5 0 10:20 09.10.2019
512 Rain 10 1014 100 5000 2.6 200 09:56 09.10.2019
513 Rain 10 1015 100 5000 1.5 0 09:38 09.10.2019
514 Rain 10 1015 100 6000 2.1 40 09:18 09.10.2019
515 Rain 10 1015 100 6000 2.1 40 08:39 09.10.2019
516 Rain 10 1014 100 9000 2.1 30 08:20 09.10.2019
517 Rain 11 1014 100 9000 2.1 30 07:47 09.10.2019
518 Rain 11 1014 100 8000 2.1 240 07:25 09.10.2019
519 Rain 11 1014 100 8000 2.1 240 07:25 09.10.2019
520 Rain 11 1014 100 8000 2.1 240 07:25 09.10.2019
521 Rain 11 1014 100 8000 2.1 240 07:25 09.10.2019
522 Rain 11 1014 100 10000 2.1 200 06:59 09.10.2019
523 Rain 11 1014 100 9000 1.5 0 06:41 09.10.2019
524 Rain 12 1014 100 7000 3.6 310 05:53 09.10.2019
525 Rain 12 1013 100 3600 1.5 110 05:18 09.10.2019
526 Rain 13 1014 100 6000 2.6 270 03:48 09.10.2019
527 Rain 14 1014 93 4400 4.1 280 02:34 09.10.2019
528 Clouds 14 1012 88 10000 1.5 0 01:39 09.10.2019
529 Clouds 14 1012 88 10000 1.5 0 01:39 09.10.2019
530 Rain 14 1012 93 10000 2.1 0 01:18 09.10.2019
531 Rain 14 1011 72 10000 5.7 220 00:55 09.10.2019
532 Rain 14 1011 72 10000 5.7 220 00:55 09.10.2019
533 Rain 14 1011 72 10000 5.1 230 00:36 09.10.2019
534 Clouds 14 1012 100 10000 1.5 0 00:18 09.10.2019
535 Clear 14 1012 93 10000 1.5 90 23:38 08.10.2019
536 Clear 14 1012 100 10000 1 0 23:18 08.10.2019
537 Clouds 14 1012 67 10000 7.2 220 22:55 08.10.2019
538 Clear 14 1012 93 10000 1.5 0 22:36 08.10.2019
539 Clear 14 1012 93 10000 0.5 0 22:18 08.10.2019
540 Clear 14 1012 71 10000 5.1 230 21:55 08.10.2019
541 Clear 14 1012 93 10000 1 0 21:36 08.10.2019
542 Clouds 14 1013 93 10000 1 220 21:18 08.10.2019
543 Clouds 14 1013 93 10000 1 0 20:54 08.10.2019
544 Clouds 14 1013 93 10000 1 0 20:36 08.10.2019
545 Clouds 14 1013 93 10000 1 0 20:18 08.10.2019
546 Clear 14 1013 93 10000 1 210 19:41 08.10.2019
547 Clouds 14 1013 87 10000 1 0 19:23 08.10.2019
548 Clouds 15 1013 87 10000 1 0 18:57 08.10.2019
549 Clear 15 1013 82 10000 1 0 18:39 08.10.2019
550 Clear 15 1013 82 10000 1 0 18:19 08.10.2019
551 Clear 16 1013 77 10000 1.5 20 17:56 08.10.2019
552 Clear 16 1013 77 10000 1.5 20 17:56 08.10.2019
553 Clear 16 1013 77 10000 1.5 20 17:38 08.10.2019
554 Clouds 16 1013 72 10000 2.1 50 17:18 08.10.2019
555 Clouds 16 1014 63 10000 1.5 60 16:41 08.10.2019
556 Clouds 16 1014 63 10000 1.5 60 16:22 08.10.2019
557 Clouds 16 1013 67 10000 6.7 220 15:57 08.10.2019
558 Clouds 16 1015 71 10000 1 0 15:37 08.10.2019
559 Clouds 15 1015 71 10000 1 0 15:19 08.10.2019
560 Clouds 15 1015 71 10000 1 0 15:19 08.10.2019
561 Clouds 15 1015 67 10000 1 0 14:42 08.10.2019
562 Clouds 15 1015 67 10000 1 0 14:21 08.10.2019
563 Clouds 15 1014 58 10000 7.7 230 13:58 08.10.2019
564 Clouds 14 1016 76 10000 2.1 300 13:39 08.10.2019
565 Clouds 14 1016 76 10000 2.1 300 13:20 08.10.2019
566 Clouds 14 1015 62 10000 8.2 230 12:59 08.10.2019
567 Clouds 13 1015 71 10000 9.3 220 12:38 08.10.2019
568 Clouds 12 1017 93 10000 1 30 12:19 08.10.2019
569 Clouds 12 1017 93 10000 1 30 11:43 08.10.2019
570 Rain 11 1015 76 10000 8.2 220 11:24 08.10.2019
571 Rain 11 1015 76 10000 8.2 220 11:24 08.10.2019
572 Rain 11 1017 71 10000 3.1 230 10:59 08.10.2019
573 Rain 10 1017 93 10000 1.5 90 10:39 08.10.2019
574 Clouds 10 1017 93 10000 1.5 90 10:20 08.10.2019
575 Clouds 10 1017 93 10000 1.5 90 10:20 08.10.2019
576 Clouds 9 1016 76 10000 6.7 220 09:57 08.10.2019
577 Clouds 9 1018 100 10000 1 0 09:39 08.10.2019
578 Clouds 8 1018 100 10000 1 0 09:19 08.10.2019
579 Clear 8 1017 100 10000 1 0 08:42 08.10.2019
580 Clear 7 1017 100 10000 1 0 08:24 08.10.2019
581 Clear 7 1017 100 10000 1.5 0 07:45 08.10.2019
582 Clear 6 1017 100 10000 1.5 0 07:21 08.10.2019
583 Clear 6 1018 100 10000 1.5 90 06:53 08.10.2019
584 Clear 6 1018 100 10000 1.5 90 06:29 08.10.2019
585 Clear 6 1018 100 10000 2.1 100 05:55 08.10.2019
586 Clear 6 1017 87 10000 5.1 210 05:55 08.10.2019
587 Clear 6 1018 100 10000 2.1 100 05:36 08.10.2019
588 Clear 6 1019 100 10000 1.5 100 04:33 08.10.2019
589 Clouds 7 1018 87 10000 4.6 210 03:29 08.10.2019
590 Clear 6 1019 93 10000 2.1 110 02:39 08.10.2019
591 Clear 6 1020 100 10000 1.5 0 01:47 08.10.2019
592 Clouds 6 1019 93 10000 3.1 200 01:28 08.10.2019
593 Clouds 6 1020 100 10000 1 0 00:48 08.10.2019
594 Clouds 6 1020 100 10000 1 0 00:21 08.10.2019
595 Clouds 6 1020 100 10000 1 0 23:41 07.10.2019
596 Clouds 7 1020 100 10000 1.5 0 23:20 07.10.2019
597 Clouds 7 1020 100 10000 1.5 0 23:20 07.10.2019
598 Clouds 6 1019 87 10000 2.1 190 22:57 07.10.2019
599 Clear 6 1020 100 10000 1.5 100 22:39 07.10.2019
600 Clear 7 1020 93 10000 1 0 22:20 07.10.2019
601 Clear 7 1019 93 10000 1.5 170 21:57 07.10.2019
602 Clear 7 1020 93 10000 1 0 21:38 07.10.2019
603 Clear 7 1019 87 10000 3.1 210 21:20 07.10.2019
604 Clear 7 1019 87 10000 3.1 210 20:58 07.10.2019
605 Clear 7 1019 87 10000 2.1 200 20:39 07.10.2019
606 Clear 8 1019 81 10000 2.1 200 20:20 07.10.2019
607 Clear 8 1019 87 10000 2.6 180 19:58 07.10.2019
608 Clear 8 1019 93 10000 1.5 180 19:39 07.10.2019
609 Clear 9 1019 81 10000 3.1 200 19:19 07.10.2019
610 Clouds 10 1019 62 10000 1 0 18:56 07.10.2019
611 Clear 10 1019 81 10000 3.1 200 18:56 07.10.2019
612 Clouds 11 1019 62 10000 1 0 18:38 07.10.2019
613 Clouds 12 1019 62 10000 1 0 18:18 07.10.2019
614 Clouds 12 1019 67 10000 2.1 30 17:43 07.10.2019
615 Clear 13 1019 67 10000 1 0 17:20 07.10.2019
616 Clouds 13 1019 71 10000 2.1 30 16:56 07.10.2019
617 Clouds 13 1019 71 10000 2.1 30 16:38 07.10.2019
618 Clouds 14 1019 71 10000 2.6 100 16:19 07.10.2019
619 Clouds 13 1019 71 10000 2.6 100 15:44 07.10.2019
620 Clouds 12 1018 62 10000 5.1 230 15:25 07.10.2019
621 -273 0 0 0 0 0 14:43 07.10.2019
622 Clouds 12 1020 76 10000 1 0 14:24 07.10.2019
623 Clouds 12 1020 76 10000 1 0 14:24 07.10.2019
624 Clouds 12 1020 76 10000 1 0 13:59 07.10.2019
625 Clouds 11 1020 76 10000 1 0 13:41 07.10.2019
626 Rain 11 1020 81 10000 2.6 310 13:19 07.10.2019
627 Clouds 11 1019 81 10000 3.1 300 12:55 07.10.2019
628 Clouds 11 1020 81 10000 2.6 310 12:37 07.10.2019
629 Clouds 10 1019 81 10000 1.5 0 12:18 07.10.2019
630 Clouds 10 1019 81 10000 1.5 0 11:56 07.10.2019
631 Clouds 10 1019 81 10000 1.5 0 11:37 07.10.2019
632 Rain 10 1019 87 10000 1.5 90 11:18 07.10.2019
633 -273 0 0 0 0 0 10:41 07.10.2019
634 Clouds 9 1018 93 10000 2.1 110 10:20 07.10.2019
635 Clouds 9 1018 93 10000 2.1 110 10:20 07.10.2019
636 Clouds 8 1018 100 10000 2.1 110 09:42 07.10.2019
637 Clouds 8 1018 93 10000 1 0 09:23 07.10.2019
638 Clouds 8 1017 93 10000 5.1 240 08:56 07.10.2019
639 Clouds 8 1018 93 10000 1 0 08:38 07.10.2019
640 Clouds 7 1016 93 10000 4.6 230 08:19 07.10.2019
641 Rain 7 1016 93 10000 4.6 230 07:41 07.10.2019
642 Drizzle 7 1016 100 8000 5.7 270 07:21 07.10.2019
643 Drizzle 7 1016 100 8000 5.7 270 07:21 07.10.2019
644 Rain 7 1016 81 10000 2.6 280 06:48 07.10.2019
645 Rain 8 1016 93 10000 1 0 06:27 07.10.2019
646 Rain 8 1016 76 10000 3.6 260 05:42 07.10.2019
647 Clouds 8 1015 81 10000 1.5 0 05:21 07.10.2019
648 Mist 8 1015 93 10000 1 0 04:23 07.10.2019
649 Mist 8 1015 93 10000 2.6 100 03:44 07.10.2019
650 Rain 8 1015 93 10000 1 0 03:19 07.10.2019
651 Rain 8 1015 93 10000 1 0 03:19 07.10.2019
652 Rain 8 1015 93 10000 2.1 240 02:20 07.10.2019
653 Rain 8 1015 93 10000 2.1 240 02:20 07.10.2019
654 Rain 8 1014 100 10000 3.6 240 01:47 07.10.2019
655 Rain 9 1014 100 10000 6.2 260 01:19 07.10.2019
656 Rain 10 1012 100 3600 11.8 270 00:38 07.10.2019
657 Rain 10 1011 100 4200 1 0 00:19 07.10.2019
658 Rain 10 1010 100 3500 0.5 0 23:42 06.10.2019
659 Rain 10 1010 100 3500 0.5 0 23:42 06.10.2019
660 Rain 10 1010 100 9000 1.5 100 23:21 06.10.2019
661 Rain 10 1010 93 10000 5.1 220 22:59 06.10.2019
662 Rain 10 1010 100 10000 2.6 120 22:40 06.10.2019
663 Rain 10 1011 100 5000 1 0 22:21 06.10.2019
664 Rain 10 1011 100 5000 1 0 22:21 06.10.2019
665 Rain 10 1010 100 10000 3.6 180 21:57 06.10.2019
666 Rain 10 1011 93 5000 1.5 0 21:37 06.10.2019
667 Rain 10 1011 100 10000 2.1 110 21:19 06.10.2019
668 Rain 10 1011 100 5000 1.5 220 20:57 06.10.2019
669 Rain 10 1011 100 10000 2.1 110 20:38 06.10.2019
670 Rain 11 1011 100 10000 2.1 110 20:20 06.10.2019
671 Rain 11 1012 100 8000 1 0 19:57 06.10.2019
672 Rain 11 1012 100 8000 1 0 19:37 06.10.2019
673 Rain 11 1012 100 8000 1 0 19:19 06.10.2019
674 Rain 11 1012 100 10000 1.5 80 18:56 06.10.2019
675 Rain 11 1012 100 10000 1.5 80 18:38 06.10.2019
676 Drizzle 11 1012 100 8000 0.5 0 18:19 06.10.2019
677 Drizzle 11 1012 100 8000 0.5 0 18:19 06.10.2019
678 Rain 11 1013 100 10000 1.5 80 17:43 06.10.2019
679 Rain 11 1013 100 10000 1.5 80 17:43 06.10.2019
680 Rain 11 1013 100 10000 1.5 80 17:20 06.10.2019
681 Drizzle 11 1014 93 10000 1.5 90 16:58 06.10.2019
682 Drizzle 11 1014 93 10000 1.5 90 16:40 06.10.2019
683 Clouds 11 1014 93 10000 1.5 90 16:22 06.10.2019
684 Clouds 11 1014 93 9000 1.5 0 15:45 06.10.2019
685 Rain 12 1015 93 9000 1.5 0 15:22 06.10.2019
686 Rain 11 1014 93 10000 1 0 14:58 06.10.2019
687 Rain 11 1015 93 8000 0.5 0 14:40 06.10.2019
688 Rain 12 1015 93 8000 0.5 0 14:21 06.10.2019
689 Rain 12 1015 87 10000 1 0 13:55 06.10.2019
690 Clouds 11 1016 93 7000 1.5 280 13:37 06.10.2019
691 Clouds 11 1016 93 7000 1.5 280 13:18 06.10.2019
692 Clouds 11 1016 93 7000 1 0 12:55 06.10.2019
693 Clouds 11 1016 93 10000 1 0 12:55 06.10.2019
694 Clouds 11 1016 93 7000 1 0 12:37 06.10.2019
695 Clouds 11 1016 93 10000 1 0 12:19 06.10.2019
696 Mist 10 1016 93 7000 1 0 11:42 06.10.2019
697 Mist 10 1016 93 5000 1 0 11:24 06.10.2019
698 Mist 10 1016 93 5000 1 0 11:24 06.10.2019
699 Clouds 10 1017 93 10000 0.5 0 10:56 06.10.2019
700 Clouds 10 1017 93 10000 0.5 0 10:56 06.10.2019
701 Clouds 9 1017 100 6000 1 0 10:38 06.10.2019
702 Clouds 9 1017 100 6000 1 0 10:19 06.10.2019
703 Rain 8 1017 100 10000 1 0 09:41 06.10.2019
704 Drizzle 8 1017 100 10000 0.5 0 09:20 06.10.2019
705 Clouds 7 1017 100 9000 0.5 0 08:49 06.10.2019
706 Clouds 7 1017 100 5000 0.5 0 08:24 06.10.2019
707 Clouds 7 1017 100 8000 1.5 50 07:59 06.10.2019
708 Clouds 7 1017 100 8000 1.5 50 07:59 06.10.2019
709 Clouds 7 1017 100 5000 0.5 0 07:40 06.10.2019
710 Rain 7 1017 100 2500 2.1 270 06:53 06.10.2019
711 Drizzle 7 1017 100 5000 1.5 0 05:41 06.10.2019
712 Rain 7 1017 100 3400 1 0 04:40 06.10.2019
713 Drizzle 7 1018 93 10000 1.5 30 02:56 06.10.2019
714 Rain 7 1018 100 500 0.61 163.482 02:32 06.10.2019
715 Rain 7 1018 100 9000 0.5 0 01:49 06.10.2019
716 Drizzle 7 1018 100 5000 1 50 01:30 06.10.2019
717 Rain 7 1018 100 9000 0.5 0 01:30 06.10.2019
718 Drizzle 7 1018 100 10000 1.5 230 00:59 06.10.2019
719 Rain 7 1018 100 10000 1 250 00:36 06.10.2019
720 Rain 7 1018 100 10000 1 0 00:18 06.10.2019
721 Rain 7 1018 100 9000 1.5 0 23:40 05.10.2019
722 Rain 8 1018 100 10000 1 0 23:19 05.10.2019
723 Clouds 8 1018 100 10000 1.5 230 22:54 05.10.2019
724 Rain 8 1018 93 10000 2.1 80 22:54 05.10.2019
725 Rain 8 1018 100 10000 2.6 90 22:36 05.10.2019
726 Rain 8 1018 100 10000 2.6 220 22:18 05.10.2019
727 Rain 8 1018 100 10000 2.6 220 22:18 05.10.2019
728 Rain 8 1018 100 8000 2.1 230 21:41 05.10.2019
729 Drizzle 8 1017 93 10000 2.1 70 21:22 05.10.2019
730 Rain 8 1018 93 10000 2.1 80 20:57 05.10.2019
731 Rain 9 1017 93 6000 3.6 60 20:39 05.10.2019
732 Rain 8 1018 93 10000 2.1 60 20:19 05.10.2019
733 Rain 8 1018 93 10000 2.1 60 20:19 05.10.2019
734 Rain 9 1017 100 4000 2.6 120 19:41 05.10.2019
735 Rain 9 1016 100 5000 1 0 19:22 05.10.2019
736 Rain 9 1016 100 5000 1 0 18:58 05.10.2019
737 Rain 9 1016 100 5000 1 0 18:39 05.10.2019
738 Rain 10 1016 100 5000 1.5 290 18:21 05.10.2019
739 Rain 10 1016 93 10000 3.6 350 17:59 05.10.2019
740 Rain 10 1016 100 5000 1.5 290 17:40 05.10.2019
741 Rain 10 1015 87 10000 3.6 360 17:21 05.10.2019
742 Rain 11 1015 87 6000 7.2 280 16:42 05.10.2019
743 Rain 10 1015 87 10000 5.1 360 16:23 05.10.2019
744 Rain 11 1015 87 10000 5.1 360 15:59 05.10.2019
745 Rain 11 1014 77 10000 3.1 270 15:40 05.10.2019
746 Rain 11 1014 82 10000 4.1 270 15:21 05.10.2019
747 Rain 11 1014 82 10000 4.1 270 14:58 05.10.2019
748 Rain 11 1014 82 10000 4.1 270 14:58 05.10.2019
749 Clouds 12 1014 82 10000 4.1 270 14:40 05.10.2019
750 Clouds 11 1014 77 10000 5.1 270 14:20 05.10.2019
751 Clouds 11 1014 77 10000 5.1 270 13:42 05.10.2019
752 Rain 11 1014 77 10000 4.1 260 13:23 05.10.2019
753 Rain 11 1013 76 10000 5.1 270 12:47 05.10.2019
754 Rain 11 1013 76 10000 5.1 270 12:21 05.10.2019
755 Rain 11 1013 76 10000 5.1 270 12:21 05.10.2019
756 Rain 11 1012 93 8000 7.2 250 11:59 05.10.2019
757 Rain 11 1014 76 10000 5.1 270 11:39 05.10.2019
758 Rain 10 1013 76 10000 4.1 260 11:19 05.10.2019
759 Rain 10 1013 76 10000 4.1 260 10:45 05.10.2019
760 Rain 10 1012 82 10000 4.1 260 10:26 05.10.2019
761 Rain 10 1012 82 10000 4.1 260 09:59 05.10.2019
762 Rain 10 1012 82 10000 4.1 260 09:39 05.10.2019
763 Clouds 10 1012 87 10000 1.5 0 09:20 05.10.2019
764 Rain 9 1012 87 10000 1.5 0 08:40 05.10.2019
765 Rain 9 1012 87 10000 3.1 270 08:20 05.10.2019
766 Rain 9 1010 87 10000 7.2 230 07:57 05.10.2019
767 Rain 9 1010 87 10000 7.2 230 07:35 05.10.2019
768 Clouds 9 1010 87 10000 7.2 230 06:59 05.10.2019
769 Clouds 9 1012 76 10000 2.1 260 06:28 05.10.2019
770 Clouds 9 1010 87 10000 6.7 230 06:28 05.10.2019
771 Rain 9 1012 76 10000 3.1 270 05:51 05.10.2019
772 Rain 9 1010 93 10000 7.2 230 03:57 05.10.2019
773 Rain 9 1012 71 10000 2.1 240 03:28 05.10.2019
774 Rain 10 1012 71 10000 0.5 0 01:41 05.10.2019
775 Clouds 10 1012 66 10000 1 0 01:20 05.10.2019
776 Clouds 10 1012 66 10000 1.5 220 00:43 05.10.2019
777 Clear 9 1013 76 10000 2.1 260 00:23 05.10.2019
778 Clear 9 1013 71 10000 3.6 260 23:44 04.10.2019
779 Rain 10 1011 81 10000 8.2 240 23:25 04.10.2019
780 Rain 10 1012 81 10000 4.1 250 22:59 04.10.2019
781 Clouds 10 1012 82 10000 2.6 250 22:39 04.10.2019
782 Rain 10 1012 87 10000 3.1 260 22:20 04.10.2019
783 Rain 10 1010 93 10000 6.2 230 21:56 04.10.2019
784 Rain 10 1012 87 10000 3.6 280 21:38 04.10.2019
785 Rain 10 1012 87 10000 3.6 280 21:19 04.10.2019
786 Rain 10 1011 87 8000 6.2 280 20:54 04.10.2019
787 Rain 10 1011 87 8000 6.2 280 20:36 04.10.2019
788 Rain 10 1009 100 9000 7.2 260 20:18 04.10.2019
789 Drizzle 10 1010 87 10000 6.7 290 19:41 04.10.2019
790 Drizzle 10 1010 87 10000 6.7 290 19:23 04.10.2019
791 Clouds 10 1009 100 10000 5.7 230 18:57 04.10.2019
792 Rain 10 1010 82 10000 3.1 270 18:38 04.10.2019
793 Rain 10 1009 87 10000 8.2 270 18:19 04.10.2019
794 Rain 10 1010 100 10000 2.1 80 17:42 04.10.2019
795 Rain 10 1010 100 10000 2.1 80 17:42 04.10.2019
796 Rain 10 1010 93 8000 1 0 17:22 04.10.2019
797 Rain 10 1009 93 10000 7.7 230 16:59 04.10.2019
798 Rain 10 1010 93 8000 1 0 16:41 04.10.2019
799 Rain 10 1010 93 8000 1 0 16:41 04.10.2019
800 Drizzle 10 1011 93 10000 1.5 0 16:19 04.10.2019
801 Rain 9 1011 93 10000 2.6 100 15:58 04.10.2019
802 Rain 9 1011 93 10000 2.6 100 15:39 04.10.2019
803 Rain 9 1011 93 9000 2.6 100 15:21 04.10.2019
804 Rain 9 1010 93 9000 8.2 220 14:58 04.10.2019
805 Rain 9 1011 93 10000 3.6 90 14:39 04.10.2019
806 Rain 9 1012 87 10000 1 0 14:21 04.10.2019
807 Rain 9 1012 87 10000 1 0 13:45 04.10.2019
808 Rain 9 1012 87 10000 0.5 0 13:24 04.10.2019
809 Rain 9 1011 76 10000 7.7 220 12:58 04.10.2019
810 Rain 10 1013 93 10000 3.1 100 12:40 04.10.2019
811 Rain 9 1013 87 10000 3.1 100 12:21 04.10.2019
812 Rain 9 1014 87 10000 1.5 0 11:43 04.10.2019
813 Rain 9 1014 87 10000 1.5 0 11:42 04.10.2019
814 Rain 9 1014 87 10000 1 0 11:21 04.10.2019
815 Rain 9 1013 87 10000 1 0 10:42 04.10.2019
816 Clouds 8 1013 93 10000 0.5 0 10:22 04.10.2019
817 Clear 7 1013 81 10000 2.6 230 09:58 04.10.2019
818 Clouds 8 1013 93 10000 0.5 0 09:58 04.10.2019
819 Clouds 8 1013 93 10000 0.5 0 09:58 04.10.2019
820 Clouds 7 1013 100 10000 0.5 0 09:40 04.10.2019
821 Clouds 7 1013 100 10000 0.5 0 09:40 04.10.2019
822 Clouds 7 1013 100 10000 0.5 0 09:22 04.10.2019
823 Clear 5 1012 100 10000 1 0 08:45 04.10.2019
824 Clouds 5 1013 100 10000 0.5 0 08:26 04.10.2019
825 Clouds 4 1013 100 10000 0.5 0 07:47 04.10.2019
826 Clear 4 1014 100 10000 1 90 07:24 04.10.2019
827 Clear 4 1014 100 10000 1 90 06:58 04.10.2019
828 Clear 4 1014 100 10000 0.5 0 06:39 04.10.2019
829 Clear 4 1014 100 10000 0.5 0 06:20 04.10.2019
830 Clear 4 1015 100 10000 1 0 05:20 04.10.2019
831 Clear 4 1015 93 10000 0.5 0 04:37 04.10.2019
832 Clouds 4 1015 100 10000 1.5 141.185 02:56 04.10.2019
833 Clouds 4 1015 100 10000 1.5 141.185 02:56 04.10.2019
834 Clouds 4 1016 100 10000 1.5 20 02:37 04.10.2019
835 Clear 4 1016 93 10000 1.5 0 01:53 04.10.2019
836 Clouds 4 1016 100 10000 1 140 01:26 04.10.2019
837 Clear 4 1017 100 10000 1.5 0 00:32 04.10.2019
838 Clouds 4 1018 93 10000 2.1 110 23:39 03.10.2019
839 Clear 4 1018 93 10000 1.5 150 23:21 03.10.2019
840 Clouds 4 1018 93 10000 2.6 150 22:57 03.10.2019
841 Clouds 5 1019 87 10000 1 0 22:39 03.10.2019
842 Clouds 5 1019 87 10000 1 0 22:21 03.10.2019
843 Clouds 5 1019 87 10000 1 0 22:21 03.10.2019
844 Clear 5 1019 93 10000 1.5 120 21:57 03.10.2019
845 Clear 5 1019 93 10000 1.5 120 21:39 03.10.2019
846 Clear 5 1018 76 10000 1.5 0 21:19 03.10.2019
847 Clear 6 1018 93 10000 2.1 140 20:57 03.10.2019
848 Clear 6 1018 76 10000 1.5 0 20:38 03.10.2019
849 Clear 6 1018 76 10000 1.5 0 20:38 03.10.2019
850 Clear 6 1018 76 10000 2.1 190 20:19 03.10.2019
851 Clear 6 1018 81 10000 0.5 0 19:55 03.10.2019
852 Clear 7 1018 87 10000 0.5 0 19:36 03.10.2019
853 Clear 8 1018 58 10000 0.5 0 19:18 03.10.2019
854 Clear 9 1018 58 10000 0.5 0 18:54 03.10.2019
855 Clear 9 1018 58 10000 0.5 0 18:36 03.10.2019
856 Clear 11 1018 58 10000 1 0 18:18 03.10.2019
857 Clouds 11 1018 62 10000 1.5 290 17:42 03.10.2019
858 Clouds 11 1018 62 10000 1.5 290 17:21 03.10.2019
859 Clouds 12 1019 71 10000 2.1 320 16:54 03.10.2019
860 Clouds 12 1019 71 10000 2.1 320 16:54 03.10.2019
861 -273 0 0 0 0 0 16:54 03.10.2019
862 Clouds 12 1019 71 10000 2.1 320 16:36 03.10.2019
863 Clouds 12 1019 71 10000 2.1 320 16:18 03.10.2019
864 Clear 11 1019 66 10000 2.1 300 15:42 03.10.2019
865 Clouds 11 1019 66 10000 1.5 310 15:23 03.10.2019
866 Clouds 11 1019 70 10000 3.1 270 14:56 03.10.2019
867 Clouds 11 1019 70 10000 3.1 270 14:56 03.10.2019
868 Clouds 11 1019 66 10000 1.5 310 14:36 03.10.2019
869 Clouds 11 1020 76 10000 1.5 0 14:18 03.10.2019
870 Clouds 11 1020 76 10000 1.5 0 13:43 03.10.2019
871 Clouds 10 1021 81 10000 2.1 340 13:22 03.10.2019
872 Clouds 10 1020 62 10000 1 0 12:58 03.10.2019
873 Clouds 10 1021 81 10000 2.1 340 12:39 03.10.2019
874 Clouds 9 1021 76 10000 2.6 310 12:19 03.10.2019
875 -273 0 0 0 0 0 11:56 03.10.2019
876 Clouds 9 1021 76 10000 2.6 310 11:56 03.10.2019
877 Clouds 9 1020 70 10000 4.6 240 11:56 03.10.2019
878 Clouds 8 1020 70 10000 4.6 240 11:37 03.10.2019
879 Clouds 8 1021 81 10000 1 0 11:19 03.10.2019
880 Clouds 8 1021 81 10000 1 0 10:42 03.10.2019
881 Clouds 8 1021 87 10000 1.5 80 10:19 03.10.2019
882 Clear 7 1020 81 10000 4.1 260 09:59 03.10.2019
883 Clouds 7 1021 93 10000 2.6 90 09:40 03.10.2019
884 Clouds 6 1021 100 10000 1.5 120 09:22 03.10.2019
885 Clouds 6 1020 93 10000 2.1 200 08:59 03.10.2019
886 Clouds 5 1021 93 10000 1.5 120 08:40 03.10.2019
887 Drizzle 5 1020 93 10000 2.1 250 08:22 03.10.2019
888 Drizzle 5 1020 100 10000 2.1 250 07:41 03.10.2019
889 Clouds 5 1020 93 10000 0.5 0 07:19 03.10.2019
890 Clouds 5 1020 100 10000 0.5 0 06:51 03.10.2019
891 Clouds 5 1020 100 10000 0.5 0 06:25 03.10.2019
892 Clouds 5 1020 100 10000 1 190 05:47 03.10.2019
893 Clouds 5 1019 100 10000 0.5 0 05:20 03.10.2019
894 Clouds 5 1019 100 10000 0.5 0 04:39 03.10.2019
895 Clouds 5 1020 93 10000 1.5 80 03:26 03.10.2019
896 Clouds 5 1020 87 10000 1.5 0 02:43 03.10.2019
897 Rain 6 1020 93 10000 2.6 250 01:59 03.10.2019
898 Rain 6 1020 93 10000 2.6 250 01:37 03.10.2019
899 Rain 6 1019 93 9000 7.7 310 00:51 03.10.2019
900 Rain 6 1018 93 10000 1.5 100 00:26 03.10.2019
901 Rain 6 1019 100 10000 1 0 23:44 02.10.2019
902 Rain 6 1018 93 10000 1.5 0 23:22 02.10.2019
903 Rain 7 1018 93 10000 1 0 22:47 02.10.2019
904 Rain 7 1018 87 10000 1 0 22:23 02.10.2019
905 Drizzle 7 1017 93 10000 3.1 240 21:58 02.10.2019
906 Drizzle 7 1017 93 10000 1 190 21:39 02.10.2019
907 Rain 7 1017 93 10000 1 190 21:20 02.10.2019
908 Rain 8 1015 93 10000 2.6 230 20:57 02.10.2019
909 Rain 8 1016 100 10000 1 0 20:39 02.10.2019
910 Rain 8 1015 87 10000 3.1 330 20:20 02.10.2019
911 Rain 8 1014 93 10000 2.6 340 19:57 02.10.2019
912 Rain 8 1015 87 10000 3.1 330 19:39 02.10.2019
913 Rain 8 1014 87 10000 7.2 320 19:20 02.10.2019
914 Rain 9 1012 87 10000 6.7 330 18:57 02.10.2019
915 Rain 9 1012 100 5000 7.2 340 18:38 02.10.2019
916 Rain 11 1010 87 5000 5.7 290 18:19 02.10.2019
917 Rain 11 1010 93 10000 7.7 340 17:56 02.10.2019
918 Rain 13 1009 77 10000 4.1 260 17:36 02.10.2019
919 Rain 13 1009 77 10000 2.6 250 17:18 02.10.2019
920 Rain 13 1009 82 10000 4.1 250 16:41 02.10.2019
921 Rain 14 1007 46 10000 2.6 20 16:21 02.10.2019
922 Rain 15 1009 59 10000 4.6 260 15:57 02.10.2019
923 Clouds 14 1009 63 10000 5.7 270 15:38 02.10.2019
924 Clouds 15 1009 63 10000 5.7 270 15:19 02.10.2019
925 Clouds 15 1009 72 10000 5.7 270 14:56 02.10.2019
926 Clouds 14 1009 72 10000 5.7 270 14:38 02.10.2019
927 Clouds 14 1009 72 10000 5.7 270 14:19 02.10.2019
928 Clouds 14 1009 77 10000 5.1 270 13:43 02.10.2019
929 Clouds 15 1009 77 10000 5.1 270 13:23 02.10.2019
930 Rain 14 1009 87 10000 3.1 270 12:56 02.10.2019
931 Clouds 14 1009 87 10000 3.1 270 12:37 02.10.2019
932 Clouds 13 1009 87 10000 3.1 270 12:18 02.10.2019
933 Rain 13 1009 87 10000 6.7 280 11:43 02.10.2019
934 Rain 13 1009 87 10000 6.7 280 11:22 02.10.2019
935 Rain 13 1009 87 10000 6.7 280 10:41 02.10.2019
936 Rain 13 1008 82 10000 1 0 10:20 02.10.2019
937 Rain 13 1008 93 10000 0.5 0 09:56 02.10.2019
938 Clouds 13 1007 93 10000 1 0 09:36 02.10.2019
939 Clouds 12 1007 93 10000 1 0 09:18 02.10.2019
940 Clouds 12 1007 93 10000 2.1 70 08:42 02.10.2019
941 Clouds 12 1007 93 10000 2.1 70 08:22 02.10.2019
942 Rain 12 1007 93 10000 2.1 70 07:55 02.10.2019
943 Rain 12 1007 93 10000 2.1 20 07:37 02.10.2019
944 Rain 11 1007 93 10000 2.1 20 07:19 02.10.2019
945 Rain 12 1006 87 10000 0.5 0 06:31 02.10.2019
946 Rain 12 1006 93 10000 1.5 250 05:52 02.10.2019
947 Clouds 12 1006 87 10000 1 0 05:23 02.10.2019
948 Clouds 12 1006 87 10000 2.1 0 04:41 02.10.2019
949 Rain 12 1007 100 10000 2.1 150 03:51 02.10.2019
950 Clouds 12 1008 100 10000 1.5 130 02:39 02.10.2019
951 Clouds 12 1008 100 10000 1.5 130 02:20 02.10.2019
952 Rain 13 1008 100 10000 1 0 01:18 02.10.2019
953 Rain 13 1008 93 10000 4.1 110 00:30 02.10.2019
954 Rain 14 1008 93 10000 2.1 0 23:59 01.10.2019
955 Rain 14 1008 82 10000 2.1 0 23:41 01.10.2019
956 Rain 14 1008 82 10000 2.1 0 23:41 01.10.2019
957 Rain 14 1008 82 10000 2.1 0 23:22 01.10.2019
958 Rain 14 1008 82 10000 4.6 250 22:58 01.10.2019
959 Rain 14 1008 93 10000 3.1 250 22:38 01.10.2019
960 Rain 14 1008 93 10000 3.1 250 22:18 01.10.2019
961 Rain 15 1008 82 7000 4.6 280 21:43 01.10.2019
962 Rain 15 1008 82 7000 4.6 280 21:43 01.10.2019
963 Thunderstorm 15 1008 72 10000 4.6 300 21:23 01.10.2019
964 Clouds 16 1007 68 10000 1.5 240 20:59 01.10.2019
965 Clouds 16 1007 68 10000 1.5 240 20:59 01.10.2019
966 Clouds 16 1007 82 10000 2.1 290 20:39 01.10.2019
967 Clouds 16 1007 82 10000 2.1 290 20:20 01.10.2019
968 Clouds 16 1007 88 10000 0.5 0 19:58 01.10.2019
969 Clouds 16 1007 82 10000 1 250 19:40 01.10.2019
970 Clouds 16 1007 82 10000 1 250 19:21 01.10.2019
971 Rain 17 1007 72 10000 1 250 18:56 01.10.2019
972 Clear 18 1006 72 10000 1 120 18:38 01.10.2019
973 Clear 19 1006 72 10000 1 120 18:19 01.10.2019
974 Clear 19 1007 68 10000 1 0 17:43 01.10.2019
975 Clear 22 1007 60 10000 2.6 60 17:22 01.10.2019
976 Clear 21 1007 64 10000 2.6 60 16:59 01.10.2019
977 Clear 21 1007 64 10000 2.6 60 16:41 01.10.2019
978 Clear 21 1008 60 10000 2.1 80 16:22 01.10.2019
979 Clear 21 1008 60 10000 2.1 80 16:22 01.10.2019
980 Clear 21 1008 60 10000 1.5 60 15:49 01.10.2019
981 Clear 20 1008 59 10000 2.1 30 15:25 01.10.2019
982 Clear 20 1009 60 10000 2.1 60 14:58 01.10.2019
983 Clear 20 1009 56 10000 5.1 240 14:40 01.10.2019
984 Clear 20 1009 68 10000 1.5 60 14:19 01.10.2019
985 Clear 21 1009 77 10000 0.5 0 13:56 01.10.2019
986 Clear 21 1010 87 10000 2.6 280 13:37 01.10.2019
987 Clear 21 1010 87 10000 2.6 280 13:18 01.10.2019
988 Clear 20 1010 93 10000 2.6 290 12:55 01.10.2019
989 Clear 20 1010 93 10000 2.6 290 12:55 01.10.2019
990 Clouds 20 1010 87 10000 1.5 0 12:37 01.10.2019
991 Clouds 19 1010 87 10000 1.5 0 12:18 01.10.2019
992 Clouds 18 1010 93 10000 0.5 0 11:54 01.10.2019
993 Clear 17 1011 93 10000 1.5 290 11:36 01.10.2019
994 Clear 17 1011 93 10000 1.5 290 11:18 01.10.2019
995 Clear 15 1010 72 10000 6.2 210 10:44 01.10.2019
996 Clear 16 1011 100 10000 1 0 10:25 01.10.2019
997 Mist 15 1011 100 10000 0.5 0 09:44 01.10.2019
998 Fog 11 1012 100 10000 1 0 09:26 01.10.2019
999 Fog 9 1012 100 10000 1 0 08:44 01.10.2019
1000 Fog 8 1012 100 10000 1 0 08:25 01.10.2019
1001 Fog 8 1012 100 10000 1 0 07:50 01.10.2019
1002 Fog 8 1012 100 10000 0.5 180 07:26 01.10.2019
1003 Fog 8 1012 100 10000 0.5 180 07:26 01.10.2019
1004 Fog 8 1013 100 10000 1 210 06:51 01.10.2019
1005 Fog 8 1013 100 10000 1 210 06:25 01.10.2019
1006 Fog 8 1013 100 10000 1 200 05:59 01.10.2019
1007 Clear 8 1013 100 10000 1 210 05:38 01.10.2019
1008 Clear 8 1013 100 10000 1 210 04:42 01.10.2019
1009 Clear 8 1014 100 10000 0.5 0 03:34 01.10.2019
1010 Clear 9 1015 100 10000 0.5 0 02:19 01.10.2019
1011 Clear 9 1015 100 10000 1 0 01:51 01.10.2019
1012 Clear 9 1016 100 10000 0.5 220 00:44 01.10.2019
1013 Clear 9 1016 100 10000 0.5 220 00:44 01.10.2019
1014 Clouds 9 1016 100 10000 1 120 00:24 01.10.2019
1015 Clouds 9 1016 100 10000 1 120 00:24 01.10.2019
1016 Clouds 9 1016 100 10000 1 120 00:24 01.10.2019
1017 Clouds 10 1016 93 10000 0.5 150 23:42 30.09.2019
1018 Clouds 10 1016 93 10000 0.5 150 23:42 30.09.2019
1019 Clouds 10 1016 93 10000 0.5 150 23:22 30.09.2019
1020 Clouds 10 1016 87 10000 1 0 22:55 30.09.2019
1021 Clear 10 1017 66 10000 2.1 30 22:37 30.09.2019
1022 Clear 11 1016 87 10000 1.5 150 22:19 30.09.2019
1023 Clear 11 1016 87 10000 1.5 150 21:55 30.09.2019
1024 Clear 12 1016 87 10000 2.1 210 21:36 30.09.2019
1025 Clear 12 1016 87 10000 2.1 210 21:18 30.09.2019
1026 Clear 12 1016 82 10000 2.1 210 20:54 30.09.2019
1027 Clouds 13 1016 93 10000 1.5 200 20:36 30.09.2019
1028 Clouds 13 1016 93 10000 1.5 200 20:36 30.09.2019
1029 Clouds 13 1016 93 10000 1.5 200 20:18 30.09.2019
1030 Clouds 13 1016 93 10000 1.5 200 20:18 30.09.2019
1031 Clouds 14 1016 87 10000 1.5 320 19:42 30.09.2019
1032 Clouds 14 1016 87 10000 1.5 320 19:20 30.09.2019
1033 Clouds 15 1016 77 10000 1.5 320 18:59 30.09.2019
1034 Clouds 16 1016 72 10000 1.5 0 18:41 30.09.2019
1035 Clouds 16 1016 77 10000 1.5 340 18:20 30.09.2019
1036 Clouds 17 1016 77 10000 1.5 340 17:56 30.09.2019
1037 Clouds 17 1016 72 10000 1.5 340 17:38 30.09.2019
1038 Clouds 17 1016 72 10000 1.5 340 17:19 30.09.2019
1039 Clouds 17 1017 77 10000 2.6 320 16:42 30.09.2019
1040 Clouds 17 1017 77 10000 2.6 320 16:20 30.09.2019
1041 Clouds 17 1017 77 10000 2.6 320 16:20 30.09.2019
1042 Clouds 17 1017 77 10000 2.6 320 16:20 30.09.2019
1043 Clouds 18 1017 77 10000 2.6 330 15:59 30.09.2019
1044 Clouds 17 1017 77 10000 3.1 330 15:39 30.09.2019
1045 Clouds 17 1017 77 10000 3.1 330 15:39 30.09.2019
1046 Clouds 18 1017 77 10000 3.1 330 15:19 30.09.2019
1047 Clouds 17 1016 55 10000 11.8 270 14:58 30.09.2019
1048 Clouds 17 1017 72 10000 4.6 310 14:38 30.09.2019
1049 Clouds 17 1017 72 10000 4.6 310 14:19 30.09.2019
1050 Clouds 17 1017 72 10000 5.1 290 13:59 30.09.2019
1051 Rain 17 1016 52 10000 8.2 260 13:40 30.09.2019
1052 Clouds 16 1017 77 10000 4.1 290 13:21 30.09.2019
1053 Clouds 16 1017 77 10000 5.7 270 12:44 30.09.2019
1054 Clouds 16 1017 77 10000 5.7 270 12:25 30.09.2019
1055 Clouds 15 1017 77 10000 5.7 270 11:59 30.09.2019
1056 Clouds 15 1016 82 10000 7.2 280 11:40 30.09.2019
1057 Clouds 15 1016 82 10000 7.2 280 11:20 30.09.2019
1058 -273 0 0 0 0 0 10:56 30.09.2019
1059 Clouds 15 1015 82 10000 4.1 280 10:37 30.09.2019
1060 Clouds 15 1015 82 10000 4.1 280 10:18 30.09.2019
1061 Clouds 15 1014 77 10000 3.6 270 09:40 30.09.2019
1062 Clouds 15 1014 77 10000 3.6 270 09:21 30.09.2019
1063 Clouds 14 1014 82 10000 0.5 0 08:51 30.09.2019
1064 Clouds 14 1013 82 10000 3.6 270 08:33 30.09.2019
1065 Clouds 14 1013 82 10000 3.6 270 07:58 30.09.2019
1066 Clouds 14 1012 87 10000 5.7 280 07:39 30.09.2019
1067 Clouds 14 1012 87 10000 5.7 280 07:18 30.09.2019
1068 Rain 15 1010 72 10000 8.7 260 06:42 30.09.2019
1069 Rain 16 1011 60 10000 4.6 260 05:56 30.09.2019
1070 Clouds 16 1011 56 10000 5.1 260 05:38 30.09.2019
1071 Clouds 16 1010 77 10000 2.6 20 02:51 30.09.2019
1072 Rain 16 1010 76 10000 1 0 02:20 30.09.2019
1073 Clouds 16 1009 77 10000 2.6 20 00:57 30.09.2019
1074 Clouds 16 1007 63 10000 5.1 220 00:37 30.09.2019
1075 Clouds 16 1007 63 10000 5.1 220 00:19 30.09.2019
1076 Clouds 16 1007 63 10000 5.1 220 00:19 30.09.2019
1077 Clouds 16 1009 77 10000 2.6 20 23:42 29.09.2019
1078 Clouds 17 1009 77 10000 2.6 20 23:21 29.09.2019
1079 Clouds 17 1009 77 10000 2.6 20 22:45 29.09.2019
1080 Clouds 17 1009 49 10000 1.5 0 22:25 29.09.2019
1081 Clouds 17 1009 77 10000 2.6 20 21:59 29.09.2019
1082 Clouds 17 1016 93 10000 2.6 170 21:39 29.09.2019
1083 Clouds 16 1016 93 10000 2.6 170 21:20 29.09.2019
1084 Clouds 17 1008 72 10000 3.6 210 20:59 29.09.2019
1085 Clouds 17 1008 72 10000 3.6 200 20:41 29.09.2019
1086 Clouds 17 1008 72 10000 3.6 200 20:19 29.09.2019
1087 Clouds 17 1008 63 10000 3.6 210 19:56 29.09.2019
1088 Clouds 17 1009 59 10000 4.6 220 19:37 29.09.2019
1089 Clouds 18 1009 55 10000 6.2 220 19:18 29.09.2019
1090 Clear 18 1009 40 10000 2.1 90 18:55 29.09.2019
1091 Clear 19 1009 64 10000 2.1 90 18:36 29.09.2019
1092 Clear 19 1009 64 10000 2.1 90 18:18 29.09.2019
1093 Clear 19 1009 64 10000 2.1 90 18:18 29.09.2019
1094 Clear 20 1009 68 10000 2.1 110 17:55 29.09.2019
1095 -273 0 0 0 0 0 17:54 29.09.2019
1096 Clear 20 1009 68 10000 2.1 110 17:54 29.09.2019
1097 Clear 20 1009 68 10000 2.1 110 17:54 29.09.2019
1098 Clear 20 1009 68 10000 2.1 110 17:36 29.09.2019
1099 Clear 21 1009 68 10000 2.1 110 17:18 29.09.2019
1100 Clear 21 1010 64 10000 1 0 16:41 29.09.2019
1101 Clear 22 1010 64 10000 1 0 16:20 29.09.2019
1102 Clear 21 1010 60 10000 1.5 20 15:59 29.09.2019
1103 Clear 21 1010 68 10000 2.1 40 15:39 29.09.2019
1104 Clear 21 1010 68 10000 2.1 40 15:19 29.09.2019
1105 Clear 21 1011 63 10000 2.1 40 14:58 29.09.2019
1106 Clear 21 1011 63 10000 2.1 40 14:38 29.09.2019
1107 Clear 20 1011 63 10000 2.1 40 14:19 29.09.2019
1108 Clear 20 1012 63 10000 2.1 40 13:57 29.09.2019
1109 Clear 20 1013 77 10000 1 0 13:38 29.09.2019
1110 Clear 20 1013 77 10000 1 0 13:18 29.09.2019
1111 Clear 19 1013 77 10000 1 0 12:56 29.09.2019
1112 Clear 18 1013 82 10000 1.5 0 12:38 29.09.2019
1113 Clear 18 1013 82 10000 1.5 0 12:20 29.09.2019
1114 Clear 17 1014 87 10000 1 0 11:41 29.09.2019
1115 Clear 16 1014 87 10000 1 0 11:20 29.09.2019
1116 Clear 17 1014 87 10000 1 0 10:58 29.09.2019
1117 Clear 16 1015 93 10000 1 0 10:40 29.09.2019
1118 Clear 16 1015 93 10000 1 0 10:40 29.09.2019
1119 Clear 15 1015 93 10000 1 0 10:21 29.09.2019
1120 Clear 15 1015 93 10000 1 0 10:21 29.09.2019
1121 Clear 14 1015 100 10000 0.5 0 09:59 29.09.2019
1122 Clouds 14 1015 77 10000 2.6 20 09:41 29.09.2019
1123 Clear 11 1020 100 8000 1.5 30 09:19 29.09.2019
1124 Clear 9 1015 100 10000 0.5 0 08:43 29.09.2019
1125 Clear 8 1020 100 8000 1 40 08:22 29.09.2019
1126 Clear 8 1020 100 8000 1 40 08:22 29.09.2019
1127 Clear 8 1015 100 10000 0.5 0 07:45 29.09.2019
1128 Clear 8 1020 100 6000 1 30 07:27 29.09.2019
1129 Clear 8 1016 100 10000 0.5 0 06:55 29.09.2019
1130 Clear 8 1020 100 6000 1.5 20 06:32 29.09.2019
1131 Clear 9 1017 93 10000 3.1 200 04:52 29.09.2019
1132 Clear 9 1017 100 10000 2.6 100 04:24 29.09.2019
1133 Clouds 9 1021 100 6000 1 20 03:42 29.09.2019
1134 Clouds 10 1021 100 7000 1 10 02:19 29.09.2019
1135 Clouds 10 1021 100 7000 1 10 02:19 29.09.2019
1136 Clouds 11 1019 81 10000 4.6 210 01:45 29.09.2019
1137 Clouds 10 1021 93 8000 1.5 10 01:19 29.09.2019
1138 Clouds 11 1020 87 8000 2.6 30 00:40 29.09.2019
1139 Clouds 11 1020 87 8000 2.6 30 00:19 29.09.2019
1140 Clouds 12 1020 87 7000 2.6 30 23:39 28.09.2019
1141 Clouds 12 1020 87 7000 2.6 30 23:20 28.09.2019
1142 Clouds 12 1019 87 10000 0.5 0 22:41 28.09.2019
1143 Clouds 12 1019 87 10000 0.5 0 22:23 28.09.2019
1144 Clouds 12 1019 93 10000 0.5 0 21:58 28.09.2019
1145 Clouds 12 1019 87 10000 3.6 200 21:40 28.09.2019
1146 Clouds 13 1020 87 8000 2.1 20 21:21 28.09.2019
1147 Clouds 13 1019 93 10000 0.5 0 20:58 28.09.2019
1148 Clouds 13 1019 93 10000 0.5 0 20:58 28.09.2019
1149 Clouds 13 1019 87 10000 1.5 120 20:39 28.09.2019
1150 Clouds 13 1019 87 10000 1.5 120 20:20 28.09.2019
1151 Clouds 13 1019 82 10000 1.5 120 19:57 28.09.2019
1152 Clouds 14 1019 82 10000 1.5 0 19:38 28.09.2019
1153 Clouds 14 1019 82 10000 1.5 0 19:20 28.09.2019
1154 Clouds 14 1019 72 10000 1.5 0 18:57 28.09.2019
1155 Clouds 15 1019 68 10000 1 0 18:39 28.09.2019
1156 Clouds 16 1019 68 10000 1 0 18:20 28.09.2019
1157 Clouds 16 1019 68 10000 1 0 17:56 28.09.2019
1158 Clouds 16 1019 68 10000 3.1 340 17:37 28.09.2019
1159 Clouds 17 1019 68 10000 3.1 340 17:19 28.09.2019
1160 Clouds 17 1019 77 10000 2.6 20 16:41 28.09.2019
1161 Clouds 17 1019 77 10000 2.6 20 16:23 28.09.2019
1162 Clouds 17 1019 59 10000 3.6 290 15:42 28.09.2019
1163 Clouds 17 1019 59 10000 5.1 280 15:23 28.09.2019
1164 Clouds 17 1019 59 10000 5.1 280 14:57 28.09.2019
1165 Clouds 16 1020 77 10000 2.6 20 14:38 28.09.2019
1166 Clouds 16 1020 77 10000 2.6 20 14:20 28.09.2019
1167 Clear 16 1020 52 10000 5.7 260 13:56 28.09.2019
1168 Clear 16 1020 59 10000 4.1 270 13:37 28.09.2019
1169 Clear 16 1020 59 10000 4.1 270 13:37 28.09.2019
1170 Clear 16 1020 59 10000 4.1 270 13:19 28.09.2019
1171 Clouds 15 1020 63 10000 3.1 260 12:40 28.09.2019
1172 Clouds 15 1020 63 10000 3.1 260 12:19 28.09.2019
1173 Clouds 14 1020 67 10000 3.1 260 11:55 28.09.2019
1174 Clouds 14 1021 93 10000 1 0 11:36 28.09.2019
1175 Clouds 14 1021 93 10000 1 0 11:18 28.09.2019
1176 Clouds 13 1019 93 10000 2.1 10 10:40 28.09.2019
1177 Clouds 13 1019 93 10000 2.1 10 10:20 28.09.2019
1178 Clouds 12 1020 93 10000 1.5 70 09:54 28.09.2019
1179 Clouds 12 1019 93 10000 1.5 0 09:36 28.09.2019
1180 Clouds 12 1019 93 10000 1.5 0 09:18 28.09.2019
1181 Clouds 12 1019 100 10000 1.5 100 08:42 28.09.2019
1182 Clouds 12 1019 100 10000 1.5 100 08:23 28.09.2019
1183 Drizzle 12 1019 100 10000 1.5 0 07:45 28.09.2019
1184 Mist 11 1019 100 5000 0.5 0 07:21 28.09.2019
1185 Rain 12 1018 100 10000 5.7 220 06:53 28.09.2019
1186 Rain 12 1019 87 10000 4.1 260 06:31 28.09.2019
1187 Rain 12 1018 93 10000 5.7 220 05:47 28.09.2019
1188 Clouds 12 1019 100 8000 2.1 230 05:20 28.09.2019
1189 Rain 12 1018 93 10000 5.7 260 04:39 28.09.2019
1190 Rain 12 1017 100 10000 3.6 220 03:56 28.09.2019
1191 Rain 13 1017 100 10000 1.5 200 03:22 28.09.2019
1192 Rain 13 1017 100 5000 2.1 190 02:48 28.09.2019
1193 Rain 13 1016 100 10000 2.1 180 02:30 28.09.2019
1194 Rain 13 1016 100 5000 3.1 290 01:48 28.09.2019
1195 Rain 13 1016 100 10000 2.6 180 01:26 28.09.2019
1196 Rain 13 1016 93 10000 2.1 170 00:55 28.09.2019
1197 Drizzle 13 1016 100 10000 1 270 00:36 28.09.2019
1198 Rain 13 1017 93 10000 3.1 240 23:58 27.09.2019
1199 Clouds 14 1016 100 10000 0.5 0 23:37 27.09.2019
1200 Clouds 14 1016 100 10000 0.5 0 23:19 27.09.2019
1201 Rain 14 1016 87 10000 0.5 0 22:45 27.09.2019
1202 Rain 14 1016 87 10000 0.5 0 22:45 27.09.2019
1203 Rain 14 1016 87 10000 0.5 0 22:45 27.09.2019
1204 Clouds 14 1016 87 10000 2.1 90 22:19 27.09.2019
1205 Clear 15 1016 82 10000 1.5 0 21:57 27.09.2019
1206 Clear 15 1016 82 10000 1.5 0 21:37 27.09.2019
1207 Clear 15 1016 82 10000 1.5 0 21:19 27.09.2019
1208 Clear 15 1016 72 10000 2.6 260 20:56 27.09.2019
1209 Clear 16 1015 72 10000 7.2 280 20:38 27.09.2019
1210 Clear 16 1015 72 10000 7.2 280 20:19 27.09.2019
1211 Clear 16 1015 72 10000 7.2 280 19:44 27.09.2019
1212 Rain 17 1016 77 10000 2.6 20 19:24 27.09.2019
1213 Clouds 17 1015 77 10000 7.2 290 18:59 27.09.2019
1214 Clouds 18 1015 82 10000 6.7 300 18:40 27.09.2019
1215 Clouds 19 1015 82 10000 6.7 300 18:20 27.09.2019
1216 Clouds 19 1015 77 10000 2.6 20 17:55 27.09.2019
1217 Clouds 20 1014 56 10000 5.7 280 17:36 27.09.2019
1218 Clouds 20 1014 56 10000 5.7 280 17:18 27.09.2019
1219 Rain 20 1014 77 10000 2.6 20 16:54 27.09.2019
1220 Rain 20 1014 77 10000 2.6 20 16:54 27.09.2019
1221 Clouds 21 1014 53 10000 5.1 260 16:36 27.09.2019
1222 Clouds 21 1014 53 10000 5.1 260 16:18 27.09.2019
1223 Clouds 20 1014 64 10000 3.1 100 15:42 27.09.2019
1224 Clouds 20 1014 68 10000 3.1 100 15:20 27.09.2019
1225 Clouds 20 1014 73 10000 3.1 100 14:56 27.09.2019
1226 Clouds 19 1014 68 10000 0.5 0 14:38 27.09.2019
1227 Clouds 19 1014 68 10000 0.5 0 14:38 27.09.2019
1228 Clouds 19 1014 68 10000 0.5 0 14:18 27.09.2019
1229 Clouds 19 1015 72 10000 2.6 80 13:56 27.09.2019
1230 Clouds 19 1015 72 10000 2.1 20 13:38 27.09.2019
1231 Clouds 19 1015 77 10000 1.5 0 13:19 27.09.2019
1232 Clouds 19 1015 77 10000 1.5 0 12:43 27.09.2019
1233 Clouds 18 1015 77 10000 1.5 0 12:22 27.09.2019
1234 Clouds 16 1015 88 10000 1.5 290 11:40 27.09.2019
1235 Clouds 16 1015 88 10000 1.5 290 11:22 27.09.2019
1236 Clouds 16 1016 93 10000 2.6 280 10:59 27.09.2019
1237 Clouds 15 1016 87 10000 3.1 210 10:40 27.09.2019
1238 Clouds 15 1016 93 10000 2.6 280 10:20 27.09.2019
1239 Clouds 15 1016 93 10000 2.6 210 09:44 27.09.2019
1240 Clouds 15 1016 93 10000 2.6 210 09:44 27.09.2019
1241 Clouds 14 1015 82 10000 1 0 09:23 27.09.2019
1242 Clouds 14 1015 82 10000 1 0 09:23 27.09.2019
1243 Clouds 14 1015 87 10000 1.5 0 08:58 27.09.2019
1244 Clouds 13 1016 93 10000 2.6 210 08:40 27.09.2019
1245 Clouds 12 1016 93 10000 2.6 210 08:20 27.09.2019
1246 Clouds 12 1016 93 10000 2.1 190 07:49 27.09.2019
1247 Clouds 12 1016 93 10000 2.6 190 07:24 27.09.2019
1248 Clouds 12 1016 93 10000 2.6 200 06:43 27.09.2019
1249 Clouds 12 1016 93 10000 3.1 200 06:25 27.09.2019
1250 Clouds 12 1016 93 10000 2.6 190 05:52 27.09.2019
1251 Clouds 13 1017 93 10000 3.1 210 05:33 27.09.2019
1252 Clouds 13 1017 100 10000 1.5 120 03:57 27.09.2019
1253 Clouds 13 1017 100 10000 1 170 03:36 27.09.2019
1254 Clouds 13 1017 100 10000 2.1 100 01:52 27.09.2019
1255 Clouds 13 1018 100 10000 1 110 01:28 27.09.2019
1256 Clouds 13 1018 100 10000 1.5 100 00:30 27.09.2019
1257 Clouds 13 1018 100 10000 0.5 0 23:56 26.09.2019
1258 Clouds 13 1017 100 10000 0.5 0 23:38 26.09.2019
1259 Clouds 13 1017 100 10000 0.5 0 23:18 26.09.2019
1260 Clouds 13 1017 100 10000 0.5 0 23:18 26.09.2019
1261 Clouds 13 1017 93 10000 1 110 22:57 26.09.2019
1262 Clouds 14 1017 93 10000 0.5 0 22:39 26.09.2019
1263 Clouds 13 1017 93 10000 0.5 0 22:18 26.09.2019
1264 Clouds 13 1017 93 10000 0.5 0 22:18 26.09.2019
1265 Clouds 14 1017 93 10000 3.6 210 21:55 26.09.2019
1266 Clouds 14 1017 93 10000 3.1 200 21:37 26.09.2019
1267 Clouds 14 1017 93 10000 3.1 200 21:37 26.09.2019
1268 Clouds 14 1016 87 10000 3.1 80 21:18 26.09.2019
1269 Clouds 14 1016 87 10000 3.1 80 20:57 26.09.2019
1270 Clouds 14 1016 87 10000 1.5 0 20:39 26.09.2019
1271 Clouds 14 1016 87 10000 1.5 0 20:20 26.09.2019
1272 Clouds 14 1016 87 10000 2.1 170 19:40 26.09.2019
1273 Clouds 14 1016 87 10000 2.1 170 19:19 26.09.2019
1274 Clouds 14 1016 87 10000 4.6 210 18:59 26.09.2019
1275 Clouds 14 1019 76 10000 2.1 30 18:40 26.09.2019
1276 Clouds 15 1019 76 10000 2.1 30 18:22 26.09.2019
1277 Rain 15 1017 87 10000 5.1 220 17:57 26.09.2019
1278 Rain 15 1018 67 10000 2.6 30 17:37 26.09.2019
1279 Rain 15 1018 67 10000 2.6 30 17:18 26.09.2019
1280 Rain 15 1017 87 10000 6.2 270 16:40 26.09.2019
1281 Rain 15 1017 87 10000 6.2 270 16:21 26.09.2019
1282 Drizzle 15 1016 77 10000 3.1 160 16:00 26.09.2019
1283 Drizzle 15 1018 62 10000 3.6 20 15:39 26.09.2019
1284 Drizzle 15 1018 62 10000 3.6 20 15:20 26.09.2019
1285 Rain 14 1017 82 10000 1.5 0 14:57 26.09.2019
1286 Rain 14 1019 66 10000 2.6 20 14:38 26.09.2019
1287 Rain 14 1019 66 10000 2.6 20 14:20 26.09.2019
1288 Rain 14 1017 82 10000 1.5 150 13:41 26.09.2019
1289 Rain 14 1017 82 10000 1.5 150 13:41 26.09.2019
1290 Rain 14 1017 87 10000 2.6 170 13:20 26.09.2019
1291 Rain 13 1017 87 10000 2.6 170 13:00 26.09.2019
1292 Rain 13 1017 82 10000 4.1 170 12:41 26.09.2019
1293 Rain 13 1017 82 10000 4.1 170 12:21 26.09.2019
1294 Rain 13 1016 82 9000 3.6 170 11:43 26.09.2019
1295 Rain 13 1016 82 9000 3.6 170 11:23 26.09.2019
1296 Rain 13 1016 82 9000 3.6 170 10:59 26.09.2019
1297 Rain 12 1016 93 6000 2.1 160 10:40 26.09.2019
1298 Rain 12 1015 87 10000 2.6 170 10:20 26.09.2019
1299 Rain 12 1015 87 10000 2.6 170 10:20 26.09.2019
1300 Rain 12 1015 87 10000 2.6 170 10:20 26.09.2019
1301 Rain 12 1015 82 10000 2.6 170 09:44 26.09.2019
1302 Rain 12 1015 93 10000 2.6 100 09:26 26.09.2019
1303 Rain 12 1015 93 10000 2.6 100 08:57 26.09.2019
1304 Rain 11 1015 100 8000 1 0 08:39 26.09.2019
1305 Rain 11 1015 100 8000 1 0 08:21 26.09.2019
1306 Rain 11 1015 100 8000 1 0 07:43 26.09.2019
1307 Rain 11 1014 87 9000 1 0 07:21 26.09.2019
1308 Rain 11 1014 87 9000 1 0 06:47 26.09.2019
1309 Rain 11 1014 87 7000 2.6 160 06:27 26.09.2019
1310 Rain 11 1014 93 10000 1.5 200 05:44 26.09.2019
1311 Rain 11 1014 93 10000 1.5 130 05:25 26.09.2019
1312 Clouds 11 1014 93 10000 2.1 100 02:53 26.09.2019
1313 Clouds 11 1013 100 10000 2.1 40 01:54 26.09.2019
1314 Clouds 11 1013 100 10000 2.1 40 01:54 26.09.2019
1315 Rain 11 1014 100 10000 1.5 0 01:29 26.09.2019
1316 Rain 11 1013 100 8000 1 0 00:56 26.09.2019
1317 Clouds 12 1013 100 10000 1 0 00:37 26.09.2019
1318 Clouds 12 1013 100 10000 1.5 0 23:58 25.09.2019
1319 Clouds 12 1013 100 10000 2.1 140 23:39 25.09.2019
1320 Clouds 12 1013 100 10000 2.1 140 23:18 25.09.2019
1321 Clouds 12 1013 100 10000 2.1 140 23:18 25.09.2019
1322 Rain 12 1013 100 10000 2.1 110 22:42 25.09.2019
1323 Rain 12 1013 100 10000 1.5 130 22:21 25.09.2019
1324 Rain 12 1013 93 10000 0.5 0 21:57 25.09.2019
1325 Rain 12 1013 93 10000 1.5 130 21:39 25.09.2019
1326 Rain 12 1013 93 10000 1.5 130 21:19 25.09.2019
1327 Rain 12 1013 93 7000 2.1 270 20:58 25.09.2019
1328 Rain 12 1013 82 10000 2.6 240 20:40 25.09.2019
1329 Rain 13 1013 82 10000 2.6 240 20:21 25.09.2019
1330 Rain 13 1012 87 10000 2.1 110 19:54 25.09.2019
1331 Clouds 13 1012 87 10000 2.1 110 19:36 25.09.2019
1332 Clouds 13 1012 87 10000 2.1 110 19:18 25.09.2019
1333 Clear 13 1012 87 10000 2.1 100 18:55 25.09.2019
1334 Clouds 14 1012 87 10000 2.1 100 18:36 25.09.2019
1335 Clouds 15 1012 87 10000 1.5 0 18:18 25.09.2019
1336 Clouds 15 1012 87 10000 2.1 100 18:18 25.09.2019
1337 Rain 15 1012 87 10000 1.5 0 17:38 25.09.2019
1338 Rain 15 1012 87 10000 1.5 0 17:19 25.09.2019
1339 Rain 16 1012 72 10000 1 0 16:46 25.09.2019
1340 Clouds 16 1012 72 10000 1 0 16:28 25.09.2019
1341 Clouds 16 1012 77 10000 3.1 320 15:59 25.09.2019
1342 Clouds 16 1012 77 10000 3.1 320 15:41 25.09.2019
1343 Clouds 16 1012 77 10000 3.1 320 15:23 25.09.2019
1344 Clouds 16 1012 72 10000 6.2 280 14:57 25.09.2019
1345 Clouds 15 1012 72 10000 6.2 280 14:39 25.09.2019
1346 Clouds 15 1012 72 10000 6.2 280 14:21 25.09.2019
1347 Rain 15 1013 59 10000 5.7 280 13:41 25.09.2019
1348 Rain 15 1013 59 10000 5.1 280 13:41 25.09.2019
1349 Rain 15 1013 59 10000 5.7 280 13:23 25.09.2019
1350 Rain 15 1013 59 10000 5.7 280 12:59 25.09.2019
1351 Rain 15 1013 82 10000 0.5 0 12:39 25.09.2019
1352 Rain 15 1013 82 10000 0.5 0 12:21 25.09.2019
1353 Rain 14 1013 82 10000 1.5 310 11:55 25.09.2019
1354 Rain 14 1013 82 10000 1.5 310 11:55 25.09.2019
1355 Rain 14 1013 87 10000 1 0 11:36 25.09.2019
1356 Rain 13 1013 87 10000 1 0 11:18 25.09.2019
1357 Rain 14 1012 93 10000 0.5 0 10:41 25.09.2019
1358 Rain 13 1012 93 10000 0.5 0 10:23 25.09.2019
1359 Rain 13 1012 93 10000 1 0 09:56 25.09.2019
1360 Rain 13 1012 100 10000 2.1 110 09:37 25.09.2019
1361 Rain 13 1012 100 10000 2.1 110 09:19 25.09.2019
1362 Rain 12 1012 100 10000 1.5 70 08:42 25.09.2019
1363 Rain 12 1012 93 10000 1 0 08:21 25.09.2019
1364 Rain 12 1012 93 10000 1 0 07:57 25.09.2019
1365 Rain 12 1012 87 10000 1 0 07:37 25.09.2019
1366 Rain 12 1012 87 10000 1 0 07:19 25.09.2019
1367 Drizzle 12 1012 93 10000 2.1 130 06:43 25.09.2019
1368 Drizzle 12 1012 93 10000 2.1 130 06:21 25.09.2019
1369 Clouds 12 1012 77 10000 1 0 05:27 25.09.2019
1370 Rain 12 1012 93 10000 1 0 04:50 25.09.2019
1371 Clear 12 1015 100 10000 1.5 60 02:19 25.09.2019
1372 Rain 12 1012 93 9000 2.6 150 00:45 25.09.2019
1373 Rain 12 1012 82 10000 3.6 200 00:24 25.09.2019
1374 Rain 12 1012 93 10000 0.5 0 23:55 24.09.2019
1375 Clouds 12 1016 93 10000 0.5 0 23:36 24.09.2019
1376 Clouds 12 1016 93 10000 0.5 0 23:18 24.09.2019
1377 Clouds 12 1013 100 10000 1.5 120 22:39 24.09.2019
1378 Clouds 12 1013 100 10000 1.5 120 22:20 24.09.2019
1379 Rain 12 1013 100 10000 1.5 0 21:56 24.09.2019
1380 Rain 12 1013 100 10000 0.5 0 21:37 24.09.2019
1381 Rain 12 1013 100 10000 0.5 0 21:19 24.09.2019
1382 Rain 12 1013 93 9000 1 0 20:57 24.09.2019
1383 Rain 13 1013 93 10000 2.1 120 20:39 24.09.2019
1384 Rain 13 1013 93 10000 2.1 120 20:20 24.09.2019
1385 Rain 13 1013 93 10000 1 0 19:44 24.09.2019
1386 Rain 13 1013 87 10000 1 0 19:22 24.09.2019
1387 Rain 14 1012 87 10000 2.6 270 18:59 24.09.2019
1388 Rain 14 1013 87 10000 1.5 320 18:41 24.09.2019
1389 Rain 15 1013 87 10000 1.5 320 18:22 24.09.2019
1390 Clear 15 1012 87 10000 1 0 17:58 24.09.2019
1391 Clear 15 1012 87 10000 1 0 17:58 24.09.2019
1392 Rain 15 1012 82 10000 1 0 17:38 24.09.2019
1393 Rain 15 1012 82 10000 1 0 17:38 24.09.2019
1394 Rain 15 1012 82 10000 1 0 17:20 24.09.2019
1395 Clouds 16 1012 87 10000 2.1 320 16:57 24.09.2019
1396 Clouds 16 1012 87 10000 2.1 320 16:39 24.09.2019
1397 Clouds 16 1012 87 10000 2.1 320 16:18 24.09.2019
1398 Clouds 16 1012 87 10000 2.1 320 16:18 24.09.2019
1399 Clouds 16 1013 93 10000 3.6 290 15:41 24.09.2019
1400 Clouds 16 1013 93 10000 3.6 290 15:23 24.09.2019
1401 Clouds 15 1013 87 10000 2.6 280 14:44 24.09.2019
1402 Clouds 15 1013 87 10000 2.6 280 14:20 24.09.2019
1403 Clouds 15 1013 93 10000 2.6 300 13:56 24.09.2019
1404 Clouds 15 1013 93 10000 2.6 300 13:38 24.09.2019
1405 Clouds 15 1015 93 10000 2.6 270 13:20 24.09.2019
1406 Clouds 15 1015 93 10000 2.6 270 12:40 24.09.2019
1407 Clouds 15 1015 93 10000 2.6 270 12:20 24.09.2019
1408 Clouds 14 1015 93 10000 2.6 310 11:43 24.09.2019
1409 Clouds 14 1015 93 10000 2.6 310 11:22 24.09.2019
1410 Clouds 13 1015 87 10000 1.5 0 10:59 24.09.2019
1411 Clouds 13 1015 87 10000 1.5 0 10:39 24.09.2019
1412 Clouds 12 1015 87 10000 1.5 0 10:20 24.09.2019
1413 Clouds 11 1016 100 10000 1 0 09:46 24.09.2019
1414 Clouds 12 1016 93 10000 1 0 09:46 24.09.2019
1415 Clouds 10 1016 100 10000 1 0 09:28 24.09.2019
1416 Clouds 9 1016 100 10000 1 0 08:58 24.09.2019
1417 Fog 8 1017 100 10000 1.5 110 08:40 24.09.2019
1418 Fog 8 1017 100 10000 1.5 110 08:40 24.09.2019
1419 Fog 7 1017 100 10000 1.5 110 08:22 24.09.2019
1420 Fog 7 1017 100 10000 1 0 07:57 24.09.2019
1421 Fog 7 1016 100 500 1 270 07:38 24.09.2019
1422 Fog 6 1016 100 10000 1 0 07:19 24.09.2019
1423 Fog 7 1017 100 10000 2.1 100 06:37 24.09.2019
1424 Fog 7 1017 100 10000 2.1 100 06:18 24.09.2019
1425 Clear 7 1017 100 10000 1 100 05:21 24.09.2019
1426 Clouds 8 1018 100 10000 1 0 03:46 24.09.2019
1427 Clear 8 1018 100 10000 1 0 03:22 24.09.2019
1428 Clear 8 1019 100 10000 2.1 20 02:43 24.09.2019
1429 Clouds 8 1018 93 10000 1 110 01:41 24.09.2019
1430 Clouds 9 1019 93 10000 0.5 0 00:41 24.09.2019
1431 Clouds 9 1019 93 10000 0.5 0 00:22 24.09.2019
1432 Clouds 9 1020 100 10000 2.6 30 23:41 23.09.2019
1433 Clouds 10 1020 100 10000 2.6 30 23:22 23.09.2019
1434 Clouds 11 1019 87 10000 1.5 0 22:41 23.09.2019
1435 Clouds 10 1019 87 10000 1.5 0 22:21 23.09.2019
1436 Clouds 11 1019 82 10000 2.1 140 21:59 23.09.2019
1437 Rain 11 1019 93 10000 1.5 350 21:41 23.09.2019
1438 Rain 11 1019 76 10000 2.1 120 21:20 23.09.2019
1439 Rain 11 1019 76 10000 2.1 120 21:20 23.09.2019
1440 Rain 11 1019 93 10000 1.5 50 20:58 23.09.2019
1441 Rain 11 1019 93 10000 3.6 20 20:39 23.09.2019
1442 Rain 11 1019 93 10000 3.6 20 20:18 23.09.2019
1443 Rain 12 1018 87 10000 2.6 110 20:18 23.09.2019
1444 Rain 12 1019 87 10000 1 0 19:40 23.09.2019
1445 Rain 12 1019 87 10000 1 0 19:22 23.09.2019
1446 Rain 12 1018 72 10000 3.1 180 19:22 23.09.2019
1447 Rain 12 1019 87 10000 1 0 19:22 23.09.2019
1448 Rain 12 1018 72 10000 3.1 170 18:59 23.09.2019
1449 Drizzle 13 1018 81 10000 5.1 280 18:41 23.09.2019
1450 Rain 12 1018 77 10000 3.1 120 18:19 23.09.2019
1451 Rain 13 1018 67 10000 2.6 180 17:56 23.09.2019
1452 Clouds 13 1018 67 10000 5.1 180 17:38 23.09.2019
1453 Clouds 13 1018 67 10000 5.1 180 17:19 23.09.2019
1454 Clouds 13 1018 67 10000 5.1 180 16:55 23.09.2019
1455 Rain 13 1018 72 10000 4.6 170 16:36 23.09.2019
1456 Rain 13 1018 77 10000 3.6 180 16:18 23.09.2019
1457 Rain 13 1018 77 10000 3.6 180 16:18 23.09.2019
1458 Rain 13 1018 82 10000 4.1 180 15:55 23.09.2019
1459 Rain 13 1019 82 10000 3.1 190 15:37 23.09.2019
1460 Rain 12 1019 82 10000 3.1 190 15:18 23.09.2019
1461 Rain 12 1019 82 10000 2.1 180 14:40 23.09.2019
1462 Rain 12 1019 82 10000 2.1 180 14:20 23.09.2019
1463 Rain 12 1019 87 10000 2.1 180 13:58 23.09.2019
1464 Rain 12 1019 87 8000 1 0 13:38 23.09.2019
1465 Rain 12 1018 93 9000 6.2 270 13:18 23.09.2019
1466 Rain 12 1019 100 9000 1 0 12:43 23.09.2019
1467 Rain 11 1019 100 9000 1 0 12:23 23.09.2019
1468 Rain 12 1018 93 7000 5.1 280 11:57 23.09.2019
1469 Rain 12 1019 93 10000 2.6 120 11:39 23.09.2019
1470 Rain 12 1019 93 10000 2.6 120 11:20 23.09.2019
1471 Rain 12 1018 93 9000 5.7 270 10:49 23.09.2019
1472 Rain 12 1018 93 9000 1 0 10:21 23.09.2019
1473 Rain 12 1017 93 9000 4.6 270 09:56 23.09.2019
1474 Rain 12 1018 93 8000 0.5 0 09:37 23.09.2019
1475 Rain 12 1018 93 8000 0.5 0 09:19 23.09.2019
1476 Rain 12 1018 100 10000 1.5 0 08:42 23.09.2019
1477 Rain 12 1017 93 10000 0.5 0 08:22 23.09.2019
1478 Rain 12 1016 93 9000 3.6 270 07:47 23.09.2019
1479 Rain 12 1016 87 10000 2.1 250 07:24 23.09.2019
1480 Rain 12 1015 93 6000 7.2 260 06:24 23.09.2019
1481 Rain 13 1016 87 10000 3.1 270 05:47 23.09.2019
1482 Rain 13 1015 82 10000 5.1 250 05:19 23.09.2019
1483 Clouds 13 1015 82 10000 6.2 260 04:54 23.09.2019
1484 Clouds 14 1012 93 10000 0.5 0 02:36 23.09.2019
1485 Clouds 13 1011 100 10000 0.5 0 00:42 23.09.2019
1486 Clouds 14 1011 100 10000 0.5 0 00:22 23.09.2019
1487 Clear 14 1011 100 10000 0.5 0 23:46 22.09.2019
1488 Clear 14 1011 100 10000 0.5 0 23:27 22.09.2019
1489 Clear 14 1011 100 10000 0.5 0 22:57 22.09.2019
1490 Clear 15 1011 93 10000 1 0 22:38 22.09.2019
1491 Clear 15 1011 93 10000 1 0 22:38 22.09.2019
1492 Clear 15 1011 93 10000 1 0 22:20 22.09.2019
1493 Clear 15 1011 87 10000 1.28 156.11 21:43 22.09.2019
1494 Rain 16 1011 93 10000 1.5 90 21:21 22.09.2019
1495 Clear 16 1011 93 10000 2.6 110 20:54 22.09.2019
1496 Clear 17 1010 72 10000 1 0 20:36 22.09.2019
1497 Clear 17 1010 72 10000 1 0 20:18 22.09.2019
1498 Clear 18 1010 72 10000 1 0 19:41 22.09.2019
1499 Clear 18 1010 72 10000 1 0 19:22 22.09.2019
1500 Clear 19 1011 68 10000 1.5 290 18:59 22.09.2019
1501 Clear 21 1011 68 10000 1.5 290 18:38 22.09.2019
1502 Clear 21 1011 68 10000 1.5 290 18:19 22.09.2019
1503 Clear 21 1011 68 10000 1.5 290 17:56 22.09.2019
1504 Clouds 21 1011 68 10000 2.1 280 17:37 22.09.2019
1505 Clouds 22 1011 68 10000 2.1 280 17:18 22.09.2019
1506 Clear 21 1011 64 10000 2.6 230 16:42 22.09.2019
1507 Clear 22 1011 68 10000 1.5 0 16:23 22.09.2019
1508 Clear 22 1011 68 10000 1 0 15:47 22.09.2019
1509 Clear 22 1012 77 10000 1 0 15:28 22.09.2019
1510 Clear 22 1012 77 10000 1 0 14:58 22.09.2019
1511 Clear 21 1012 63 10000 1 0 14:40 22.09.2019
1512 Clear 21 1012 82 10000 2.1 270 14:21 22.09.2019
1513 Clear 20 1013 87 10000 2.6 280 13:55 22.09.2019
1514 Clear 20 1013 87 10000 2.6 300 13:36 22.09.2019
1515 Clear 20 1013 87 10000 2.6 300 13:36 22.09.2019
1516 Clear 19 1013 87 10000 2.6 300 13:18 22.09.2019
1517 Clear 19 1013 93 10000 1.5 0 12:42 22.09.2019
1518 Clear 18 1013 93 10000 1.5 0 12:22 22.09.2019
1519 Clear 18 1013 87 10000 1.5 0 11:56 22.09.2019
1520 Clear 17 1013 87 10000 1.5 350 11:38 22.09.2019
1521 Clear 17 1013 87 10000 1.5 350 11:19 22.09.2019
1522 Clear 16 1014 93 10000 2.1 280 10:43 22.09.2019
1523 Clear 15 1014 93 10000 1 0 10:20 22.09.2019
1524 Clear 14 1014 93 10000 1 270 09:56 22.09.2019
1525 Clear 14 1014 93 10000 1 0 09:37 22.09.2019
1526 Rain 12 1014 93 10000 1 0 09:19 22.09.2019
1527 Clear 11 1014 87 10000 2.1 360 08:43 22.09.2019
1528 Clear 11 1013 100 10000 0.5 0 08:23 22.09.2019
1529 Clear 11 1014 100 10000 1 200 07:49 22.09.2019
1530 Clear 10 1014 100 10000 0.5 160 07:31 22.09.2019
1531 Clear 10 1014 93 10000 0.5 0 06:59 22.09.2019
1532 Clear 10 1014 93 10000 1 200 06:38 22.09.2019
1533 Clear 10 1014 93 10000 2.1 290 05:19 22.09.2019
1534 Clouds 11 1014 100 10000 1.5 0 02:45 22.09.2019
1535 Clouds 10 1014 100 10000 1 0 02:25 22.09.2019
1536 Clouds 10 1015 100 10000 0.5 0 01:45 22.09.2019
1537 Clear 11 1015 100 10000 1 0 00:54 22.09.2019
1538 Clear 11 1015 100 10000 1.5 110 00:32 22.09.2019
1539 Clear 11 1016 100 10000 1 0 23:56 21.09.2019
1540 Clear 11 1016 100 10000 0.5 0 23:38 21.09.2019
1541 Clear 12 1016 100 10000 1 0 22:57 21.09.2019
1542 Clear 12 1016 100 10000 0.5 0 22:36 21.09.2019
1543 Clear 12 1016 100 10000 0.5 0 22:18 21.09.2019
1544 Clear 12 1016 93 10000 1 100 21:41 21.09.2019
1545 Clear 13 1016 93 10000 1 100 21:19 21.09.2019
1546 Clear 14 1016 93 10000 1.5 0 20:56 21.09.2019
1547 Clear 14 1016 87 10000 1 0 20:37 21.09.2019
1548 Clear 14 1016 87 10000 1 0 20:18 21.09.2019
1549 Clear 14 1016 87 10000 1 0 20:18 21.09.2019
1550 Clear 14 1016 87 10000 1 0 20:18 21.09.2019
1551 Clear 15 1016 87 10000 1 0 19:45 21.09.2019
1552 Clear 16 1016 77 10000 1 0 19:45 21.09.2019
1553 Clear 16 1017 63 10000 2.1 290 19:21 21.09.2019
1554 Clear 17 1017 63 10000 2.1 290 18:41 21.09.2019
1555 Clear 19 1017 68 10000 3.1 280 18:22 21.09.2019
1556 Clear 20 1017 64 10000 2.1 220 17:43 21.09.2019
1557 Clear 20 1017 68 10000 3.1 280 17:24 21.09.2019
1558 Clear 20 1018 63 10000 2.6 270 16:58 21.09.2019
1559 Clear 20 1018 63 10000 2.6 270 16:39 21.09.2019
1560 Clear 20 1018 63 10000 2.6 270 16:20 21.09.2019
1561 Clear 20 1019 63 10000 2.1 270 15:45 21.09.2019
1562 Clear 20 1019 67 10000 2.1 270 15:23 21.09.2019
1563 Clear 20 1019 67 10000 2.1 270 14:49 21.09.2019
1564 Clear 20 1020 67 10000 1.5 290 14:31 21.09.2019
1565 Clear 19 1020 76 10000 2.1 310 13:55 21.09.2019
1566 Clear 19 1021 76 10000 2.1 310 13:36 21.09.2019
1567 Clear 20 1021 76 10000 2.1 310 13:18 21.09.2019
1568 Clear 18 1022 76 10000 1.5 330 12:42 21.09.2019
1569 Clear 17 1022 76 10000 1.5 330 12:22 21.09.2019
1570 Clear 16 1022 76 10000 1.5 260 11:59 21.09.2019
1571 Clear 14 1022 76 10000 1.5 260 11:41 21.09.2019
1572 Clear 14 1022 76 10000 1.5 260 11:22 21.09.2019
1573 Clear 13 1022 81 10000 1.5 260 10:43 21.09.2019
1574 Clear 12 1022 81 10000 1.5 260 10:24 21.09.2019
1575 Clear 12 1022 87 10000 1.5 260 09:58 21.09.2019
1576 Clear 11 1022 93 10000 1.5 250 09:39 21.09.2019
1577 Clear 8 1022 93 10000 1.5 250 09:20 21.09.2019
1578 Clear 8 1022 93 10000 1.5 250 09:20 21.09.2019
1579 Clear 8 1022 93 10000 1.5 250 08:51 21.09.2019
1580 Clear 5 1022 100 10000 1 240 08:27 21.09.2019
1581 Clear 5 1022 100 10000 1 0 07:41 21.09.2019
1582 Clear 5 1022 100 10000 1 0 07:23 21.09.2019
1583 Clear 5 1022 100 10000 1.5 240 06:51 21.09.2019
1584 Clear 5 1022 100 10000 1 240 06:31 21.09.2019
1585 Clear 5 1022 100 10000 1.5 200 04:53 21.09.2019
1586 Clear 5 1022 100 10000 1.5 200 04:53 21.09.2019
1587 Clear 6 1022 100 10000 0.5 0 04:34 21.09.2019
1588 Clear 6 1022 100 10000 0.5 0 02:31 21.09.2019
1589 Clear 7 1023 93 10000 0.5 0 01:54 21.09.2019
1590 Clear 7 1023 100 10000 0.5 210 01:36 21.09.2019
1591 Clear 8 1023 100 10000 0.5 0 00:40 21.09.2019
1592 Clear 8 1023 100 10000 0.5 0 00:18 21.09.2019
1593 Clear 8 1023 100 10000 0.5 0 00:18 21.09.2019
1594 Clear 8 1023 93 10000 1 0 23:42 20.09.2019
1595 Clear 9 1023 93 10000 1 0 23:23 20.09.2019
1596 Clear 9 1024 87 10000 1 230 22:41 20.09.2019
1597 Clear 9 1024 87 10000 1 230 22:23 20.09.2019
1598 Clear 9 1024 76 10000 1.5 0 21:56 20.09.2019
1599 Clear 10 1024 76 10000 1.5 0 21:37 20.09.2019
1600 Clear 10 1024 76 10000 1.5 0 21:18 20.09.2019
1601 Clear 11 1024 58 10000 3.6 10 20:55 20.09.2019
1602 Clouds 11 1026 81 10000 1 30 20:36 20.09.2019
1603 Clear 12 1024 58 10000 1.5 0 20:18 20.09.2019
1604 Clear 13 1024 51 10000 2.6 340 19:42 20.09.2019
1605 Clear 13 1024 51 10000 2.6 340 19:21 20.09.2019
1606 Clear 14 1024 51 10000 2.6 340 18:56 20.09.2019
1607 Clear 14 1024 59 10000 2.6 300 18:36 20.09.2019
1608 Clear 16 1024 59 10000 2.6 300 18:18 20.09.2019
1609 Clear 16 1024 52 10000 2.6 300 17:43 20.09.2019
1610 Clear 16 1024 52 10000 2.6 300 17:25 20.09.2019
1611 Clear 17 1025 59 10000 3.1 270 16:43 20.09.2019
1612 Clear 17 1025 59 10000 3.1 270 16:21 20.09.2019
1613 Clear 17 1025 59 10000 3.1 270 15:58 20.09.2019
1614 Clear 17 1025 59 10000 3.1 270 15:40 20.09.2019
1615 Clear 16 1025 59 10000 3.1 270 15:22 20.09.2019
1616 Clear 17 1025 59 10000 3.6 270 14:43 20.09.2019
1617 Clear 16 1025 62 10000 2.6 260 14:19 20.09.2019
1618 Clear 17 1025 62 10000 2.6 260 13:48 20.09.2019
1619 Clear 16 1026 76 10000 1.5 0 13:28 20.09.2019
1620 Clear 15 1026 76 10000 1.5 0 12:58 20.09.2019
1621 Clear 16 1026 76 10000 1.5 0 12:37 20.09.2019
1622 Clear 14 1026 76 10000 1.5 0 12:19 20.09.2019
1623 Clear 14 1026 76 10000 1.5 0 12:19 20.09.2019
1624 Clear 14 1026 76 10000 1.5 0 12:19 20.09.2019
1625 Clear 13 1027 81 10000 1.5 290 11:50 20.09.2019
1626 Clear 12 1027 81 10000 2.1 280 11:22 20.09.2019
1627 Clear 12 1027 81 10000 2.1 280 10:57 20.09.2019
1628 Clear 12 1027 81 10000 2.1 280 10:57 20.09.2019
1629 Clouds 12 1027 87 10000 2.6 270 10:39 20.09.2019
1630 Clouds 12 1027 87 10000 2.6 270 10:19 20.09.2019
1631 Clear 8 1026 87 10000 2.6 250 09:38 20.09.2019
1632 Clear 7 1026 87 10000 2.6 250 09:18 20.09.2019
1633 Clear 6 1026 87 10000 2.6 250 08:43 20.09.2019
1634 Clear 5 1026 93 10000 1.5 0 08:25 20.09.2019
1635 Clear 5 1026 93 10000 1.5 0 07:48 20.09.2019
1636 Clear 5 1026 93 10000 1 0 07:28 20.09.2019
1637 Clear 5 1026 93 10000 1 0 06:45 20.09.2019
1638 Clear 5 1026 93 10000 1 0 06:45 20.09.2019
1639 Clear 5 1026 93 10000 1 0 06:27 20.09.2019
1640 Clear 5 1026 100 10000 1.5 210 05:57 20.09.2019
1641 Clear 6 1026 93 10000 1 0 03:46 20.09.2019
1642 Clear 6 1026 93 10000 0.5 0 03:21 20.09.2019
1643 Clear 7 1026 93 10000 1.5 0 01:45 20.09.2019
1644 Clear 7 1026 93 10000 1.5 0 01:45 20.09.2019
1645 Clear 7 1026 93 10000 1.5 0 01:24 20.09.2019
1646 Clear 7 1026 93 10000 1.5 0 01:24 20.09.2019
1647 Clear 8 1026 87 10000 1.5 200 00:31 20.09.2019
1648 Clear 8 1027 66 10000 4.6 10 23:45 19.09.2019
1649 Clear 8 1026 76 10000 1 0 23:22 19.09.2019
1650 Clear 8 1026 71 10000 1 0 22:57 19.09.2019
1651 Clear 9 1026 62 10000 2.1 90 22:38 19.09.2019
1652 Clear 9 1026 62 10000 2.1 90 22:19 19.09.2019
1653 Clear 9 1026 62 10000 2.6 30 21:56 19.09.2019
1654 Clear 10 1026 58 10000 3.1 30 21:37 19.09.2019
1655 Clear 10 1026 58 10000 3.1 30 21:18 19.09.2019
1656 Clear 10 1026 58 10000 3.1 30 21:18 19.09.2019
1657 Clear 10 1025 58 10000 4.1 30 20:43 19.09.2019
1658 Clear 11 1025 54 10000 4.1 30 20:22 19.09.2019
1659 Clear 11 1025 54 10000 4.1 20 19:56 19.09.2019
1660 Clear 11 1025 54 10000 4.1 20 19:37 19.09.2019
1661 Clear 12 1025 54 10000 4.1 20 19:19 19.09.2019
1662 Clear 15 1025 51 10000 4.1 10 18:42 19.09.2019
1663 Clear 15 1025 51 10000 4.1 10 18:24 19.09.2019
1664 Clear 16 1025 51 10000 5.1 20 17:54 19.09.2019
1665 Clear 15 1025 51 10000 5.1 20 17:36 19.09.2019
1666 Clear 15 1025 51 10000 4.6 20 17:18 19.09.2019
1667 Clear 16 1025 51 10000 4.6 20 16:56 19.09.2019
1668 Clear 15 1025 59 10000 5.1 360 16:37 19.09.2019
1669 Clear 15 1025 59 10000 5.1 360 16:18 19.09.2019
1670 Clear 16 1025 55 10000 2.6 350 15:38 19.09.2019
1671 Clear 16 1025 55 10000 2.6 350 15:18 19.09.2019
1672 Clear 16 1025 55 10000 2.6 280 14:42 19.09.2019
1673 Clear 15 1025 55 10000 2.6 280 14:23 19.09.2019
1674 Clear 16 1025 55 10000 2.6 280 14:23 19.09.2019
1675 Clear 16 1025 62 10000 3.6 280 13:58 19.09.2019
1676 Clear 16 1025 62 10000 3.6 280 13:38 19.09.2019
1677 Clear 16 1025 62 10000 3.6 280 13:19 19.09.2019
1678 Clear 15 1026 62 10000 2.6 270 12:38 19.09.2019
1679 Clear 14 1026 62 10000 2.6 270 12:19 19.09.2019
1680 Clear 14 1026 62 10000 2.6 270 12:19 19.09.2019
1681 Clear 13 1026 71 10000 1.5 270 11:56 19.09.2019
1682 Clear 13 1026 71 10000 1.5 270 11:38 19.09.2019
1683 Clear 13 1026 71 10000 1.5 270 11:19 19.09.2019
1684 Clear 11 1026 71 10000 2.6 350 10:40 19.09.2019
1685 Clear 11 1026 71 10000 2.6 350 10:21 19.09.2019
1686 Clear 10 1025 71 10000 2.1 330 09:58 19.09.2019
1687 Clear 9 1025 76 10000 1.5 0 09:40 19.09.2019
1688 Clear 8 1025 76 10000 1.5 0 09:20 19.09.2019
1689 Clear 8 1025 76 10000 1.5 0 08:51 19.09.2019
1690 Clear 7 1025 81 10000 1 0 08:27 19.09.2019
1691 Clear 6 1024 87 10000 1.5 310 07:46 19.09.2019
1692 Clear 6 1024 87 10000 1.5 310 07:24 19.09.2019
1693 Clear 6 1024 87 10000 1.5 310 06:59 19.09.2019
1694 Clear 6 1024 87 10000 2.1 310 06:40 19.09.2019
1695 Clear 7 1024 87 10000 2.1 310 06:21 19.09.2019
1696 Clear 7 1024 81 10000 1.5 300 05:49 19.09.2019
1697 Clear 7 1022 93 10000 4.6 50 04:20 19.09.2019
1698 Clear 8 1024 76 10000 2.6 270 03:20 19.09.2019
1699 Clouds 8 1024 81 10000 1.5 0 01:40 19.09.2019
1700 Clouds 9 1024 81 10000 1.5 0 01:19 19.09.2019
1701 Clear 9 1023 76 10000 1 0 00:43 19.09.2019
1702 Clear 9 1023 76 10000 1 0 00:19 19.09.2019
1703 Clouds 10 1023 66 10000 1 0 23:38 18.09.2019
1704 Clouds 10 1023 66 10000 1 0 23:19 18.09.2019
1705 Clouds 10 1023 62 10000 1 0 22:39 18.09.2019
1706 Clouds 10 1023 62 10000 1 0 22:19 18.09.2019
1707 Clouds 10 1023 58 10000 1.5 0 21:57 18.09.2019
1708 Clouds 11 1023 62 10000 1.5 0 21:39 18.09.2019
1709 Clouds 12 1022 59 10000 1.5 0 21:18 18.09.2019
1710 Clouds 12 1022 59 10000 1.5 0 20:57 18.09.2019
1711 Clouds 13 1022 59 10000 1.5 0 20:39 18.09.2019
1712 Clouds 13 1022 59 10000 1.5 0 20:20 18.09.2019
1713 Clouds 13 1022 59 10000 2.1 340 19:56 18.09.2019
1714 Clouds 13 1022 59 10000 2.1 340 19:37 18.09.2019
1715 Clouds 14 1022 59 10000 2.1 340 19:18 18.09.2019
1716 Clouds 14 1022 59 10000 2.1 340 19:18 18.09.2019
1717 Clouds 14 1022 59 10000 2.1 340 19:18 18.09.2019
1718 Clouds 14 1022 59 10000 3.1 340 18:54 18.09.2019
1719 Clouds 14 1022 59 10000 3.1 340 18:36 18.09.2019
1720 Clouds 16 1022 59 10000 3.1 340 18:18 18.09.2019
1721 Clouds 16 1022 59 10000 3.6 340 17:54 18.09.2019
1722 Clouds 17 1022 59 10000 3.6 340 17:36 18.09.2019
1723 Clouds 17 1022 59 10000 3.6 340 17:18 18.09.2019
1724 Clouds 17 1022 59 10000 3.1 270 16:42 18.09.2019
1725 Clouds 17 1022 59 10000 3.1 270 16:22 18.09.2019
1726 Clouds 17 1022 63 10000 2.1 280 15:57 18.09.2019
1727 Clouds 17 1022 67 10000 2.1 280 15:39 18.09.2019
1728 Clouds 17 1022 67 10000 2.1 280 15:20 18.09.2019
1729 Clouds 17 1022 67 10000 2.6 280 14:58 18.09.2019
1730 Clouds 16 1022 63 10000 1.5 0 14:40 18.09.2019
1731 Clouds 16 1022 63 10000 1.5 0 14:21 18.09.2019
1732 Clouds 16 1023 67 10000 1.5 0 13:58 18.09.2019
1733 Clouds 16 1023 76 10000 2.6 270 13:38 18.09.2019
1734 Clouds 15 1023 76 10000 2.6 270 13:18 18.09.2019
1735 Clouds 15 1023 76 10000 2.6 270 13:18 18.09.2019
1736 Clouds 15 1023 71 10000 2.1 300 12:42 18.09.2019
1737 Clouds 14 1023 71 10000 2.1 300 12:22 18.09.2019
1738 Clouds 13 1023 76 10000 2.6 330 11:40 18.09.2019
1739 Clouds 13 1023 76 10000 2.6 330 11:20 18.09.2019
1740 Clouds 13 1023 76 10000 2.6 330 10:58 18.09.2019
1741 Clouds 13 1022 76 10000 1.5 310 10:39 18.09.2019
1742 Clouds 12 1022 76 10000 1.5 310 10:20 18.09.2019
1743 Clouds 12 1022 76 10000 1.5 310 09:55 18.09.2019
1744 Clouds 11 1022 76 10000 3.1 360 09:37 18.09.2019
1745 Clouds 11 1022 76 10000 3.1 360 09:18 18.09.2019
1746 Clouds 10 1022 76 10000 1 0 08:41 18.09.2019
1747 Clouds 10 1022 76 10000 1 0 08:23 18.09.2019
1748 Clouds 10 1022 71 10000 3.6 20 07:45 18.09.2019
1749 Clouds 10 1022 71 10000 3.6 20 07:23 18.09.2019
1750 Clouds 9 1022 76 10000 4.6 10 06:55 18.09.2019
1751 Clouds 9 1022 76 10000 4.6 10 06:55 18.09.2019
1752 Clouds 11 1022 71 10000 4.6 30 06:29 18.09.2019
1753 Clouds 11 1022 76 10000 3.6 10 05:39 18.09.2019
1754 Clouds 13 1021 63 10000 2.6 330 03:49 18.09.2019
1755 Clouds 13 1022 72 10000 3.6 350 02:41 18.09.2019
1756 Clouds 14 1022 63 10000 2.6 340 01:50 18.09.2019
1757 Clouds 14 1022 63 10000 2.6 340 01:50 18.09.2019
1758 Clouds 14 1021 72 10000 2.6 350 00:57 18.09.2019
1759 Clouds 14 1021 77 10000 2.1 350 00:34 18.09.2019
1760 Clouds 14 1021 72 10000 3.1 20 23:48 17.09.2019
1761 Clouds 14 1021 72 10000 3.1 20 23:48 17.09.2019
1762 Clouds 14 1021 72 10000 3.6 20 23:26 17.09.2019
1763 Clouds 15 1021 72 10000 2.6 30 22:59 17.09.2019
1764 Clouds 15 1020 72 10000 2.1 20 22:41 17.09.2019
1765 Clouds 15 1020 72 10000 2.1 20 22:22 17.09.2019
1766 Clouds 16 1020 72 10000 1 0 21:54 17.09.2019
1767 Clouds 16 1020 72 10000 1.5 30 21:36 17.09.2019
1768 Clouds 16 1020 72 10000 1.5 30 21:18 17.09.2019
1769 Clouds 16 1020 72 10000 1.5 30 21:18 17.09.2019
1770 Clouds 16 1019 77 10000 1 0 20:57 17.09.2019
1771 Rain 16 1018 77 10000 1 0 20:38 17.09.2019
1772 Rain 17 1018 77 10000 1 0 20:20 17.09.2019
1773 Clouds 17 1018 88 10000 0.5 0 19:57 17.09.2019
1774 Clouds 17 1018 88 10000 0.5 0 19:38 17.09.2019
1775 Clouds 18 1018 77 10000 1 220 19:18 17.09.2019
1776 Clouds 19 1018 56 10000 1.5 340 18:43 17.09.2019
1777 Clouds 21 1018 56 10000 1.5 340 18:22 17.09.2019
1778 Clouds 21 1018 60 10000 2.6 30 17:56 17.09.2019
1779 Clear 21 1018 49 10000 1.5 0 17:37 17.09.2019
1780 Clear 21 1018 49 10000 1.5 0 17:18 17.09.2019
1781 Clear 21 1018 60 10000 2.1 50 16:42 17.09.2019
1782 Clear 21 1018 49 10000 2.1 280 16:22 17.09.2019
1783 Clear 21 1019 56 10000 2.1 340 15:58 17.09.2019
1784 Clear 21 1019 56 10000 2.1 340 15:37 17.09.2019
1785 Clear 21 1018 56 10000 3.6 190 15:19 17.09.2019
1786 Clear 22 1019 60 10000 2.1 280 14:56 17.09.2019
1787 Clear 21 1019 60 10000 2.1 280 14:37 17.09.2019
1788 Clear 21 1019 60 10000 2.1 280 14:19 17.09.2019
1789 Clouds 22 1019 73 10000 2.1 360 13:42 17.09.2019
1790 Clouds 22 1019 73 10000 2.1 360 13:23 17.09.2019
1791 Clouds 21 1020 77 10000 1.5 350 12:56 17.09.2019
1792 Clouds 22 1020 77 10000 1.5 350 12:37 17.09.2019
1793 Clouds 20 1020 77 10000 1.5 350 12:18 17.09.2019
1794 Clouds 20 1020 77 10000 1.5 350 12:18 17.09.2019
1795 Clouds 19 1019 77 10000 1.5 310 11:42 17.09.2019
1796 Clouds 19 1019 77 10000 1.5 310 11:24 17.09.2019
1797 Clouds 19 1020 82 10000 3.1 310 10:43 17.09.2019
1798 Clear 19 1019 93 10000 3.6 280 10:24 17.09.2019
1799 Clear 18 1019 93 10000 3.6 280 09:59 17.09.2019
1800 Clouds 17 1019 100 10000 2.1 260 09:40 17.09.2019
1801 Clouds 16 1019 100 10000 2.1 260 09:21 17.09.2019
1802 Clouds 15 1019 100 10000 1 260 08:45 17.09.2019
1803 Clouds 14 1019 100 10000 1 260 08:26 17.09.2019
1804 Clear 14 1019 100 10000 1 220 07:56 17.09.2019
1805 Clear 14 1019 100 10000 1 220 07:56 17.09.2019
1806 Clear 14 1018 100 10000 0.5 0 07:38 17.09.2019
1807 Clear 14 1018 100 10000 0.5 0 07:19 17.09.2019
1808 Clear 14 1018 100 10000 1 190 06:45 17.09.2019
1809 Clear 14 1018 100 10000 1 190 06:45 17.09.2019
1810 Clear 14 1019 100 10000 0.5 130 06:19 17.09.2019
1811 Clear 14 1018 100 10000 1 210 05:38 17.09.2019
1812 Clouds 15 1019 100 10000 1 180 04:27 17.09.2019
1813 Rain 15 1019 93 10000 1.5 280 02:55 17.09.2019
1814 Clouds 15 1019 93 10000 1 0 02:35 17.09.2019
1815 Clear 16 1023 72 10000 2.1 20 01:24 17.09.2019
1816 Clouds 17 1019 82 10000 2.6 250 00:28 17.09.2019
1817 Clouds 18 1019 83 10000 1 0 23:38 16.09.2019
1818 Clear 18 1023 77 10000 1.5 0 23:18 16.09.2019
1819 Clouds 18 1018 83 10000 2.1 0 22:42 16.09.2019
1820 Clouds 18 1018 88 10000 0.5 0 22:24 16.09.2019
1821 Clear 18 1018 77 10000 0.5 0 21:59 16.09.2019
1822 Clear 18 1018 82 10000 1 210 21:39 16.09.2019
1823 Clear 19 1018 82 10000 1 210 21:20 16.09.2019
1824 Clear 19 1018 82 10000 1 210 20:58 16.09.2019
1825 Clouds 20 1021 39 10000 1.5 30 20:39 16.09.2019
1826 Clouds 20 1021 39 10000 1.5 30 20:19 16.09.2019
1827 Clear 20 1018 83 10000 0.5 0 19:55 16.09.2019
1828 Clear 20 1018 83 10000 0.5 0 19:55 16.09.2019
1829 Clear 21 1018 78 10000 1.5 30 19:37 16.09.2019
1830 Clear 22 1018 78 10000 1.5 30 19:18 16.09.2019
1831 Clear 22 1018 78 10000 1.5 30 19:18 16.09.2019
1832 Clouds 24 1018 61 10000 1.5 70 18:43 16.09.2019
1833 Clouds 24 1018 61 10000 1.5 70 18:25 16.09.2019
1834 Clouds 24 1018 61 10000 1.5 70 17:54 16.09.2019
1835 Clouds 25 1019 61 10000 1.5 60 17:36 16.09.2019
1836 Clouds 25 1019 61 10000 1.5 60 17:18 16.09.2019
1837 Clouds 25 1019 61 10000 1.5 60 17:18 16.09.2019
1838 Clouds 25 1019 69 10000 1 0 16:42 16.09.2019
1839 Clouds 25 1019 69 10000 1 0 16:21 16.09.2019
1840 Clouds 25 1019 61 10000 1 0 15:57 16.09.2019
1841 Clouds 25 1020 65 10000 1.5 50 15:38 16.09.2019
1842 Clouds 25 1020 65 10000 1.5 50 15:20 16.09.2019
1843 Clear 25 1020 64 10000 1.5 290 14:57 16.09.2019
1844 Clear 24 1020 73 10000 1.5 290 14:38 16.09.2019
1845 Clear 24 1020 73 10000 1.5 290 14:38 16.09.2019
1846 Clear 24 1020 73 10000 1.5 290 14:19 16.09.2019
1847 Clear 24 1021 83 10000 1 0 13:40 16.09.2019
1848 Clear 23 1021 83 10000 1 0 13:22 16.09.2019
1849 Clear 24 1021 83 10000 1 0 12:54 16.09.2019
1850 Clear 23 1021 83 10000 1 0 12:54 16.09.2019
1851 Clear 23 1021 83 10000 1 0 12:54 16.09.2019
1852 Clear 23 1021 83 10000 1 0 12:54 16.09.2019
1853 Clear 23 1022 83 10000 1 0 12:36 16.09.2019
1854 Clear 22 1022 83 10000 1 0 12:18 16.09.2019
1855 Clouds 21 1022 88 10000 1 0 11:44 16.09.2019
1856 Clouds 21 1022 88 10000 1 0 11:21 16.09.2019
1857 Clouds 21 1022 93 10000 1 0 10:40 16.09.2019
1858 Clouds 20 1022 93 10000 1 0 10:21 16.09.2019
1859 Clouds 19 1022 100 10000 1 0 09:58 16.09.2019
1860 Clear 18 1022 100 10000 0.5 0 09:40 16.09.2019
1861 Clear 17 1022 100 10000 0.5 0 09:20 16.09.2019
1862 Clear 15 1022 100 10000 1 0 08:48 16.09.2019
1863 Fog 14 1021 100 10000 1 0 08:29 16.09.2019
1864 Fog 13 1021 100 10000 1 0 07:57 16.09.2019
1865 Fog 13 1021 100 10000 1 0 07:39 16.09.2019
1866 Fog 13 1021 100 10000 1 0 07:39 16.09.2019
1867 Fog 13 1021 100 10000 1 0 07:20 16.09.2019
1868 Fog 13 1021 100 8000 1.5 0 06:48 16.09.2019
1869 Fog 13 1021 100 10000 1 0 06:30 16.09.2019
1870 Clear 13 1022 100 10000 1 0 05:54 16.09.2019
1871 Clear 14 1022 100 10000 0.5 0 05:35 16.09.2019
1872 Clear 14 1022 100 10000 0.5 0 04:55 16.09.2019
1873 Clear 14 1023 100 10000 1 0 03:31 16.09.2019
1874 Clear 15 1023 93 10000 1.5 240 00:44 16.09.2019
1875 Clear 15 1023 100 10000 1 220 00:26 16.09.2019
1876 Clear 16 1023 100 10000 0.5 0 23:45 15.09.2019
1877 Clear 16 1023 93 10000 1 0 23:22 15.09.2019
1878 Clear 16 1023 88 10000 1 0 22:59 15.09.2019
1879 Clear 17 1023 88 10000 1 0 22:37 15.09.2019
1880 Clear 17 1023 88 10000 1 0 22:18 15.09.2019
1881 Clear 17 1023 82 10000 1 0 21:55 15.09.2019
1882 Clear 18 1022 82 10000 2.1 180 21:37 15.09.2019
1883 Clear 18 1022 82 10000 2.1 180 21:37 15.09.2019
1884 Clear 18 1022 82 10000 2.1 180 21:18 15.09.2019
1885 Clear 19 1022 88 10000 0.5 0 20:43 15.09.2019
1886 Clear 19 1022 88 10000 0.5 0 20:25 15.09.2019
1887 Clear 20 1022 83 10000 1 110 19:47 15.09.2019
1888 Clear 22 1022 83 10000 1 110 19:26 15.09.2019
1889 Clear 23 1023 73 10000 2.1 70 18:55 15.09.2019
1890 Clear 23 1023 73 10000 2.1 70 18:36 15.09.2019
1891 Clear 24 1027 60 10000 1.52 296.582 18:18 15.09.2019
1892 Clear 24 1023 78 10000 2.1 60 17:41 15.09.2019
1893 Clear 24 1023 78 10000 2.1 60 17:21 15.09.2019
1894 Clear 24 1024 78 10000 2.6 80 16:55 15.09.2019
1895 Clear 25 1024 73 10000 2.1 60 16:37 15.09.2019
1896 Clear 25 1024 73 10000 2.1 60 16:37 15.09.2019
1897 Clear 24 1024 73 10000 2.1 60 16:18 15.09.2019
1898 Clear 25 1024 73 10000 2.1 60 16:18 15.09.2019
1899 Clear 24 1025 64 10000 4.1 240 15:41 15.09.2019
1900 Clear 24 1025 64 10000 4.1 240 15:41 15.09.2019
1901 Clear 24 1025 73 10000 2.1 50 15:21 15.09.2019
1902 Clouds 24 1025 64 10000 2.6 230 14:59 15.09.2019
1903 Clear 24 1025 78 10000 1 0 14:40 15.09.2019
1904 Clear 23 1025 78 10000 1 0 14:21 15.09.2019
1905 Clouds 23 1026 73 10000 2.6 250 13:47 15.09.2019
1906 Clouds 23 1026 93 7000 1.5 0 13:25 15.09.2019
1907 Clouds 23 1026 100 6000 1.5 290 12:58 15.09.2019
1908 Clouds 22 1026 100 6000 2.1 310 12:39 15.09.2019
1909 Clouds 21 1026 100 6000 2.1 310 12:19 15.09.2019
1910 Clouds 20 1027 82 10000 3.6 240 11:42 15.09.2019
1911 Clouds 20 1026 100 5000 1 0 11:22 15.09.2019
1912 Mist 19 1027 100 4000 1 0 10:59 15.09.2019
1913 Mist 19 1027 100 4000 1 0 10:40 15.09.2019
1914 Mist 19 1027 100 4000 1 0 10:21 15.09.2019
1915 Mist 17 1027 100 8000 1 180 09:42 15.09.2019
1916 Mist 17 1027 100 8000 1 180 09:42 15.09.2019
1917 Clouds 15 1027 100 7000 0.5 100 09:20 15.09.2019
1918 Clouds 14 1027 100 7000 0.5 100 08:58 15.09.2019
1919 Clouds 14 1027 100 7000 0.5 100 08:58 15.09.2019
1920 Mist 14 1027 100 6000 0.5 0 08:39 15.09.2019
1921 Fog 12 1027 100 8000 1 0 08:18 15.09.2019
1922 Fog 12 1026 100 10000 0.5 0 07:41 15.09.2019
1923 Fog 12 1026 100 600 0.5 0 06:44 15.09.2019
1924 Fog 13 1026 100 3700 0.5 0 04:59 15.09.2019
1925 Clouds 13 1027 100 7000 0.5 0 03:19 15.09.2019
1926 Clear 14 1027 100 10000 0.5 0 02:18 15.09.2019
1927 Clouds 14 1027 100 5000 0.5 0 01:36 15.09.2019
1928 Clouds 14 1027 100 5000 0.5 0 01:36 15.09.2019
1929 Clear 14 1027 100 10000 1 0 00:56 15.09.2019
1930 Clouds 14 1028 100 7000 1 190 00:36 15.09.2019
1931 Clouds 14 1028 100 7000 1 190 00:18 15.09.2019
1932 Clear 15 1028 100 10000 1 0 23:55 14.09.2019
1933 Clear 15 1028 100 10000 1 0 23:37 14.09.2019
1934 Clear 15 1028 93 10000 1 200 23:18 14.09.2019
1935 Clear 15 1028 93 10000 1 200 22:55 14.09.2019
1936 Clear 15 1028 93 10000 0.5 0 22:37 14.09.2019
1937 Clear 16 1028 93 10000 0.5 0 22:18 14.09.2019
1938 Clear 16 1028 93 10000 1 220 21:40 14.09.2019
1939 Clear 17 1028 93 10000 1 220 21:20 14.09.2019
1940 Clouds 17 1028 93 10000 1 220 20:57 14.09.2019
1941 Rain 18 1028 88 10000 1 230 20:38 14.09.2019
1942 Rain 18 1028 88 10000 1 230 20:20 14.09.2019
1943 Clear 20 1028 78 10000 1.5 0 19:46 14.09.2019
1944 Clear 20 1028 78 10000 1.5 0 19:21 14.09.2019
1945 Clear 21 1028 73 10000 2.6 280 18:57 14.09.2019
1946 Clear 22 1028 69 10000 3.1 280 18:38 14.09.2019
1947 Clear 22 1028 69 10000 3.1 280 18:38 14.09.2019
1948 Clear 22 1028 69 10000 3.1 280 18:19 14.09.2019
1949 Clear 23 1028 73 10000 2.6 280 17:44 14.09.2019
1950 Clear 23 1028 73 10000 2.6 280 17:23 14.09.2019
1951 Clear 23 1028 73 10000 3.6 280 16:50 14.09.2019
1952 Clear 23 1028 73 10000 3.6 280 16:29 14.09.2019
1953 Clear 23 1028 73 10000 2.6 270 15:59 14.09.2019
1954 Clear 23 1028 73 10000 2.6 270 15:40 14.09.2019
1955 Clear 23 1028 73 10000 2.6 270 15:21 14.09.2019
1956 Clouds 23 1030 73 10000 4.1 10 14:44 14.09.2019
1957 Clouds 22 1030 83 10000 2.6 270 14:19 14.09.2019
1958 Clouds 23 1030 83 10000 2.6 270 13:55 14.09.2019
1959 Clear 22 1030 77 10000 2.6 260 13:37 14.09.2019
1960 Clear 22 1030 77 10000 2.6 260 13:18 14.09.2019
1961 Clouds 22 1031 93 10000 1.5 290 12:40 14.09.2019
1962 Clouds 20 1031 93 10000 1.5 290 12:18 14.09.2019
1963 Clouds 20 1031 88 10000 2.1 300 11:40 14.09.2019
1964 Clouds 19 1031 88 10000 2.1 300 11:20 14.09.2019
1965 Clouds 19 1031 100 10000 1 0 10:40 14.09.2019
1966 Clouds 18 1031 100 10000 1 0 10:21 14.09.2019
1967 Clouds 17 1031 100 8000 1 0 09:58 14.09.2019
1968 Clouds 16 1031 100 8000 1 180 09:39 14.09.2019
1969 Clouds 14 1031 100 8000 1 180 09:19 14.09.2019
1970 Clouds 14 1031 100 8000 1 180 08:47 14.09.2019
1971 Mist 13 1030 100 10000 1 130 08:25 14.09.2019
1972 Mist 12 1030 100 8000 0.5 0 07:48 14.09.2019
1973 Fog 12 1030 100 7000 0.5 0 07:28 14.09.2019
1974 Fog 12 1030 100 7000 0.5 0 07:28 14.09.2019
1975 Fog 12 1030 100 10000 1 90 06:52 14.09.2019
1976 Fog 12 1030 100 10000 0.5 210 06:29 14.09.2019
1977 Clear 12 1030 100 10000 1 180 05:27 14.09.2019
1978 Clear 13 1031 93 10000 1.5 0 03:46 14.09.2019
1979 Clouds 13 1031 93 10000 2.6 40 02:55 14.09.2019
1980 Clouds 14 1031 82 10000 2.6 30 01:55 14.09.2019
1981 Clear 14 1036 87 10000 1.5 10 01:23 14.09.2019
1982 Clear 14 1031 88 10000 2.6 270 00:59 14.09.2019
1983 Clear 15 1031 100 10000 2.1 270 00:39 14.09.2019
1984 Clear 15 1031 100 10000 2.1 270 00:39 14.09.2019
1985 Clear 15 1031 100 10000 2.1 270 00:21 14.09.2019
1986 Clear 15 1031 100 10000 2.1 270 00:21 14.09.2019
1987 Clear 15 1031 100 10000 2.1 270 00:21 14.09.2019
1988 Clear 15 1031 100 10000 1.5 210 23:38 13.09.2019
1989 Clear 15 1031 100 10000 1.5 210 23:19 13.09.2019
1990 Clear 15 1031 93 10000 1 0 22:59 13.09.2019
1991 Clear 16 1031 88 10000 0.5 0 22:39 13.09.2019
1992 Clear 16 1031 88 10000 0.5 0 22:20 13.09.2019
1993 Clear 16 1031 93 10000 1.5 200 21:55 13.09.2019
1994 Clear 17 1031 93 10000 1 0 21:37 13.09.2019
1995 Clear 17 1030 93 10000 2.1 100 21:18 13.09.2019
1996 Clear 18 1030 93 10000 2.1 100 20:55 13.09.2019
1997 Clear 18 1030 93 10000 2.1 100 20:36 13.09.2019
1998 Clear 19 1030 64 10000 1.5 0 20:18 13.09.2019
1999 Clear 20 1030 64 10000 1.5 0 19:42 13.09.2019
2000 Clear 21 1030 64 10000 1.5 0 19:20 13.09.2019
2001 Clear 23 1030 64 10000 2.6 280 18:57 13.09.2019
2002 Clear 23 1030 60 10000 2.6 280 18:37 13.09.2019
2003 Clear 23 1030 60 10000 2.6 280 18:18 13.09.2019
2004 Clear 23 1030 60 10000 2.6 280 18:18 13.09.2019
2005 Clear 23 1031 57 10000 2.6 290 17:41 13.09.2019
2006 Clear 24 1031 57 10000 2.6 290 17:19 13.09.2019
2007 Clear 24 1031 57 10000 2.6 290 16:43 13.09.2019
2008 Clear 24 1031 53 10000 2.1 280 16:23 13.09.2019
2009 Clear 24 1031 53 10000 2.1 280 16:23 13.09.2019
2010 Clear 24 1031 53 10000 2.1 280 15:59 13.09.2019
2011 Clear 24 1032 68 10000 2.1 290 15:40 13.09.2019
2012 Clear 23 1032 68 10000 2.1 290 15:20 13.09.2019
2013 Clear 23 1032 60 10000 2.6 330 14:44 13.09.2019
2014 Clouds 23 1035 27 10000 2.6 30 14:22 13.09.2019
2015 Clear 23 1032 68 10000 1.5 270 13:56 13.09.2019
2016 Clear 23 1032 68 10000 1.5 270 13:56 13.09.2019
2017 Clear 22 1032 77 10000 2.1 300 13:37 13.09.2019
2018 Clear 23 1032 77 10000 2.1 300 13:19 13.09.2019
2019 Clear 23 1032 77 10000 2.1 300 13:19 13.09.2019
2020 Clouds 22 1033 60 10000 1.5 270 12:44 13.09.2019
2021 Clear 21 1036 34 10000 3.1 20 12:23 13.09.2019
2022 Clear 20 1033 88 10000 2.6 310 11:56 13.09.2019
2023 Clear 19 1033 93 10000 2.6 320 11:20 13.09.2019
2024 Clear 19 1033 93 10000 1 0 10:41 13.09.2019
2025 Clear 18 1033 93 10000 1 0 10:20 13.09.2019
2026 Clear 17 1033 93 10000 1 0 09:47 13.09.2019
2027 Clear 15 1032 100 10000 0.5 0 09:26 13.09.2019
2028 Clear 13 1033 100 10000 0.5 0 08:59 13.09.2019
2029 Clear 13 1033 100 10000 0.5 0 08:41 13.09.2019
2030 Clear 13 1033 100 10000 0.5 0 08:41 13.09.2019
2031 Clear 12 1033 100 10000 0.5 0 08:21 13.09.2019
2032 Clear 11 1033 100 10000 0.5 180 07:56 13.09.2019
2033 Clear 11 1033 100 10000 0.5 0 07:38 13.09.2019
2034 Clear 11 1032 100 10000 0.5 0 06:49 13.09.2019
2035 Clear 11 1032 100 10000 1 120 05:50 13.09.2019
2036 Clouds 11 1032 100 10000 0.5 140 05:19 13.09.2019
2037 Clouds 12 1032 100 10000 1 0 03:41 13.09.2019
2038 Clear 12 1032 100 10000 0.5 100 02:48 13.09.2019
2039 Clear 12 1032 100 10000 0.5 0 02:18 13.09.2019
2040 Clear 12 1032 100 10000 0.5 0 02:18 13.09.2019
2041 Clear 13 1032 100 10000 0.5 0 01:35 13.09.2019
2042 Clear 13 1032 93 10000 1 130 00:58 13.09.2019
2043 Clear 13 1032 93 10000 1.5 120 00:31 13.09.2019
2044 Clear 14 1032 93 10000 1 0 23:40 12.09.2019
2045 Clear 14 1032 87 10000 0.5 190 23:20 12.09.2019
2046 Clear 14 1032 87 10000 0.5 190 22:43 12.09.2019
2047 Clear 14 1032 93 10000 1 0 22:24 12.09.2019
2048 Clear 15 1032 82 10000 0.5 0 21:57 12.09.2019
2049 Clear 15 1032 77 10000 1 0 21:38 12.09.2019
2050 Clear 16 1032 77 10000 1 0 21:20 12.09.2019
2051 Clear 16 1031 68 10000 1.5 200 20:57 12.09.2019
2052 Clear 17 1031 68 10000 1.5 200 20:39 12.09.2019
2053 Clear 17 1031 68 10000 1.5 200 20:20 12.09.2019
2054 Clear 18 1031 64 10000 1 0 19:54 12.09.2019
2055 Clear 18 1031 64 10000 1 0 19:36 12.09.2019
2056 Clear 19 1031 64 10000 1 0 19:18 12.09.2019
2057 Clear 22 1031 49 10000 0.5 0 18:38 12.09.2019
2058 Clear 22 1031 49 10000 0.5 0 18:38 12.09.2019
2059 Clear 22 1031 49 10000 0.5 0 18:19 12.09.2019
2060 Clear 22 1031 46 10000 1.5 310 17:56 12.09.2019
2061 Clear 22 1031 46 10000 1.5 310 17:38 12.09.2019
2062 Clear 22 1031 46 10000 1.5 310 17:19 12.09.2019
2063 Clear 22 1031 49 10000 1.5 0 16:42 12.09.2019
2064 Clear 22 1031 49 10000 1.5 0 16:22 12.09.2019
2065 Clear 22 1032 52 10000 1.5 300 15:45 12.09.2019
2066 Clear 22 1032 49 10000 1.5 0 15:27 12.09.2019
2067 Clear 22 1032 46 10000 1.5 0 14:58 12.09.2019
2068 Clear 22 1032 46 10000 1.5 0 14:58 12.09.2019
2069 Clear 21 1032 49 10000 1.5 290 14:40 12.09.2019
2070 Clear 21 1032 49 10000 1.5 290 14:40 12.09.2019
2071 Clear 21 1032 52 10000 1.5 290 14:21 12.09.2019
2072 Clear 20 1033 64 10000 2.1 360 13:39 12.09.2019
2073 Clear 21 1033 64 10000 2.1 360 13:21 12.09.2019
2074 Clear 20 1033 56 10000 2.1 10 12:49 12.09.2019
2075 Clear 19 1032 68 10000 1.5 330 12:20 12.09.2019
2076 Clear 19 1032 68 10000 1.5 330 12:20 12.09.2019
2077 Clear 19 1032 77 10000 1 0 11:59 12.09.2019
2078 Clear 19 1032 77 10000 1 0 11:40 12.09.2019
2079 Clear 18 1032 77 10000 1 0 11:21 12.09.2019
2080 Clear 19 1032 77 10000 1.5 10 10:54 12.09.2019
2081 Clear 18 1032 82 10000 1.5 10 10:36 12.09.2019
2082 Clear 17 1032 82 10000 1.5 10 10:18 12.09.2019
2083 Clouds 16 1032 87 10000 1 0 09:42 12.09.2019
2084 Clouds 15 1032 87 10000 1 0 09:20 12.09.2019
2085 Clear 14 1031 93 10000 1 0 08:44 12.09.2019
2086 Clouds 13 1031 87 10000 1.5 240 08:25 12.09.2019
2087 Clouds 13 1031 87 10000 1.5 240 07:55 12.09.2019
2088 Clouds 13 1030 87 10000 2.1 250 07:36 12.09.2019
2089 Clouds 13 1032 76 10000 2.6 40 07:18 12.09.2019
2090 Clouds 13 1030 93 10000 1 0 06:45 12.09.2019
2091 Clouds 13 1030 93 10000 1 100 05:59 12.09.2019
2092 Clouds 13 1030 93 10000 0.5 0 05:39 12.09.2019
2093 Clouds 13 1030 93 10000 0.5 0 05:19 12.09.2019
2094 Clouds 13 1030 93 10000 1 0 03:46 12.09.2019
2095 Clouds 13 1029 93 10000 0.73 170.783 01:43 12.09.2019
2096 Clouds 14 1029 87 10000 1 0 01:24 12.09.2019
2097 Clouds 14 1029 93 10000 1 0 00:48 12.09.2019
2098 Clouds 14 1029 82 10000 0.5 90 00:29 12.09.2019
2099 Clear 14 1028 77 10000 1.5 90 23:44 11.09.2019
2100 Clear 14 1028 77 10000 1.5 90 23:25 11.09.2019
2101 Clouds 14 1028 82 10000 1 60 22:58 11.09.2019
2102 Clouds 14 1028 58 10000 2.1 20 22:38 11.09.2019
2103 Clouds 14 1028 58 10000 2.1 20 22:20 11.09.2019
2104 Clouds 15 1028 77 10000 4.6 270 21:58 11.09.2019
2105 Clouds 15 1027 82 10000 4.6 260 21:40 11.09.2019
2106 Rain 16 1027 55 10000 2.6 260 21:22 11.09.2019
2107 Clear 16 1026 72 10000 1 0 20:55 11.09.2019
2108 Rain 16 1026 88 10000 1 0 20:37 11.09.2019
2109 Rain 16 1026 88 10000 1 0 20:18 11.09.2019
2110 Clear 17 1026 88 10000 1 200 19:55 11.09.2019
2111 Clear 17 1026 77 10000 1 200 19:37 11.09.2019
2112 Clouds 17 1026 38 10000 1.5 20 19:18 11.09.2019
2113 Clouds 18 1025 63 10000 1 0 18:42 11.09.2019
2114 Clouds 19 1025 63 10000 1 0 18:23 11.09.2019
2115 Clouds 19 1024 72 10000 1.96 276.85 17:58 11.09.2019
2116 Clouds 20 1024 72 10000 1.96 276.85 17:39 11.09.2019
2117 Clouds 20 1024 72 10000 1.96 276.85 17:20 11.09.2019
2118 Clouds 20 1024 72 10000 2.1 310 16:54 11.09.2019
2119 Clouds 20 1024 72 10000 2.1 310 16:36 11.09.2019
2120 Clouds 20 1024 72 10000 2.1 310 16:36 11.09.2019
2121 Clouds 20 1024 72 10000 2.1 310 16:18 11.09.2019
2122 Clouds 20 1025 72 10000 2.6 310 15:45 11.09.2019
2123 Clouds 19 1025 72 10000 2.6 310 15:22 11.09.2019
2124 Clouds 19 1024 59 10000 1.5 0 14:57 11.09.2019
2125 Clouds 19 1025 77 10000 2.6 310 14:37 11.09.2019
2126 Clouds 19 1025 77 10000 2.6 310 14:18 11.09.2019
2127 Clouds 19 1025 82 10000 2.1 310 13:54 11.09.2019
2128 Clouds 19 1025 82 10000 2.1 350 13:36 11.09.2019
2129 Clouds 19 1025 82 10000 2.1 350 13:18 11.09.2019
2130 Clouds 18 1025 87 10000 2.6 300 12:40 11.09.2019
2131 Clouds 17 1024 87 10000 1 0 12:20 11.09.2019
2132 Clouds 16 1024 87 10000 1 0 11:41 11.09.2019
2133 Clouds 16 1024 87 10000 1 0 11:22 11.09.2019
2134 Clouds 16 1024 87 10000 1 0 10:59 11.09.2019
2135 Clouds 15 1024 93 10000 1.5 310 10:40 11.09.2019
2136 Clouds 14 1024 93 10000 1.5 310 10:20 11.09.2019
2137 Clouds 13 1024 93 10000 1 0 09:40 11.09.2019
2138 Clouds 12 1024 93 10000 2.1 20 09:20 11.09.2019
2139 Mist 11 1023 100 10000 1.5 310 08:57 11.09.2019
2140 Mist 11 1023 100 10000 1.5 310 08:57 11.09.2019
2141 Clouds 10 1023 93 10000 1 0 08:38 11.09.2019
2142 Fog 10 1023 93 10000 1 0 08:20 11.09.2019
2143 Clear 9 1022 93 10000 2.1 260 07:41 11.09.2019
2144 Clear 9 1022 93 10000 2.1 260 07:22 11.09.2019
2145 Clouds 9 1022 100 6000 1.5 60 06:48 11.09.2019
2146 Clouds 9 1023 100 10000 1.5 30 06:30 11.09.2019
2147 Clouds 10 1021 87 10000 1.5 350 05:37 11.09.2019
2148 Clear 10 1021 93 10000 1.5 240 05:19 11.09.2019
2149 Clear 10 1021 93 10000 1.5 240 05:19 11.09.2019
2150 Clear 10 1021 93 10000 1.5 0 04:23 11.09.2019
2151 Clouds 10 1021 93 10000 1.5 40 03:32 11.09.2019
2152 Clouds 10 1022 93 10000 1.42 142.71 02:41 11.09.2019
2153 Clouds 10 1020 87 10000 2.6 20 01:50 11.09.2019
2154 Clear 10 1020 100 10000 1 220 00:49 11.09.2019
2155 Clear 11 1020 93 10000 2.1 270 00:20 11.09.2019
2156 Clear 12 1020 93 10000 1.5 220 23:41 10.09.2019
2157 Clear 12 1020 93 10000 1.5 220 23:22 10.09.2019
2158 Clear 12 1020 93 10000 1.5 220 23:22 10.09.2019
2159 Clear 11 1021 93 10000 3.1 40 22:59 10.09.2019
2160 Clouds 12 1021 81 10000 1.27 136.887 22:41 10.09.2019
2161 Clear 12 1020 82 10000 1.5 0 22:19 10.09.2019
2162 Clear 12 1020 82 10000 1.5 0 22:19 10.09.2019
2163 Clear 12 1019 87 10000 1 0 21:55 10.09.2019
2164 Clear 13 1018 82 10000 1.5 240 21:37 10.09.2019
2165 Clear 13 1018 82 10000 1.5 240 21:18 10.09.2019
2166 Clear 13 1018 82 10000 1.5 240 20:57 10.09.2019
2167 Clear 14 1017 68 10000 2.1 310 20:38 10.09.2019
2168 Clouds 14 1019 71 10000 1.87 98.851 20:19 10.09.2019
2169 Clear 15 1017 68 10000 2.1 310 19:55 10.09.2019
2170 Clear 15 1017 60 10000 2.6 250 19:37 10.09.2019
2171 Clear 16 1017 60 10000 2.6 250 19:18 10.09.2019
2172 Clear 18 1016 63 10000 3.6 280 18:45 10.09.2019
2173 Clear 18 1016 63 10000 3.6 280 18:23 10.09.2019
2174 Clear 19 1016 63 10000 3.6 280 17:59 10.09.2019
2175 Clear 19 1016 63 10000 3.6 280 17:41 10.09.2019
2176 Clear 19 1016 63 10000 3.6 280 17:20 10.09.2019
2177 Clear 19 1016 63 10000 3.6 280 16:57 10.09.2019
2178 Clear 20 1016 59 10000 3.1 270 16:38 10.09.2019
2179 Clear 20 1016 59 10000 3.1 270 16:19 10.09.2019
2180 Clear 20 1016 59 10000 3.1 270 16:19 10.09.2019
2181 Clear 20 1016 72 10000 3.1 280 15:44 10.09.2019
2182 Clear 19 1016 72 10000 3.1 280 15:23 10.09.2019
2183 Clear 19 1016 72 10000 3.1 280 14:58 10.09.2019
2184 Clear 19 1017 77 10000 2.6 290 14:39 10.09.2019
2185 Clear 19 1017 77 10000 2.6 290 14:21 10.09.2019
2186 Clear 19 1016 67 10000 1 0 13:48 10.09.2019
2187 Clear 18 1016 67 10000 1 0 13:24 10.09.2019
2188 Clear 18 1016 67 10000 1 0 12:55 10.09.2019
2189 Clear 18 1016 67 10000 1 0 12:55 10.09.2019
2190 Clear 18 1016 67 10000 1 0 12:36 10.09.2019
2191 Clear 16 1017 77 10000 2.6 20 12:18 10.09.2019
2192 Clear 16 1016 82 10000 1 0 11:42 10.09.2019
2193 Clear 14 1017 87 10000 1.5 80 11:22 10.09.2019
2194 Clear 14 1017 87 10000 1.5 80 10:57 10.09.2019
2195 Clear 13 1017 87 10000 1.5 80 10:36 10.09.2019
2196 Clouds 12 1017 93 10000 1 0 10:18 10.09.2019
2197 Fog 11 1016 100 10000 1.5 100 09:44 10.09.2019
2198 Clear 11 1016 100 10000 1.5 100 09:20 10.09.2019
2199 Clear 9 1016 100 10000 1.5 100 08:49 10.09.2019
2200 Clear 9 1016 100 10000 1.5 100 08:29 10.09.2019
2201 Clear 8 1016 100 10000 1 0 07:59 10.09.2019
2202 Clear 8 1016 100 10000 1 0 07:41 10.09.2019
2203 Clear 8 1016 100 10000 1 0 07:23 10.09.2019
2204 Clear 7 1015 100 10000 1.5 100 06:42 10.09.2019
2205 Clouds 7 1015 100 10000 1.5 100 06:21 10.09.2019
2206 Clear 8 1015 100 10000 1.5 100 04:24 10.09.2019
2207 Clear 8 1016 100 10000 1.5 110 02:40 10.09.2019
2208 Clear 8 1016 100 10000 1.5 110 02:21 10.09.2019
2209 Clear 8 1016 100 10000 1.5 110 02:21 10.09.2019
2210 Clear 8 1016 100 10000 1.5 110 02:21 10.09.2019
2211 Clear 8 1015 93 10000 0.5 0 01:50 10.09.2019
2212 Clear 8 1015 100 10000 0.5 0 01:23 10.09.2019
2213 Clear 8 1015 93 10000 2.1 90 00:36 10.09.2019
2214 Clouds 8 1016 93 10000 2.6 90 00:00 10.09.2019
2215 Clouds 8 1016 93 10000 2.6 110 23:40 09.09.2019
2216 Clouds 8 1016 93 10000 2.6 110 23:18 09.09.2019
2217 Clouds 8 1016 93 10000 2.6 110 22:55 09.09.2019
2218 Clear 8 1016 81 10000 0.5 0 22:37 09.09.2019
2219 Clear 8 1016 81 10000 0.5 0 22:19 09.09.2019
2220 Clouds 8 1016 76 10000 2.1 150 21:55 09.09.2019
2221 Clouds 8 1016 76 10000 2.1 150 21:55 09.09.2019
2222 Fog 9 1016 76 10000 2.1 150 21:37 09.09.2019
2223 Fog 9 1015 76 10000 2.1 200 21:18 09.09.2019
2224 Fog 9 1015 76 10000 2.1 200 20:55 09.09.2019
2225 Clear 10 1015 87 10000 1.5 210 20:36 09.09.2019
2226 Clear 10 1015 87 10000 1.5 210 20:18 09.09.2019
2227 Clear 10 1015 87 10000 1.5 210 19:55 09.09.2019
2228 Clear 12 1015 72 10000 1 200 19:37 09.09.2019
2229 Clear 13 1015 72 10000 1 200 19:18 09.09.2019
2230 Clouds 13 1015 62 10000 1 0 18:54 09.09.2019
2231 Clouds 15 1015 62 10000 1 0 18:36 09.09.2019
2232 Clouds 15 1015 62 10000 1 0 18:18 09.09.2019
2233 Clouds 15 1015 62 10000 1 0 17:55 09.09.2019
2234 Clouds 15 1015 67 10000 2.1 40 17:37 09.09.2019
2235 Clouds 14 1015 67 10000 2.1 50 17:19 09.09.2019
2236 Clouds 14 1016 67 10000 2.1 10 16:40 09.09.2019
2237 Clouds 15 1016 67 10000 2.1 10 16:21 09.09.2019
2238 Clouds 14 1016 76 10000 4.1 250 15:56 09.09.2019
2239 Clouds 14 1016 71 10000 1.5 0 15:38 09.09.2019
2240 Clouds 14 1016 71 10000 1.5 0 15:19 09.09.2019
2241 Clouds 14 1016 72 10000 1.5 0 14:57 09.09.2019
2242 Rain 14 1017 76 10000 1 80 14:38 09.09.2019
2243 Rain 13 1017 76 10000 1 80 14:20 09.09.2019
2244 Rain 12 1017 71 10000 1.5 0 13:45 09.09.2019
2245 Rain 12 1017 71 10000 1.5 0 13:21 09.09.2019
2246 Rain 11 1017 71 10000 3.1 290 12:58 09.09.2019
2247 Rain 11 1017 71 10000 3.1 290 12:40 09.09.2019
2248 Rain 11 1017 71 10000 3.1 290 12:40 09.09.2019
2249 Rain 10 1017 71 10000 3.1 290 12:20 09.09.2019
2250 Rain 10 1018 76 10000 3.6 270 11:48 09.09.2019
2251 Rain 10 1018 76 10000 3.6 270 11:24 09.09.2019
2252 Rain 9 1017 81 10000 2.6 260 11:00 09.09.2019
2253 Rain 9 1017 81 10000 2.6 260 10:41 09.09.2019
2254 Rain 9 1014 87 10000 2.1 10 10:21 09.09.2019
2255 Rain 9 1015 100 7000 5.1 260 09:57 09.09.2019
2256 Rain 9 1017 81 10000 2.6 260 09:38 09.09.2019
2257 Rain 8 1017 87 10000 3.1 270 09:19 09.09.2019
2258 Rain 8 1017 87 10000 3.1 270 09:19 09.09.2019
2259 Rain 8 1017 87 10000 4.1 260 08:39 09.09.2019
2260 Rain 8 1017 87 10000 4.1 260 08:20 09.09.2019
2261 -273 0 0 0 0 0 08:20 09.09.2019
2262 Rain 8 1017 87 10000 4.1 260 07:47 09.09.2019
2263 Rain 8 1017 87 10000 4.1 260 07:23 09.09.2019
2264 Rain 8 1017 87 10000 3.6 260 06:58 09.09.2019
2265 Rain 8 1017 87 10000 3.6 260 06:36 09.09.2019
2266 Rain 8 1017 93 10000 3.6 260 04:56 09.09.2019
2267 Rain 8 1016 93 10000 2.1 250 02:59 09.09.2019
2268 Rain 8 1016 93 10000 2.1 250 02:38 09.09.2019
2269 Rain 8 1017 87 10000 1 0 00:43 09.09.2019
2270 Rain 8 1017 87 10000 1 0 00:22 09.09.2019
2271 Rain 8 1017 93 10000 1.5 110 23:45 08.09.2019
2272 Rain 8 1017 93 10000 1.5 110 23:24 08.09.2019
2273 Rain 8 1017 93 10000 1.5 110 23:24 08.09.2019
2274 Rain 8 1017 93 10000 1 0 22:56 08.09.2019
2275 Rain 8 1017 93 10000 1.5 140 22:37 08.09.2019
2276 Rain 9 1017 93 10000 1.5 140 22:19 08.09.2019
2277 Rain 8 1017 100 10000 1 0 21:42 08.09.2019
2278 Rain 9 1017 100 10000 1 0 21:23 08.09.2019
2279 Rain 9 1017 93 10000 2.1 250 20:58 08.09.2019
2280 Rain 9 1017 93 10000 2.1 250 20:39 08.09.2019
2281 Rain 9 1017 93 10000 2.1 250 20:20 08.09.2019
2282 Rain 9 1017 93 10000 2.1 250 19:58 08.09.2019
2283 Rain 9 1017 93 10000 2.1 250 19:38 08.09.2019
2284 Rain 9 1017 93 10000 2.1 250 19:19 08.09.2019
2285 Rain 9 1017 93 10000 1.5 230 18:57 08.09.2019
2286 Rain 10 1017 93 10000 1.5 230 18:38 08.09.2019
2287 Rain 10 1016 93 10000 1 0 18:18 08.09.2019
2288 Rain 10 1016 93 10000 1 0 17:54 08.09.2019
2289 Rain 10 1016 93 10000 1 0 17:36 08.09.2019
2290 Rain 10 1016 93 10000 1 0 17:18 08.09.2019
2291 Rain 10 1016 87 10000 1 0 16:42 08.09.2019
2292 Rain 10 1016 87 10000 1 0 16:21 08.09.2019
2293 Rain 10 1017 87 10000 1 0 15:58 08.09.2019
2294 Rain 10 1017 87 10000 1 0 15:39 08.09.2019
2295 Rain 10 1017 87 10000 1 0 15:21 08.09.2019
2296 Rain 10 1017 87 10000 1 0 14:54 08.09.2019
2297 Rain 10 1017 87 10000 1 0 14:36 08.09.2019
2298 Rain 10 1017 87 10000 1 0 14:18 08.09.2019
2299 Rain 10 1017 87 10000 1 0 13:54 08.09.2019
2300 Rain 10 1016 93 8000 1 0 13:36 08.09.2019
2301 Rain 10 1016 93 8000 1 0 13:18 08.09.2019
2302 Rain 10 1017 93 8000 1 0 12:41 08.09.2019
2303 Rain 10 1018 93 8000 1.5 0 12:23 08.09.2019
2304 Rain 9 1018 93 8000 1.5 0 11:58 08.09.2019
2305 Rain 9 1017 93 9000 1.5 0 11:38 08.09.2019
2306 Rain 9 1017 93 9000 1.5 0 11:19 08.09.2019
2307 Mist 9 1017 87 9000 1 0 10:55 08.09.2019
2308 Mist 9 1017 87 9000 1 0 10:36 08.09.2019
2309 Mist 9 1017 87 9000 1 0 10:18 08.09.2019
2310 Rain 9 1017 100 10000 2.6 270 09:38 08.09.2019
2311 Rain 9 1017 100 10000 2.6 270 09:19 08.09.2019
2312 Rain 9 1017 100 5000 3.6 240 08:40 08.09.2019
2313 Rain 9 1017 100 5000 3.6 240 08:20 08.09.2019
2314 Clouds 8 1017 93 10000 1 0 07:59 08.09.2019
2315 Clouds 8 1017 93 8000 2.6 60 07:38 08.09.2019
2316 Clouds 8 1017 93 8000 2.6 60 07:19 08.09.2019
2317 Rain 8 1017 93 10000 2.6 320 06:44 08.09.2019
2318 Clouds 8 1016 93 10000 1.5 10 05:48 08.09.2019
2319 Clouds 8 1016 93 10000 1.5 10 05:29 08.09.2019
2320 Clouds 8 1018 87 10000 1.5 0 03:39 08.09.2019
2321 Clouds 8 1018 93 10000 2.1 40 02:53 08.09.2019
2322 Clouds 8 1018 100 10000 2.1 330 01:57 08.09.2019
2323 Clouds 8 1018 93 10000 2.6 10 01:34 08.09.2019
2324 Clouds 8 1018 93 10000 2.6 10 01:34 08.09.2019
2325 Clouds 9 1018 93 10000 0.5 0 00:53 08.09.2019
2326 Clear 9 1018 81 10000 2.1 260 00:34 08.09.2019
2327 Clouds 9 1018 100 10000 0.5 0 23:59 07.09.2019
2328 Clouds 10 1018 93 10000 2.1 110 23:38 07.09.2019
2329 Clouds 10 1018 93 10000 2.1 110 23:19 07.09.2019
2330 Clear 10 1019 87 10000 2.1 120 22:56 07.09.2019
2331 Rain 10 1019 87 10000 2.1 120 22:37 07.09.2019
2332 Clouds 10 1019 87 10000 2.1 110 22:18 07.09.2019
2333 Clouds 11 1019 82 10000 2.6 140 21:40 07.09.2019
2334 Clouds 11 1019 82 10000 2.6 140 21:40 07.09.2019
2335 Clouds 11 1019 82 10000 2.6 140 21:22 07.09.2019
2336 Clouds 11 1019 82 10000 2.6 140 21:22 07.09.2019
2337 Clouds 11 1019 82 10000 1.5 120 20:42 07.09.2019
2338 Clouds 12 1019 82 10000 1.5 120 20:22 07.09.2019
2339 Clouds 12 1019 82 10000 1.5 120 19:58 07.09.2019
2340 Clouds 12 1019 76 10000 1.5 120 19:39 07.09.2019
2341 Clouds 13 1019 76 10000 1.5 120 19:21 07.09.2019
2342 Clouds 13 1019 72 10000 2.6 120 18:59 07.09.2019
2343 Rain 13 1019 72 10000 4.1 10 18:40 07.09.2019
2344 Rain 14 1019 72 10000 4.1 10 18:22 07.09.2019
2345 Clouds 15 1019 72 10000 1.5 0 17:59 07.09.2019
2346 Clouds 15 1018 63 10000 2.1 150 17:39 07.09.2019
2347 Clouds 15 1018 63 10000 2.1 150 17:39 07.09.2019
2348 Clouds 15 1018 63 10000 2.1 150 17:19 07.09.2019
2349 Clouds 15 1018 59 10000 2.1 150 16:58 07.09.2019
2350 Clouds 15 1018 59 10000 2.1 150 16:58 07.09.2019
2351 Clouds 15 1018 59 10000 2.1 150 16:58 07.09.2019
2352 Clouds 16 1018 59 10000 2.1 150 16:40 07.09.2019
2353 Clouds 16 1019 59 10000 2.1 160 16:19 07.09.2019
2354 Clouds 15 1020 77 10000 2.6 90 15:46 07.09.2019
2355 Clouds 15 1020 77 10000 2.6 90 15:26 07.09.2019
2356 Clouds 14 1020 77 10000 2.6 90 14:57 07.09.2019
2357 Clouds 14 1020 82 10000 2.1 80 14:37 07.09.2019
2358 Clouds 14 1020 82 10000 2.1 80 14:18 07.09.2019
2359 Clouds 13 1020 82 10000 2.1 80 13:56 07.09.2019
2360 Clouds 13 1020 82 10000 2.1 80 13:56 07.09.2019
2361 Clouds 13 1020 82 10000 2.1 80 13:38 07.09.2019
2362 Rain 13 1020 82 10000 2.1 80 13:20 07.09.2019
2363 Rain 12 1021 93 10000 1.5 100 12:44 07.09.2019
2364 Rain 12 1021 93 10000 1.5 100 12:24 07.09.2019
2365 Rain 12 1021 100 10000 2.1 90 11:42 07.09.2019
2366 Rain 11 1021 100 10000 2.1 90 11:22 07.09.2019
2367 Rain 11 1021 100 10000 2.1 120 10:59 07.09.2019
2368 Rain 11 1021 100 10000 2.1 120 10:38 07.09.2019
2369 Rain 11 1021 100 10000 2.1 120 10:19 07.09.2019
2370 Rain 11 1021 100 7000 1.5 100 09:43 07.09.2019
2371 Rain 11 1020 100 10000 2.6 110 09:24 07.09.2019
2372 Rain 11 1020 100 10000 2.6 110 08:57 07.09.2019
2373 Rain 11 1020 100 10000 2.6 110 08:57 07.09.2019
2374 Rain 11 1020 100 10000 2.6 110 08:37 07.09.2019
2375 Rain 10 1020 100 10000 2.6 110 08:19 07.09.2019
2376 Rain 10 1020 100 7000 1 140 07:44 07.09.2019
2377 Rain 10 1020 100 7000 1 140 07:24 07.09.2019
2378 Rain 10 1020 100 6000 1 140 06:43 07.09.2019
2379 Rain 10 1020 100 6000 1 140 06:19 07.09.2019
2380 Rain 11 1021 100 4400 1.5 0 04:33 07.09.2019
2381 Rain 11 1021 93 10000 2.6 250 03:44 07.09.2019
2382 Rain 11 1021 100 9000 2.6 270 02:31 07.09.2019
2383 Rain 11 1021 100 7000 2.6 260 01:44 07.09.2019
2384 Rain 11 1021 100 6000 3.1 260 00:55 07.09.2019
2385 Rain 11 1021 100 5000 3.1 260 00:36 07.09.2019
2386 Rain 11 1021 100 4500 2.1 260 00:18 07.09.2019
2387 Rain 11 1022 100 5000 1.5 250 23:38 06.09.2019
2388 Rain 11 1022 100 5000 1.5 250 23:38 06.09.2019
2389 Rain 11 1022 100 5000 1.5 250 23:20 06.09.2019
2390 Rain 11 1022 100 5000 2.6 260 22:57 06.09.2019
2391 Rain 11 1022 100 5000 2.6 260 22:37 06.09.2019
2392 Rain 11 1022 100 5000 2.6 260 22:18 06.09.2019
2393 Rain 11 1022 93 4300 2.1 270 21:55 06.09.2019
2394 Rain 11 1022 100 5000 3.6 20 21:37 06.09.2019
2395 Rain 11 1022 100 5000 3.6 20 21:18 06.09.2019
2396 Drizzle 11 1021 87 10000 3.6 20 20:42 06.09.2019
2397 Drizzle 11 1021 87 10000 3.6 20 20:42 06.09.2019
2398 Drizzle 11 1021 87 10000 3.6 20 20:24 06.09.2019
2399 Rain 11 1021 87 10000 3.1 30 19:59 06.09.2019
2400 Rain 12 1021 77 10000 2.6 30 19:41 06.09.2019
2401 Rain 12 1021 77 10000 2.6 30 19:41 06.09.2019
2402 Rain 12 1021 77 10000 2.6 30 19:21 06.09.2019
2403 Rain 12 1021 77 10000 2.1 30 18:56 06.09.2019
2404 Rain 12 1021 82 10000 1.5 80 18:37 06.09.2019
2405 Drizzle 13 1021 82 10000 1.5 220 18:19 06.09.2019
2406 Clouds 13 1021 87 10000 1.5 200 17:40 06.09.2019
2407 Clouds 13 1021 82 10000 1.5 0 17:20 06.09.2019
2408 Clouds 13 1021 82 10000 1.5 0 16:43 06.09.2019
2409 Clouds 13 1021 82 10000 1.5 0 16:20 06.09.2019
2410 Clouds 13 1021 77 10000 1 200 15:59 06.09.2019
2411 Clouds 13 1021 77 10000 1 0 15:41 06.09.2019
2412 Clouds 14 1021 77 10000 1 0 15:22 06.09.2019
2413 Rain 14 1022 77 10000 2.1 50 14:47 06.09.2019
2414 Rain 13 1022 77 10000 2.1 50 14:19 06.09.2019
2415 Rain 13 1022 77 10000 2.1 50 13:44 06.09.2019
2416 Rain 13 1022 77 10000 2.1 50 13:23 06.09.2019
2417 Clouds 14 1022 77 10000 1 0 12:57 06.09.2019
2418 Clouds 13 1022 77 10000 1 0 12:37 06.09.2019
2419 Clouds 13 1022 82 10000 1.5 0 12:18 06.09.2019
2420 Clouds 12 1022 82 10000 2.1 20 11:41 06.09.2019
2421 Clouds 12 1022 82 10000 2.1 20 11:23 06.09.2019
2422 Clouds 12 1022 82 10000 2.1 20 10:56 06.09.2019
2423 Clouds 12 1022 82 10000 2.1 20 10:56 06.09.2019
2424 Clouds 12 1022 82 10000 2.1 20 10:38 06.09.2019
2425 Clouds 11 1022 82 10000 2.1 20 10:18 06.09.2019
2426 Rain 11 1022 93 10000 1.5 240 09:38 06.09.2019
2427 Rain 10 1022 93 10000 1.5 240 09:20 06.09.2019
2428 Rain 10 1022 100 10000 1.5 240 08:56 06.09.2019
2429 Rain 10 1022 100 10000 1 0 08:37 06.09.2019
2430 Rain 10 1022 100 10000 1 0 08:19 06.09.2019
2431 Fog 10 1022 93 10000 1 0 07:44 06.09.2019
2432 Fog 9 1022 93 10000 1 0 07:25 06.09.2019
2433 Fog 9 1022 93 10000 1 0 07:25 06.09.2019
2434 Rain 9 1022 93 10000 1 270 06:53 06.09.2019
2435 Rain 9 1022 93 10000 0.5 0 05:58 06.09.2019
2436 Rain 9 1023 100 10000 1.5 140 04:58 06.09.2019
2437 Rain 9 1023 100 10000 1 100 04:33 06.09.2019
2438 Rain 9 1023 100 10000 1.5 80 03:39 06.09.2019
2439 Rain 9 1024 100 10000 1.5 110 01:49 06.09.2019
2440 Rain 10 1024 100 10000 1 0 00:23 06.09.2019
2441 Rain 10 1024 100 10000 1 0 00:23 06.09.2019
2442 Rain 10 1024 100 10000 1 0 23:44 05.09.2019
2443 Rain 10 1024 100 10000 1 0 23:24 05.09.2019
2444 Rain 10 1024 93 10000 0.5 0 22:47 05.09.2019
2445 Rain 10 1024 93 10000 0.5 0 22:28 05.09.2019
2446 Rain 10 1024 93 10000 0.5 0 21:58 05.09.2019
2447 Rain 10 1024 100 10000 1.5 120 21:40 05.09.2019
2448 Rain 10 1024 100 10000 1.5 120 21:40 05.09.2019
2449 Rain 10 1024 100 10000 1.5 120 21:21 05.09.2019
2450 Rain 10 1023 100 10000 1 0 20:58 05.09.2019
2451 Rain 10 1023 100 10000 1 0 20:58 05.09.2019
2452 Rain 10 1023 100 10000 1 0 20:40 05.09.2019
2453 Rain 10 1023 100 10000 1 0 20:22 05.09.2019
2454 Drizzle 10 1023 87 10000 1 0 19:59 05.09.2019
2455 Drizzle 10 1023 87 10000 1 0 19:41 05.09.2019
2456 Drizzle 11 1022 93 10000 1 140 19:22 05.09.2019
2457 Drizzle 11 1022 93 10000 1 140 18:56 05.09.2019
2458 Rain 11 1022 93 10000 1 140 18:38 05.09.2019
2459 Rain 11 1022 93 10000 1.5 140 18:18 05.09.2019
2460 Rain 11 1021 93 10000 2.6 330 17:40 05.09.2019
2461 Rain 11 1021 93 10000 2.6 330 17:40 05.09.2019
2462 Rain 11 1022 93 10000 1 0 17:22 05.09.2019
2463 Rain 11 1022 93 10000 1 0 16:58 05.09.2019
2464 Rain 11 1022 93 10000 1 0 16:40 05.09.2019
2465 Rain 11 1022 93 10000 1 0 16:19 05.09.2019
2466 Rain 11 1022 87 10000 2.1 350 15:41 05.09.2019
2467 Rain 12 1021 93 10000 6.2 290 15:19 05.09.2019
2468 Rain 12 1021 93 10000 6.2 290 14:59 05.09.2019
2469 Rain 12 1021 93 10000 6.2 290 14:40 05.09.2019
2470 Rain 12 1021 93 10000 6.2 290 14:20 05.09.2019
2471 Rain 13 1020 87 8000 1 0 13:43 05.09.2019
2472 Rain 14 1020 87 8000 1 0 13:23 05.09.2019
2473 Rain 14 1020 77 10000 1.5 0 12:54 05.09.2019
2474 Rain 14 1020 77 10000 1.5 0 12:36 05.09.2019
2475 Rain 15 1020 77 10000 1.5 0 12:18 05.09.2019
2476 Rain 14 1019 72 10000 1.5 250 11:43 05.09.2019
2477 Rain 15 1019 77 10000 4.6 280 11:19 05.09.2019
2478 Clouds 15 1019 77 10000 4.6 280 10:42 05.09.2019
2479 Clouds 15 1019 77 10000 4.6 280 10:23 05.09.2019
2480 Clouds 15 1018 77 10000 4.1 280 09:58 05.09.2019
2481 Clouds 14 1018 77 10000 4.1 280 09:40 05.09.2019
2482 Clouds 14 1018 82 10000 3.1 280 09:18 05.09.2019
2483 Clouds 13 1018 82 10000 3.1 280 08:46 05.09.2019
2484 Clouds 13 1018 82 10000 3.1 280 08:26 05.09.2019
2485 Clouds 13 1017 87 10000 2.6 310 07:46 05.09.2019
2486 Clouds 13 1017 87 10000 2.6 310 07:28 05.09.2019
2487 Clouds 13 1017 87 10000 0.5 0 06:58 05.09.2019
2488 Clouds 13 1017 87 10000 1 0 06:31 05.09.2019
2489 Clouds 13 1016 82 10000 1 0 05:51 05.09.2019
2490 Clouds 13 1016 82 10000 1 0 05:32 05.09.2019
2491 Clouds 13 1017 87 10000 1 0 04:53 05.09.2019
2492 Clear 13 1019 93 10000 1.5 40 04:28 05.09.2019
2493 Clouds 14 1016 87 10000 1 0 03:40 05.09.2019
2494 Clouds 14 1016 87 10000 1 0 02:51 05.09.2019
2495 Clouds 14 1016 88 10000 2.1 80 02:27 05.09.2019
2496 Clear 14 1020 93 10000 1 30 01:37 05.09.2019
2497 Clear 14 1020 93 10000 1 30 01:37 05.09.2019
2498 Clear 14 1017 76 0 2.6 220 00:44 05.09.2019
2499 Clear 14 1020 87 10000 2.1 20 00:21 05.09.2019
2500 Clear 14 1017 93 10000 0.5 0 23:55 04.09.2019
2501 Clear 15 1017 93 10000 1 0 23:36 04.09.2019
2502 Clear 14 1017 93 10000 1 0 23:18 04.09.2019
2503 Clear 15 1016 82 10000 1.5 180 22:40 04.09.2019
2504 Clear 15 1016 82 10000 1.5 180 22:19 04.09.2019
2505 Clear 16 1016 93 10000 1 0 21:40 04.09.2019
2506 Clear 16 1016 93 10000 1 0 21:20 04.09.2019
2507 Clear 17 1016 93 10000 1 0 20:57 04.09.2019
2508 Clear 18 1016 72 10000 1 0 20:39 04.09.2019
2509 Clear 18 1016 72 10000 1 0 20:19 04.09.2019
2510 Clear 19 1016 72 10000 1 0 19:56 04.09.2019
2511 Clear 20 1016 53 10000 1 50 19:38 04.09.2019
2512 Clear 21 1016 53 10000 1 50 19:19 04.09.2019
2513 Clear 21 1016 56 10000 1.5 0 18:38 04.09.2019
2514 Clear 23 1016 56 10000 1.5 0 18:19 04.09.2019
2515 Clear 23 1016 64 10000 2.1 50 17:42 04.09.2019
2516 Clear 23 1016 64 10000 2.1 50 17:42 04.09.2019
2517 Clear 23 1016 64 10000 2.1 50 17:23 04.09.2019
2518 Clear 23 1017 73 10000 2.1 60 16:58 04.09.2019
2519 Clear 23 1017 73 10000 2.1 60 16:40 04.09.2019
2520 Clear 23 1017 73 10000 2.1 60 16:22 04.09.2019
2521 Clear 23 1017 73 10000 2.1 60 15:56 04.09.2019
2522 Clear 23 1017 73 10000 2.1 60 15:55 04.09.2019
2523 Clear 23 1018 77 10000 1.5 0 15:37 04.09.2019
2524 Clear 22 1018 77 10000 1.5 0 15:19 04.09.2019
2525 Clear 22 1018 53 10000 1.5 0 14:54 04.09.2019
2526 Clear 21 1018 82 10000 1.5 0 14:36 04.09.2019
2527 Clear 21 1018 82 10000 1.5 0 14:18 04.09.2019
2528 Clear 21 1019 82 10000 2.1 310 13:40 04.09.2019
2529 Clear 21 1019 82 10000 2.1 330 13:21 04.09.2019
2530 Clear 21 1019 82 10000 2.1 310 13:21 04.09.2019
2531 Clear 21 1019 88 10000 2.1 310 12:46 04.09.2019
2532 Clear 21 1019 88 10000 2.1 310 12:27 04.09.2019
2533 Clear 21 1019 88 10000 2.1 310 12:27 04.09.2019
2534 Clouds 19 1020 93 10000 1 0 11:59 04.09.2019
2535 Clouds 18 1020 93 10000 2.1 290 11:41 04.09.2019
2536 Clouds 18 1020 93 10000 2.1 290 11:21 04.09.2019
2537 Clouds 18 1020 93 10000 2.1 290 10:58 04.09.2019
2538 Clouds 17 1020 93 10000 2.1 290 10:39 04.09.2019
2539 Clouds 17 1020 93 10000 2.1 290 10:21 04.09.2019
2540 Clouds 16 1021 100 10000 0.5 0 09:46 04.09.2019
2541 Clouds 13 1021 100 10000 0.5 0 09:22 04.09.2019
2542 Clouds 12 1021 100 10000 0.5 0 08:57 04.09.2019
2543 Fog 12 1021 100 10000 0.5 0 08:38 04.09.2019
2544 Fog 11 1021 100 10000 0.5 0 08:19 04.09.2019
2545 Fog 9 1021 100 10000 0.5 0 07:43 04.09.2019
2546 Fog 9 1021 100 10000 0.5 0 07:24 04.09.2019
2547 Fog 9 1021 100 10000 1 110 06:39 04.09.2019
2548 Clear 10 1021 100 10000 1 0 04:56 04.09.2019
2549 Clear 10 1022 100 10000 1.5 0 04:25 04.09.2019
2550 Clear 10 1022 100 10000 0.5 0 03:39 04.09.2019
2551 Clear 11 1023 100 10000 1 0 01:21 04.09.2019
2552 Clear 11 1023 100 10000 1 110 00:46 04.09.2019
2553 Clear 11 1023 100 10000 1 110 00:27 04.09.2019
2554 Clear 12 1023 93 10000 0.5 0 23:53 03.09.2019
2555 Clear 12 1023 87 10000 2.1 110 23:27 03.09.2019
2556 Clear 12 1023 93 10000 2.1 100 22:57 03.09.2019
2557 Clear 12 1023 93 10000 2.1 100 22:57 03.09.2019
2558 Clear 12 1024 93 10000 2.1 90 22:38 03.09.2019
2559 Clear 12 1024 93 10000 2.1 90 22:20 03.09.2019
2560 Clear 13 1024 87 10000 1.5 90 21:55 03.09.2019
2561 Clear 13 1024 87 10000 1.5 90 21:55 03.09.2019
2562 Clear 14 1024 67 10000 1.5 160 21:36 03.09.2019
2563 Clear 14 1024 67 10000 1.5 160 21:36 03.09.2019
2564 Clear 14 1024 63 10000 1.5 0 21:18 03.09.2019
2565 Clear 15 1024 63 10000 1.5 0 20:41 03.09.2019
2566 Clear 16 1024 63 10000 1.5 0 20:21 03.09.2019
2567 Clear 17 1024 63 10000 1 210 19:55 03.09.2019
2568 Clear 18 1024 63 10000 1 210 19:37 03.09.2019
2569 Clear 19 1024 60 10000 2.1 280 19:18 03.09.2019
2570 Clear 19 1024 60 10000 2.1 280 18:44 03.09.2019
2571 Clear 19 1024 60 10000 2.1 280 18:44 03.09.2019
2572 Clear 20 1024 49 10000 2.6 280 18:25 03.09.2019
2573 Clear 20 1024 49 10000 2.6 280 17:58 03.09.2019
2574 Clear 21 1024 52 10000 2.1 280 17:39 03.09.2019
2575 Clear 20 1024 52 10000 2.1 280 17:19 03.09.2019
2576 Clear 21 1024 52 10000 2.6 270 16:54 03.09.2019
2577 Clear 21 1024 52 10000 2.6 270 16:36 03.09.2019
2578 Clear 20 1025 56 10000 3.1 290 16:18 03.09.2019
2579 Clear 20 1025 68 10000 2.6 280 15:39 03.09.2019
2580 Clear 20 1025 72 10000 2.6 270 15:21 03.09.2019
2581 Clear 20 1025 72 10000 2.6 270 14:57 03.09.2019
2582 Clear 20 1025 72 10000 2.6 270 14:39 03.09.2019
2583 Clear 19 1025 63 10000 2.6 270 14:20 03.09.2019
2584 Clear 19 1025 63 10000 2.6 270 13:56 03.09.2019
2585 Clear 19 1025 77 10000 2.6 280 13:37 03.09.2019
2586 Clouds 19 1026 88 10000 2.6 300 13:19 03.09.2019
2587 Clouds 19 1026 88 10000 2.6 300 12:48 03.09.2019
2588 Clouds 19 1026 88 10000 2.6 300 12:29 03.09.2019
2589 Clouds 17 1026 87 10000 2.1 0 11:57 03.09.2019
2590 Clouds 16 1026 93 10000 1.5 300 11:38 03.09.2019
2591 Clouds 17 1026 93 10000 1.5 300 11:18 03.09.2019
2592 Clouds 16 1026 100 10000 1 0 10:41 03.09.2019
2593 Clouds 15 1026 100 10000 1 0 10:22 03.09.2019
2594 Clouds 14 1026 100 10000 0.5 0 09:53 03.09.2019
2595 Clouds 12 1026 100 10000 1 0 09:34 03.09.2019
2596 Fog 10 1026 100 10000 2.6 100 08:59 03.09.2019
2597 Fog 9 1026 100 10000 2.6 100 08:39 03.09.2019
2598 Fog 9 1026 100 10000 2.6 100 08:20 03.09.2019
2599 Fog 8 1025 100 10000 1.5 100 07:43 03.09.2019
2600 Fog 8 1025 100 10000 1.5 100 07:43 03.09.2019
2601 Fog 8 1025 100 10000 1.5 100 07:24 03.09.2019
2602 Fog 8 1025 100 10000 2.1 110 06:55 03.09.2019
2603 Fog 8 1025 100 10000 2.1 110 06:37 03.09.2019
2604 Clear 9 1025 100 10000 3.1 110 03:44 03.09.2019
2605 Clear 9 1025 100 10000 3.1 110 02:52 03.09.2019
2606 Clear 9 1025 100 10000 0.5 0 02:32 03.09.2019
2607 Clear 9 1025 100 10000 1.5 120 01:59 03.09.2019
2608 Clear 9 1025 100 10000 0.5 0 01:41 03.09.2019
2609 Clear 10 1025 100 10000 0.5 0 01:22 03.09.2019
2610 Clear 10 1025 100 10000 1 0 00:31 03.09.2019
2611 Clear 10 1025 93 10000 2.1 120 23:57 02.09.2019
2612 Clear 11 1025 93 10000 1.5 170 23:36 02.09.2019
2613 Clear 11 1025 93 10000 1.5 170 23:18 02.09.2019
2614 Rain 11 1025 100 10000 2.1 100 22:55 02.09.2019
2615 Rain 11 1025 100 10000 2.1 100 22:55 02.09.2019
2616 Clouds 11 1025 93 10000 1 170 22:36 02.09.2019
2617 Rain 11 1025 87 10000 1.5 0 22:18 02.09.2019
2618 Rain 11 1025 87 10000 1.5 0 21:55 02.09.2019
2619 Rain 12 1025 82 10000 1 0 21:36 02.09.2019
2620 Rain 12 1025 82 10000 1 0 21:18 02.09.2019
2621 Clouds 13 1024 93 10000 1.5 0 20:41 02.09.2019
2622 Clouds 13 1024 93 10000 1.5 0 20:22 02.09.2019
2623 Clouds 13 1024 87 10000 1 0 19:57 02.09.2019
2624 Clouds 13 1024 87 10000 1 0 19:57 02.09.2019
2625 Clouds 14 1023 82 10000 1 0 19:39 02.09.2019
2626 Clouds 14 1023 82 10000 1 0 19:39 02.09.2019
2627 Rain 14 1023 77 10000 1.5 160 19:21 02.09.2019
2628 Rain 14 1023 82 10000 1 0 18:42 02.09.2019
2629 Rain 14 1023 82 10000 1 0 18:42 02.09.2019
2630 Rain 14 1023 82 10000 1 0 18:23 02.09.2019
2631 Drizzle 14 1023 82 10000 1.5 0 17:59 02.09.2019
2632 Clouds 15 1023 77 10000 1.5 0 17:40 02.09.2019
2633 Clouds 15 1023 77 10000 1.5 0 17:21 02.09.2019
2634 Clouds 15 1023 72 10000 2.6 40 16:59 02.09.2019
2635 -273 0 0 0 0 0 16:38 02.09.2019
2636 Clouds 15 1023 72 10000 2.6 40 16:20 02.09.2019
2637 Clouds 15 1023 77 10000 3.1 10 15:45 02.09.2019
2638 Clouds 15 1023 77 10000 3.1 10 15:27 02.09.2019
2639 Clouds 15 1023 77 10000 3.1 10 14:57 02.09.2019
2640 Clouds 15 1023 77 10000 3.1 340 14:39 02.09.2019
2641 Clouds 15 1023 77 10000 3.1 340 14:21 02.09.2019
2642 Rain 15 1023 77 10000 1.5 350 13:56 02.09.2019
2643 Rain 15 1023 82 10000 4.1 330 13:37 02.09.2019
2644 Rain 15 1022 88 10000 3.6 320 13:18 02.09.2019
2645 Clouds 15 1022 88 10000 3.6 320 12:45 02.09.2019
2646 Clouds 15 1022 88 10000 3.6 320 12:25 02.09.2019
2647 Clouds 15 1022 88 10000 3.6 310 11:58 02.09.2019
2648 Rain 15 1021 88 10000 1 0 11:38 02.09.2019
2649 Rain 15 1021 88 10000 1 0 11:20 02.09.2019
2650 Rain 14 1021 88 10000 1 0 10:56 02.09.2019
2651 Rain 14 1021 88 10000 1 0 10:37 02.09.2019
2652 Rain 14 1021 88 10000 1 0 10:19 02.09.2019
2653 Rain 14 1020 100 9000 1 0 09:45 02.09.2019
2654 Rain 14 1020 100 9000 1 0 09:22 02.09.2019
2655 Rain 14 1020 100 9000 1 0 09:22 02.09.2019
2656 Rain 14 1020 100 8000 1 0 08:45 02.09.2019
2657 Rain 14 1020 100 8000 1 0 08:45 02.09.2019
2658 Rain 14 1020 100 8000 1 0 08:23 02.09.2019
2659 Rain 14 1020 100 8000 1 0 07:59 02.09.2019
2660 Rain 14 1020 100 8000 0.5 0 07:40 02.09.2019
2661 Rain 14 1020 100 8000 0.5 0 07:21 02.09.2019
2662 Rain 14 1019 100 8000 1 210 06:44 02.09.2019
2663 Rain 14 1019 100 8000 1 210 06:22 02.09.2019
2664 Rain 14 1019 100 10000 0.5 0 05:44 02.09.2019
2665 Rain 14 1019 100 10000 0.5 0 05:18 02.09.2019
2666 Rain 15 1020 100 10000 0.5 0 02:46 02.09.2019
2667 Rain 15 1020 100 10000 1 0 01:43 02.09.2019
2668 Rain 15 1019 93 7000 2.6 300 00:47 02.09.2019
2669 Rain 15 1019 93 7000 2.6 300 00:28 02.09.2019
2670 Rain 16 1018 100 7000 1 240 23:41 01.09.2019
2671 Rain 16 1018 100 7000 1 240 23:21 01.09.2019
2672 Rain 16 1018 100 10000 1 120 22:57 01.09.2019
2673 Rain 16 1018 100 10000 1 0 22:39 01.09.2019
2674 Rain 16 1018 93 2200 7.2 290 22:18 01.09.2019
2675 Rain 17 1018 93 2200 7.2 290 21:55 01.09.2019
2676 Clouds 18 1017 77 10000 4.6 360 21:37 01.09.2019
2677 Clouds 18 1016 82 10000 1 0 21:18 01.09.2019
2678 Clouds 18 1016 82 10000 1 0 20:55 01.09.2019
2679 Clouds 19 1016 73 10000 1 0 20:36 01.09.2019
2680 Clouds 19 1015 73 10000 3.1 100 20:18 01.09.2019
2681 Clouds 19 1015 73 10000 3.1 100 20:18 01.09.2019
2682 Clouds 19 1015 77 10000 3.1 100 19:41 01.09.2019
2683 Clouds 19 1015 83 10000 2.1 80 19:21 01.09.2019
2684 Clear 20 1016 82 10000 1.5 0 18:57 01.09.2019
2685 Clouds 20 1015 83 10000 2.1 80 18:57 01.09.2019
2686 Clouds 20 1015 73 10000 2.1 80 18:38 01.09.2019
2687 Rain 21 1015 73 10000 1.5 30 18:20 01.09.2019
2688 Rain 21 1015 73 10000 1.5 30 17:54 01.09.2019
2689 Rain 21 1015 73 10000 1.5 30 17:36 01.09.2019
2690 Rain 22 1015 73 10000 1.5 30 17:18 01.09.2019
2691 Clouds 22 1015 78 10000 2.1 40 16:39 01.09.2019
2692 Clouds 22 1015 78 10000 2.1 40 16:18 01.09.2019
2693 Clouds 23 1015 69 10000 2.6 330 15:45 01.09.2019
2694 Clouds 22 1015 69 10000 2.6 330 15:26 01.09.2019
2695 Clouds 22 1015 73 10000 3.6 320 14:55 01.09.2019
2696 Clouds 22 1016 78 10000 1.5 0 14:37 01.09.2019
2697 Clouds 22 1016 83 10000 2.47 300.94 14:18 01.09.2019
2698 Clouds 22 1016 83 10000 2.1 350 13:41 01.09.2019
2699 Clouds 23 1016 83 10000 2.1 350 13:23 01.09.2019
2700 Rain 22 1016 78 10000 4.1 340 12:45 01.09.2019
2701 Rain 22 1016 78 10000 4.1 340 12:26 01.09.2019
2702 Rain 21 1016 83 10000 4.1 340 11:59 01.09.2019
2703 Rain 21 1016 69 10000 3.6 330 11:39 01.09.2019
2704 Rain 21 1016 69 10000 3.6 330 11:19 01.09.2019
2705 Clear 21 1016 78 10000 1.5 270 11:19 01.09.2019
2706 Clear 21 1016 78 10000 1.5 270 10:45 01.09.2019
2707 Clear 20 1016 78 10000 1.5 270 10:23 01.09.2019
2708 Rain 21 1016 78 10000 1.5 270 09:56 01.09.2019
2709 Rain 19 1015 77 10000 1.5 0 09:38 01.09.2019
2710 Clouds 19 1015 88 10000 1 90 09:19 01.09.2019
2711 Clouds 18 1015 93 10000 2.1 90 08:42 01.09.2019
2712 Clouds 18 1015 93 10000 2.1 90 08:21 01.09.2019
2713 Clear 17 1015 93 10000 0.5 0 07:46 01.09.2019
2714 Clear 17 1015 88 10000 1 0 07:21 01.09.2019
2715 Clear 17 1014 82 10000 1.5 0 06:39 01.09.2019
2716 Clear 16 1014 77 10000 2.1 250 05:59 01.09.2019
2717 Clear 16 1014 77 10000 2.1 250 05:59 01.09.2019
2718 Clear 17 1014 82 10000 1.5 230 05:27 01.09.2019
2719 Clouds 16 1014 82 10000 1 0 04:19 01.09.2019
2720 Clear 16 1014 88 10000 0.5 0 03:37 01.09.2019
2721 Clear 17 1014 77 10000 0.5 0 02:40 01.09.2019
2722 Clear 17 1014 77 10000 0.5 0 02:22 01.09.2019
2723 Clouds 17 1015 67 0 2.1 260 01:30 01.09.2019
2724 Clouds 17 1014 82 10000 1.5 50 00:59 01.09.2019
2725 Clouds 17 1015 63 0 2.1 250 00:40 01.09.2019
2726 Clear 18 1015 88 10000 2.6 190 00:20 01.09.2019
2727 Clouds 19 1023 87 10000 2.1 30 23:43 31.08.2019
2728 Clouds 19 1023 87 10000 2.1 30 23:21 31.08.2019
2729 Clear 18 1015 88 10000 2.1 190 22:55 31.08.2019
2730 Clouds 19 1023 87 10000 3.1 10 22:37 31.08.2019
2731 Clouds 19 1023 87 10000 3.1 10 22:19 31.08.2019
2732 Clear 20 1014 47 10000 5.1 0 21:44 31.08.2019
2733 Clear 21 1014 47 10000 5.1 0 21:22 31.08.2019
2734 Clear 21 1014 47 10000 5.1 0 20:59 31.08.2019
2735 Clouds 21 1014 47 10000 5.1 180 20:41 31.08.2019
2736 Clouds 22 1014 47 10000 5.1 180 20:22 31.08.2019
2737 Clouds 22 1014 83 10000 2.1 100 19:41 31.08.2019
2738 Clouds 23 1014 83 10000 2.1 100 19:22 31.08.2019
2739 Clouds 24 1014 78 10000 1.5 0 18:55 31.08.2019
2740 Clouds 25 1014 78 10000 1.5 80 18:37 31.08.2019
2741 Clouds 25 1014 78 10000 1.5 80 18:19 31.08.2019
2742 Clouds 26 1014 78 10000 1.5 80 17:54 31.08.2019
2743 Clouds 26 1015 73 10000 1 0 17:36 31.08.2019
2744 Clouds 26 1015 73 10000 1 0 17:36 31.08.2019
2745 Clouds 26 1015 73 10000 1 0 17:18 31.08.2019
2746 Clear 27 1015 65 10000 1 0 16:42 31.08.2019
2747 Clear 26 1015 65 10000 1 0 16:23 31.08.2019
2748 Clear 26 1015 65 10000 1.5 0 15:59 31.08.2019
2749 Clear 26 1016 65 10000 1 0 15:40 31.08.2019
2750 Clear 26 1016 69 10000 2.1 40 15:18 31.08.2019
2751 Clear 26 1017 73 10000 2.1 30 14:42 31.08.2019
2752 Clear 26 1017 73 10000 2.1 30 14:24 31.08.2019
2753 Clear 26 1017 73 10000 2.1 30 13:57 31.08.2019
2754 Clear 26 1017 73 10000 2.1 30 13:57 31.08.2019
2755 Clear 25 1017 78 10000 1 0 13:37 31.08.2019
2756 Clear 26 1018 78 10000 1 0 13:18 31.08.2019
2757 Clear 25 1018 78 10000 1 0 12:42 31.08.2019
2758 Clear 24 1018 78 10000 1 0 12:21 31.08.2019
2759 Clear 24 1018 83 10000 2.1 10 11:59 31.08.2019
2760 Clear 23 1018 83 10000 2.1 310 11:41 31.08.2019
2761 Clear 22 1018 83 10000 2.1 310 11:23 31.08.2019
2762 Clear 24 1018 83 10000 2.1 310 10:55 31.08.2019
2763 Clear 23 1018 100 10000 1 0 10:36 31.08.2019
2764 Clear 20 1018 100 10000 1 0 10:18 31.08.2019
2765 Clear 20 1018 100 10000 1 250 09:40 31.08.2019
2766 Clear 17 1018 100 10000 1 250 09:21 31.08.2019
2767 Clouds 16 1018 100 7000 1 0 08:45 31.08.2019
2768 Clouds 16 1018 100 7000 1 0 08:27 31.08.2019
2769 Clouds 15 1018 100 7000 1 0 07:58 31.08.2019
2770 Clear 15 1018 100 10000 1 0 07:37 31.08.2019
2771 Mist 15 1018 100 3600 0.5 0 07:18 31.08.2019
2772 Mist 15 1018 100 4600 0.5 0 06:26 31.08.2019
2773 Mist 15 1018 100 4600 0.5 0 06:26 31.08.2019
2774 Clouds 15 1018 100 5000 1 0 05:50 31.08.2019
2775 Clouds 15 1018 100 6000 0.5 120 05:27 31.08.2019
2776 Clouds 15 1018 100 5000 0.5 0 04:28 31.08.2019
2777 Clear 16 1019 100 10000 1.5 0 03:42 31.08.2019
2778 Clouds 16 1019 93 10000 0.5 0 02:22 31.08.2019
2779 Clear 17 1020 93 10000 0.5 0 01:47 31.08.2019
2780 Clear 17 1020 93 10000 0.5 0 01:28 31.08.2019
2781 Clear 17 1020 93 10000 1 0 00:45 31.08.2019
2782 Clear 18 1020 93 10000 1 0 00:26 31.08.2019
2783 Clear 18 1020 93 10000 1 220 23:48 30.08.2019
2784 Clouds 19 1020 88 10000 1.5 200 23:19 30.08.2019
2785 Clouds 18 1020 88 10000 1.5 200 22:57 30.08.2019
2786 Clouds 19 1021 88 10000 0.5 0 22:37 30.08.2019
2787 Clouds 19 1021 83 10000 0.5 0 22:19 30.08.2019
2788 Clouds 19 1021 83 10000 0.5 0 21:56 30.08.2019
2789 Clouds 19 1021 83 10000 0.5 0 21:36 30.08.2019
2790 Clouds 19 1021 83 10000 0.5 0 21:36 30.08.2019
2791 Rain 20 1021 83 10000 0.5 0 21:18 30.08.2019
2792 Clouds 21 1020 83 10000 1 0 21:18 30.08.2019
2793 Clouds 21 1020 83 10000 1 0 20:43 30.08.2019
2794 Clouds 22 1020 83 10000 1 0 20:22 30.08.2019
2795 Clouds 22 1020 69 10000 2.1 280 19:59 30.08.2019
2796 Clouds 22 1020 69 10000 2.1 280 19:59 30.08.2019
2797 Clouds 22 1020 69 10000 2.1 280 19:41 30.08.2019
2798 Clouds 23 1020 69 10000 2.1 280 19:21 30.08.2019
2799 Clouds 23 1020 65 10000 2.6 290 18:58 30.08.2019
2800 Clouds 24 1020 65 10000 2.6 290 18:40 30.08.2019
2801 Clouds 26 1021 61 10000 3.1 260 18:20 30.08.2019
2802 Clouds 27 1021 61 10000 3.1 260 17:56 30.08.2019
2803 Clouds 27 1021 61 10000 3.1 260 17:37 30.08.2019
2804 Clouds 27 1021 61 10000 3.1 260 17:37 30.08.2019
2805 Clouds 27 1021 61 10000 3.6 270 17:18 30.08.2019
2806 Clouds 27 1021 61 10000 3.6 270 16:43 30.08.2019
2807 Clouds 27 1021 61 10000 3.6 270 16:25 30.08.2019
2808 Clear 27 1022 61 10000 3.1 280 15:55 30.08.2019
2809 Clear 27 1022 61 10000 3.1 280 15:36 30.08.2019
2810 Clear 26 1022 61 10000 3.1 280 15:18 30.08.2019
2811 Clear 26 1022 61 10000 2.1 230 14:42 30.08.2019
2812 Clear 25 1022 61 10000 2.1 230 14:23 30.08.2019
2813 Clear 25 1023 69 10000 2.1 300 13:45 30.08.2019
2814 Clear 25 1023 69 10000 2.1 300 13:23 30.08.2019
2815 Clear 25 1023 83 10000 2.1 290 12:59 30.08.2019
2816 Clear 25 1023 83 10000 2.1 290 12:41 30.08.2019
2817 Clear 23 1023 83 10000 2.1 290 12:22 30.08.2019
2818 Clear 23 1024 83 10000 1.5 350 11:43 30.08.2019
2819 Clear 22 1024 83 10000 1.5 350 11:25 30.08.2019
2820 Clear 22 1024 88 10000 0.5 0 10:57 30.08.2019
2821 Clear 21 1024 88 10000 1 0 10:36 30.08.2019
2822 Clear 21 1023 88 10000 1.5 0 10:18 30.08.2019
2823 Clear 19 1023 93 10000 0.5 0 09:42 30.08.2019
2824 Clear 17 1023 93 10000 1 80 09:20 30.08.2019
2825 Clear 17 1023 93 10000 1 80 08:57 30.08.2019
2826 Clear 17 1023 93 10000 1 80 08:57 30.08.2019
2827 Clear 16 1023 100 10000 1 0 08:38 30.08.2019
2828 Clear 15 1023 100 10000 1 0 08:20 30.08.2019
2829 Fog 14 1023 100 10000 1 0 07:42 30.08.2019
2830 Fog 14 1023 100 10000 1 0 07:23 30.08.2019
2831 Fog 14 1023 100 10000 1 90 06:47 30.08.2019
2832 Fog 14 1023 100 10000 1 90 06:29 30.08.2019
2833 Fog 14 1022 100 9000 2.1 100 05:54 30.08.2019
2834 Clear 15 1022 100 10000 1 0 04:20 30.08.2019
2835 Clear 15 1022 100 10000 1 0 04:20 30.08.2019
2836 Clear 15 1022 93 10000 1 110 03:38 30.08.2019
2837 Clear 15 1022 93 10000 1 110 03:38 30.08.2019
2838 Clear 15 1022 93 10000 1 110 03:38 30.08.2019
2839 Clear 15 1022 93 10000 1 110 03:18 30.08.2019
2840 Clear 15 1022 93 10000 1 110 03:18 30.08.2019
2841 Clear 15 1022 100 10000 0.5 0 02:29 30.08.2019
2842 Clear 16 1023 93 10000 2.1 120 01:30 30.08.2019
2843 Clear 16 1023 100 10000 0.5 0 00:45 30.08.2019
2844 Clear 16 1022 93 10000 1.5 90 00:18 30.08.2019
2845 Clear 17 1022 93 10000 2.1 100 23:41 29.08.2019
2846 Clear 17 1022 93 10000 2.1 100 23:21 29.08.2019
2847 Clear 17 1022 93 10000 0.5 0 22:44 29.08.2019
2848 Clear 18 1022 93 10000 0.5 0 22:25 29.08.2019
2849 Clear 18 1022 93 10000 0.5 0 21:56 29.08.2019
2850 Clear 18 1022 82 10000 1.5 190 21:38 29.08.2019
2851 Clear 18 1022 82 10000 1.5 190 21:20 29.08.2019
2852 Clear 19 1021 78 10000 1 0 20:54 29.08.2019
2853 Clear 19 1021 78 10000 1 0 20:36 29.08.2019
2854 Clear 20 1021 78 10000 1 0 20:18 29.08.2019
2855 Clear 22 1021 69 10000 1 0 19:44 29.08.2019
2856 Clear 22 1021 69 10000 1 0 19:25 29.08.2019
2857 Clouds 23 1021 61 10000 1.5 0 18:44 29.08.2019
2858 Clouds 24 1021 61 10000 1.5 0 18:21 29.08.2019
2859 Clear 24 1021 53 10000 1.5 0 17:57 29.08.2019
2860 Clear 24 1021 53 10000 1.5 0 17:39 29.08.2019
2861 Clear 24 1021 53 10000 1.5 0 17:19 29.08.2019
2862 Clear 24 1021 61 10000 2.1 0 16:57 29.08.2019
2863 Clear 24 1021 61 10000 2.1 0 16:39 29.08.2019
2864 Clear 24 1021 61 10000 2.6 270 16:21 29.08.2019
2865 Clouds 23 1022 78 10000 3.6 0 15:39 29.08.2019
2866 Clouds 22 1022 78 10000 3.6 0 15:21 29.08.2019
2867 Clouds 21 1022 78 10000 1.5 0 14:50 29.08.2019
2868 Rain 21 1022 94 10000 2.1 130 14:26 29.08.2019
2869 Rain 21 1022 94 10000 2.1 130 13:59 29.08.2019
2870 Rain 20 1022 94 10000 2.1 130 13:41 29.08.2019
2871 Rain 20 1022 94 10000 2.1 130 13:21 29.08.2019
2872 Rain 20 1023 88 10000 2.6 80 12:59 29.08.2019
2873 Rain 19 1023 94 10000 2.6 80 12:41 29.08.2019
2874 Rain 19 1023 94 10000 2.6 80 12:22 29.08.2019
2875 Rain 19 1023 100 10000 5.1 210 11:59 29.08.2019
2876 Rain 19 1022 83 10000 2.1 40 11:40 29.08.2019
2877 Rain 19 1025 72 10000 2.1 340 11:20 29.08.2019
2878 Rain 19 1025 72 10000 2.1 340 11:20 29.08.2019
2879 Rain 19 1022 78 10000 2.1 20 10:45 29.08.2019
2880 Rain 18 1022 78 10000 2.1 20 10:25 29.08.2019
2881 Rain 18 1021 88 10000 1 0 09:57 29.08.2019
2882 Rain 18 1021 94 10000 1 0 09:39 29.08.2019
2883 Rain 18 1025 87 10000 1 20 09:18 29.08.2019
2884 Rain 18 1020 93 10000 1 110 08:41 29.08.2019
2885 Rain 18 1020 93 10000 1 110 08:23 29.08.2019
2886 Rain 17 1020 93 10000 1 110 07:53 29.08.2019
2887 Rain 17 1020 93 10000 1 110 07:33 29.08.2019
2888 Rain 17 1019 93 10000 1.5 120 06:56 29.08.2019
2889 Clouds 17 1019 93 10000 1.5 120 06:37 29.08.2019
2890 Clear 17 1019 93 10000 0.85 162.289 05:52 29.08.2019
2891 Clear 17 1019 93 10000 0.85 162.289 05:21 29.08.2019
2892 Rain 17 1019 93 10000 1.5 0 04:47 29.08.2019
2893 Rain 17 1019 93 10000 1.5 0 04:26 29.08.2019
2894 Clouds 18 1019 88 10000 1.5 40 01:54 29.08.2019
2895 Clouds 18 1020 93 0 3.6 240 01:35 29.08.2019
2896 Clouds 18 1020 100 0 2.6 220 00:47 29.08.2019
2897 Clouds 18 1025 93 8000 1.97 148.333 00:23 29.08.2019
2898 Clouds 18 1025 93 10000 2.1 150 23:57 28.08.2019
2899 Clouds 18 1025 93 10000 2.1 150 23:38 28.08.2019
2900 Rain 19 1018 77 10000 5.1 180 23:19 28.08.2019
2901 Rain 18 1019 93 10000 3.6 100 22:40 28.08.2019
2902 Rain 18 1019 93 10000 3.6 100 22:19 28.08.2019
2903 Clear 18 1019 83 10000 2.6 180 21:59 28.08.2019
2904 Rain 19 1018 77 10000 6.7 0 21:41 28.08.2019
2905 Rain 20 1018 77 10000 6.7 0 21:22 28.08.2019
2906 Thunderstorm 20 1017 78 10000 2.1 150 20:56 28.08.2019
2907 Thunderstorm 21 1017 60 10000 2.1 150 20:38 28.08.2019
2908 Thunderstorm 22 1017 57 10000 2.1 110 20:19 28.08.2019
2909 Clouds 21 1017 69 10000 2.1 120 19:42 28.08.2019
2910 Clouds 22 1016 69 10000 3.1 90 19:21 28.08.2019
2911 Clouds 22 1016 69 10000 3.1 90 18:57 28.08.2019
2912 Clouds 23 1016 57 10000 3.1 280 18:37 28.08.2019
2913 Clouds 25 1016 54 10000 2.1 270 18:18 28.08.2019
2914 Clouds 27 1016 54 10000 2.1 270 17:37 28.08.2019
2915 Clouds 27 1016 54 10000 3.6 280 17:19 28.08.2019
2916 Clear 28 1016 54 10000 3.6 280 16:44 28.08.2019
2917 Clear 28 1016 54 10000 3.6 280 16:23 28.08.2019
2918 Rain 28 1017 61 10000 3.1 280 15:59 28.08.2019
2919 Clear 28 1017 54 10000 2.6 280 15:37 28.08.2019
2920 Clear 27 1018 65 10000 2.1 320 15:19 28.08.2019
2921 Clear 27 1018 65 10000 2.1 320 14:57 28.08.2019
2922 Clear 27 1018 65 10000 2.1 320 14:38 28.08.2019
2923 Clear 27 1018 65 10000 2.1 320 14:20 28.08.2019
2924 Clear 27 1018 65 10000 2.1 320 13:58 28.08.2019
2925 Clear 27 1018 65 10000 2.6 280 13:37 28.08.2019
2926 Clear 26 1018 65 10000 2.6 280 13:19 28.08.2019
2927 Clear 26 1018 73 10000 1 0 12:42 28.08.2019
2928 Clear 25 1018 73 10000 1 0 12:23 28.08.2019
2929 Clear 25 1018 73 10000 1 0 11:55 28.08.2019
2930 Clear 23 1019 78 10000 1 0 11:36 28.08.2019
2931 Clear 23 1019 78 10000 1 0 11:18 28.08.2019
2932 Clear 23 1019 78 10000 1 0 10:41 28.08.2019
2933 Clear 22 1020 73 10000 4.1 210 10:21 28.08.2019
2934 Clear 21 1019 83 10000 1 0 09:58 28.08.2019
2935 Clear 21 1019 83 10000 1 0 09:58 28.08.2019
2936 Clear 20 1019 88 10000 1.5 0 09:40 28.08.2019
2937 Clear 20 1019 88 10000 1.5 0 09:19 28.08.2019
2938 Clear 18 1019 93 10000 1 120 08:39 28.08.2019
2939 Clear 18 1019 93 10000 1 120 08:20 28.08.2019
2940 Clear 17 1019 93 10000 1.5 210 07:42 28.08.2019
2941 Clear 17 1019 93 10000 1.5 210 07:24 28.08.2019
2942 Clear 17 1018 100 10000 0.5 0 06:51 28.08.2019
2943 Clear 17 1018 100 10000 0.5 0 06:32 28.08.2019
2944 Clear 17 1018 100 10000 1.5 0 05:42 28.08.2019
2945 Clear 17 1018 93 10000 0.5 0 02:48 28.08.2019
2946 Clear 18 1018 93 10000 1 0 01:32 28.08.2019
2947 Clear 18 1018 93 10000 1 0 00:59 28.08.2019
2948 Clouds 18 1018 93 10000 1 0 00:40 28.08.2019
2949 Clear 18 1018 88 10000 1.5 120 23:59 27.08.2019
2950 Clear 19 1018 83 10000 1 0 23:39 27.08.2019
2951 Clear 19 1018 83 10000 1 0 23:21 27.08.2019
2952 Clouds 19 1018 83 10000 1 0 22:43 27.08.2019
2953 Clouds 19 1018 83 10000 1 0 22:23 27.08.2019
2954 Clouds 19 1018 83 10000 1.5 0 21:58 27.08.2019
2955 Clear 20 1023 59 10000 1.85 147.667 21:39 27.08.2019
2956 Clear 20 1023 59 10000 1 130.365 21:21 27.08.2019
2957 Clear 21 1018 77 10000 1.5 140 20:59 27.08.2019
2958 Clear 21 1017 64 10000 1 0 20:40 27.08.2019
2959 Clear 22 1017 64 10000 1 0 20:20 27.08.2019
2960 Clear 23 1017 64 10000 1 0 19:56 27.08.2019
2961 Clear 23 1017 51 10000 1 0 19:38 27.08.2019
2962 Clear 25 1017 51 10000 1 0 19:20 27.08.2019
2963 Clouds 26 1017 57 10000 1 0 18:42 27.08.2019
2964 Clear 27 1017 44 10000 1.5 330 18:19 27.08.2019
2965 Clear 27 1017 44 10000 1.5 330 17:56 27.08.2019
2966 Clear 27 1017 51 10000 1.5 280 17:38 27.08.2019
2967 Clear 27 1017 51 10000 1.5 280 17:18 27.08.2019
2968 Clear 27 1018 61 10000 2.6 280 16:46 27.08.2019
2969 Clear 28 1019 47 10000 3.6 220 16:27 27.08.2019
2970 Clear 28 1019 44 10000 2.6 200 15:57 27.08.2019
2971 Clear 28 1018 57 10000 1.5 280 15:39 27.08.2019
2972 Clear 27 1018 65 10000 1 0 15:20 27.08.2019
2973 Clear 27 1018 65 10000 1 0 14:43 27.08.2019
2974 Clear 27 1018 65 10000 1 0 14:24 27.08.2019
2975 Clear 27 1018 61 10000 1 0 13:57 27.08.2019
2976 Clear 26 1019 69 10000 2.1 350 13:38 27.08.2019
2977 Clear 26 1019 69 10000 2.1 350 13:20 27.08.2019
2978 Clear 25 1019 64 10000 2.1 10 12:41 27.08.2019
2979 Clear 24 1019 64 10000 2.1 10 12:20 27.08.2019
2980 Clear 24 1020 78 10000 1 0 11:57 27.08.2019
2981 Clear 23 1020 77 10000 1.5 40 11:37 27.08.2019
2982 Clear 23 1020 77 10000 1.5 40 11:18 27.08.2019
2983 Clear 21 1020 82 10000 1.5 0 10:41 27.08.2019
2984 Clear 22 1020 82 10000 1.5 0 10:19 27.08.2019
2985 Clear 21 1021 68 10000 1 0 09:55 27.08.2019
2986 Clear 20 1020 88 10000 0.5 0 09:36 27.08.2019
2987 Clear 17 1019 100 10000 0.5 0 09:18 27.08.2019
2988 Clear 16 1019 100 10000 0.5 0 08:42 27.08.2019
2989 Clear 16 1019 100 10000 0.5 0 08:23 27.08.2019
2990 Clear 15 1019 100 10000 0.5 0 07:42 27.08.2019
2991 Clear 14 1019 100 10000 0.5 0 07:20 27.08.2019
2992 Clear 14 1019 100 10000 0.5 0 07:20 27.08.2019
2993 Clear 14 1019 100 10000 0.5 0 06:58 27.08.2019
2994 Clear 14 1018 100 10000 1 120 06:37 27.08.2019
2995 Mist 14 1018 100 4300 0.5 160 06:18 27.08.2019
2996 Mist 15 1018 100 4500 1 0 05:24 27.08.2019
2997 Clear 15 1018 100 9000 0.5 0 03:42 27.08.2019
2998 Clouds 16 1018 93 6000 1 0 02:26 27.08.2019
2999 Clouds 16 1018 100 6000 0.5 170 01:45 27.08.2019
3000 Clouds 16 1018 100 6000 0.5 170 01:23 27.08.2019
3001 Clear 17 1018 93 10000 1 0 00:46 27.08.2019
3002 Clear 17 1018 93 10000 1 0 00:25 27.08.2019
3003 Clear 18 1018 88 10000 1 0 23:40 26.08.2019
3004 Clear 18 1018 88 10000 1 0 23:21 26.08.2019
3005 Clear 18 1018 88 10000 1 0 22:54 26.08.2019
3006 Clouds 18 1018 88 10000 0.5 0 22:36 26.08.2019
3007 Clouds 18 1018 88 10000 0.5 0 22:36 26.08.2019
3008 Clouds 19 1018 82 10000 1 0 22:18 26.08.2019
3009 Clouds 19 1018 82 10000 1 0 22:18 26.08.2019
3010 Clear 20 1018 83 10000 1.5 0 21:38 26.08.2019
3011 Rain 20 1018 88 10000 2.1 120 21:20 26.08.2019
3012 Clear 21 1018 83 10000 1 0 20:57 26.08.2019
3013 Clear 21 1018 83 10000 0.5 0 20:38 26.08.2019
3014 Clear 22 1018 83 10000 0.5 0 20:19 26.08.2019
3015 Clear 23 1018 65 10000 0.5 0 19:44 26.08.2019
3016 Clear 23 1018 51 10000 2.1 270 19:20 26.08.2019
3017 Clear 23 1018 54 10000 2.1 270 18:59 26.08.2019
3018 Clear 24 1018 54 10000 2.1 270 18:38 26.08.2019
3019 Clear 25 1018 57 10000 2.1 270 18:20 26.08.2019
3020 Clear 25 1018 61 10000 2.1 270 17:55 26.08.2019
3021 Clear 25 1018 61 10000 2.1 270 17:37 26.08.2019
3022 Clouds 26 1018 57 10000 2.6 280 17:18 26.08.2019
3023 Clouds 26 1018 61 10000 2.6 280 16:55 26.08.2019
3024 Clouds 26 1018 61 10000 2.6 280 16:37 26.08.2019
3025 Clear 27 1018 57 10000 2.6 270 16:18 26.08.2019
3026 Clear 26 1019 53 10000 2.6 280 15:41 26.08.2019
3027 Clear 26 1019 53 10000 2.6 280 15:21 26.08.2019
3028 Clear 25 1019 64 10000 2.6 280 14:45 26.08.2019
3029 Clear 26 1019 64 10000 2.6 280 14:23 26.08.2019
3030 Clear 25 1020 68 10000 2.6 280 13:59 26.08.2019
3031 Clouds 25 1020 69 10000 2.6 360 13:38 26.08.2019
3032 Clear 25 1020 69 10000 3.1 300 13:19 26.08.2019
3033 Clear 24 1020 77 10000 2.6 300 12:43 26.08.2019
3034 Clear 23 1020 83 10000 1.5 280 12:24 26.08.2019
3035 Clear 23 1020 83 10000 1.5 280 11:56 26.08.2019
3036 Clear 22 1020 83 10000 1.5 280 11:36 26.08.2019
3037 Clear 22 1020 82 10000 2.1 300 11:18 26.08.2019
3038 Clear 22 1020 88 10000 2.1 300 10:42 26.08.2019
3039 Clear 21 1020 88 10000 1.5 0 10:21 26.08.2019
3040 Clear 20 1020 88 10000 1.5 0 09:57 26.08.2019
3041 Clear 20 1020 88 10000 1.5 0 09:57 26.08.2019
3042 Clear 20 1020 88 10000 1.5 0 09:37 26.08.2019
3043 Clear 18 1020 100 10000 1 0 09:19 26.08.2019
3044 Clear 16 1020 100 10000 1 0 08:42 26.08.2019
3045 Clear 16 1020 100 10000 1.25 138.853 08:22 26.08.2019
3046 Clear 15 1020 100 10000 1.25 138.853 07:59 26.08.2019
3047 Clear 14 1020 100 10000 1.25 138.853 07:40 26.08.2019
3048 Fog 14 1020 100 10000 1.25 138.853 07:21 26.08.2019
3049 Fog 14 1020 100 10000 1.25 138.853 06:41 26.08.2019
3050 Clear 14 1020 100 7000 0.5 120 06:21 26.08.2019
3051 Mist 14 1020 100 4300 1 0 05:48 26.08.2019
3052 Clear 15 1020 100 6000 1 210 04:25 26.08.2019
3053 Clear 15 1020 100 10000 0.5 0 02:51 26.08.2019
3054 Clear 16 1020 93 10000 1 0 01:27 26.08.2019
3055 Clear 16 1020 93 10000 1.5 0 00:48 26.08.2019
3056 Clear 16 1020 93 10000 1 0 00:28 26.08.2019
3057 Clear 17 1020 87 10000 1.5 210 23:58 25.08.2019
3058 Clear 17 1020 87 10000 1.5 210 23:39 25.08.2019
3059 Clear 17 1020 88 10000 0.5 0 23:18 25.08.2019
3060 Clear 18 1020 82 10000 1.5 110 22:55 25.08.2019
3061 Clear 18 1020 82 10000 1.5 110 22:36 25.08.2019
3062 Clear 18 1020 77 10000 1.5 170 22:18 25.08.2019
3063 Clear 18 1020 77 10000 2.1 120 21:54 25.08.2019
3064 Clear 18 1020 77 10000 2.1 120 21:36 25.08.2019
3065 Clear 20 1020 73 10000 1.5 90 21:18 25.08.2019
3066 Clear 21 1020 88 10000 1.5 90 20:39 25.08.2019
3067 Clear 21 1020 78 10000 1.5 90 20:19 25.08.2019
3068 Clear 21 1020 64 10000 1.5 90 19:56 25.08.2019
3069 Clouds 22 1019 61 10000 0.69 107.909 19:37 25.08.2019
3070 Clouds 22 1019 61 10000 0.69 107.909 19:18 25.08.2019
3071 Clouds 23 1019 61 10000 0.69 107.909 18:55 25.08.2019
3072 Clouds 25 1019 44 10000 1.5 0 18:37 25.08.2019
3073 Clouds 25 1019 44 10000 1.5 0 18:18 25.08.2019
3074 Clouds 25 1019 39 10000 1.5 0 17:41 25.08.2019
3075 Clouds 25 1019 54 10000 1 0 17:22 25.08.2019
3076 Clouds 26 1019 54 10000 1 0 16:45 25.08.2019
3077 Clouds 26 1020 53 10000 2.1 300 16:24 25.08.2019
3078 Clouds 26 1020 57 10000 1 0 15:59 25.08.2019
3079 Clouds 25 1020 57 10000 1 0 15:40 25.08.2019
3080 Clear 25 1020 64 10000 2.6 280 15:21 25.08.2019
3081 Clear 25 1020 77 10000 2.6 290 14:41 25.08.2019
3082 Clear 24 1020 77 10000 2.6 280 14:23 25.08.2019
3083 Clear 24 1021 61 10000 2.6 230 13:47 25.08.2019
3084 Clear 24 1021 61 10000 1 0 13:22 25.08.2019
3085 Clouds 23 1021 82 10000 2.1 270 12:59 25.08.2019
3086 Clouds 24 1021 82 10000 2.1 270 12:40 25.08.2019
3087 Clouds 22 1021 93 6000 1.5 310 12:22 25.08.2019
3088 Clouds 22 1021 93 6000 1.5 310 11:57 25.08.2019
3089 Clouds 20 1021 93 4000 1 0 11:37 25.08.2019
3090 Clouds 20 1021 93 4000 1 0 11:18 25.08.2019
3091 Mist 21 1021 93 4000 1 0 10:55 25.08.2019
3092 Mist 21 1021 93 4000 1 0 10:37 25.08.2019
3093 Mist 20 1021 100 4000 1 0 10:18 25.08.2019
3094 Mist 19 1021 100 7000 1 0 09:42 25.08.2019
3095 Fog 18 1021 100 8000 1 0 09:23 25.08.2019
3096 Fog 16 1021 100 7000 1 0 08:44 25.08.2019
3097 Fog 15 1020 100 6000 0.5 0 08:25 25.08.2019
3098 Fog 14 1020 100 7000 0.5 0 07:47 25.08.2019
3099 Fog 14 1020 100 7000 1 210 07:27 25.08.2019
3100 Clouds 14 1020 100 7000 0.5 0 06:37 25.08.2019
3101 Clear 14 1020 100 7000 0.5 0 05:27 25.08.2019
3102 Clear 14 1020 100 8000 0.5 0 03:43 25.08.2019
3103 Clear 15 1019 100 9000 0.5 0 02:42 25.08.2019
3104 Clear 15 1020 100 10000 2.1 120 01:45 25.08.2019
3105 Clear 16 1020 93 10000 0.5 0 00:42 25.08.2019
3106 Rain 16 1020 100 10000 0.5 0 00:22 25.08.2019
3107 Rain 16 1020 93 10000 1 0 23:54 24.08.2019
3108 Clear 16 1020 93 10000 1 0 23:24 24.08.2019
3109 Clear 17 1020 93 10000 0.5 0 22:58 24.08.2019
3110 -273 0 0 0 0 0 22:40 24.08.2019
3111 Clear 17 1020 93 10000 0.5 0 22:40 24.08.2019
3112 Clear 17 1020 88 10000 1 210 22:19 24.08.2019
3113 Clear 18 1020 88 10000 1 0 21:57 24.08.2019
3114 Clear 18 1020 88 10000 1 0 21:39 24.08.2019
3115 Clear 19 1020 93 10000 1 0 21:20 24.08.2019
3116 Clear 19 1020 93 10000 1 0 21:20 24.08.2019
3117 Clear 20 1020 94 10000 1 0 20:56 24.08.2019
3118 Clouds 20 1021 88 10000 1.5 70 20:37 24.08.2019
3119 Clear 21 1020 83 10000 1 0 20:37 24.08.2019
3120 Clear 21 1020 83 10000 1 0 20:18 24.08.2019
3121 Clear 22 1020 78 10000 1 0 19:57 24.08.2019
3122 Clear 22 1020 78 10000 1 0 19:38 24.08.2019
3123 Clear 22 1020 78 10000 1 0 19:18 24.08.2019
3124 Clear 23 1020 73 10000 1 0 18:45 24.08.2019
3125 Clear 24 1020 78 10000 1 0 18:23 24.08.2019
3126 Clouds 24 1020 78 10000 2.6 290 17:45 24.08.2019
3127 -273 0 0 0 0 0 17:25 24.08.2019
3128 Clouds 24 1021 78 10000 2.1 320 16:55 24.08.2019
3129 Clouds 24 1021 78 10000 2.1 320 16:36 24.08.2019
3130 Clouds 24 1021 78 10000 2.1 320 16:18 24.08.2019
3131 Rain 24 1021 77 9000 2.6 330 15:41 24.08.2019
3132 Clouds 23 1021 83 9000 2.6 320 15:23 24.08.2019
3133 Clouds 23 1022 82 9000 2.6 320 14:45 24.08.2019
3134 Clouds 22 1022 83 9000 2.6 320 14:23 24.08.2019
3135 Clouds 22 1022 88 8000 3.6 310 13:59 24.08.2019
3136 Clouds 22 1022 88 8000 3.6 310 13:59 24.08.2019
3137 Clouds 22 1022 88 8000 3.6 310 13:41 24.08.2019
3138 Clouds 22 1022 88 8000 3.6 310 13:22 24.08.2019
3139 Clouds 22 1022 88 8000 2.6 330 12:58 24.08.2019
3140 Clouds 22 1022 88 8000 2.6 330 12:39 24.08.2019
3141 Clouds 20 1022 88 8000 2.6 330 12:20 24.08.2019
3142 Clouds 20 1022 93 6000 2.6 320 11:45 24.08.2019
3143 Mist 19 1022 93 6000 2.6 320 11:23 24.08.2019
3144 Mist 19 1022 93 6000 2.6 320 10:53 24.08.2019
3145 Fog 18 1022 93 6000 2.6 330 10:24 24.08.2019
3146 Fog 18 1022 100 7000 1 0 09:55 24.08.2019
3147 Fog 17 1022 100 7000 1 0 09:36 24.08.2019
3148 Fog 16 1022 100 10000 2.1 270 09:18 24.08.2019
3149 Fog 16 1022 100 7000 1 0 08:41 24.08.2019
3150 Fog 15 1022 100 7000 0.5 140 08:22 24.08.2019
3151 Fog 14 1022 100 7000 0.5 140 07:50 24.08.2019
3152 Fog 14 1022 100 6000 0.5 0 07:27 24.08.2019
3153 Fog 14 1021 100 4900 1 0 06:30 24.08.2019
3154 Mist 14 1021 100 4900 0.5 0 05:47 24.08.2019
3155 Clouds 14 1021 100 9000 0.5 0 05:29 24.08.2019
3156 Clouds 14 1021 100 9000 1 110 03:39 24.08.2019
3157 Clear 15 1021 100 10000 0.5 130 02:33 24.08.2019
3158 Clear 16 1022 100 10000 1 160 01:47 24.08.2019
3159 Clouds 16 1022 100 10000 0.5 0 01:22 24.08.2019
3160 Clear 16 1022 100 10000 1 210 00:43 24.08.2019
3161 Clear 17 1022 100 10000 0.5 200 00:18 24.08.2019
3162 Clouds 17 1022 93 10000 0.5 0 23:43 23.08.2019
3163 Clouds 17 1022 88 10000 1 0 23:19 23.08.2019
3164 Clouds 17 1023 82 10000 1.5 0 22:43 23.08.2019
3165 Clouds 17 1023 93 10000 1.5 190 22:24 23.08.2019
3166 Clouds 17 1023 88 10000 1 0 21:54 23.08.2019
3167 Clouds 18 1023 82 10000 1.5 40 21:36 23.08.2019
3168 Clouds 18 1023 82 10000 1.5 40 21:18 23.08.2019
3169 Clouds 19 1023 77 10000 1 0 20:45 23.08.2019
3170 Clouds 19 1023 77 10000 1 0 20:27 23.08.2019
3171 Clouds 19 1023 68 10000 1 0 19:45 23.08.2019
3172 Clouds 20 1023 68 10000 1 0 19:19 23.08.2019
3173 Clouds 20 1023 68 10000 1.5 0 18:49 23.08.2019
3174 Clouds 20 1023 73 10000 2.1 280 18:31 23.08.2019
3175 Clouds 21 1023 73 10000 2.6 280 17:59 23.08.2019
3176 Clouds 21 1023 73 10000 2.6 280 17:40 23.08.2019
3177 Clouds 21 1023 73 10000 2.6 280 17:21 23.08.2019
3178 Clouds 21 1023 68 10000 2.1 270 16:48 23.08.2019
3179 Clouds 21 1023 73 10000 2.1 270 16:29 23.08.2019
3180 Clouds 21 1024 73 10000 1.5 0 15:58 23.08.2019
3181 Clouds 21 1024 73 10000 1.5 0 15:38 23.08.2019
3182 Clouds 20 1024 73 10000 1 0 15:20 23.08.2019
3183 Clouds 20 1024 72 10000 1 0 14:43 23.08.2019
3184 Clouds 20 1025 72 10000 1.5 0 14:21 23.08.2019
3185 Clouds 20 1025 77 10000 1.5 290 13:58 23.08.2019
3186 Clouds 20 1025 77 10000 1.5 290 13:58 23.08.2019
3187 Clouds 20 1025 77 10000 1.5 290 13:40 23.08.2019
3188 Clouds 20 1025 82 10000 2.1 270 13:22 23.08.2019
3189 Clouds 19 1025 82 10000 2.1 270 12:58 23.08.2019
3190 Clouds 19 1025 82 10000 2.1 270 12:40 23.08.2019
3191 Clouds 19 1026 82 10000 6.2 80 12:21 23.08.2019
3192 Clouds 18 1025 88 10000 2.6 290 11:56 23.08.2019
3193 Clouds 18 1025 88 10000 2.6 290 11:38 23.08.2019
3194 Clouds 17 1025 88 10000 2.6 280 11:18 23.08.2019
3195 Clouds 17 1025 88 10000 2.6 280 11:18 23.08.2019
3196 Clouds 17 1025 88 10000 2.6 280 10:44 23.08.2019
3197 Mist 16 1025 93 10000 2.6 280 10:23 23.08.2019
3198 Mist 16 1025 93 10000 2.6 280 09:58 23.08.2019
3199 Mist 16 1025 93 10000 2.6 280 09:39 23.08.2019
3200 Mist 15 1025 93 9000 2.6 270 09:20 23.08.2019
3201 Mist 14 1025 93 9000 2.1 280 08:44 23.08.2019
3202 Mist 13 1026 100 4800 0.5 0 08:20 23.08.2019
3203 Mist 13 1025 93 8000 1.5 290 07:43 23.08.2019
3204 Mist 13 1025 93 8000 2.1 260 07:24 23.08.2019
3205 Mist 13 1025 93 8000 2.1 260 07:24 23.08.2019
3206 Mist 13 1025 93 8000 2.1 260 07:24 23.08.2019
3207 Fog 12 1026 100 1600 2.1 80 06:58 23.08.2019
3208 Fog 12 1026 100 600 2.6 90 06:39 23.08.2019
3209 Fog 12 1026 100 600 2.6 90 06:20 23.08.2019
3210 Fog 12 1025 100 10000 0.5 290 05:42 23.08.2019
3211 Clouds 12 1025 93 10000 1.5 0 05:21 23.08.2019
3212 Clouds 13 1025 93 10000 1 0 03:22 23.08.2019
3213 Clouds 13 1025 93 10000 1 0 02:23 23.08.2019
3214 Clouds 13 1025 93 10000 1 0 02:23 23.08.2019
3215 Clouds 13 1026 88 10000 1.5 80 01:47 23.08.2019
3216 Clouds 13 1026 88 10000 1 0 00:46 23.08.2019
3217 Clouds 14 1026 82 10000 2.1 140 00:21 23.08.2019
3218 Clouds 14 1026 88 10000 1.5 140 23:50 22.08.2019
3219 Rain 14 1026 88 10000 1.5 110 23:32 22.08.2019
3220 Rain 14 1026 88 10000 1.5 110 22:58 22.08.2019
3221 Rain 14 1026 88 10000 1.5 110 22:40 22.08.2019
3222 Clouds 15 1026 88 10000 2.1 80 22:21 22.08.2019
3223 Clouds 15 1026 82 10000 1.5 0 21:56 22.08.2019
3224 Clouds 16 1026 77 10000 2.6 50 21:37 22.08.2019
3225 Clouds 16 1026 77 10000 2.6 50 21:19 22.08.2019
3226 Clouds 16 1027 87 10000 1 0 20:56 22.08.2019
3227 Clouds 16 1025 77 10000 2.1 40 20:38 22.08.2019
3228 Clouds 16 1025 77 10000 2.1 40 20:18 22.08.2019
3229 Clouds 17 1025 77 10000 1.5 0 19:54 22.08.2019
3230 Clouds 17 1025 77 10000 1.5 0 19:54 22.08.2019
3231 Clouds 17 1025 77 10000 1.5 0 19:36 22.08.2019
3232 Clouds 17 1025 77 10000 1.5 0 19:18 22.08.2019
3233 Clouds 17 1025 72 10000 1.5 0 18:55 22.08.2019
3234 Clouds 18 1025 72 10000 1.5 0 18:36 22.08.2019
3235 Clouds 18 1025 77 10000 1.5 0 18:18 22.08.2019
3236 Clouds 18 1025 77 10000 2.1 250 17:41 22.08.2019
3237 Clouds 18 1025 77 10000 3.1 280 17:21 22.08.2019
3238 Clouds 18 1025 77 10000 3.1 280 16:58 22.08.2019
3239 Clouds 18 1025 77 10000 3.1 280 16:39 22.08.2019
3240 Clouds 18 1025 77 10000 3.1 280 16:20 22.08.2019
3241 Clouds 18 1025 77 10000 2.1 300 15:57 22.08.2019
3242 Clouds 18 1025 77 10000 2.1 300 15:57 22.08.2019
3243 Clouds 18 1025 77 10000 2.1 300 15:57 22.08.2019
3244 Clouds 18 1025 77 10000 2.1 300 15:57 22.08.2019
3245 Clouds 18 1025 77 10000 2.1 300 15:38 22.08.2019
3246 Clouds 18 1025 77 10000 2.1 300 15:38 22.08.2019
3247 Clouds 18 1025 77 10000 2.1 300 15:19 22.08.2019
3248 Clouds 18 1025 77 10000 2.1 300 15:18 22.08.2019
3249 Clouds 18 1025 82 10000 2.6 320 14:41 22.08.2019
3250 Clouds 18 1025 77 10000 2.6 290 14:22 22.08.2019
3251 Clouds 18 1025 82 10000 2.6 270 13:59 22.08.2019
3252 Clouds 19 1025 82 10000 2.6 270 13:41 22.08.2019
3253 Clouds 18 1025 82 10000 3.1 280 13:21 22.08.2019
3254 Clouds 18 1025 82 10000 2.6 280 12:58 22.08.2019
3255 Clouds 17 1025 82 10000 3.1 290 12:38 22.08.2019
3256 Clouds 17 1025 82 10000 3.1 290 12:19 22.08.2019
3257 Clouds 17 1025 88 10000 2.6 270 11:42 22.08.2019
3258 Clouds 17 1025 87 10000 2.1 270 11:21 22.08.2019
3259 Mist 16 1025 93 10000 2.1 260 10:58 22.08.2019
3260 Mist 16 1025 93 10000 2.1 260 10:40 22.08.2019
3261 Mist 15 1025 93 10000 2.1 260 10:22 22.08.2019
3262 Mist 15 1025 100 10000 1.5 260 09:58 22.08.2019
3263 Mist 14 1025 100 10000 1.5 260 09:39 22.08.2019
3264 Mist 14 1025 93 10000 1 0 09:21 22.08.2019
3265 Mist 13 1024 93 10000 1 0 08:56 22.08.2019
3266 Mist 13 1024 93 10000 1 0 08:38 22.08.2019
3267 Mist 13 1024 100 10000 1.5 120 08:20 22.08.2019
3268 Mist 12 1025 100 10000 2.1 40 07:40 22.08.2019
3269 Mist 12 1025 100 10000 2.1 40 07:20 22.08.2019
3270 Mist 12 1025 100 10000 2.1 60 06:52 22.08.2019
3271 Mist 12 1025 100 10000 2.1 40 06:24 22.08.2019
3272 Mist 12 1024 100 10000 1 160 05:45 22.08.2019
3273 Clear 12 1024 100 10000 0.5 0 04:29 22.08.2019
3274 Clouds 13 1024 100 10000 0.5 0 02:50 22.08.2019
3275 Clouds 13 1024 100 10000 0.5 0 02:50 22.08.2019
3276 Clouds 13 1024 93 10000 0.5 0 02:32 22.08.2019
3277 Clouds 13 1025 93 10000 1 0 01:23 22.08.2019
3278 Clear 14 1025 93 10000 1.5 210 00:44 22.08.2019
3279 Clear 14 1025 93 10000 1 220 00:26 22.08.2019
3280 Clear 14 1025 93 10000 1 0 23:51 21.08.2019
3281 Clouds 14 1026 87 10000 3.6 50 23:32 21.08.2019
3282 Clouds 15 1025 87 10000 1 210 22:59 21.08.2019
3283 Clouds 15 1025 87 10000 1 210 22:41 21.08.2019
3284 Clouds 15 1025 77 10000 1 0 22:22 21.08.2019
3285 Clouds 15 1025 77 10000 1 0 21:58 21.08.2019
3286 Clouds 15 1025 77 10000 1 0 21:39 21.08.2019
3287 Clouds 15 1025 72 10000 3.6 40 21:20 21.08.2019
3288 Clouds 15 1025 68 10000 3.6 40 20:58 21.08.2019
3289 Clouds 16 1025 68 10000 3.6 40 20:40 21.08.2019
3290 Clouds 16 1025 68 10000 3.6 40 20:22 21.08.2019
3291 Clouds 16 1025 68 10000 4.1 50 19:55 21.08.2019
3292 Clouds 16 1025 68 10000 4.1 50 19:36 21.08.2019
3293 Clouds 17 1025 68 10000 4.1 50 19:18 21.08.2019
3294 Clouds 17 1025 68 10000 4.1 50 18:41 21.08.2019
3295 Clouds 18 1025 64 10000 3.6 40 18:22 21.08.2019
3296 Clouds 18 1025 64 10000 3.6 40 17:46 21.08.2019
3297 Clouds 18 1026 68 10000 4.1 40 17:25 21.08.2019
3298 Clouds 18 1026 68 10000 4.1 40 16:59 21.08.2019
3299 Clouds 18 1026 68 10000 4.1 40 16:40 21.08.2019
3300 Clouds 18 1026 64 10000 3.6 40 16:21 21.08.2019
3301 Clouds 18 1026 64 10000 3.6 40 15:58 21.08.2019
3302 Clouds 18 1026 64 10000 3.6 40 15:39 21.08.2019
3303 Clouds 18 1026 64 10000 2.1 0 15:20 21.08.2019
3304 Clouds 18 1026 64 10000 2.1 0 14:57 21.08.2019
3305 Clouds 18 1026 64 10000 2.1 0 14:38 21.08.2019
3306 Clouds 18 1026 72 10000 2.6 280 14:20 21.08.2019
3307 Clouds 18 1026 72 10000 2.6 280 14:20 21.08.2019
3308 Clouds 18 1026 72 10000 2.6 280 13:44 21.08.2019
3309 Clouds 18 1027 72 10000 1.5 0 13:22 21.08.2019
3310 Clouds 17 1027 72 10000 1 0 12:59 21.08.2019
3311 Clouds 17 1027 72 10000 1 0 12:59 21.08.2019
3312 Clouds 17 1027 72 10000 1 0 12:40 21.08.2019
3313 Clouds 17 1027 72 10000 1 0 12:21 21.08.2019
3314 Clouds 17 1027 77 10000 1 0 11:57 21.08.2019
3315 Clouds 16 1027 77 10000 1 0 11:39 21.08.2019
3316 Clouds 16 1028 77 10000 0.5 0 11:20 21.08.2019
3317 Clouds 15 1028 82 10000 1 0 10:56 21.08.2019
3318 Clouds 15 1028 82 10000 1 0 10:37 21.08.2019
3319 Clouds 14 1028 82 10000 1 0 10:19 21.08.2019
3320 Clouds 14 1028 82 10000 1 0 09:42 21.08.2019
3321 Clouds 13 1028 93 10000 0.5 0 09:23 21.08.2019
3322 Clouds 13 1028 100 10000 1 0 08:58 21.08.2019
3323 Clouds 12 1028 100 10000 1 0 08:39 21.08.2019
3324 Clouds 12 1028 100 10000 1 0 08:20 21.08.2019
3325 Clouds 12 1028 100 10000 0.5 0 07:40 21.08.2019
3326 Rain 11 1028 100 10000 0.5 0 07:20 21.08.2019
3327 Rain 11 1028 100 10000 1 0 06:48 21.08.2019
3328 Rain 11 1028 93 10000 1 0 06:21 21.08.2019
3329 Rain 11 1028 100 10000 1 0 05:41 21.08.2019
3330 Rain 11 1028 100 10000 0.5 0 05:19 21.08.2019
3331 Rain 12 1028 100 10000 1.5 210 03:28 21.08.2019
3332 Rain 11 1028 93 10000 1 140 01:42 21.08.2019
3333 Rain 12 1028 100 10000 2.1 150 00:45 21.08.2019
3334 Rain 12 1028 100 10000 2.1 140 00:24 21.08.2019
3335 Rain 12 1029 93 8000 2.6 130 23:57 20.08.2019
3336 Rain 12 1029 93 8000 2.6 130 23:38 20.08.2019
3337 Rain 12 1028 100 10000 2.6 140 23:18 20.08.2019
3338 Rain 12 1028 100 10000 2.6 140 23:18 20.08.2019
3339 Rain 12 1028 100 7000 1 170 22:55 20.08.2019
3340 Rain 12 1028 93 10000 0.5 0 22:36 20.08.2019
3341 Rain 12 1028 100 10000 1 200 22:18 20.08.2019
3342 Rain 13 1028 93 8000 3.6 290 21:56 20.08.2019
3343 Rain 13 1028 93 8000 3.6 290 21:37 20.08.2019
3344 Rain 13 1028 100 4500 2.6 320 21:18 20.08.2019
3345 Rain 13 1026 100 8000 4.1 300 20:42 20.08.2019
3346 Rain 13 1027 93 3600 1.5 0 20:24 20.08.2019
3347 Rain 13 1026 93 5000 2.6 320 19:54 20.08.2019
3348 Rain 13 1026 93 5000 2.6 320 19:36 20.08.2019
3349 Rain 13 1026 93 5000 2.6 320 19:36 20.08.2019
3350 Rain 13 1026 93 5000 2.6 320 19:18 20.08.2019
3351 Rain 13 1026 93 5000 2.6 320 19:18 20.08.2019
3352 Rain 13 1025 93 5000 2.6 350 18:54 20.08.2019
3353 Rain 13 1025 93 5000 2.6 350 18:54 20.08.2019
3354 Rain 14 1025 93 4500 8.2 300 18:36 20.08.2019
3355 Rain 14 1025 93 4500 8.2 300 18:18 20.08.2019
3356 Rain 14 1023 100 7000 3.6 340 17:39 20.08.2019
3357 Rain 14 1024 100 4500 3.1 260 17:20 20.08.2019
3358 Rain 15 1023 93 6000 2.6 260 16:48 20.08.2019
3359 Rain 15 1023 93 6000 2.6 260 16:28 20.08.2019
3360 Rain 15 1023 93 6000 2.6 260 15:59 20.08.2019
3361 Rain 15 1023 100 7000 5.1 280 15:41 20.08.2019
3362 Rain 15 1023 100 7000 5.1 280 15:18 20.08.2019
3363 Rain 16 1023 100 7000 7.2 290 14:44 20.08.2019
3364 Rain 16 1023 100 7000 7.2 290 14:22 20.08.2019
3365 Rain 17 1022 100 3300 5.1 280 13:59 20.08.2019
3366 Rain 17 1022 100 3300 5.1 280 13:40 20.08.2019
3367 Rain 17 1022 100 3300 5.1 280 13:21 20.08.2019
3368 Rain 17 1022 93 10000 1.5 0 12:55 20.08.2019
3369 Rain 17 1022 93 10000 1.5 0 12:36 20.08.2019
3370 Rain 17 1022 100 10000 2.1 250 12:18 20.08.2019
3371 Rain 17 1022 93 10000 2.1 260 11:42 20.08.2019
3372 Rain 17 1022 93 8000 1 70 11:22 20.08.2019
3373 Rain 17 1022 93 8000 1 70 10:58 20.08.2019
3374 Rain 16 1022 93 10000 2.1 260 10:39 20.08.2019
3375 Rain 16 1022 93 10000 2.1 260 10:21 20.08.2019
3376 Rain 16 1021 93 10000 1 0 09:58 20.08.2019
3377 Rain 16 1021 93 8000 1 0 09:40 20.08.2019
3378 Rain 16 1021 93 8000 1 0 09:40 20.08.2019
3379 Rain 16 1021 93 8000 1 0 09:21 20.08.2019
3380 Rain 16 1021 93 8000 1 0 09:21 20.08.2019
3381 Clouds 16 1021 93 10000 1 0 08:42 20.08.2019
3382 Clouds 16 1021 93 10000 1 0 08:23 20.08.2019
3383 Clouds 16 1022 100 6000 1 50 07:57 20.08.2019
3384 Clouds 16 1022 100 6000 1 50 07:57 20.08.2019
3385 Clouds 16 1022 100 6000 1 50 07:57 20.08.2019
3386 Mist 16 1021 93 10000 1 210 07:38 20.08.2019
3387 Rain 16 1021 93 10000 1.5 0 07:20 20.08.2019
3388 Rain 16 1021 93 10000 1.5 0 06:43 20.08.2019
3389 Rain 16 1021 93 10000 1.5 0 06:20 20.08.2019
3390 Clouds 16 1021 93 10000 2.1 250 05:42 20.08.2019
3391 Clouds 16 1021 93 10000 3.6 290 04:26 20.08.2019
3392 Clouds 16 1021 93 10000 2.1 260 02:48 20.08.2019
3393 Clouds 16 1021 93 10000 3.1 290 01:53 20.08.2019
3394 Clouds 16 1021 93 10000 1 0 01:20 20.08.2019
3395 Rain 17 1021 93 10000 2.1 250 00:44 20.08.2019
3396 Rain 17 1021 93 10000 2.1 250 00:24 20.08.2019
3397 Thunderstorm 17 1021 100 10000 2.6 280 23:44 19.08.2019
3398 Thunderstorm 17 1021 100 10000 2.6 280 23:19 19.08.2019
3399 Clouds 17 1021 100 10000 1 0 22:58 19.08.2019
3400 Rain 17 1021 100 10000 1 0 22:40 19.08.2019
3401 Thunderstorm 17 1020 88 1600 7.7 30 22:19 19.08.2019
3402 Thunderstorm 17 1020 88 1600 7.7 30 21:56 19.08.2019
3403 Thunderstorm 17 1019 93 10000 2.1 230 21:38 19.08.2019
3404 Thunderstorm 17 1019 93 10000 2.1 230 21:19 19.08.2019
3405 Rain 18 1019 94 10000 1 0 20:40 19.08.2019
3406 Rain 18 1019 94 10000 1 0 20:21 19.08.2019
3407 Rain 19 1019 94 10000 1 0 19:59 19.08.2019
3408 Rain 19 1019 94 10000 2.1 240 19:41 19.08.2019
3409 Clouds 20 1019 78 10000 0.5 0 19:19 19.08.2019
3410 Clouds 20 1019 78 10000 0.5 0 19:19 19.08.2019
3411 Clouds 20 1019 78 10000 0.5 0 19:19 19.08.2019
3412 Clouds 20 1019 78 10000 0.5 0 18:59 19.08.2019
3413 Clouds 20 1019 78 10000 0.5 0 18:59 19.08.2019
3414 Clouds 20 1019 78 10000 0.5 0 18:39 19.08.2019
3415 Clouds 21 1019 78 10000 0.5 0 18:21 19.08.2019
3416 Clouds 21 1019 68 10000 0.5 0 17:55 19.08.2019
3417 Clouds 21 1019 73 10000 1 0 17:36 19.08.2019
3418 Clouds 21 1019 73 10000 1 0 17:18 19.08.2019
3419 Clouds 21 1019 78 10000 1 0 16:38 19.08.2019
3420 Clouds 21 1019 78 10000 1 0 16:20 19.08.2019
3421 Clouds 21 1019 78 10000 1 0 15:56 19.08.2019
3422 Clouds 21 1019 78 10000 1 0 15:38 19.08.2019
3423 Clouds 21 1019 78 10000 1 0 15:19 19.08.2019
3424 Clouds 22 1019 78 10000 1.5 0 14:43 19.08.2019
3425 Clouds 22 1019 73 10000 1.5 0 14:23 19.08.2019
3426 Clouds 21 1019 78 10000 2.1 310 13:58 19.08.2019
3427 Clouds 21 1018 68 10000 2.6 250 13:38 19.08.2019
3428 Clouds 21 1019 78 10000 2.1 310 13:19 19.08.2019
3429 Clouds 21 1018 73 10000 1.5 0 12:57 19.08.2019
3430 Clouds 21 1018 73 10000 1.5 0 12:57 19.08.2019
3431 Clouds 21 1018 77 10000 1.5 330 12:39 19.08.2019
3432 Clouds 20 1018 77 10000 1.5 330 12:19 19.08.2019
3433 Clouds 20 1018 83 10000 1.5 0 11:39 19.08.2019
3434 Rain 19 1018 83 10000 1.5 0 11:21 19.08.2019
3435 Rain 18 1018 88 10000 1 0 10:58 19.08.2019
3436 Rain 18 1018 88 10000 1 0 10:37 19.08.2019
3437 Rain 17 1018 88 10000 1 0 10:18 19.08.2019
3438 Rain 17 1018 93 10000 1 0 09:45 19.08.2019
3439 Rain 16 1018 100 10000 2.1 90 09:24 19.08.2019
3440 Rain 16 1018 93 10000 3.1 70 08:59 19.08.2019
3441 Rain 16 1018 93 10000 3.1 70 08:41 19.08.2019
3442 Rain 16 1018 93 10000 3.1 70 08:20 19.08.2019
3443 Rain 16 1018 93 10000 1.5 0 07:48 19.08.2019
3444 Rain 16 1018 93 8000 2.6 270 07:30 19.08.2019
3445 Rain 16 1017 93 10000 2.1 50 06:48 19.08.2019
3446 Rain 16 1017 100 10000 1 0 06:27 19.08.2019
3447 Rain 16 1018 100 10000 3.6 100 04:57 19.08.2019
3448 Rain 16 1018 100 10000 3.6 120 04:26 19.08.2019
3449 Rain 17 1018 93 10000 3.6 100 03:22 19.08.2019
3450 Thunderstorm 17 1019 100 7000 7.2 260 02:23 19.08.2019
3451 Thunderstorm 18 1016 93 10000 5.7 280 01:31 19.08.2019
3452 Thunderstorm 18 1015 88 10000 10.8 280 00:43 19.08.2019
3453 Clouds 20 1013 83 10000 3.1 280 00:23 19.08.2019
3454 Clouds 20 1012 78 10000 1 0 23:42 18.08.2019
3455 Clouds 20 1012 60 10000 1.5 0 23:21 18.08.2019
3456 Clear 19 1013 77 10000 1 0 22:55 18.08.2019
3457 Clear 20 1013 77 10000 1 0 22:37 18.08.2019
3458 Clouds 21 1012 54 10000 1.5 250 22:19 18.08.2019
3459 Clear 23 1011 54 10000 1.5 250 21:55 18.08.2019
3460 Clear 23 1011 54 10000 1.5 250 21:37 18.08.2019
3461 Clouds 22 1011 73 5000 1 0 21:18 18.08.2019
3462 Clouds 23 1011 69 10000 1 0 20:42 18.08.2019
3463 Clear 25 1010 61 10000 1 0 20:24 18.08.2019
3464 Clear 27 1010 54 10000 1.5 280 19:54 18.08.2019
3465 Clear 27 1010 54 10000 1.5 280 19:54 18.08.2019
3466 Clear 28 1010 54 10000 1.5 280 19:36 18.08.2019
3467 Clear 28 1010 54 10000 1.5 280 19:18 18.08.2019
3468 Clear 28 1010 57 10000 2.1 320 18:41 18.08.2019
3469 Clear 27 1010 57 10000 2.1 320 18:23 18.08.2019
3470 Clear 30 1010 57 10000 2.1 320 17:56 18.08.2019
3471 Clear 30 1011 42 10000 1.5 320 17:38 18.08.2019
3472 Clear 30 1011 42 10000 1.5 320 17:19 18.08.2019
3473 Clear 30 1011 42 10000 1.5 320 16:56 18.08.2019
3474 Clear 30 1011 42 10000 1.5 320 16:37 18.08.2019
3475 Clear 30 1011 42 10000 1.5 320 16:18 18.08.2019
3476 Clear 30 1011 48 10000 2.1 330 15:40 18.08.2019
3477 Clear 30 1011 54 10000 2.1 330 15:20 18.08.2019
3478 Clear 29 1011 51 10000 2.6 280 14:59 18.08.2019
3479 Clear 29 1011 51 10000 2.6 280 14:59 18.08.2019
3480 Clear 29 1011 51 10000 2.6 280 14:40 18.08.2019
3481 Clear 29 1011 47 10000 2.6 280 14:20 18.08.2019
3482 Clear 29 1012 50 10000 2.1 270 13:58 18.08.2019
3483 Clear 29 1012 50 10000 2.1 270 13:40 18.08.2019
3484 Clear 25 1012 54 10000 2.6 320 13:20 18.08.2019
3485 Clear 25 1012 47 10000 2.6 320 12:54 18.08.2019
3486 Clear 24 1012 54 10000 3.6 270 12:36 18.08.2019
3487 Clear 24 1012 54 10000 3.6 270 12:18 18.08.2019
3488 Clear 23 1012 65 10000 3.6 270 11:41 18.08.2019
3489 Clear 22 1012 73 10000 2.6 270 11:21 18.08.2019
3490 Clear 22 1012 73 10000 2.6 270 10:41 18.08.2019
3491 Clear 21 1012 60 10000 2.6 70 10:22 18.08.2019
3492 Clear 20 1012 78 10000 1 0 09:56 18.08.2019
3493 Clear 18 1013 83 10000 1 0 09:37 18.08.2019
3494 Clear 18 1013 83 10000 1 0 09:18 18.08.2019
3495 Clear 18 1013 88 10000 1 0 08:42 18.08.2019
3496 Clear 16 1013 93 10000 0.5 0 08:24 18.08.2019
3497 Clear 15 1013 100 10000 0.5 0 07:49 18.08.2019
3498 Clear 14 1013 100 10000 1 130 07:29 18.08.2019
3499 Clear 14 1013 93 10000 1.5 0 05:50 18.08.2019
3500 Clouds 15 1013 93 10000 2.1 120 04:58 18.08.2019
3501 Clear 16 1013 77 10000 2.1 260 03:44 18.08.2019
3502 Clear 17 1013 72 10000 1 0 02:49 18.08.2019
3503 Clear 16 1013 72 10000 3.6 270 02:26 18.08.2019
3504 Clear 16 1013 77 10000 1.5 0 01:48 18.08.2019
3505 Clear 17 1013 72 10000 2.6 290 01:25 18.08.2019
3506 Clear 17 1013 60 10000 2.6 0 00:40 18.08.2019
3507 Clear 17 1013 82 10000 1.5 80 00:19 18.08.2019
3508 Clear 17 1014 77 10000 2.6 100 23:57 17.08.2019
3509 Clear 17 1014 77 10000 2.6 100 23:37 17.08.2019
3510 Clear 17 1014 82 10000 1.5 0 23:18 17.08.2019
3511 Clear 17 1015 82 10000 0.5 0 22:56 17.08.2019
3512 Clear 18 1015 82 10000 0.5 0 22:38 17.08.2019
3513 Clouds 18 1015 82 10000 1 0 22:20 17.08.2019
3514 Clear 18 1014 82 10000 0.5 0 21:42 17.08.2019
3515 Clouds 18 1014 82 5000 1.5 0 21:23 17.08.2019
3516 Clear 18 1014 82 10000 1 0 20:56 17.08.2019
3517 Clear 19 1014 82 10000 1 0 20:36 17.08.2019
3518 Clear 20 1014 83 10000 1 0 20:18 17.08.2019
3519 Clear 20 1014 83 10000 1 0 19:41 17.08.2019
3520 Drizzle 20 1014 83 10000 1 0 19:22 17.08.2019
3521 Drizzle 20 1014 83 10000 1 0 19:22 17.08.2019
3522 Rain 20 1014 83 10000 1 0 18:54 17.08.2019
3523 Clear 21 1014 73 10000 1.5 0 18:36 17.08.2019
3524 Clear 21 1014 73 10000 1.5 0 18:18 17.08.2019
3525 Clear 21 1014 73 10000 1.5 0 18:18 17.08.2019
3526 Clear 22 1014 73 10000 1.5 0 17:42 17.08.2019
3527 Clear 22 1015 68 10000 1.5 90 17:21 17.08.2019
3528 Clear 22 1015 68 10000 1.5 90 16:56 17.08.2019
3529 Clear 23 1015 68 10000 1.5 90 16:37 17.08.2019
3530 Clear 23 1015 73 10000 1 100 16:18 17.08.2019
3531 Clear 23 1015 73 10000 2.1 70 15:42 17.08.2019
3532 Clear 23 1015 73 10000 2.1 70 15:42 17.08.2019
3533 Clear 23 1015 73 10000 2.1 70 15:22 17.08.2019
3534 Clear 22 1016 77 10000 1.5 40 14:57 17.08.2019
3535 Clear 22 1016 53 10000 5.7 220 14:38 17.08.2019
3536 Clear 23 1016 77 10000 1.5 40 14:19 17.08.2019
3537 Clear 23 1016 83 10000 1 0 13:43 17.08.2019
3538 Clear 23 1016 83 10000 1 0 13:19 17.08.2019
3539 Clear 22 1017 77 10000 0.5 0 12:43 17.08.2019
3540 Clear 22 1016 83 10000 1 0 12:20 17.08.2019
3541 Clear 21 1017 82 10000 2.6 280 11:58 17.08.2019
3542 Clear 21 1017 82 10000 2.6 280 11:38 17.08.2019
3543 Clear 21 1016 77 10000 2.6 280 11:19 17.08.2019
3544 Clear 21 1016 82 10000 2.6 280 10:40 17.08.2019
3545 Clear 20 1016 88 10000 1 0 10:21 17.08.2019
3546 Clear 19 1016 88 10000 1 0 09:55 17.08.2019
3547 Clear 18 1016 82 10000 0.5 0 09:36 17.08.2019
3548 Clear 17 1016 82 10000 0.5 0 09:18 17.08.2019
3549 Clear 16 1016 88 10000 0.5 0 08:42 17.08.2019
3550 Clear 15 1016 93 10000 1.5 240 08:20 17.08.2019
3551 Clear 14 1016 93 10000 1.5 240 07:42 17.08.2019
3552 Clear 13 1016 93 10000 1.5 0 07:19 17.08.2019
3553 Clear 12 1016 100 10000 1 0 05:59 17.08.2019
3554 Clouds 12 1016 93 10000 1.5 60 04:32 17.08.2019
3555 Clouds 12 1016 93 10000 0.5 200 04:32 17.08.2019
3556 Clouds 12 1016 93 10000 0.5 0 03:38 17.08.2019
3557 Clouds 13 1016 93 10000 2.1 100 01:59 17.08.2019
3558 Clear 13 1017 87 10000 0.5 0 01:36 17.08.2019
3559 Clear 13 1017 87 10000 0.5 0 01:18 17.08.2019
3560 Clear 13 1017 87 10000 1 100 00:39 17.08.2019
3561 Clouds 13 1017 82 10000 2.1 110 23:57 16.08.2019
3562 Clear 14 1017 77 10000 1.5 110 23:38 16.08.2019
3563 Clear 14 1017 77 10000 1.5 110 23:19 16.08.2019
3564 Clear 14 1017 77 10000 1 0 22:40 16.08.2019
3565 Clear 14 1017 72 10000 1.5 0 22:19 16.08.2019
3566 Clear 15 1018 82 10000 2.6 140 21:42 16.08.2019
3567 Clear 16 1017 63 10000 1.5 200 21:22 16.08.2019
3568 Clear 17 1017 63 10000 1.5 200 20:58 16.08.2019
3569 Clear 17 1017 63 10000 1.5 200 20:40 16.08.2019
3570 Clear 19 1017 43 10000 1 220 20:19 16.08.2019
3571 Clear 20 1017 43 10000 1 220 19:45 16.08.2019
3572 Clear 20 1017 43 10000 1 220 19:45 16.08.2019
3573 Clear 20 1017 43 10000 2.6 280 19:24 16.08.2019
3574 Clear 20 1017 43 10000 2.6 280 19:24 16.08.2019
3575 Clear 21 1017 43 10000 2.6 280 18:59 16.08.2019
3576 Clear 21 1017 43 10000 2.6 280 18:41 16.08.2019
3577 Clear 22 1017 46 10000 1.5 310 18:22 16.08.2019
3578 Clear 22 1017 46 10000 1.5 310 17:45 16.08.2019
3579 Clear 22 1018 46 10000 1.5 330 17:25 16.08.2019
3580 Clear 22 1018 49 10000 1.5 0 16:56 16.08.2019
3581 Clouds 22 1019 53 10000 1 0 16:38 16.08.2019
3582 Clear 22 1018 49 10000 1.5 0 16:18 16.08.2019
3583 Clear 21 1019 46 10000 2.6 330 15:54 16.08.2019
3584 Clear 21 1019 46 10000 2.6 330 15:36 16.08.2019
3585 Clouds 21 1019 52 10000 2.1 40 15:18 16.08.2019
3586 Clouds 21 1019 56 10000 2.1 40 14:41 16.08.2019
3587 Clear 20 1020 56 10000 3.1 50 14:19 16.08.2019
3588 Clear 20 1020 56 10000 3.1 50 14:19 16.08.2019
3589 Clear 20 1020 56 10000 3.1 50 14:19 16.08.2019
3590 Clouds 20 1020 68 10000 2.6 30 13:59 16.08.2019
3591 Clouds 20 1020 68 10000 2.6 30 13:38 16.08.2019
3592 Clouds 20 1020 68 10000 3.1 10 13:20 16.08.2019
3593 Clouds 19 1020 68 10000 2.1 0 12:39 16.08.2019
3594 Clouds 19 1021 68 10000 2.1 0 12:20 16.08.2019
3595 Clouds 18 1021 68 10000 2.1 0 11:43 16.08.2019
3596 Clouds 18 1021 68 10000 2.1 40 11:24 16.08.2019
3597 Clouds 18 1021 68 10000 2.1 40 10:58 16.08.2019
3598 Clouds 18 1021 68 10000 2.1 40 10:40 16.08.2019
3599 Clouds 17 1021 63 10000 1 0 10:18 16.08.2019
3600 Clear 16 1021 68 10000 3.1 180 09:38 16.08.2019
3601 Clear 15 1021 68 10000 3.1 180 09:19 16.08.2019
3602 Clear 14 1021 72 10000 3.6 160 08:56 16.08.2019
3603 Clear 14 1021 72 10000 3.6 160 08:38 16.08.2019
3604 Clouds 14 1021 93 10000 1.5 210 08:19 16.08.2019
3605 Clouds 13 1021 93 10000 1.5 210 07:44 16.08.2019
3606 Rain 12 1021 93 10000 1.5 210 07:25 16.08.2019
3607 Rain 13 1021 87 10000 1.5 210 06:38 16.08.2019
3608 Rain 13 1021 87 10000 1 0 05:58 16.08.2019
3609 Clouds 13 1021 82 10000 1.5 110 05:33 16.08.2019
3610 Rain 13 1021 87 10000 1 0 03:19 16.08.2019
3611 Rain 13 1021 87 10000 0.5 0 01:45 16.08.2019
3612 Rain 13 1021 87 10000 1.5 260 01:25 16.08.2019
3613 Rain 14 1020 82 10000 1.5 290 00:48 16.08.2019
3614 Rain 14 1020 93 10000 2.43 215.384 00:22 16.08.2019
3615 Rain 14 1020 87 10000 0.5 0 23:46 15.08.2019
3616 Clouds 14 1020 88 10000 1 0 23:25 15.08.2019
3617 Clouds 14 1020 82 10000 2.1 120 22:59 15.08.2019
3618 Clouds 14 1020 82 10000 2.1 120 22:41 15.08.2019
3619 Clouds 14 1020 93 10000 2.1 120 22:21 15.08.2019
3620 Clouds 14 1019 93 10000 2.1 110 21:56 15.08.2019
3621 Rain 15 1018 82 10000 2.6 100 21:38 15.08.2019
3622 Rain 15 1018 82 10000 2.6 100 21:19 15.08.2019
3623 Thunderstorm 15 1018 93 10000 4.1 200 20:45 15.08.2019
3624 Thunderstorm 16 1018 72 10000 7.7 320 20:22 15.08.2019
3625 Thunderstorm 16 1018 93 9000 3.1 250 19:59 15.08.2019
3626 Thunderstorm 16 1018 93 9000 3.1 250 19:39 15.08.2019
3627 Rain 17 1017 82 10000 6.7 230 19:21 15.08.2019
3628 Clouds 17 1017 77 10000 4.1 120 18:48 15.08.2019
3629 Clouds 18 1017 82 10000 4.1 120 18:24 15.08.2019
3630 Rain 17 1017 77 10000 0.5 0 17:58 15.08.2019
3631 Rain 17 1017 77 10000 0.5 0 17:38 15.08.2019
3632 Clouds 17 1017 88 10000 0.5 0 17:20 15.08.2019
3633 Rain 17 1018 88 10000 3.1 270 16:58 15.08.2019
3634 Rain 17 1018 88 10000 3.1 270 16:40 15.08.2019
3635 Rain 18 1018 88 9000 5.7 280 16:21 15.08.2019
3636 Rain 19 1017 77 10000 3.1 90 15:39 15.08.2019
3637 Rain 18 1017 77 10000 3.1 90 15:20 15.08.2019
3638 Clouds 18 1017 82 10000 1.5 260 14:57 15.08.2019
3639 Clouds 17 1017 82 10000 1.5 260 14:38 15.08.2019
3640 Clouds 18 1017 82 10000 1.5 260 14:19 15.08.2019
3641 Rain 17 1017 82 10000 6.2 290 13:56 15.08.2019
3642 Rain 18 1017 68 10000 2.1 290 13:38 15.08.2019
3643 Rain 18 1017 68 10000 2.1 290 13:19 15.08.2019
3644 Rain 19 1017 68 10000 1 0 12:40 15.08.2019
3645 Rain 18 1017 82 10000 2.1 90 12:21 15.08.2019
3646 Clouds 18 1017 82 10000 2.1 90 11:59 15.08.2019
3647 Clouds 17 1017 82 10000 2.1 90 11:39 15.08.2019
3648 Clouds 17 1017 82 10000 1.5 0 11:20 15.08.2019
3649 Drizzle 17 1017 82 10000 1.5 0 10:58 15.08.2019
3650 Rain 17 1017 82 10000 1.5 300 10:37 15.08.2019
3651 Rain 16 1017 82 10000 1.5 300 10:18 15.08.2019
3652 Clear 15 1017 82 10000 1.5 300 09:44 15.08.2019
3653 Clear 15 1017 82 10000 2.1 280 09:22 15.08.2019
3654 Clear 12 1017 93 10000 0.5 120 08:39 15.08.2019
3655 Clear 12 1017 93 10000 0.5 120 08:21 15.08.2019
3656 Clear 11 1017 93 10000 0.5 0 07:59 15.08.2019
3657 Clear 11 1017 93 10000 0.5 0 07:40 15.08.2019
3658 Clouds 10 1017 93 10000 1 0 07:21 15.08.2019
3659 Clouds 10 1017 93 10000 0.5 0 06:48 15.08.2019
3660 Clear 9 1017 93 10000 0.5 110 06:26 15.08.2019
3661 Clear 10 1017 93 10000 1 0 05:31 15.08.2019
3662 Clear 10 1017 93 10000 1 0 04:58 15.08.2019
3663 Clear 10 1017 93 10000 1 0 04:19 15.08.2019
3664 Clear 10 1017 93 10000 0.5 0 03:21 15.08.2019
3665 Clear 10 1017 87 10000 1 0 02:34 15.08.2019
3666 Clear 10 1018 87 10000 1.5 80 01:44 15.08.2019
3667 Clear 11 1018 93 10000 2.1 120 00:58 15.08.2019
3668 Clear 11 1018 93 10000 2.1 120 00:37 15.08.2019
3669 Clear 12 1018 87 10000 2.1 100 00:19 15.08.2019
3670 Clear 12 1018 87 10000 1.5 90 23:55 14.08.2019
3671 Clear 12 1018 87 10000 1.5 90 23:37 14.08.2019
3672 Clear 13 1018 77 10000 1.5 0 23:18 14.08.2019
3673 Clear 12 1018 82 10000 1 0 22:41 14.08.2019
3674 Clear 13 1019 82 10000 2.6 130 22:22 14.08.2019
3675 Clear 13 1019 76 10000 2.1 140 21:57 14.08.2019
3676 Clear 15 1018 68 10000 1 0 21:39 14.08.2019
3677 Clear 15 1018 68 10000 1 0 21:21 14.08.2019
3678 Clear 16 1018 68 10000 1 0 20:56 14.08.2019
3679 Clear 17 1019 75 10000 1.5 60 20:38 14.08.2019
3680 Clear 17 1019 75 10000 1.5 60 20:18 14.08.2019
3681 Clear 20 1018 43 10000 1 0 19:41 14.08.2019
3682 Clear 19 1018 43 10000 1 0 19:22 14.08.2019
3683 Clear 20 1018 37 10000 0.5 0 18:59 14.08.2019
3684 Clear 20 1018 37 10000 0.5 0 18:40 14.08.2019
3685 Clouds 20 1019 43 10000 2.6 340 18:21 14.08.2019
3686 Clouds 20 1019 43 10000 2.6 340 17:59 14.08.2019
3687 Clouds 20 1019 43 10000 2.6 340 17:40 14.08.2019
3688 Clouds 20 1019 43 10000 2.6 340 17:21 14.08.2019
3689 Clear 20 1019 42 10000 2.6 320 16:56 14.08.2019
3690 Clear 19 1019 42 10000 2.6 320 16:38 14.08.2019
3691 Clouds 19 1019 42 10000 2.6 360 16:19 14.08.2019
3692 Clouds 20 1020 49 10000 2.6 360 15:43 14.08.2019
3693 Clouds 19 1020 45 10000 2.6 360 15:19 14.08.2019
3694 Clouds 19 1020 45 10000 2.6 360 15:19 14.08.2019
3695 Clouds 19 1020 49 10000 2.6 360 14:56 14.08.2019
3696 Clouds 19 1020 49 10000 2.6 360 14:38 14.08.2019
3697 Clouds 18 1020 52 10000 2.1 340 14:18 14.08.2019
3698 Clouds 18 1021 48 10000 2.1 340 13:43 14.08.2019
3699 Clouds 18 1021 59 10000 1.5 310 13:24 14.08.2019
3700 Clouds 18 1021 68 10000 1.5 290 12:57 14.08.2019
3701 Clouds 17 1021 68 10000 1.5 290 12:39 14.08.2019
3702 Clouds 17 1021 68 10000 1.5 290 12:39 14.08.2019
3703 Clouds 16 1021 68 10000 1.5 350 12:21 14.08.2019
3704 Clouds 16 1021 77 10000 1.5 300 11:56 14.08.2019
3705 Clouds 15 1021 82 10000 1 0 11:37 14.08.2019
3706 Clouds 15 1021 82 10000 1 0 11:19 14.08.2019
3707 Clouds 15 1021 82 10000 1 0 10:43 14.08.2019
3708 Clouds 14 1021 88 10000 2.1 290 10:24 14.08.2019
3709 Clouds 14 1021 82 10000 2.1 290 09:57 14.08.2019
3710 Fog 13 1021 82 10000 2.1 290 09:38 14.08.2019
3711 Fog 12 1021 93 10000 1.5 90 09:19 14.08.2019
3712 Fog 12 1021 93 10000 1.5 100 08:39 14.08.2019
3713 Fog 11 1021 100 10000 1.5 120 08:21 14.08.2019
3714 Fog 10 1021 93 10000 1 100 07:51 14.08.2019
3715 Fog 10 1020 100 10000 1 0 07:32 14.08.2019
3716 Fog 10 1020 100 10000 0.5 0 06:46 14.08.2019
3717 Fog 11 1021 100 3500 1.5 260 05:54 14.08.2019
3718 Clouds 11 1021 93 10000 1 0 05:22 14.08.2019
3719 Clouds 11 1021 93 10000 1 0 03:38 14.08.2019
3720 Clouds 12 1021 93 10000 1 200 02:33 14.08.2019
3721 Clouds 12 1021 93 10000 1 200 01:45 14.08.2019
3722 Clouds 13 1021 93 10000 1 0 00:59 14.08.2019
3723 Rain 13 1021 87 10000 1 0 23:50 13.08.2019
3724 Rain 13 1020 87 10000 2.6 40 23:25 13.08.2019
3725 Clouds 13 1021 93 10000 1 0 22:59 13.08.2019
3726 Clouds 13 1021 93 10000 1 0 22:39 13.08.2019
3727 Clouds 13 1020 82 10000 0.5 0 22:21 13.08.2019
3728 Rain 14 1020 87 10000 0.5 0 21:58 13.08.2019
3729 Rain 14 1020 87 10000 0.5 0 21:38 13.08.2019
3730 Rain 14 1020 100 10000 2.6 110 21:19 13.08.2019
3731 Rain 14 1019 72 10000 2.1 120 20:56 13.08.2019
3732 Drizzle 15 1020 93 10000 2.6 80 20:36 13.08.2019
3733 Drizzle 15 1020 93 10000 2.6 80 20:18 13.08.2019
3734 Rain 14 1020 93 10000 2.6 150 19:42 13.08.2019
3735 Rain 15 1019 59 10000 0.5 0 19:21 13.08.2019
3736 Rain 16 1019 63 10000 1 0 18:56 13.08.2019
3737 Drizzle 16 1019 63 10000 1 0 18:37 13.08.2019
3738 Drizzle 16 1019 59 10000 1.5 0 18:18 13.08.2019
3739 Rain 17 1019 59 10000 1.5 0 17:41 13.08.2019
3740 Rain 17 1019 59 10000 2.6 270 17:21 13.08.2019
3741 Rain 17 1019 59 10000 3.1 290 16:57 13.08.2019
3742 Clouds 17 1019 59 10000 3.1 290 16:38 13.08.2019
3743 Clouds 17 1019 55 10000 2.6 300 16:20 13.08.2019
3744 Clouds 17 1019 52 10000 2.6 270 15:40 13.08.2019
3745 Clouds 18 1020 55 10000 2.6 250 15:20 13.08.2019
3746 Clouds 18 1020 63 10000 2.6 250 14:59 13.08.2019
3747 Clouds 18 1020 63 10000 2.6 250 14:40 13.08.2019
3748 Rain 18 1020 67 10000 3.6 260 14:19 13.08.2019
3749 Rain 18 1020 67 10000 3.6 260 14:19 13.08.2019
3750 Rain 18 1020 72 10000 3.1 280 13:42 13.08.2019
3751 Rain 18 1021 68 10000 4.1 290 13:23 13.08.2019
3752 Rain 18 1021 72 10000 4.6 290 12:59 13.08.2019
3753 Rain 18 1021 72 10000 4.6 290 12:41 13.08.2019
3754 -273 0 0 0 0 0 12:22 13.08.2019
3755 -273 0 0 0 0 0 12:22 13.08.2019
3756 Clouds 17 1021 77 10000 2.6 320 11:59 13.08.2019
3757 Clouds 17 1021 77 10000 2.6 320 11:39 13.08.2019
3758 Clouds 17 1021 77 10000 2.6 300 11:20 13.08.2019
3759 Clouds 17 1021 77 10000 2.6 300 10:56 13.08.2019
3760 Clear 16 1021 82 10000 4.1 230 10:37 13.08.2019
3761 Clouds 16 1021 77 10000 3.1 330 10:19 13.08.2019
3762 Clouds 15 1021 77 10000 0.5 0 09:43 13.08.2019
3763 Clouds 14 1021 82 10000 0.5 0 09:23 13.08.2019
3764 Clouds 14 1021 82 10000 0.5 0 09:23 13.08.2019
3765 Clouds 14 1021 93 10000 0.5 0 08:44 13.08.2019
3766 Clouds 13 1020 93 10000 0.5 0 08:23 13.08.2019
3767 Clouds 13 1020 93 10000 0.5 0 08:23 13.08.2019
3768 Clouds 13 1020 82 10000 1.5 200 07:58 13.08.2019
3769 Fog 12 1020 82 10000 1.5 200 07:37 13.08.2019
3770 Fog 12 1020 93 10000 3.1 210 07:00 13.08.2019
3771 Fog 12 1020 93 10000 3.1 210 06:40 13.08.2019
3772 Clouds 12 1019 93 10000 1 10 05:35 13.08.2019
3773 Clouds 13 1020 77 10000 1 0 03:35 13.08.2019
3774 Clouds 14 1020 77 10000 1.5 0 02:19 13.08.2019
3775 Clouds 14 1020 82 10000 1 0 01:18 13.08.2019
3776 Clouds 14 1020 82 10000 0.5 0 00:42 13.08.2019
3777 Rain 15 1020 82 10000 1 0 23:57 12.08.2019
3778 Rain 15 1020 82 10000 1 0 23:36 12.08.2019
3779 Clouds 15 1020 82 10000 1 0 23:18 12.08.2019
3780 Rain 15 1019 88 10000 1 0 22:40 12.08.2019
3781 Rain 15 1019 93 10000 0.5 0 22:20 12.08.2019
3782 Rain 15 1018 93 8000 1 0 21:56 12.08.2019
3783 Rain 15 1018 93 8000 1 0 21:37 12.08.2019
3784 Rain 15 1018 100 10000 0.5 100 21:19 12.08.2019
3785 Rain 15 1018 100 8000 1 330 20:57 12.08.2019
3786 Rain 15 1017 93 10000 1 170 20:38 12.08.2019
3787 Rain 15 1017 93 10000 1 170 20:20 12.08.2019
3788 Rain 15 1017 93 10000 1 170 20:20 12.08.2019
3789 Thunderstorm 15 1018 100 4000 2.1 180 19:55 12.08.2019
3790 Rain 15 1017 93 10000 2.6 230 19:37 12.08.2019
3791 Rain 16 1017 100 5000 1.5 0 19:18 12.08.2019
3792 Rain 16 1017 93 6000 1 0 18:55 12.08.2019
3793 Rain 16 1018 93 6000 3.6 280 18:36 12.08.2019
3794 Rain 16 1018 93 6000 3.6 280 18:18 12.08.2019
3795 Rain 17 1017 88 8000 2.6 280 17:46 12.08.2019
3796 Rain 17 1016 93 10000 3.1 260 17:28 12.08.2019
3797 Clouds 18 1016 88 10000 3.6 290 16:56 12.08.2019
3798 Clouds 18 1016 88 10000 3.6 290 16:56 12.08.2019
3799 Clouds 18 1016 88 10000 3.6 290 16:56 12.08.2019
3800 -273 0 0 0 0 0 16:56 12.08.2019
3801 Clouds 18 1017 82 10000 1.5 0 16:37 12.08.2019
3802 -273 0 0 0 0 0 16:18 12.08.2019
3803 Clouds 17 1017 82 10000 3.1 60 15:42 12.08.2019
3804 Clouds 17 1017 82 10000 3.1 60 15:41 12.08.2019
3805 Clouds 17 1017 82 10000 3.1 60 15:41 12.08.2019
3806 Rain 17 1017 93 10000 1.5 60 15:21 12.08.2019
3807 -273 0 0 0 0 0 14:57 12.08.2019
3808 Rain 15 1018 100 10000 1.5 180 14:39 12.08.2019
3809 Rain 15 1019 100 10000 1.5 0 14:20 12.08.2019
3810 Rain 15 1019 100 10000 1.5 0 14:20 12.08.2019
3811 Rain 14 1019 100 10000 1 190 13:47 12.08.2019
3812 Rain 14 1019 100 10000 1 190 13:47 12.08.2019
3813 Rain 14 1019 100 7000 3.6 320 13:24 12.08.2019
3814 Rain 14 1019 100 4700 1.5 40 12:59 12.08.2019
3815 Rain 14 1018 100 6000 4.1 340 12:40 12.08.2019
3816 -273 0 0 0 0 0 12:18 12.08.2019
3817 Rain 14 1018 100 6000 4.1 340 12:18 12.08.2019
3818 Rain 15 1018 100 6000 3.1 360 11:42 12.08.2019
3819 Rain 15 1018 100 6000 3.1 360 11:41 12.08.2019
3820 Rain 15 1018 100 6000 3.1 360 11:41 12.08.2019
3821 Rain 15 1020 100 5000 2.1 20 11:23 12.08.2019
3822 Rain 15 1018 100 7000 1.5 360 10:43 12.08.2019
3823 Rain 15 1017 93 10000 1.5 320 10:23 12.08.2019
3824 Rain 15 1017 93 10000 1.5 320 10:23 12.08.2019
3825 Rain 15 1017 93 10000 1.5 320 09:56 12.08.2019
3826 Rain 15 1017 93 10000 1.5 320 09:38 12.08.2019
3827 Rain 15 1018 93 10000 3.1 50 09:19 12.08.2019
3828 Rain 15 1019 100 8000 2.1 70 08:57 12.08.2019
3829 Rain 15 1019 100 8000 2.1 70 08:38 12.08.2019
3830 Rain 15 1019 100 8000 2.1 70 08:38 12.08.2019
3831 Rain 15 1019 100 3800 1.5 20 08:19 12.08.2019
3832 Rain 15 1018 93 10000 2.6 80 07:49 12.08.2019
3833 Rain 15 1019 100 2500 3.6 40 07:27 12.08.2019
3834 Drizzle 15 1018 93 10000 3.6 270 06:47 12.08.2019
3835 Clouds 16 1018 93 10000 4.1 280 05:38 12.08.2019
3836 Clouds 17 1018 93 10000 2.1 350 02:44 12.08.2019
3837 Rain 17 1018 93 10000 1.92 312.995 01:54 12.08.2019
3838 Rain 17 1018 93 10000 0.5 0 01:20 12.08.2019
3839 Rain 17 1018 93 10000 1 0 00:57 12.08.2019
3840 Rain 17 1018 93 10000 1 0 00:38 12.08.2019
3841 Rain 17 1018 93 10000 1.5 280 00:19 12.08.2019
3842 Rain 17 1018 93 10000 1 0 23:42 11.08.2019
3843 Rain 17 1018 93 10000 1 0 23:42 11.08.2019
3844 Rain 17 1018 88 10000 2.1 270 23:21 11.08.2019
3845 Rain 17 1017 100 10000 1.5 210 22:59 11.08.2019
3846 Rain 17 1017 100 10000 1.5 210 22:40 11.08.2019
3847 Rain 18 1018 93 6000 1.5 0 22:19 11.08.2019
3848 Rain 18 1017 93 10000 3.6 320 21:59 11.08.2019
3849 Rain 19 1017 93 10000 3.6 320 21:40 11.08.2019
3850 Rain 19 1017 82 10000 11.3 290 21:21 11.08.2019
3851 Rain 22 1015 73 10000 11.3 290 20:56 11.08.2019
3852 Rain 23 1015 73 10000 11.3 290 20:38 11.08.2019
3853 Clouds 23 1013 61 10000 6.2 290 20:19 11.08.2019
3854 Clouds 24 1012 65 10000 6.7 270 19:42 11.08.2019
3855 Clear 25 1011 65 10000 4.1 290 19:19 11.08.2019
3856 Clear 26 1010 69 10000 4.1 290 18:41 11.08.2019
3857 Clear 27 1009 65 10000 2.6 290 18:22 11.08.2019
3858 Clear 27 1009 54 10000 2.6 290 17:58 11.08.2019
3859 Clear 27 1009 54 10000 2.6 290 17:58 11.08.2019
3860 Clear 27 1009 54 10000 2.6 290 17:40 11.08.2019
3861 Clear 27 1011 61 10000 2.6 290 17:20 11.08.2019
3862 Clear 28 1011 61 10000 2.1 340 16:56 11.08.2019
3863 Clear 27 1011 61 10000 2.1 340 16:38 11.08.2019
3864 Clear 27 1012 57 10000 2.6 280 16:18 11.08.2019
3865 Clear 27 1012 61 10000 2.1 340 15:43 11.08.2019
3866 Clear 27 1013 54 10000 1 0 15:24 11.08.2019
3867 Clear 26 1013 54 10000 1 0 14:58 11.08.2019
3868 Clear 26 1013 54 10000 1 0 14:39 11.08.2019
3869 Clear 26 1014 57 10000 1.5 0 14:19 11.08.2019
3870 Clear 26 1015 57 10000 1.5 0 13:44 11.08.2019
3871 Clear 25 1016 64 10000 2.1 290 13:24 11.08.2019
3872 Clear 25 1016 64 10000 2.1 290 12:48 11.08.2019
3873 Clear 24 1017 73 10000 2.6 290 12:23 11.08.2019
3874 Clear 23 1017 77 10000 2.6 290 11:57 11.08.2019
3875 Clear 23 1017 77 10000 2.6 290 11:38 11.08.2019
3876 Clear 22 1017 82 10000 1 0 11:20 11.08.2019
3877 Clear 23 1017 77 10000 1 0 10:41 11.08.2019
3878 Clear 22 1018 77 10000 0.5 0 10:22 11.08.2019
3879 Clear 21 1018 82 10000 1.5 50 09:59 11.08.2019
3880 Clear 20 1018 82 10000 1.5 50 09:39 11.08.2019
3881 Clear 19 1019 82 10000 1.5 290 09:20 11.08.2019
3882 Clear 18 1019 82 10000 1.5 0 08:47 11.08.2019
3883 Clear 16 1019 88 10000 1 0 08:27 11.08.2019
3884 Clear 16 1019 93 10000 1 0 07:55 11.08.2019
3885 Clear 15 1019 93 10000 1.5 110 07:25 11.08.2019
3886 Clouds 14 1019 93 10000 1.5 110 06:45 11.08.2019
3887 Clouds 14 1020 93 10000 0.5 0 05:58 11.08.2019
3888 Clouds 15 1020 93 10000 1 0 03:56 11.08.2019
3889 Clouds 16 1020 93 10000 1.5 0 02:49 11.08.2019
3890 Clouds 16 1020 93 10000 1.5 100 01:43 11.08.2019
3891 Clouds 16 1020 88 10000 0.5 0 01:20 11.08.2019
3892 Clouds 16 1021 82 10000 0.5 0 00:48 11.08.2019
3893 Clouds 16 1021 82 10000 1.5 0 00:28 11.08.2019
3894 Clouds 17 1020 88 10000 1.5 100 23:47 10.08.2019
3895 Clouds 16 1020 93 10000 0.5 0 23:28 10.08.2019
3896 Clouds 17 1020 72 10000 1.5 120 22:44 10.08.2019
3897 Clouds 17 1020 72 10000 1.5 120 22:44 10.08.2019
3898 Clear 17 1021 88 10000 1.5 210 22:26 10.08.2019
3899 Clear 17 1021 88 10000 1.5 170 21:58 10.08.2019
3900 Clear 17 1021 88 10000 1.5 170 21:39 10.08.2019
3901 Clear 17 1020 82 10000 3.1 220 21:20 10.08.2019
3902 Clear 18 1020 72 10000 3.6 220 20:56 10.08.2019
3903 Clear 18 1020 72 10000 3.6 220 20:37 10.08.2019
3904 Clouds 19 1019 56 10000 1 0 20:18 10.08.2019
3905 Clouds 20 1019 60 10000 2.1 160 19:40 10.08.2019
3906 Clouds 20 1019 83 10000 2.6 100 19:21 10.08.2019
3907 Clouds 20 1019 83 10000 2.6 100 18:42 10.08.2019
3908 Clouds 20 1019 83 10000 1 0 18:23 10.08.2019
3909 Clouds 20 1020 83 10000 2.1 270 17:55 10.08.2019
3910 Clouds 20 1019 73 10000 1.5 0 17:36 10.08.2019
3911 Clouds 20 1019 73 10000 1.5 0 17:18 10.08.2019
3912 Clouds 20 1020 77 10000 2.1 80 16:42 10.08.2019
3913 Clouds 19 1020 83 10000 3.6 90 16:20 10.08.2019
3914 Clouds 19 1020 82 10000 4.1 100 15:43 10.08.2019
3915 -273 0 0 0 0 0 15:21 10.08.2019
3916 Rain 17 1020 93 9000 2.6 110 14:43 10.08.2019
3917 Rain 17 1021 93 10000 1.5 350 14:19 10.08.2019
3918 Rain 17 1021 93 10000 1.5 350 13:40 10.08.2019
3919 Rain 17 1021 82 9000 3.1 270 13:19 10.08.2019
3920 Rain 18 1021 82 10000 3.1 270 12:43 10.08.2019
3921 Rain 18 1020 93 10000 4.1 230 12:23 10.08.2019
3922 Rain 18 1020 88 10000 2.6 240 11:57 10.08.2019
3923 Rain 18 1020 88 10000 2.6 240 11:39 10.08.2019
3924 Rain 18 1020 88 10000 2.6 240 11:20 10.08.2019
3925 Rain 18 1019 100 10000 2.1 100 10:39 10.08.2019
3926 Rain 18 1020 93 10000 4.1 230 10:20 10.08.2019
3927 Rain 18 1019 93 10000 1 0 09:59 10.08.2019
3928 Rain 18 1019 93 10000 1 0 09:39 10.08.2019
3929 Rain 18 1019 93 3000 1.5 0 09:21 10.08.2019
3930 Thunderstorm 19 1018 93 3000 4.1 250 08:39 10.08.2019
3931 Rain 19 1016 100 10000 1 0 08:20 10.08.2019
3932 Rain 20 1016 100 10000 1 0 07:53 10.08.2019
3933 Rain 20 1016 94 10000 1 230 07:27 10.08.2019
3934 Rain 20 1015 94 10000 1 0 06:48 10.08.2019
3935 Mist 20 1015 94 2400 1 290 06:21 10.08.2019
3936 Clouds 20 1015 88 10000 1.5 0 05:24 10.08.2019
3937 Rain 20 1014 94 10000 0.52 336.364 04:21 10.08.2019
3938 Rain 21 1014 94 10000 0.5 0 02:54 10.08.2019
3939 Rain 21 1015 94 10000 1.5 80 02:23 10.08.2019
3940 Rain 21 1014 94 10000 1 310 01:40 10.08.2019
3941 Rain 21 1014 83 10000 1.5 230 01:20 10.08.2019
3942 Rain 22 1014 83 10000 2.1 0 00:44 10.08.2019
3943 Clouds 22 1013 88 10000 2.1 0 00:22 10.08.2019
3944 Clouds 23 1012 78 10000 1 0 23:43 09.08.2019
3945 Clear 23 1012 83 10000 3.6 270 23:23 09.08.2019
3946 Clear 23 1011 78 10000 1.5 0 22:57 09.08.2019
3947 Clear 23 1011 78 10000 1 0 22:38 09.08.2019
3948 Clear 23 1011 78 10000 1 0 22:20 09.08.2019
3949 Clear 23 1011 73 10000 1.5 190 21:41 09.08.2019
3950 Clouds 25 1010 83 10000 1 0 21:23 09.08.2019
3951 Clear 25 1010 58 10000 1.5 160 20:59 09.08.2019
3952 -273 0 0 0 0 0 20:40 09.08.2019
3953 Clear 26 1010 78 10000 1 0 20:21 09.08.2019
3954 Clear 27 1010 65 10000 1 0 19:56 09.08.2019
3955 Clear 27 1012 51 10000 2.1 230 19:38 09.08.2019
3956 Clear 28 1011 65 10000 2.1 290 19:18 09.08.2019
3957 Clear 30 1011 54 10000 1.5 300 18:40 09.08.2019
3958 Clear 30 1011 54 10000 1.5 300 18:22 09.08.2019
3959 Clear 30 1011 54 10000 3.6 280 17:56 09.08.2019
3960 Clear 30 1011 54 10000 3.6 280 17:56 09.08.2019
3961 Clear 31 1011 54 10000 3.6 280 17:38 09.08.2019
3962 Clear 31 1011 54 10000 3.6 280 17:19 09.08.2019
3963 Clear 31 1013 42 10000 5.1 220 16:40 09.08.2019
3964 Clear 30 1012 69 10000 2.1 40 16:21 09.08.2019
3965 Clear 30 1012 69 10000 1.5 30 15:56 09.08.2019
3966 Clear 30 1012 69 10000 1.5 30 15:37 09.08.2019
3967 Clear 29 1013 57 10000 1.5 0 15:19 09.08.2019
3968 Clear 29 1013 57 10000 1.5 0 14:44 09.08.2019
3969 -273 0 0 0 0 0 14:22 09.08.2019
3970 Clear 29 1013 69 10000 4.1 290 13:57 09.08.2019
3971 Clear 29 1013 78 10000 2.6 290 13:39 09.08.2019
3972 Clear 29 1013 78 10000 2.6 290 13:19 09.08.2019
3973 Clear 29 1013 73 10000 2.6 290 12:45 09.08.2019
3974 Clear 27 1013 73 10000 2.1 290 12:23 09.08.2019
3975 Clear 26 1013 73 10000 2.1 290 11:57 09.08.2019
3976 Clear 25 1013 83 10000 1.5 290 11:37 09.08.2019
3977 Clear 25 1013 83 10000 1.5 290 11:18 09.08.2019
3978 Clear 25 1013 83 10000 1.5 300 10:40 09.08.2019
3979 Clear 25 1014 83 10000 1 0 10:21 09.08.2019
3980 Clear 23 1014 82 10000 1 0 09:45 09.08.2019
3981 Clear 20 1014 88 10000 1.58 146.803 09:20 09.08.2019
3982 Clear 19 1014 82 10000 1.58 146.803 08:56 09.08.2019
3983 Clear 18 1014 82 10000 1.59 144.315 08:37 09.08.2019
3984 Clear 17 1015 100 10000 1.59 144.315 08:18 09.08.2019
3985 Clear 16 1015 100 10000 1.59 144.315 07:43 09.08.2019
3986 Fog 15 1014 100 10000 1.59 144.315 07:22 09.08.2019
3987 Fog 14 1014 100 10000 1.59 144.315 06:55 09.08.2019
3988 Clear 14 1014 100 10000 0.5 0 06:27 09.08.2019
3989 Clear 14 1014 100 10000 0.5 0 05:50 09.08.2019
3990 Clouds 15 1014 93 10000 1 100 02:33 09.08.2019
3991 Clear 15 1015 93 10000 1.5 0 01:45 09.08.2019
3992 Clouds 16 1014 93 10000 2.1 110 00:45 09.08.2019
3993 Clouds 16 1014 93 10000 2.1 110 00:45 09.08.2019
3994 Clear 16 1015 93 10000 2.6 110 00:26 09.08.2019
3995 Clear 16 1015 93 10000 2.6 100 23:59 08.08.2019
3996 Clear 16 1015 93 10000 2.6 100 23:59 08.08.2019
3997 Clear 16 1015 93 10000 2.6 100 23:38 08.08.2019
3998 Clouds 17 1015 93 10000 2.6 90 23:19 08.08.2019
3999 Clouds 17 1015 88 10000 1 0 22:57 08.08.2019
4000 Clouds 17 1015 88 10000 1 0 22:37 08.08.2019
4001 Clouds 17 1015 88 10000 1 0 22:37 08.08.2019
4002 Clouds 18 1015 82 10000 1.5 180 22:18 08.08.2019
4003 Clear 18 1016 82 10000 2.1 140 21:55 08.08.2019
4004 Clear 18 1016 82 10000 2.1 140 21:37 08.08.2019
4005 Clear 19 1014 68 10000 1 0 21:18 08.08.2019
4006 Clear 20 1014 73 10000 1 0 20:42 08.08.2019
4007 Clear 21 1014 64 10000 1 0 20:22 08.08.2019
4008 Clear 23 1014 47 10000 1 0 19:57 08.08.2019
4009 Clear 23 1014 53 10000 1 0 19:38 08.08.2019
4010 Clear 23 1014 53 10000 1 0 19:19 08.08.2019
4011 Clear 23 1014 53 10000 1 0 19:19 08.08.2019
4012 Clouds 24 1014 50 10000 1 0 18:41 08.08.2019
4013 Clouds 25 1014 60 10000 1 0 18:22 08.08.2019
4014 Clear 25 1015 57 10000 1 0 17:55 08.08.2019
4015 Clear 25 1015 50 10000 2.6 340 17:36 08.08.2019
4016 Clouds 25 1015 64 10000 2.1 340 17:18 08.08.2019
4017 Clear 24 1014 64 10000 1.5 0 16:42 08.08.2019
4018 Clouds 24 1015 60 10000 1.5 330 16:24 08.08.2019
4019 Clouds 24 1015 64 10000 1.5 0 15:58 08.08.2019
4020 Clouds 24 1015 64 10000 1.5 0 15:39 08.08.2019
4021 Clouds 24 1015 69 10000 1.5 0 15:20 08.08.2019
4022 Clear 24 1015 69 10000 1.5 0 14:41 08.08.2019
4023 Clouds 23 1016 73 10000 2.1 310 14:22 08.08.2019
4024 Clouds 23 1016 83 10000 2.1 310 13:57 08.08.2019
4025 Clouds 23 1016 83 10000 2.1 310 13:38 08.08.2019
4026 Clouds 23 1015 77 10000 2.1 360 13:18 08.08.2019
4027 Clouds 22 1015 88 10000 2.6 330 12:39 08.08.2019
4028 Clouds 21 1015 88 10000 2.6 330 12:19 08.08.2019
4029 Clouds 21 1015 88 10000 2.6 330 11:48 08.08.2019
4030 Clouds 20 1015 88 10000 2.1 270 11:27 08.08.2019
4031 Clouds 20 1015 88 10000 2.1 270 10:59 08.08.2019
4032 Clouds 20 1015 88 10000 2.1 270 10:59 08.08.2019
4033 Clouds 19 1016 77 10000 3.6 250 10:40 08.08.2019
4034 Clouds 19 1015 94 10000 2.1 300 10:20 08.08.2019
4035 Clouds 18 1015 94 10000 2.1 300 09:44 08.08.2019
4036 Clear 17 1015 94 10000 0.5 0 09:25 08.08.2019
4037 Clear 17 1015 94 10000 0.5 0 08:54 08.08.2019
4038 Clear 16 1015 94 10000 0.5 0 08:36 08.08.2019
4039 Clear 16 1015 100 10000 1 0 08:18 08.08.2019
4040 Clouds 15 1015 100 10000 1 90 07:39 08.08.2019
4041 Clouds 15 1015 100 10000 1 90 07:19 08.08.2019
4042 Clouds 15 1015 100 10000 1 90 06:46 08.08.2019
4043 Fog 15 1015 100 10000 1.5 90 06:19 08.08.2019
4044 Clouds 15 1015 100 10000 1 0 05:51 08.08.2019
4045 Clouds 15 1015 100 10000 1 0 04:43 08.08.2019
4046 Clouds 15 1014 93 10000 1.5 180 03:51 08.08.2019
4047 Clouds 16 1015 93 10000 1 0 01:59 08.08.2019
4048 Clouds 16 1015 93 10000 1.5 0 01:24 08.08.2019
4049 Clouds 16 1014 100 10000 2.1 120 00:25 08.08.2019
4050 Clouds 16 1015 100 10000 2.6 100 23:42 07.08.2019
4051 Rain 16 1015 100 10000 1 0 23:19 07.08.2019
4052 Rain 16 1015 100 6000 0.5 0 22:55 07.08.2019
4053 Rain 16 1014 100 4500 1 0 22:36 07.08.2019
4054 Rain 16 1014 100 4500 1 0 22:36 07.08.2019
4055 Rain 16 1014 100 4500 1 0 22:18 07.08.2019
4056 Rain 16 1014 100 4500 1 0 22:18 07.08.2019
4057 Rain 16 1014 100 4500 1 0 21:54 07.08.2019
4058 Rain 16 1013 100 10000 1.5 140 21:36 07.08.2019
4059 Rain 16 1013 100 10000 1.5 140 21:18 07.08.2019
4060 Rain 17 1013 93 10000 1.5 140 20:41 07.08.2019
4061 Rain 17 1013 93 10000 1.5 140 20:41 07.08.2019
4062 Thunderstorm 17 1012 93 10000 2.1 150 20:23 07.08.2019
4063 Thunderstorm 17 1012 82 10000 2.1 150 19:56 07.08.2019
4064 Thunderstorm 17 1012 82 10000 2.1 150 19:38 07.08.2019
4065 Rain 18 1012 88 10000 5.1 230 19:19 07.08.2019
4066 Rain 18 1012 88 10000 5.1 210 18:41 07.08.2019
4067 Rain 18 1012 93 10000 2.1 120 18:20 07.08.2019
4068 Rain 18 1012 93 10000 1.5 0 17:57 07.08.2019
4069 Rain 18 1012 93 10000 1.5 0 17:38 07.08.2019
4070 Rain 18 1012 93 10000 1 0 17:19 07.08.2019
4071 Rain 18 1012 93 10000 1 0 16:56 07.08.2019
4072 Rain 18 1013 93 10000 5.7 220 16:38 07.08.2019
4073 Rain 18 1013 88 10000 1.5 40 16:19 07.08.2019
4074 Rain 18 1013 88 10000 1.5 40 15:43 07.08.2019
4075 Rain 18 1012 93 10000 3.6 100 15:22 07.08.2019
4076 Rain 18 1012 93 10000 3.6 100 14:57 07.08.2019
4077 Rain 18 1013 93 10000 5.1 210 14:39 07.08.2019
4078 Rain 18 1013 88 10000 2.1 80 14:21 07.08.2019
4079 Rain 18 1013 88 10000 2.1 80 13:40 07.08.2019
4080 Rain 18 1014 77 7000 1.5 110 13:19 07.08.2019
4081 Rain 19 1013 68 10000 4.1 270 12:58 07.08.2019
4082 Rain 19 1013 68 10000 4.1 270 12:39 07.08.2019
4083 Rain 20 1013 68 10000 4.1 270 12:20 07.08.2019
4084 Clouds 20 1012 77 10000 6.7 280 11:58 07.08.2019
4085 Clouds 20 1012 77 10000 6.7 280 11:40 07.08.2019
4086 Clouds 20 1012 83 10000 6.2 290 11:18 07.08.2019
4087 Rain 20 1012 83 10000 6.2 290 10:41 07.08.2019
4088 Clouds 20 1011 73 10000 2.6 280 10:20 07.08.2019
4089 Clear 20 1010 73 10000 1.5 0 09:59 07.08.2019
4090 Clouds 19 1010 88 10000 0.5 0 09:40 07.08.2019
4091 Clouds 19 1010 88 10000 0.5 0 09:20 07.08.2019
4092 Clouds 18 1010 88 10000 0.5 0 08:45 07.08.2019
4093 Clouds 17 1011 88 10000 1 0 08:25 07.08.2019
4094 Clouds 17 1011 88 10000 1 0 07:51 07.08.2019
4095 Clear 16 1011 88 10000 1 0 07:31 07.08.2019
4096 Clear 16 1011 88 10000 1 0 06:50 07.08.2019
4097 Clear 16 1011 93 10000 1 0 06:26 07.08.2019
4098 Clear 16 1011 93 10000 0.5 0 05:43 07.08.2019
4099 Clear 16 1012 88 10000 1.5 0 04:41 07.08.2019
4100 Clouds 17 1013 88 10000 1 170 03:18 07.08.2019
4101 Clouds 17 1013 88 10000 1.5 210 02:39 07.08.2019
4102 Clouds 17 1014 93 10000 1 0 01:52 07.08.2019
4103 Clear 17 1013 72 10000 1.5 0 01:22 07.08.2019
4104 Clear 17 1012 72 10000 2.1 0 00:24 07.08.2019
4105 Rain 17 1012 93 10000 0.5 0 23:59 06.08.2019
4106 Rain 17 1012 93 10000 0.5 0 23:38 06.08.2019
4107 Rain 17 1012 88 10000 1 0 23:20 06.08.2019
4108 Rain 17 1013 88 10000 1 0 22:40 06.08.2019
4109 Rain 17 1013 88 10000 2.6 200 22:22 06.08.2019
4110 Rain 17 1012 88 10000 2.6 160 21:57 06.08.2019
4111 Rain 17 1012 88 10000 2.6 160 21:38 06.08.2019
4112 Thunderstorm 17 1013 82 10000 3.6 200 21:19 06.08.2019
4113 Thunderstorm 18 1013 77 10000 4.1 190 20:46 06.08.2019
4114 Rain 19 1012 60 10000 3.1 0 20:27 06.08.2019
4115 Rain 20 1012 60 10000 3.1 0 19:57 06.08.2019
4116 Clear 20 1012 60 10000 3.1 0 19:38 06.08.2019
4117 Rain 19 1014 88 10000 2.1 170 19:19 06.08.2019
4118 Rain 20 1014 88 10000 2.1 170 18:41 06.08.2019
4119 Thunderstorm 22 1013 73 10000 1 0 18:23 06.08.2019
4120 Clouds 22 1013 73 10000 1 0 17:57 06.08.2019
4121 Clear 22 1014 64 10000 5.7 230 17:37 06.08.2019
4122 Clouds 23 1013 61 10000 2.1 0 17:19 06.08.2019
4123 Clouds 23 1013 61 10000 2.1 0 16:47 06.08.2019
4124 Thunderstorm 22 1014 83 10000 3.6 140 16:25 06.08.2019
4125 Thunderstorm 21 1014 78 10000 3.6 140 15:59 06.08.2019
4126 Thunderstorm 21 1014 78 10000 3.6 140 15:40 06.08.2019
4127 Thunderstorm 20 1015 94 10000 2.1 140 15:21 06.08.2019
4128 Rain 20 1016 88 8000 1.5 0 14:58 06.08.2019
4129 Rain 20 1015 88 10000 2.6 130 14:37 06.08.2019
4130 Rain 20 1015 88 10000 2.6 130 14:19 06.08.2019
4131 Rain 20 1016 83 10000 1.5 160 13:45 06.08.2019
4132 Rain 20 1016 73 10000 3.6 150 13:26 06.08.2019
4133 Rain 21 1016 73 10000 3.6 150 12:59 06.08.2019
4134 Rain 20 1016 73 10000 3.6 150 12:40 06.08.2019
4135 Rain 19 1016 82 10000 1.5 0 12:21 06.08.2019
4136 Rain 19 1016 77 10000 5.1 200 11:45 06.08.2019
4137 Rain 19 1015 77 10000 4.1 190 11:20 06.08.2019
4138 Rain 19 1015 77 10000 4.1 190 10:58 06.08.2019
4139 Rain 18 1015 77 10000 4.1 190 10:39 06.08.2019
4140 Rain 18 1015 77 10000 4.1 190 10:39 06.08.2019
4141 Rain 18 1016 77 10000 3.1 180 10:21 06.08.2019
4142 Rain 18 1016 82 10000 3.1 180 09:41 06.08.2019
4143 Thunderstorm 17 1016 93 10000 3.1 100 09:21 06.08.2019
4144 Thunderstorm 17 1016 93 10000 3.1 100 08:51 06.08.2019
4145 Thunderstorm 17 1017 93 10000 7.2 220 08:28 06.08.2019
4146 Thunderstorm 17 1016 93 10000 2.6 140 07:59 06.08.2019
4147 Rain 17 1015 93 10000 7.2 180 07:29 06.08.2019
4148 Thunderstorm 17 1016 100 10000 2.6 120 06:44 06.08.2019
4149 Thunderstorm 17 1016 93 6000 1.5 0 06:23 06.08.2019
4150 Clouds 17 1015 100 10000 4.1 130 05:31 06.08.2019
4151 Clouds 18 1015 93 9000 2.1 130 02:48 06.08.2019
4152 Rain 18 1015 88 10000 1 0 01:25 06.08.2019
4153 Rain 18 1014 88 10000 2.6 230 00:51 06.08.2019
4154 Clouds 19 1014 83 10000 2.1 180 23:59 05.08.2019
4155 Rain 19 1014 88 10000 1 0 23:20 05.08.2019
4156 Clouds 19 1014 83 10000 1.6 154.812 22:42 05.08.2019
4157 Rain 20 1015 72 10000 2.1 170 22:23 05.08.2019
4158 Haze 21 1013 61 10000 1.5 180 21:59 05.08.2019
4159 Haze 21 1013 61 10000 1.5 180 21:41 05.08.2019
4160 Clear 23 1013 61 10000 1.5 180 21:20 05.08.2019
4161 Clear 24 1013 78 10000 1 0 20:57 05.08.2019
4162 Clear 24 1013 78 10000 1 0 20:39 05.08.2019
4163 Clear 24 1013 78 10000 1 0 20:20 05.08.2019
4164 Clear 24 1013 65 10000 1.5 80 19:55 05.08.2019
4165 Clear 25 1013 65 10000 1.5 80 19:36 05.08.2019
4166 Clear 26 1013 65 10000 1.5 80 19:18 05.08.2019
4167 Clear 26 1013 54 10000 1 0 18:40 05.08.2019
4168 Clear 27 1013 54 10000 1 0 18:19 05.08.2019
4169 Clear 27 1014 45 10000 1.5 0 17:46 05.08.2019
4170 Clear 27 1014 45 10000 1.5 0 17:27 05.08.2019
4171 Clouds 27 1014 51 10000 1.5 30 16:47 05.08.2019
4172 Clouds 26 1014 51 10000 1.5 30 16:27 05.08.2019
4173 Clouds 27 1014 61 10000 1 0 15:57 05.08.2019
4174 Clouds 27 1014 61 10000 1 0 15:39 05.08.2019
4175 Clouds 27 1014 61 10000 1 0 15:39 05.08.2019
4176 Clouds 27 1014 61 10000 1 0 15:20 05.08.2019
4177 Clouds 27 1014 73 10000 1.5 310 14:39 05.08.2019
4178 Clouds 27 1014 73 10000 1.5 310 14:19 05.08.2019
4179 Clouds 26 1015 73 10000 2.1 280 13:44 05.08.2019
4180 Clouds 26 1015 78 10000 2.1 310 13:23 05.08.2019
4181 Clouds 25 1015 73 10000 2.1 310 12:49 05.08.2019
4182 Clouds 24 1015 78 10000 1.5 0 12:20 05.08.2019
4183 Clouds 23 1015 78 10000 1.5 0 11:48 05.08.2019
4184 Clouds 22 1016 78 10000 0.5 0 11:28 05.08.2019
4185 Clear 23 1016 73 10000 1 0 10:59 05.08.2019
4186 Clear 23 1016 73 10000 1 0 10:41 05.08.2019
4187 Clouds 21 1016 82 10000 1.5 330 10:21 05.08.2019
4188 Clouds 21 1016 82 10000 1.5 330 09:43 05.08.2019
4189 Clouds 19 1016 82 10000 1 0 09:25 05.08.2019
4190 Clouds 18 1016 82 10000 1 0 08:59 05.08.2019
4191 Clouds 18 1016 82 10000 1 0 08:40 05.08.2019
4192 Clouds 17 1016 82 10000 1 0 08:20 05.08.2019
4193 Clouds 17 1016 82 10000 1 0 08:20 05.08.2019
4194 Clouds 17 1016 88 10000 1 0 07:42 05.08.2019
4195 Clear 16 1016 82 10000 0.5 0 07:22 05.08.2019
4196 Clear 15 1016 88 10000 1 0 06:32 05.08.2019
4197 Clear 15 1015 93 10000 0.5 0 05:51 05.08.2019
4198 Clear 15 1015 93 10000 0.5 0 05:51 05.08.2019
4199 Clouds 15 1016 88 10000 1.5 0 05:19 05.08.2019
4200 Clear 15 1015 93 10000 0.5 180 04:25 05.08.2019
4201 Clear 15 1016 87 10000 0.5 140 03:30 05.08.2019
4202 Clouds 15 1016 87 10000 1 0 02:35 05.08.2019
4203 Clear 15 1016 93 10000 0.5 0 01:34 05.08.2019
4204 Clear 16 1016 82 10000 1 0 00:42 05.08.2019
4205 Clear 16 1016 77 10000 2.6 90 00:21 05.08.2019
4206 Clouds 16 1016 87 10000 2.6 90 23:57 04.08.2019
4207 Clouds 16 1016 87 10000 2.6 90 23:39 04.08.2019
4208 Clouds 17 1016 77 10000 2.1 100 23:19 04.08.2019
4209 Clear 16 1017 77 10000 2.6 120 22:54 04.08.2019
4210 Clear 16 1017 77 10000 2.6 120 22:54 04.08.2019
4211 Clear 17 1017 77 10000 2.6 120 22:36 04.08.2019
4212 Clear 17 1017 82 10000 2.6 120 22:18 04.08.2019
4213 Clouds 18 1016 49 10000 1.5 0 21:42 04.08.2019
4214 Clear 20 1016 56 10000 1 0 21:20 04.08.2019
4215 Clear 21 1016 56 10000 1 0 20:45 04.08.2019
4216 Clear 22 1015 36 10000 1 300 20:19 04.08.2019
4217 Clear 22 1015 36 10000 1 300 19:58 04.08.2019
4218 Clear 23 1015 36 10000 1 300 19:38 04.08.2019
4219 Clear 24 1015 31 10000 2.1 340 19:19 04.08.2019
4220 Clear 24 1015 31 10000 2.1 340 18:42 04.08.2019
4221 Clear 25 1016 31 10000 2.1 300 18:20 04.08.2019
4222 Clear 25 1016 36 10000 2.1 300 17:45 04.08.2019
4223 Clear 25 1016 33 10000 1.5 0 17:25 04.08.2019
4224 Clear 25 1016 50 10000 2.6 320 16:59 04.08.2019
4225 Clear 25 1016 50 10000 2.6 320 16:38 04.08.2019
4226 Clear 25 1016 50 10000 2.6 320 16:19 04.08.2019
4227 Clear 25 1017 50 10000 2.1 290 15:42 04.08.2019
4228 Clear 25 1017 57 10000 2.6 270 15:21 04.08.2019
4229 Clear 24 1017 60 10000 2.6 270 14:45 04.08.2019
4230 Clear 24 1017 60 10000 2.6 270 14:26 04.08.2019
4231 Clouds 24 1017 68 10000 2.1 280 13:47 04.08.2019
4232 Clouds 24 1017 68 10000 2.1 280 13:28 04.08.2019
4233 Clouds 23 1018 52 10000 1.5 0 12:59 04.08.2019
4234 Clouds 23 1018 82 10000 2.1 330 12:40 04.08.2019
4235 Clouds 22 1018 82 10000 2.1 330 12:22 04.08.2019
4236 Clouds 21 1018 82 10000 2.1 330 11:50 04.08.2019
4237 Clouds 21 1018 82 10000 2.1 330 11:23 04.08.2019
4238 Clear 21 1018 82 10000 1.5 0 10:54 04.08.2019
4239 Clear 20 1018 82 10000 1.5 0 10:36 04.08.2019
4240 Clear 20 1018 82 10000 1.5 0 10:18 04.08.2019
4241 Clear 19 1018 82 10000 1.5 300 09:41 04.08.2019
4242 Clear 17 1018 82 10000 0.5 0 09:20 04.08.2019
4243 Clear 16 1018 93 10000 1 0 08:41 04.08.2019
4244 Clouds 15 1017 93 10000 1.5 100 08:20 04.08.2019
4245 Clear 14 1017 93 10000 1.5 100 07:45 04.08.2019
4246 Clear 12 1017 100 10000 0.5 0 06:47 04.08.2019
4247 Clear 11 1017 100 10000 2.1 100 06:24 04.08.2019
4248 Clear 11 1017 100 10000 2.1 100 06:24 04.08.2019
4249 Clear 12 1017 93 10000 0.5 0 03:44 04.08.2019
4250 Clear 13 1017 93 10000 1 0 02:20 04.08.2019
4251 Clear 14 1017 77 10000 0.5 0 01:33 04.08.2019
4252 Clear 14 1018 72 10000 1.5 190 00:44 04.08.2019
4253 Clear 15 1018 87 10000 1.5 0 00:26 04.08.2019
4254 Clear 15 1018 82 10000 1.5 0 23:56 03.08.2019
4255 Clouds 15 1017 87 10000 1 210 23:38 03.08.2019
4256 Clouds 16 1017 87 10000 1 210 23:18 03.08.2019
4257 Clouds 15 1017 77 10000 1.5 0 22:42 03.08.2019
4258 Clear 16 1019 82 10000 1 100 22:20 03.08.2019
4259 Clouds 17 1017 64 10000 2.1 90 21:40 03.08.2019
4260 Clouds 17 1017 64 10000 2.1 90 21:40 03.08.2019
4261 Clouds 18 1017 60 10000 3.1 60 21:22 03.08.2019
4262 Clear 18 1018 63 10000 2.1 350 20:46 03.08.2019
4263 Clouds 19 1017 68 10000 1.5 0 20:26 03.08.2019
4264 Clouds 19 1016 56 10000 0.5 0 19:57 03.08.2019
4265 Clouds 20 1016 56 10000 0.5 0 19:39 03.08.2019
4266 Clouds 20 1017 53 10000 1 0 19:21 03.08.2019
4267 Clouds 21 1017 49 10000 1 0 18:46 03.08.2019
4268 Clouds 22 1017 53 10000 1 70 18:26 03.08.2019
4269 Clouds 22 1017 64 10000 1 70 17:46 03.08.2019
4270 Clouds 22 1017 49 10000 2.1 310 17:20 03.08.2019
4271 Clouds 22 1017 53 10000 1.5 0 16:40 03.08.2019
4272 Clouds 22 1017 53 10000 1.5 0 16:21 03.08.2019
4273 Clouds 22 1017 53 10000 1.5 0 15:59 03.08.2019
4274 Clouds 22 1017 53 10000 1.5 0 15:39 03.08.2019
4275 Clouds 22 1017 68 10000 2.1 50 15:20 03.08.2019
4276 Clouds 21 1017 68 10000 2.1 50 14:37 03.08.2019
4277 Clouds 21 1017 64 10000 1.5 0 14:18 03.08.2019
4278 Clouds 21 1017 64 10000 1.5 0 13:47 03.08.2019
4279 Clouds 21 1017 73 10000 2.1 60 13:23 03.08.2019
4280 Clouds 21 1017 73 10000 2.1 60 12:56 03.08.2019
4281 Clouds 21 1017 73 10000 2.1 60 12:37 03.08.2019
4282 Clouds 20 1017 72 10000 1.5 40 12:19 03.08.2019
4283 Clouds 20 1017 72 10000 1.5 40 11:40 03.08.2019
4284 Clouds 20 1017 77 10000 2.1 60 11:22 03.08.2019
4285 Clouds 19 1017 77 10000 2.1 60 10:39 03.08.2019
4286 Clouds 19 1017 82 10000 1.5 30 10:20 03.08.2019
4287 Clouds 17 1017 93 10000 1 0 09:38 03.08.2019
4288 Clouds 17 1017 93 10000 1 0 09:18 03.08.2019
4289 Clouds 16 1017 93 10000 1 0 08:44 03.08.2019
4290 Clouds 14 1016 100 10000 1 0 07:40 03.08.2019
4291 Clouds 14 1016 93 10000 1 0 06:58 03.08.2019
4292 Clouds 14 1016 93 10000 0.5 0 06:20 03.08.2019
4293 Clouds 14 1016 88 10000 2.1 250 03:36 03.08.2019
4294 Clouds 15 1016 77 10000 0.5 0 02:27 03.08.2019
4295 Rain 14 1016 87 10000 0.5 0 00:59 03.08.2019
4296 Clear 15 1017 93 10000 2.6 180 00:32 03.08.2019
4297 Clear 15 1017 93 10000 2.6 180 00:32 03.08.2019
4298 Clear 15 1017 93 10000 2.6 180 00:32 03.08.2019
4299 Clear 15 1017 87 10000 2.6 160 23:55 02.08.2019
4300 Clear 15 1017 87 10000 2.6 160 23:37 02.08.2019
4301 Clear 15 1017 93 10000 2.1 160 23:18 02.08.2019
4302 Clear 15 1017 93 10000 2.6 170 22:40 02.08.2019
4303 Clouds 15 1017 82 10000 1 0 22:22 02.08.2019
4304 Clouds 15 1016 72 5000 1 0 21:57 02.08.2019
4305 Clouds 16 1016 72 5000 1 0 21:39 02.08.2019
4306 Clouds 16 1016 72 10000 0.5 0 21:21 02.08.2019
4307 Rain 17 1016 60 10000 0.5 0 20:44 02.08.2019
4308 Rain 17 1016 56 10000 1 0 20:26 02.08.2019
4309 Rain 18 1016 53 10000 3.1 260 19:55 02.08.2019
4310 Rain 18 1016 53 10000 1.5 210 19:33 02.08.2019
4311 Rain 18 1016 82 10000 4.1 170 18:57 02.08.2019
4312 Rain 18 1016 53 10000 1.5 210 18:38 02.08.2019
4313 Rain 19 1016 56 10000 3.1 260 18:18 02.08.2019
4314 Rain 18 1016 56 10000 3.1 260 17:41 02.08.2019
4315 Rain 18 1016 56 10000 3.1 260 17:22 02.08.2019
4316 Rain 18 1016 64 10000 3.1 260 16:40 02.08.2019
4317 Rain 18 1017 93 8000 5.1 240 16:21 02.08.2019
4318 Thunderstorm 18 1017 68 10000 3.1 90 15:57 02.08.2019
4319 Thunderstorm 17 1016 88 10000 1.5 230 15:37 02.08.2019
4320 Thunderstorm 18 1016 88 10000 1.5 230 15:18 02.08.2019
4321 Thunderstorm 18 1016 88 10000 1.5 230 15:18 02.08.2019
4322 Clouds 19 1016 72 10000 2.6 160 14:44 02.08.2019
4323 Thunderstorm 18 1016 77 10000 8.2 290 14:18 02.08.2019
4324 Thunderstorm 19 1016 77 10000 8.2 290 13:46 02.08.2019
4325 Thunderstorm 20 1016 77 10000 4.6 310 13:23 02.08.2019
4326 Thunderstorm 21 1015 77 10000 4.6 310 12:44 02.08.2019
4327 Clear 21 1016 72 10000 3.1 300 12:21 02.08.2019
4328 Clear 21 1016 72 10000 3.1 300 11:42 02.08.2019
4329 Clouds 21 1015 77 10000 3.1 300 11:24 02.08.2019
4330 Clouds 21 1015 77 10000 3.1 300 10:49 02.08.2019
4331 Clouds 20 1015 82 10000 3.1 290 10:24 02.08.2019
4332 Clouds 19 1015 82 10000 3.1 290 09:59 02.08.2019
4333 Clouds 19 1015 82 10000 3.1 290 09:41 02.08.2019
4334 Clear 18 1015 77 10000 1 0 09:23 02.08.2019
4335 Clear 17 1015 77 10000 1 0 08:42 02.08.2019
4336 Clear 16 1015 88 10000 0.5 0 08:20 02.08.2019
4337 Rain 15 1015 88 10000 0.5 0 07:46 02.08.2019
4338 Clear 15 1015 93 10000 1 0 07:27 02.08.2019
4339 Clear 15 1015 93 10000 1 0 06:41 02.08.2019
4340 Clear 15 1015 88 10000 0.5 0 05:47 02.08.2019
4341 Rain 16 1015 88 10000 1.5 0 03:42 02.08.2019
4342 Rain 16 1016 68 10000 2.1 40 03:23 02.08.2019
4343 Rain 17 1016 68 10000 1.5 30 01:44 02.08.2019
4344 Thunderstorm 17 1017 77 10000 0.5 0 00:34 02.08.2019
4345 Clear 17 1016 77 10000 1 0 23:46 01.08.2019
4346 Clouds 17 1016 68 10000 0.5 0 23:27 01.08.2019
4347 Clouds 17 1016 68 10000 0.5 0 23:27 01.08.2019
4348 Clouds 18 1016 72 10000 0.5 0 22:46 01.08.2019
4349 Clouds 17 1016 72 10000 1 220 22:25 01.08.2019
4350 Thunderstorm 18 1015 68 10000 1 220 21:59 01.08.2019
4351 Thunderstorm 18 1015 68 10000 1 220 21:41 01.08.2019
4352 Clear 19 1015 68 10000 1 0 21:23 01.08.2019
4353 Clear 21 1015 68 10000 2.1 320 20:47 01.08.2019
4354 Clear 22 1015 49 10000 2.1 320 20:23 01.08.2019
4355 Clear 22 1015 47 10000 2.1 320 19:59 01.08.2019
4356 Clear 22 1015 47 10000 2.1 320 19:37 01.08.2019
4357 Clear 23 1015 46 10000 2.1 320 19:18 01.08.2019
4358 Clear 23 1016 44 10000 3.6 290 18:43 01.08.2019
4359 Clear 24 1016 44 10000 3.6 290 18:24 01.08.2019
4360 Clear 24 1016 44 10000 3.6 290 18:24 01.08.2019
4361 Clear 24 1017 47 10000 3.1 270 17:49 01.08.2019
4362 Clear 24 1017 50 10000 3.1 270 17:30 01.08.2019
4363 Clear 24 1017 56 10000 3.6 300 16:45 01.08.2019
4364 Clear 24 1017 49 10000 3.1 270 16:23 01.08.2019
4365 Clear 24 1017 53 10000 2.6 280 15:54 01.08.2019
4366 Clouds 24 1018 53 10000 1 0 15:36 01.08.2019
4367 Clouds 24 1017 53 10000 3.1 270 15:18 01.08.2019
4368 Clear 23 1017 60 10000 3.1 280 14:41 01.08.2019
4369 Clouds 23 1018 56 10000 2.6 280 14:19 01.08.2019
4370 Clouds 23 1018 53 10000 2.6 280 13:56 01.08.2019
4371 Clouds 23 1018 53 10000 2.6 280 13:38 01.08.2019
4372 Clouds 23 1018 53 10000 2.6 280 13:20 01.08.2019
4373 Clouds 22 1018 56 10000 2.6 280 12:42 01.08.2019
4374 Clouds 21 1019 64 10000 2.1 310 12:23 01.08.2019
4375 Clouds 20 1019 77 10000 2.1 310 11:43 01.08.2019
4376 Clouds 20 1019 77 10000 2.1 320 11:24 01.08.2019
4377 Clouds 20 1019 82 10000 2.1 320 10:46 01.08.2019
4378 Clouds 19 1019 82 10000 2.6 320 10:28 01.08.2019
4379 Clouds 19 1019 88 10000 2.6 320 09:59 01.08.2019
4380 Clouds 18 1019 88 10000 2.6 320 09:41 01.08.2019
4381 Clouds 18 1019 88 10000 2.6 320 09:41 01.08.2019
4382 Clear 17 1019 82 10000 1 0 09:22 01.08.2019
4383 Clouds 16 1020 93 10000 1.5 0 08:45 01.08.2019
4384 Clouds 15 1019 82 10000 1 190 08:20 01.08.2019
4385 Clouds 15 1019 93 10000 1 190 07:50 01.08.2019
4386 Clouds 14 1019 93 10000 1 0 07:25 01.08.2019
4387 Clouds 13 1019 93 10000 1 0 06:49 01.08.2019
4388 Clear 13 1019 93 10000 1 210 05:51 01.08.2019
4389 Clouds 14 1019 87 10000 0.5 0 04:24 01.08.2019
4390 Clear 15 1019 93 10000 0.5 0 02:35 01.08.2019
4391 Clouds 15 1020 88 10000 0.5 0 00:46 01.08.2019
4392 Clouds 16 1020 88 10000 1 0 00:24 01.08.2019
4393 Clouds 16 1019 93 10000 1 0 23:43 31.07.2019
4394 Clouds 16 1019 93 10000 0.5 0 23:21 31.07.2019
4395 Clouds 16 1019 82 10000 0.5 190 22:58 31.07.2019
4396 Clouds 16 1019 88 5000 1 160 22:39 31.07.2019
4397 Clouds 16 1019 88 5000 1 160 22:21 31.07.2019
4398 Clouds 17 1018 88 10000 0.5 0 21:38 31.07.2019
4399 Clear 17 1018 82 10000 1.5 110 21:19 31.07.2019
4400 Clear 19 1018 82 10000 1.5 110 20:43 31.07.2019
4401 Clouds 19 1018 77 10000 2.1 60 20:22 31.07.2019
4402 Clouds 20 1018 77 10000 2.1 60 19:43 31.07.2019
4403 Clouds 20 1018 77 10000 1.5 40 19:24 31.07.2019
4404 Clouds 20 1018 77 10000 1.5 40 18:53 31.07.2019
4405 Clouds 20 1018 73 10000 1 0 18:28 31.07.2019
4406 Clouds 20 1018 73 10000 1 0 17:59 31.07.2019
4407 Clouds 20 1019 60 10000 2.6 230 17:40 31.07.2019
4408 Clouds 20 1018 77 10000 1.5 20 17:19 31.07.2019
4409 Clouds 20 1018 77 10000 1.5 20 16:46 31.07.2019
4410 Rain 20 1019 77 10000 2.1 20 16:20 31.07.2019
4411 Rain 20 1019 77 10000 2.1 40 15:45 31.07.2019
4412 Clouds 19 1019 77 10000 2.6 30 15:26 31.07.2019
4413 Clouds 19 1019 77 10000 2.6 30 15:26 31.07.2019
4414 -273 0 0 0 0 0 14:54 31.07.2019
4415 Rain 19 1020 72 10000 2.1 230 14:36 31.07.2019
4416 Rain 19 1019 72 10000 2.1 90 14:18 31.07.2019
4417 Rain 18 1019 82 10000 2.1 100 13:42 31.07.2019
4418 Clouds 18 1020 77 10000 1.5 80 13:23 31.07.2019
4419 Clouds 18 1020 77 10000 1.5 80 12:56 31.07.2019
4420 Rain 17 1020 82 10000 3.1 90 12:37 31.07.2019
4421 Rain 17 1020 82 10000 3.1 90 12:18 31.07.2019
4422 Rain 16 1020 88 10000 3.1 100 11:38 31.07.2019
4423 Rain 16 1020 88 10000 2.1 120 11:19 31.07.2019
4424 Rain 16 1020 93 10000 3.6 230 10:42 31.07.2019
4425 Rain 15 1020 93 10000 2.1 100 10:20 31.07.2019
4426 Rain 15 1020 100 10000 2.1 110 09:44 31.07.2019
4427 Rain 15 1020 100 10000 2.1 130 09:24 31.07.2019
4428 Rain 15 1020 100 10000 2.1 130 08:57 31.07.2019
4429 Rain 15 1020 100 10000 2.1 130 08:39 31.07.2019
4430 Rain 15 1019 100 7000 2.6 120 08:20 31.07.2019
4431 Rain 15 1019 93 9000 3.6 290 07:35 31.07.2019
4432 Rain 15 1019 88 7000 2.1 260 06:34 31.07.2019
4433 Rain 16 1018 88 10000 6.2 280 04:52 31.07.2019
4434 Clouds 17 1018 68 10000 4.6 270 01:48 31.07.2019
4435 Rain 19 1016 64 10000 1.5 280 23:58 30.07.2019
4436 Rain 19 1016 64 10000 1.5 280 23:39 30.07.2019
4437 Rain 20 1016 56 10000 5.1 260 23:19 30.07.2019
4438 Rain 20 1015 64 10000 4.1 270 22:45 30.07.2019
4439 Rain 20 1014 60 10000 2.1 200 22:25 30.07.2019
4440 Haze 21 1014 64 2600 2.1 180 21:40 30.07.2019
4441 Thunderstorm 22 1014 69 10000 1 100 21:20 30.07.2019
4442 Clouds 23 1014 73 10000 1 90 20:59 30.07.2019
4443 Clouds 23 1014 73 10000 1 90 20:41 30.07.2019
4444 Clouds 24 1013 50 10000 1 0 20:23 30.07.2019
4445 Clouds 24 1013 54 10000 1.5 50 19:56 30.07.2019
4446 Clear 24 1013 50 10000 1.5 0 19:38 30.07.2019
4447 Clouds 26 1013 50 10000 1 0 18:55 30.07.2019
4448 Clouds 26 1013 50 10000 1 0 18:37 30.07.2019
4449 Clouds 26 1014 50 10000 1 0 18:18 30.07.2019
4450 Clouds 26 1014 47 10000 2.1 280 17:41 30.07.2019
4451 Clouds 26 1014 47 10000 1 0 17:19 30.07.2019
4452 Clouds 26 1014 53 10000 1.5 20 16:50 30.07.2019
4453 Clouds 26 1014 53 10000 1.5 20 16:20 30.07.2019
4454 Clouds 26 1015 60 10000 2.1 40 15:55 30.07.2019
4455 Clouds 26 1015 60 10000 2.1 40 15:36 30.07.2019
4456 Clouds 25 1015 60 10000 2.1 40 15:18 30.07.2019
4457 Clouds 25 1015 64 10000 2.6 50 14:41 30.07.2019
4458 Clouds 25 1015 60 10000 2.6 50 14:19 30.07.2019
4459 Clouds 25 1015 73 10000 2.6 60 13:44 30.07.2019
4460 Clouds 24 1015 73 10000 2.6 60 13:25 30.07.2019
4461 Clouds 24 1015 69 10000 2.1 40 12:57 30.07.2019
4462 Clouds 24 1015 69 10000 2.1 40 12:38 30.07.2019
4463 Clouds 23 1015 69 10000 2.1 40 12:19 30.07.2019
4464 Clouds 22 1015 78 10000 1.5 30 11:39 30.07.2019
4465 Clouds 22 1015 78 10000 1.5 30 11:20 30.07.2019
4466 Clouds 22 1015 78 10000 1.5 30 11:20 30.07.2019
4467 Clouds 22 1016 77 10000 2.1 30 10:46 30.07.2019
4468 Clouds 21 1016 83 10000 2.6 30 10:26 30.07.2019
4469 Clouds 21 1016 83 10000 1.5 40 09:49 30.07.2019
4470 Clouds 20 1016 83 10000 1.5 40 09:31 30.07.2019
4471 Clouds 19 1015 88 10000 1 0 08:49 30.07.2019
4472 Clouds 18 1016 93 10000 4.1 220 08:31 30.07.2019
4473 Clouds 17 1015 100 10000 0.5 0 07:47 30.07.2019
4474 Clouds 17 1015 100 10000 0.5 0 07:28 30.07.2019
4475 Clouds 16 1014 93 10000 0.5 0 06:47 30.07.2019
4476 Mist 16 1014 93 6000 0.5 0 05:56 30.07.2019
4477 Clear 16 1014 93 10000 1.05 163.29 05:32 30.07.2019
4478 Clouds 18 1013 88 10000 0.5 0 01:41 30.07.2019
4479 Clouds 18 1013 83 10000 1 0 00:45 30.07.2019
4480 Clouds 18 1013 94 10000 0.5 190 00:20 30.07.2019
4481 Clouds 19 1013 88 10000 0.5 0 23:44 29.07.2019
4482 Clouds 19 1013 83 10000 0.5 0 23:26 29.07.2019
4483 Clouds 19 1013 83 10000 0.5 0 23:26 29.07.2019
4484 Clouds 18 1013 82 10000 1 40 22:57 29.07.2019
4485 Clouds 18 1013 83 10000 1 100 22:38 29.07.2019
4486 Clouds 18 1014 88 10000 3.6 60 22:20 29.07.2019
4487 Clouds 19 1012 83 10000 0.5 110 21:55 29.07.2019
4488 Clouds 19 1012 83 10000 0.5 110 21:37 29.07.2019
4489 Clouds 19 1012 68 10000 1.5 240 21:18 29.07.2019
4490 Clouds 20 1013 93 9000 2.1 50 20:45 29.07.2019
4491 Clouds 20 1013 77 10000 2.1 70 20:23 29.07.2019
4492 Clouds 20 1011 69 10000 2.1 270 19:55 29.07.2019
4493 Clouds 21 1011 69 10000 2.1 270 19:36 29.07.2019
4494 Clouds 21 1011 64 10000 2.6 270 19:18 29.07.2019
4495 Clouds 21 1011 64 10000 2.6 270 18:41 29.07.2019
4496 Clouds 22 1011 64 10000 3.1 290 18:21 29.07.2019
4497 Clouds 22 1011 68 10000 3.1 280 17:50 29.07.2019
4498 Clouds 22 1012 73 10000 3.1 270 17:32 29.07.2019
4499 Clouds 22 1012 68 10000 3.1 270 16:57 29.07.2019
4500 Clouds 22 1012 68 10000 3.1 270 16:57 29.07.2019
4501 Clouds 22 1012 68 10000 3.1 270 16:39 29.07.2019
4502 Clouds 22 1012 64 10000 3.1 280 16:20 29.07.2019
4503 Clouds 22 1012 60 10000 2.6 290 15:50 29.07.2019
4504 Clouds 22 1012 64 10000 2.6 300 15:30 29.07.2019
4505 Clouds 21 1012 68 10000 2.1 310 14:45 29.07.2019
4506 Clouds 21 1012 68 10000 2.6 290 14:21 29.07.2019
4507 Clouds 21 1012 73 10000 2.6 30 13:57 29.07.2019
4508 Clouds 20 1013 72 10000 1.5 0 13:36 29.07.2019
4509 Clouds 20 1013 72 10000 1.5 0 13:18 29.07.2019
4510 Clouds 19 1013 72 10000 1.5 0 12:41 29.07.2019
4511 Rain 18 1013 77 10000 1.5 0 12:21 29.07.2019
4512 Clouds 17 1014 87 10000 4.6 250 11:42 29.07.2019
4513 Clouds 17 1013 77 10000 1 0 11:21 29.07.2019
4514 Rain 17 1013 82 10000 1 0 10:45 29.07.2019
4515 Rain 17 1013 77 10000 1 0 10:23 29.07.2019
4516 Rain 16 1013 82 10000 1 0 09:45 29.07.2019
4517 Drizzle 15 1013 88 10000 1 0 09:24 29.07.2019
4518 Drizzle 15 1013 93 10000 1.5 70 08:56 29.07.2019
4519 Drizzle 14 1013 93 10000 2.1 110 08:27 29.07.2019
4520 Drizzle 14 1013 93 10000 2.1 110 07:55 29.07.2019
4521 Rain 14 1012 93 10000 1 0 07:31 29.07.2019
4522 Rain 14 1012 93 10000 1 0 06:43 29.07.2019
4523 Rain 14 1012 87 10000 2.6 250 05:38 29.07.2019
4524 Rain 14 1012 93 10000 1 0 04:24 29.07.2019
4525 Rain 14 1012 93 10000 1.5 0 01:54 29.07.2019
4526 Rain 14 1012 93 10000 1.5 0 01:35 29.07.2019
4527 Rain 15 1012 93 10000 3.1 250 00:59 29.07.2019
4528 Rain 15 1012 93 7000 4.6 260 00:30 29.07.2019
4529 Rain 15 1011 93 6000 5.1 260 23:51 28.07.2019
4530 Rain 15 1011 88 7000 5.1 260 23:33 28.07.2019
4531 Rain 15 1010 93 10000 4.6 260 22:57 28.07.2019
4532 Rain 15 1009 100 6000 7.2 280 22:36 28.07.2019
4533 Rain 15 1009 100 6000 7.2 280 22:18 28.07.2019
4534 Rain 15 1009 88 9000 5.7 270 21:42 28.07.2019
4535 Rain 16 1009 88 10000 6.2 260 21:18 28.07.2019
4536 Rain 16 1007 88 10000 6.2 270 20:43 28.07.2019
4537 Rain 16 1007 88 10000 6.2 270 20:24 28.07.2019
4538 Rain 16 1006 88 8000 6.2 270 19:42 28.07.2019
4539 Rain 16 1006 88 8000 6.2 270 19:21 28.07.2019
4540 Rain 16 1005 88 8000 5.7 260 18:46 28.07.2019
4541 Rain 17 1005 88 8000 5.7 260 18:28 28.07.2019
4542 Rain 17 1005 93 8000 5.1 270 17:57 28.07.2019
4543 Rain 17 1005 88 10000 7.2 250 17:38 28.07.2019
4544 Rain 17 1005 93 8000 5.1 270 17:19 28.07.2019
4545 Rain 18 1004 93 6000 4.6 270 16:46 28.07.2019
4546 Rain 18 1004 93 6000 4.6 270 16:25 28.07.2019
4547 Rain 18 1004 93 2700 4.1 260 15:49 28.07.2019
4548 Rain 18 1004 93 9000 2.6 260 15:27 28.07.2019
4549 Rain 18 1003 93 3000 2.1 280 14:56 28.07.2019
4550 Rain 18 1003 93 3000 2.1 280 14:37 28.07.2019
4551 Rain 18 1003 100 3000 2.1 280 14:18 28.07.2019
4552 Rain 18 1003 100 3000 2.1 280 14:18 28.07.2019
4553 Rain 18 1003 100 7000 1 0 13:40 28.07.2019
4554 Rain 18 1003 100 3000 2.6 300 13:21 28.07.2019
4555 Rain 18 1003 100 3000 2.6 300 12:46 28.07.2019
4556 Rain 18 1002 93 2500 2.6 240 12:28 28.07.2019
4557 Rain 18 1002 93 4000 2.6 240 11:51 28.07.2019
4558 Rain 18 1002 93 4000 2.6 240 11:31 28.07.2019
4559 Rain 18 1001 100 4500 1.5 230 10:59 28.07.2019
4560 Rain 17 1001 100 4500 1.5 230 10:38 28.07.2019
4561 Rain 17 1001 100 4500 1.5 0 10:19 28.07.2019
4562 Rain 17 1001 100 2100 1 0 09:40 28.07.2019
4563 Rain 17 1001 100 5000 2.1 110 09:22 28.07.2019
4564 Rain 17 1001 100 10000 1.5 120 08:42 28.07.2019
4565 Mist 17 1001 100 10000 1 160 08:22 28.07.2019
4566 Rain 16 1001 100 10000 0.5 0 07:44 28.07.2019
4567 Rain 16 1001 100 10000 1 0 07:25 28.07.2019
4568 Rain 16 1001 93 8000 2.6 90 06:36 28.07.2019
4569 Clouds 16 1001 100 10000 2.6 110 05:21 28.07.2019
4570 Clear 16 1001 100 10000 1 0 02:39 28.07.2019
4571 Rain 16 1001 100 10000 0.5 0 01:43 28.07.2019
4572 Rain 16 1001 100 9000 0.5 0 00:56 28.07.2019
4573 Rain 16 1002 100 10000 0.5 0 00:37 28.07.2019
4574 Rain 16 1002 100 10000 1.5 120 23:53 27.07.2019
4575 Rain 16 1003 100 10000 1.5 100 23:28 27.07.2019
4576 Rain 17 1003 93 10000 2.1 130 22:47 27.07.2019
4577 Thunderstorm 17 1004 93 10000 3.1 120 22:28 27.07.2019
4578 Rain 17 1004 93 9000 1.5 180 21:59 27.07.2019
4579 Rain 17 1004 93 9000 0.5 0 21:37 27.07.2019
4580 Rain 18 1004 93 9000 0.5 0 21:18 27.07.2019
4581 Thunderstorm 18 1002 88 5000 3.1 0 20:44 27.07.2019
4582 Thunderstorm 19 1002 88 5000 3.1 0 20:19 27.07.2019
4583 Thunderstorm 20 1002 72 9000 9.3 180 19:41 27.07.2019
4584 Clear 20 1002 57 10000 3.1 50 19:22 27.07.2019
4585 Clouds 21 1001 57 10000 3.1 250 18:48 27.07.2019
4586 Clouds 22 1001 57 10000 4.1 270 18:30 27.07.2019
4587 Clouds 22 1001 57 10000 4.1 270 17:51 27.07.2019
4588 Clear 23 1002 53 10000 2.6 0 17:32 27.07.2019
4589 Clouds 24 1002 54 10000 3.1 280 16:56 27.07.2019
4590 Clouds 25 1002 54 10000 3.1 280 16:37 27.07.2019
4591 Clouds 25 1003 61 10000 2.6 280 16:18 27.07.2019
4592 Clouds 24 1003 61 10000 2.6 280 15:43 27.07.2019
4593 Clouds 25 1004 64 10000 3.6 320 15:19 27.07.2019
4594 Clouds 24 1004 69 10000 3.6 320 14:45 27.07.2019
4595 Clouds 24 1005 73 10000 3.6 310 14:26 27.07.2019
4596 Clouds 24 1005 73 10000 3.1 320 13:50 27.07.2019
4597 Rain 22 1005 73 10000 3.1 330 13:24 27.07.2019
4598 Clouds 23 1006 73 10000 2.6 310 12:51 27.07.2019
4599 Rain 23 1006 73 10000 2.6 310 12:32 27.07.2019
4600 Clouds 23 1006 83 10000 2.6 270 11:57 27.07.2019
4601 Clouds 23 1006 83 10000 2.6 270 11:38 27.07.2019
4602 Clouds 23 1006 83 10000 2.6 270 11:20 27.07.2019
4603 Clear 23 1006 78 10000 2.6 290 10:41 27.07.2019
4604 Clear 22 1006 73 10000 3.1 270 10:21 27.07.2019
4605 Clouds 22 1006 69 10000 2.1 280 09:41 27.07.2019
4606 Clear 21 1006 78 10000 1.5 90 09:23 27.07.2019
4607 Clear 20 1006 78 10000 1.5 90 08:49 27.07.2019
4608 Clouds 20 1007 83 10000 3.1 120 08:29 27.07.2019
4609 Clouds 19 1007 83 10000 3.1 120 07:55 27.07.2019
4610 Rain 18 1007 82 10000 2.6 110 07:29 27.07.2019
4611 Clouds 18 1008 82 10000 1.5 0 06:56 27.07.2019
4612 Clouds 18 1008 77 10000 2.6 100 06:31 27.07.2019
4613 Clouds 18 1008 68 10000 1.5 300 05:52 27.07.2019
4614 Clouds 19 1008 68 10000 4.1 280 05:24 27.07.2019
4615 Rain 19 1008 88 10000 3.1 230 04:31 27.07.2019
4616 Clouds 19 1008 53 10000 3.1 250 02:58 27.07.2019
4617 Rain 19 1008 60 10000 3.1 260 02:32 27.07.2019
4618 Clear 20 1008 64 10000 2.1 250 01:47 27.07.2019
4619 Rain 19 1008 60 10000 4.1 290 01:00 27.07.2019
4620 Rain 20 1008 57 10000 2.1 260 00:32 27.07.2019
4621 Clouds 21 1007 50 10000 8.2 300 23:54 26.07.2019
4622 Clouds 21 1007 50 10000 8.2 300 23:33 26.07.2019
4623 Rain 19 1007 50 10000 1 0 22:56 26.07.2019
4624 Rain 20 1007 50 10000 1 0 22:38 26.07.2019
4625 Rain 20 1007 34 10000 7.7 180 22:20 26.07.2019
4626 Rain 21 1007 34 10000 2.6 180 21:48 26.07.2019
4627 Thunderstorm 22 1007 35 10000 3.1 180 21:19 26.07.2019
4628 Thunderstorm 24 1007 39 10000 3.1 180 20:42 26.07.2019
4629 Thunderstorm 24 1008 37 10000 4.1 190 20:23 26.07.2019
4630 Thunderstorm 25 1008 37 10000 4.1 190 19:43 26.07.2019
4631 Thunderstorm 26 1008 51 10000 2.6 110 19:25 26.07.2019
4632 Rain 26 1008 51 10000 2.6 110 18:57 26.07.2019
4633 Rain 26 1009 43 10000 1.5 90 18:37 26.07.2019
4634 Rain 28 1009 43 10000 1.5 90 18:19 26.07.2019
4635 Clouds 30 1009 48 10000 1.5 90 17:44 26.07.2019
4636 Clouds 31 1009 45 10000 1 0 17:19 26.07.2019
4637 Clouds 31 1009 48 10000 1 0 16:57 26.07.2019
4638 Clear 31 1011 40 10000 1.5 0 16:38 26.07.2019
4639 Clear 32 1010 48 10000 2.1 30 16:19 26.07.2019
4640 Clear 32 1010 45 10000 2.1 360 15:45 26.07.2019
4641 Clear 31 1010 51 10000 2.1 30 15:27 26.07.2019
4642 Clear 31 1011 51 10000 2.1 10 14:59 26.07.2019
4643 Clear 31 1011 51 10000 2.1 10 14:41 26.07.2019
4644 Clear 31 1012 58 10000 2.6 50 14:21 26.07.2019
4645 Clear 30 1013 48 10000 2.6 190 13:40 26.07.2019
4646 Clear 30 1012 54 10000 2.6 30 13:22 26.07.2019
4647 Clear 30 1012 54 10000 1.5 10 12:47 26.07.2019
4648 Clear 29 1013 61 10000 2.1 30 12:20 26.07.2019
4649 Clear 29 1013 61 10000 2.1 30 11:40 26.07.2019
4650 Clear 28 1013 74 10000 1.5 340 11:20 26.07.2019
4651 Clear 29 1013 74 10000 1.5 340 10:55 26.07.2019
4652 Clear 29 1014 74 10000 1.5 0 10:37 26.07.2019
4653 Clear 28 1014 78 10000 1.5 0 09:55 26.07.2019
4654 Clear 27 1014 78 10000 1.5 0 09:37 26.07.2019
4655 Clear 23 1014 73 10000 2.6 70 08:44 26.07.2019
4656 Clear 22 1014 88 10000 0.5 0 08:23 26.07.2019
4657 Clear 22 1014 88 10000 0.5 0 07:59 26.07.2019
4658 Clear 21 1013 88 10000 1 0 07:29 26.07.2019
4659 Clear 20 1013 88 10000 1 0 06:53 26.07.2019
4660 Rain 19 1013 83 10000 1 120 05:23 26.07.2019
4661 Rain 19 1014 83 10000 1 0 04:29 26.07.2019
4662 Rain 20 1014 78 10000 1.5 80 03:43 26.07.2019
4663 Rain 20 1013 78 10000 1 130 01:43 26.07.2019
4664 Rain 21 1014 73 10000 0.5 0 00:47 26.07.2019
4665 Rain 23 1014 73 10000 1 0 23:59 25.07.2019
4666 Thunderstorm 24 1014 69 10000 0.5 0 23:25 25.07.2019
4667 Thunderstorm 23 1014 69 10000 1 210 22:58 25.07.2019
4668 Thunderstorm 23 1014 69 10000 1 210 22:39 25.07.2019
4669 Thunderstorm 24 1014 57 10000 1 0 22:21 25.07.2019
4670 Clear 26 1013 54 10000 0.5 0 21:45 25.07.2019
4671 Clear 27 1013 54 10000 1 0 21:22 25.07.2019
4672 Clear 29 1013 48 10000 1 240 20:48 25.07.2019
4673 Clear 30 1013 48 10000 1 240 20:29 25.07.2019
4674 Clear 30 1014 38 10000 2.1 270 19:54 25.07.2019
4675 Clear 29 1014 38 10000 2.1 270 19:36 25.07.2019
4676 Clear 29 1014 38 10000 2.1 270 19:18 25.07.2019
4677 Clear 30 1014 38 10000 3.1 280 18:39 25.07.2019
4678 Clear 33 1014 38 10000 3.1 280 18:20 25.07.2019
4679 Clear 33 1014 38 10000 3.6 280 17:44 25.07.2019
4680 Clear 33 1014 38 10000 3.1 280 17:24 25.07.2019
4681 Clear 33 1014 46 10000 3.6 270 16:45 25.07.2019
4682 Clear 34 1015 43 10000 3.1 270 16:26 25.07.2019
4683 Clear 34 1015 43 10000 3.1 270 15:58 25.07.2019
4684 Clear 33 1015 43 10000 3.1 270 15:36 25.07.2019
4685 Clear 33 1015 49 10000 3.6 280 15:18 25.07.2019
4686 Clear 33 1015 49 10000 3.6 280 14:41 25.07.2019
4687 Clear 33 1016 66 10000 3.6 280 14:22 25.07.2019
4688 Clear 33 1016 66 10000 3.6 280 13:43 25.07.2019
4689 Clear 33 1016 66 10000 2.6 280 13:25 25.07.2019
4690 Clear 33 1016 66 10000 2.6 280 13:25 25.07.2019
4691 Clear 33 1017 74 10000 2.6 310 12:46 25.07.2019
4692 Clear 31 1017 74 10000 2.6 310 12:27 25.07.2019
4693 Clear 30 1017 74 10000 2.6 290 11:43 25.07.2019
4694 Clear 29 1017 74 10000 2.6 290 11:23 25.07.2019
4695 Clear 29 1017 73 10000 2.1 320 10:45 25.07.2019
4696 Clear 28 1017 73 10000 2.1 320 10:26 25.07.2019
4697 Clear 27 1018 73 10000 1 0 09:52 25.07.2019
4698 Clear 26 1018 73 10000 1 0 09:34 25.07.2019
4699 Clear 23 1018 78 10000 0.5 0 08:53 25.07.2019
4700 Clear 22 1018 78 10000 0.5 0 08:33 25.07.2019
4701 Clear 21 1018 82 10000 1 110 07:42 25.07.2019
4702 Clear 20 1018 82 10000 1 110 07:24 25.07.2019
4703 Clear 18 1017 88 10000 1 110 06:40 25.07.2019
4704 Clouds 18 1017 88 7000 0.5 0 05:37 25.07.2019
4705 Clouds 18 1017 88 10000 0.5 110 04:53 25.07.2019
4706 Clouds 20 1017 82 10000 1 0 03:24 25.07.2019
4707 Clouds 20 1017 68 10000 0.5 0 01:21 25.07.2019
4708 Clouds 20 1017 68 10000 0.5 0 00:35 25.07.2019
4709 Clouds 22 1017 50 10000 2.1 120 23:59 24.07.2019
4710 Clouds 22 1017 50 10000 2.1 120 23:41 24.07.2019
4711 Thunderstorm 23 1017 50 10000 2.1 130 23:22 24.07.2019
4712 Thunderstorm 22 1017 60 10000 1.5 0 22:45 24.07.2019
4713 Clear 23 1017 50 10000 1.5 180 22:22 24.07.2019
4714 Clear 24 1016 39 10000 1.5 180 21:56 24.07.2019
4715 Clear 26 1018 64 10000 1.5 130 21:38 24.07.2019
4716 Clear 25 1016 39 10000 1.5 180 21:38 24.07.2019
4717 Clear 26 1016 39 10000 1.25 144.206 21:19 24.07.2019
4718 Clear 28 1016 58 10000 1.18 136.956 20:46 24.07.2019
4719 Clear 29 1016 55 10000 1.5 60 20:28 24.07.2019
4720 Clear 29 1016 52 10000 1.5 60 19:58 24.07.2019
4721 Clear 29 1016 52 10000 1.5 60 19:58 24.07.2019
4722 Clear 29 1016 52 10000 1.5 60 19:40 24.07.2019
4723 Clear 29 1016 52 10000 1.5 60 19:40 24.07.2019
4724 Clear 30 1016 36 10000 1 0 19:20 24.07.2019
4725 Clear 31 1016 30 10000 1 0 18:43 24.07.2019
4726 Clear 33 1017 31 10000 2.1 90 18:24 24.07.2019
4727 Clear 33 1017 33 10000 2.1 90 17:47 24.07.2019
4728 Clear 33 1017 35 10000 2.1 50 17:22 24.07.2019
4729 Clear 33 1017 40 10000 2.1 50 16:44 24.07.2019
4730 Clear 33 1017 49 10000 2.1 60 16:23 24.07.2019
4731 Clear 32 1017 45 10000 1.5 0 15:59 24.07.2019
4732 Clear 32 1017 45 10000 1.5 0 15:37 24.07.2019
4733 Clear 32 1018 48 10000 2.1 40 15:19 24.07.2019
4734 Clear 31 1018 51 10000 2.1 40 14:44 24.07.2019
4735 Clear 31 1018 55 10000 2.1 30 14:20 24.07.2019
4736 Clear 31 1018 54 10000 1.5 20 13:40 24.07.2019
4737 Clear 31 1018 54 10000 1 0 13:19 24.07.2019
4738 Clear 31 1018 54 10000 1 0 12:52 24.07.2019
4739 Clear 30 1019 61 10000 1.5 20 12:34 24.07.2019
4740 Clear 28 1019 65 10000 1 0 11:41 24.07.2019
4741 Clear 28 1019 73 10000 1 0 11:21 24.07.2019
4742 Clear 29 1019 73 10000 1 0 10:49 24.07.2019
4743 Clear 28 1019 73 10000 1.5 320 10:27 24.07.2019
4744 Clear 27 1019 78 10000 2.6 310 09:59 24.07.2019
4745 Clear 26 1019 78 10000 2.6 310 09:41 24.07.2019
4746 Clear 23 1018 78 10000 2.1 290 09:21 24.07.2019
4747 Clear 21 1018 78 10000 2.1 290 08:42 24.07.2019
4748 Clear 20 1018 88 10000 0.5 200 07:52 24.07.2019
4749 Clear 19 1018 88 10000 0.5 200 07:31 24.07.2019
4750 Clear 18 1018 88 10000 0.5 200 06:56 24.07.2019
4751 Clear 17 1018 88 10000 0.5 0 06:28 24.07.2019
4752 Clear 16 1018 88 10000 1 0 04:56 24.07.2019
4753 Clear 18 1019 82 10000 1 200 01:48 24.07.2019
4754 Clear 19 1018 77 10000 0.5 0 00:58 24.07.2019
4755 Clear 19 1018 77 10000 0.5 0 00:39 24.07.2019
4756 Clear 20 1018 73 10000 0.5 0 23:52 23.07.2019
4757 Clear 21 1018 73 10000 1.5 90 23:26 23.07.2019
4758 Clear 21 1018 69 10000 1 0 22:58 23.07.2019
4759 Clear 21 1018 69 10000 1 0 22:37 23.07.2019
4760 Clouds 22 1018 69 5000 1 220 22:18 23.07.2019
4761 Clouds 22 1018 69 5000 1 220 22:18 23.07.2019
4762 Clear 23 1018 64 10000 1 220 21:44 23.07.2019
4763 Clear 23 1018 64 10000 1 220 21:44 23.07.2019
4764 Clear 25 1018 57 10000 1 270 21:25 23.07.2019
4765 Clear 27 1018 61 10000 2.6 280 20:49 23.07.2019
4766 Clear 28 1018 45 10000 2.6 270 20:29 23.07.2019
4767 Clear 28 1018 42 10000 2.6 280 19:44 23.07.2019
4768 Clear 28 1018 40 10000 2.1 270 19:24 23.07.2019
4769 Clear 30 1019 43 10000 2.1 300 18:57 23.07.2019
4770 Clear 30 1019 43 10000 2.1 300 18:39 23.07.2019
4771 Clear 31 1019 31 10000 2.1 280 18:19 23.07.2019
4772 Clear 30 1019 35 10000 2.1 270 17:42 23.07.2019
4773 Clear 30 1019 35 10000 2.1 270 17:42 23.07.2019
4774 Clear 31 1019 48 10000 2.6 280 17:21 23.07.2019
4775 Clear 30 1020 45 10000 3.6 280 16:44 23.07.2019
4776 Clear 31 1020 45 10000 3.6 280 16:25 23.07.2019
4777 Clear 30 1020 51 10000 3.6 280 15:51 23.07.2019
4778 Clear 30 1022 33 10000 3.6 70 15:32 23.07.2019
4779 Clear 29 1021 58 10000 3.6 280 14:55 23.07.2019
4780 Clear 29 1021 58 10000 3.6 280 14:36 23.07.2019
4781 Clear 29 1021 58 10000 3.6 280 14:18 23.07.2019
4782 Clear 29 1021 69 10000 2.6 280 13:42 23.07.2019
4783 Clear 29 1021 69 10000 2.6 280 13:23 23.07.2019
4784 Clear 29 1022 73 10000 2.1 320 12:59 23.07.2019
4785 Clear 29 1022 73 10000 2.1 320 12:41 23.07.2019
4786 Clear 27 1022 73 10000 2.1 320 12:21 23.07.2019
4787 Clear 26 1023 54 10000 3.6 60 11:41 23.07.2019
4788 Clear 25 1022 78 10000 2.6 280 11:21 23.07.2019
4789 Clear 27 1022 78 10000 2.6 280 10:49 23.07.2019
4790 Clear 25 1022 78 10000 1.5 0 10:22 23.07.2019
4791 Clear 23 1022 78 10000 1.5 0 09:42 23.07.2019
4792 Clear 21 1022 77 10000 1 0 09:22 23.07.2019
4793 Clear 20 1022 77 10000 1 0 08:44 23.07.2019
4794 Clear 19 1023 88 10000 1 0 08:20 23.07.2019
4795 Clear 18 1023 88 10000 1 0 07:59 23.07.2019
4796 Clear 18 1023 88 10000 1 0 07:37 23.07.2019
4797 Clear 16 1023 93 10000 0.5 0 06:52 23.07.2019
4798 Fog 16 1023 93 10000 1 0 06:34 23.07.2019
4799 Clear 16 1023 93 10000 0.5 0 04:26 23.07.2019
4800 Clear 17 1023 77 10000 2.6 100 01:37 23.07.2019
4801 Clear 18 1023 68 10000 2.1 140 00:37 23.07.2019
4802 Clear 19 1023 68 10000 2.6 90 00:18 23.07.2019
4803 Clear 19 1023 72 10000 1 0 23:39 22.07.2019
4804 Clear 20 1023 68 10000 2.1 140 23:19 22.07.2019
4805 Clear 20 1023 68 10000 0.5 130 22:45 22.07.2019
4806 Clouds 20 1023 68 5000 0.5 0 22:23 22.07.2019
4807 Clear 21 1023 73 10000 1 0 21:44 22.07.2019
4808 Clear 23 1023 73 10000 1 170 21:23 22.07.2019
4809 Clear 24 1023 73 10000 0.5 0 20:57 22.07.2019
4810 Clear 25 1024 47 10000 1.5 120 20:33 22.07.2019
4811 Clear 26 1023 48 10000 1 0 19:59 22.07.2019
4812 Clear 26 1023 48 10000 1 0 19:40 22.07.2019
4813 Clear 27 1023 48 10000 0.5 0 19:21 22.07.2019
4814 Clear 27 1023 42 10000 1.5 40 18:47 22.07.2019
4815 Clear 28 1023 45 10000 1 0 18:28 22.07.2019
4816 Clear 29 1024 51 10000 2.1 340 17:57 22.07.2019
4817 Clear 28 1024 51 10000 2.6 290 17:38 22.07.2019
4818 Clear 28 1024 51 10000 2.6 290 17:19 22.07.2019
4819 Clear 28 1024 51 10000 2.6 300 16:40 22.07.2019
4820 Clear 28 1024 51 10000 2.6 300 16:21 22.07.2019
4821 Clear 28 1024 51 10000 2.1 270 15:44 22.07.2019
4822 Clear 28 1024 45 10000 3.1 270 15:20 22.07.2019
4823 Clouds 28 1025 51 10000 2.1 320 14:44 22.07.2019
4824 Clouds 27 1025 65 10000 2.1 320 14:25 22.07.2019
4825 Clouds 27 1025 65 10000 1 0 13:52 22.07.2019
4826 Clouds 27 1025 65 10000 1 0 13:32 22.07.2019
4827 Clouds 26 1025 73 10000 1.5 0 12:55 22.07.2019
4828 Clouds 26 1025 78 10000 1.5 360 12:32 22.07.2019
4829 Clouds 24 1025 88 10000 1.5 0 11:57 22.07.2019
4830 Clouds 24 1025 88 10000 1.5 0 11:39 22.07.2019
4831 Clouds 24 1025 88 10000 1.5 0 11:19 22.07.2019
4832 Clear 24 1026 69 10000 3.1 240 10:38 22.07.2019
4833 Clouds 23 1025 83 10000 2.1 320 10:19 22.07.2019
4834 Clouds 23 1025 83 10000 1.5 0 09:40 22.07.2019
4835 Clouds 20 1025 88 10000 1.5 280 09:21 22.07.2019
4836 Clouds 19 1025 88 10000 0.5 0 08:39 22.07.2019
4837 Clouds 19 1025 88 10000 0.5 0 08:20 22.07.2019
4838 Clouds 18 1025 93 10000 0.5 0 07:53 22.07.2019
4839 Clouds 17 1025 93 10000 0.5 0 07:27 22.07.2019
4840 Clouds 16 1024 93 10000 0.5 0 05:30 22.07.2019
4841 Clouds 17 1024 93 10000 0.5 0 03:45 22.07.2019
4842 Clouds 18 1024 88 10000 0.5 0 01:28 22.07.2019
4843 Clouds 18 1024 82 10000 1 0 00:49 22.07.2019
4844 Clear 18 1024 82 10000 0.5 0 00:21 22.07.2019
4845 Clear 19 1023 73 10000 1 0 23:49 21.07.2019
4846 Clear 19 1023 77 10000 1.5 0 22:59 21.07.2019
4847 Clear 19 1023 64 10000 1.5 0 22:40 21.07.2019
4848 Clear 20 1023 64 10000 1.5 0 22:21 21.07.2019
4849 Clear 20 1023 60 10000 1 180 21:49 21.07.2019
4850 Clear 22 1023 64 10000 1.5 180 21:26 21.07.2019
4851 Rain 22 1022 73 10000 1 0 20:59 21.07.2019
4852 Rain 22 1022 73 10000 1 0 20:41 21.07.2019
4853 Clouds 24 1022 51 10000 1 0 20:22 21.07.2019
4854 Clouds 23 1022 51 10000 1 0 19:52 21.07.2019
4855 Clouds 24 1022 61 10000 2.1 80 19:29 21.07.2019
4856 Clouds 25 1022 61 10000 2.1 80 18:53 21.07.2019
4857 Clouds 24 1022 61 10000 2.1 80 18:34 21.07.2019
4858 Clouds 25 1022 61 10000 2.1 80 17:58 21.07.2019
4859 Clouds 26 1022 65 10000 2.1 50 17:40 21.07.2019
4860 Clouds 25 1022 65 10000 2.1 50 17:19 21.07.2019
4861 Clear 24 1024 88 10000 3.1 230 16:41 21.07.2019
4862 Clouds 24 1022 69 10000 2.6 40 16:22 21.07.2019
4863 Clouds 24 1022 69 10000 2.6 40 15:42 21.07.2019
4864 Clouds 24 1023 69 10000 2.1 80 15:21 21.07.2019
4865 Rain 24 1023 69 10000 2.6 110 14:51 21.07.2019
4866 Clouds 24 1024 78 10000 2.1 70 14:25 21.07.2019
4867 Clouds 24 1024 83 10000 2.1 50 13:53 21.07.2019
4868 Clouds 23 1024 78 10000 2.1 130 13:34 21.07.2019
4869 Clouds 22 1024 78 10000 2.1 90 12:58 21.07.2019
4870 Clouds 21 1024 88 10000 2.1 60 12:39 21.07.2019
4871 Clouds 21 1024 88 10000 2.1 60 12:20 21.07.2019
4872 Rain 20 1023 94 10000 3.1 80 11:45 21.07.2019
4873 Clouds 20 1023 94 10000 2.6 110 11:26 21.07.2019
4874 Rain 19 1023 94 8000 1 0 10:43 21.07.2019
4875 Rain 19 1023 100 10000 1 0 10:24 21.07.2019
4876 Rain 19 1023 100 10000 1 0 09:54 21.07.2019
4877 Rain 18 1023 100 10000 1 0 09:34 21.07.2019
4878 Rain 18 1022 100 10000 2.1 110 08:49 21.07.2019
4879 Rain 18 1022 100 10000 2.1 110 08:49 21.07.2019
4880 Rain 18 1022 100 10000 2.6 90 08:28 21.07.2019
4881 Rain 17 1022 93 10000 2.6 100 07:53 21.07.2019
4882 Rain 17 1022 93 10000 2.6 110 07:18 21.07.2019
4883 Rain 18 1021 82 10000 3.6 280 05:56 21.07.2019
4884 Clouds 19 1018 82 10000 1 0 02:59 21.07.2019
4885 Rain 19 1018 77 10000 0.5 0 01:50 21.07.2019
4886 Rain 19 1018 68 10000 1 0 00:42 21.07.2019
4887 Rain 20 1018 64 10000 1.5 230 00:19 21.07.2019
4888 Rain 21 1018 64 10000 1.5 80 23:44 20.07.2019
4889 Rain 21 1017 64 10000 1 0 23:21 20.07.2019
4890 Clear 20 1018 72 10000 2.1 170 22:48 20.07.2019
4891 Clear 21 1018 72 10000 3.1 150 22:23 20.07.2019
4892 Rain 21 1016 50 10000 1 0 21:57 20.07.2019
4893 Clear 23 1018 60 10000 2.1 170 21:39 20.07.2019
4894 Clear 24 1016 47 10000 3.1 180 21:20 20.07.2019
4895 Clear 24 1016 48 10000 3.6 180 20:41 20.07.2019
4896 Clear 26 1016 48 10000 2.6 160 20:21 20.07.2019
4897 Clear 24 1016 48 10000 2.1 100 19:46 20.07.2019
4898 Clear 25 1016 48 10000 2.1 100 19:46 20.07.2019
4899 Clouds 26 1015 45 10000 1.5 0 19:23 20.07.2019
4900 Clouds 26 1016 35 10000 2.1 0 18:44 20.07.2019
4901 Clouds 29 1016 35 10000 2.1 0 18:22 20.07.2019
4902 Clouds 29 1016 48 10000 1.5 10 17:55 20.07.2019
4903 Clouds 29 1016 48 10000 1.5 10 17:55 20.07.2019
4904 Clouds 29 1016 48 10000 1.5 10 17:25 20.07.2019
4905 Clouds 29 1016 45 10000 2.1 270 16:45 20.07.2019
4906 Clouds 29 1016 45 10000 2.1 270 16:27 20.07.2019
4907 Clouds 29 1016 51 10000 2.1 280 15:58 20.07.2019
4908 Clear 29 1016 51 10000 1.5 40 15:39 20.07.2019
4909 Clear 29 1016 51 10000 1.5 40 15:20 20.07.2019
4910 Clear 28 1016 48 10000 2.1 40 14:48 20.07.2019
4911 Clear 28 1016 57 10000 2.1 50 14:28 20.07.2019
4912 Clear 28 1016 57 10000 2.1 50 13:41 20.07.2019
4913 Clouds 28 1016 57 10000 2.1 40 13:23 20.07.2019
4914 Clear 28 1017 61 10000 2.1 10 12:59 20.07.2019
4915 Clear 26 1017 78 10000 2.1 320 12:26 20.07.2019
4916 Clear 26 1017 78 10000 2.1 320 11:59 20.07.2019
4917 Clear 25 1017 78 10000 2.1 320 11:37 20.07.2019
4918 Clear 25 1017 78 10000 2.1 310 11:19 20.07.2019
4919 Clear 26 1016 77 10000 1.5 0 10:37 20.07.2019
4920 Clear 25 1016 77 10000 1.5 0 10:18 20.07.2019
4921 Clear 25 1016 77 10000 1.5 0 10:18 20.07.2019
4922 Clear 24 1016 78 10000 1.5 320 09:45 20.07.2019
4923 Clear 20 1016 77 10000 1 0 09:22 20.07.2019
4924 Clear 20 1016 77 10000 1 0 08:46 20.07.2019
4925 Clear 18 1016 93 10000 1 0 08:20 20.07.2019
4926 Clear 16 1016 93 10000 0.5 110 07:21 20.07.2019
4927 Clear 15 1016 93 10000 0.5 260 06:42 20.07.2019
4928 Clear 15 1015 93 10000 0.5 0 04:57 20.07.2019
4929 Clear 16 1015 93 10000 0.5 0 04:29 20.07.2019
4930 Clear 17 1017 68 10000 0.5 0 01:21 20.07.2019
4931 Clear 17 1017 68 10000 0.5 0 01:21 20.07.2019
4932 Clear 17 1016 64 10000 1 0 00:47 20.07.2019
4933 Clear 18 1016 64 10000 1.5 130 00:23 20.07.2019
4934 Clouds 18 1016 72 10000 0.5 0 23:45 19.07.2019
4935 Clear 19 1016 56 10000 2.1 130 23:26 19.07.2019
4936 Clear 20 1016 49 10000 1.5 200 22:51 19.07.2019
4937 Clear 20 1016 53 10000 1 200 22:26 19.07.2019
4938 Clear 20 1015 50 10000 1.5 200 21:59 19.07.2019
4939 Clear 22 1015 60 10000 1 200 21:39 19.07.2019
4940 Clear 22 1015 60 10000 1 200 21:21 19.07.2019
4941 Clear 23 1015 44 10000 1 110 20:42 19.07.2019
4942 Clear 24 1015 44 10000 1 110 20:23 19.07.2019
4943 Clear 25 1015 39 10000 1.5 0 19:37 19.07.2019
4944 Clear 26 1015 39 10000 1.5 0 18:47 19.07.2019
4945 Clear 27 1016 44 10000 2.6 330 18:25 19.07.2019
4946 Clear 27 1016 44 10000 2.6 330 17:58 19.07.2019
4947 Clear 27 1016 47 10000 2.6 330 17:40 19.07.2019
4948 Clear 27 1016 47 10000 2.6 330 17:21 19.07.2019
4949 Clear 26 1016 50 10000 3.1 360 16:42 19.07.2019
4950 Clear 27 1016 50 10000 3.1 360 16:18 19.07.2019
4951 Clear 26 1016 50 10000 3.1 360 15:47 19.07.2019
4952 Clear 26 1016 53 10000 2.1 30 15:29 19.07.2019
4953 Clear 26 1016 53 10000 2.1 20 14:47 19.07.2019
4954 Clear 25 1017 50 10000 2.1 340 14:27 19.07.2019
4955 Clear 25 1017 50 10000 2.1 340 13:58 19.07.2019
4956 Clouds 26 1017 50 10000 4.1 230 13:39 19.07.2019
4957 Clear 25 1017 53 10000 1.5 0 13:20 19.07.2019
4958 Clear 25 1017 60 10000 2.1 10 12:45 19.07.2019
4959 Clear 24 1017 53 10000 1.5 0 12:26 19.07.2019
4960 Clear 23 1017 53 10000 2.6 20 11:46 19.07.2019
4961 Clear 23 1017 56 10000 2.1 40 11:19 19.07.2019
4962 Clear 23 1017 64 10000 1.5 40 10:56 19.07.2019
4963 Clear 23 1017 73 10000 1.5 310 10:37 19.07.2019
4964 Clear 23 1017 73 10000 1.5 310 10:18 19.07.2019
4965 Clouds 22 1017 73 10000 1.5 310 09:43 19.07.2019
4966 Clear 19 1017 73 10000 1 0 09:22 19.07.2019
4967 Clear 19 1017 68 10000 0.5 0 08:49 19.07.2019
4968 Clear 18 1016 77 10000 1.5 80 08:27 19.07.2019
4969 Clear 16 1016 88 10000 1 0 07:32 19.07.2019
4970 Clear 16 1016 88 10000 0.5 0 06:26 19.07.2019
4971 Clouds 16 1015 82 10000 0.5 0 02:56 19.07.2019
4972 Clear 16 1015 77 10000 1 0 01:21 19.07.2019
4973 Clear 17 1015 63 10000 1 230 00:46 19.07.2019
4974 Clouds 18 1015 56 10000 1.5 0 23:59 18.07.2019
4975 Clouds 18 1015 56 10000 1.5 0 23:40 18.07.2019
4976 Clouds 18 1015 59 10000 1.5 0 23:22 18.07.2019
4977 Clouds 18 1015 46 10000 1 0 22:41 18.07.2019
4978 Clouds 18 1014 49 10000 2.1 180 22:20 18.07.2019
4979 Clouds 19 1014 49 10000 1.5 180 21:49 18.07.2019
4980 Clear 21 1014 60 10000 1.5 100 21:31 18.07.2019
4981 Clear 22 1014 60 10000 1.5 100 20:55 18.07.2019
4982 Clear 22 1013 50 10000 1 90 20:36 18.07.2019
4983 Clear 23 1013 50 10000 1 90 20:18 18.07.2019
4984 Clear 22 1013 31 10000 1 0 19:45 18.07.2019
4985 Clear 22 1013 31 10000 1 0 19:20 18.07.2019
4986 Clouds 24 1013 34 10000 1.5 40 18:49 18.07.2019
4987 Clouds 26 1013 34 10000 1.5 40 18:21 18.07.2019
4988 Clouds 26 1013 41 10000 2.1 40 17:45 18.07.2019
4989 Clouds 26 1013 41 10000 2.1 40 17:25 18.07.2019
4990 Clouds 26 1014 44 10000 2.6 50 16:58 18.07.2019
4991 Clouds 25 1014 44 10000 2.6 50 16:40 18.07.2019
4992 Clouds 25 1014 47 10000 1.5 20 16:19 18.07.2019
4993 Clouds 25 1014 47 10000 1.5 20 15:53 18.07.2019
4994 Clouds 25 1014 47 10000 2.1 40 15:34 18.07.2019
4995 Clouds 24 1014 50 10000 2.6 10 14:55 18.07.2019
4996 Clouds 24 1014 50 10000 2.6 10 14:36 18.07.2019
4997 Clouds 24 1014 53 10000 1.5 50 13:52 18.07.2019
4998 Clouds 24 1014 53 10000 1.5 50 13:31 18.07.2019
4999 Clear 24 1014 56 10000 2.1 40 12:57 18.07.2019
5000 Clear 23 1014 60 10000 2.1 20 12:37 18.07.2019
5001 Clear 22 1014 60 10000 2.1 20 12:18 18.07.2019
5002 Clouds 21 1014 64 10000 1.5 50 11:47 18.07.2019
5003 Rain 21 1014 64 10000 1 0 11:26 18.07.2019
5004 Clouds 21 1014 72 10000 1.5 0 10:51 18.07.2019
5005 Clear 20 1014 72 10000 1.5 290 09:51 18.07.2019
5006 Clear 18 1014 72 10000 1 0 09:27 18.07.2019
5007 Clear 17 1014 72 10000 1 0 08:54 18.07.2019
5008 Clear 16 1013 87 10000 1 90 08:25 18.07.2019
5009 Clear 16 1013 87 10000 1 90 07:58 18.07.2019
5010 Clouds 15 1014 82 10000 1.5 250 07:35 18.07.2019
5011 Clear 14 1013 87 10000 1 0 06:51 18.07.2019
5012 Clouds 13 1013 87 10000 1 110 06:26 18.07.2019
5013 Clouds 14 1013 82 10000 1 0 03:41 18.07.2019
5014 Clear 15 1013 77 10000 1.5 260 02:23 18.07.2019
5015 Clouds 16 1013 68 10000 3.1 280 01:36 18.07.2019
5016 Clear 17 1013 63 10000 1.5 260 23:59 17.07.2019
5017 Clear 18 1013 55 10000 1.5 0 23:22 17.07.2019
5018 Clear 19 1013 38 10000 2.6 260 22:59 17.07.2019
5019 Clear 19 1013 38 10000 2.6 260 22:41 17.07.2019
5020 Clear 19 1013 38 10000 2.6 240 22:22 17.07.2019
5021 Clear 19 1012 59 10000 1 200 21:57 17.07.2019
5022 Clear 20 1012 56 10000 1 170 21:37 17.07.2019
5023 Clear 20 1012 56 10000 1 170 21:19 17.07.2019
5024 Clear 21 1012 36 10000 2.1 290 20:55 17.07.2019
5025 Clear 21 1013 77 10000 1.5 0 20:36 17.07.2019
5026 Clear 22 1012 36 10000 2.1 290 20:18 17.07.2019
5027 Clear 22 1012 36 10000 2.1 290 20:18 17.07.2019
5028 Clouds 22 1013 77 10000 3.1 120 19:40 17.07.2019
5029 Rain 22 1014 46 10000 2.1 280 19:40 17.07.2019
5030 Rain 23 1012 39 10000 1.5 0 19:19 17.07.2019
5031 Clear 23 1012 44 10000 2.1 70 18:44 17.07.2019
5032 Clear 25 1012 44 10000 2.1 70 18:21 17.07.2019
5033 Clear 25 1012 44 10000 2.1 70 18:21 17.07.2019
5034 Clear 25 1013 44 10000 2.6 50 17:56 17.07.2019
5035 Clear 25 1013 44 10000 2.6 50 17:56 17.07.2019
5036 Clear 25 1013 44 10000 2.6 50 17:38 17.07.2019
5037 Clear 25 1014 38 10000 4.1 250 17:19 17.07.2019
5038 Clear 25 1013 41 10000 1.5 50 16:40 17.07.2019
5039 Clear 26 1013 41 10000 1.5 50 16:19 17.07.2019
5040 Clear 25 1014 44 10000 1.5 60 15:51 17.07.2019
5041 Clear 25 1014 50 10000 2.1 20 15:29 17.07.2019
5042 Clouds 25 1014 50 10000 2.1 20 14:56 17.07.2019
5043 Clear 25 1014 53 10000 1.5 0 14:37 17.07.2019
5044 Clear 24 1014 53 10000 1.5 0 14:19 17.07.2019
5045 Clear 24 1015 60 10000 2.1 360 13:45 17.07.2019
5046 Clear 23 1016 34 10000 3.1 190 13:25 17.07.2019
5047 Clear 24 1015 64 10000 1.5 300 12:44 17.07.2019
5048 Clear 22 1015 64 10000 1.5 300 12:23 17.07.2019
5049 Clear 22 1015 64 10000 1.5 300 11:57 17.07.2019
5050 Clear 21 1015 72 10000 1.5 320 11:38 17.07.2019
5051 Clear 21 1015 72 10000 1.5 320 11:19 17.07.2019
5052 Clear 21 1015 72 10000 1 0 10:43 17.07.2019
5053 Clear 21 1015 72 10000 1 0 10:20 17.07.2019
5054 Clear 20 1015 77 10000 1 0 09:44 17.07.2019
5055 Clear 18 1015 77 10000 1 0 09:26 17.07.2019
5056 Clear 16 1015 77 10000 0.5 0 08:44 17.07.2019
5057 Clear 16 1015 77 10000 0.5 0 08:22 17.07.2019
5058 Clear 15 1015 87 10000 1 0 07:51 17.07.2019
5059 Clear 15 1015 87 10000 1 0 07:51 17.07.2019
5060 Clear 14 1016 93 10000 1 0 07:26 17.07.2019
5061 Clear 13 1016 93 10000 1 0 06:58 17.07.2019
5062 Clear 12 1016 93 10000 1.5 130 06:31 17.07.2019
5063 Clear 12 1016 93 10000 1 120 05:59 17.07.2019
5064 Clear 12 1015 93 10000 1 0 05:32 17.07.2019
5065 Clear 13 1016 87 10000 1.47 149.97 04:48 17.07.2019
5066 Clear 13 1016 77 10000 0.5 0 03:39 17.07.2019
5067 Clear 14 1016 82 10000 0.5 0 02:25 17.07.2019
5068 Clear 14 1016 77 10000 2.1 270 01:28 17.07.2019
5069 Clear 15 1016 72 10000 1 0 00:59 17.07.2019
5070 Clear 15 1016 72 10000 2.6 110 00:37 17.07.2019
5071 Clear 15 1016 72 10000 2.6 110 00:19 17.07.2019
5072 Clear 16 1016 68 10000 2.1 110 23:41 16.07.2019
5073 Clouds 17 1016 67 10000 1.75 134.491 23:20 16.07.2019
5074 Clear 17 1017 47 10000 1.5 30 22:43 16.07.2019
5075 Clear 17 1017 47 10000 1.5 30 22:24 16.07.2019
5076 Clear 19 1016 60 10000 2.1 190 21:48 16.07.2019
5077 Clear 20 1016 56 10000 0.5 0 21:25 16.07.2019
5078 Clear 20 1016 47 10000 1 0 20:59 16.07.2019
5079 Clear 21 1016 47 10000 1 0 20:40 16.07.2019
5080 Clear 22 1016 29 10000 2.1 340 20:22 16.07.2019
5081 Clear 22 1016 29 10000 2.1 340 19:54 16.07.2019
5082 Clear 22 1016 29 10000 2.1 340 19:30 16.07.2019
5083 Clear 22 1016 29 10000 2.1 340 19:30 16.07.2019
5084 Clear 22 1016 41 10000 2.6 310 18:58 16.07.2019
5085 Clear 23 1016 41 10000 2.6 310 18:39 16.07.2019
5086 Clear 24 1016 41 10000 2.6 310 18:20 16.07.2019
5087 Clear 24 1017 50 10000 2.6 300 17:44 16.07.2019
5088 Clear 24 1017 50 10000 2.6 300 17:24 16.07.2019
5089 Clear 24 1017 50 10000 2.6 300 16:49 16.07.2019
5090 Clear 24 1017 46 10000 2.6 320 16:25 16.07.2019
5091 Clear 24 1017 56 10000 2.6 330 15:56 16.07.2019
5092 Clear 23 1017 56 10000 2.6 330 15:38 16.07.2019
5093 Clear 23 1017 56 10000 2.6 330 15:18 16.07.2019
5094 Clear 22 1017 56 10000 2.6 270 14:46 16.07.2019
5095 Clear 22 1017 56 10000 2.6 270 14:27 16.07.2019
5096 Clear 22 1018 60 10000 3.1 300 13:57 16.07.2019
5097 Clear 22 1018 60 10000 3.1 300 13:57 16.07.2019
5098 Clear 22 1018 72 10000 2.6 310 13:37 16.07.2019
5099 Clouds 22 1018 24 10000 3.6 20 13:18 16.07.2019
5100 Clear 21 1018 77 10000 3.1 320 12:42 16.07.2019
5101 Clear 20 1018 77 10000 3.1 320 12:19 16.07.2019
5102 Clear 19 1018 77 10000 3.1 320 11:45 16.07.2019
5103 Clear 19 1018 77 10000 3.1 320 11:25 16.07.2019
5104 Clear 19 1018 77 10000 3.1 320 10:59 16.07.2019
5105 Clear 19 1018 77 10000 3.1 310 10:41 16.07.2019
5106 Clear 18 1018 77 10000 3.1 310 10:19 16.07.2019
5107 Clear 18 1018 87 10000 3.1 290 09:43 16.07.2019
5108 Clear 16 1018 87 10000 3.1 290 09:20 16.07.2019
5109 Clouds 15 1018 87 10000 2.6 270 08:47 16.07.2019
5110 Clouds 14 1018 87 10000 2.6 270 08:27 16.07.2019
5111 Clouds 14 1018 87 10000 2.6 270 08:27 16.07.2019
5112 Clear 14 1018 87 10000 2.6 270 07:51 16.07.2019
5113 Clear 12 1018 93 10000 1.5 260 07:32 16.07.2019
5114 Clear 12 1018 93 10000 1.5 230 06:58 16.07.2019
5115 Clear 11 1018 93 10000 1.5 230 06:36 16.07.2019
5116 Clear 11 1018 93 10000 0.5 230 05:51 16.07.2019
5117 Clouds 11 1018 81 10000 2.6 20 05:26 16.07.2019
5118 Clear 11 1018 87 10000 1.5 30 04:32 16.07.2019
5119 Clear 12 1018 82 10000 1 0 03:42 16.07.2019
5120 Clouds 13 1017 87 10000 1.5 290 02:44 16.07.2019
5121 Clouds 13 1017 87 10000 1.5 290 02:22 16.07.2019
5122 Clouds 13 1017 87 10000 1 220 01:24 16.07.2019
5123 Clouds 15 1017 72 10000 1 350 00:23 16.07.2019
5124 Clouds 15 1017 68 10000 1 0 23:58 15.07.2019
5125 Clouds 16 1017 68 10000 0.5 0 23:38 15.07.2019
5126 Clouds 15 1016 58 10000 1 360 23:18 15.07.2019
5127 Clouds 16 1016 64 10000 2.6 340 22:43 15.07.2019
5128 Clouds 16 1016 64 10000 2.6 340 22:20 15.07.2019
5129 Clouds 16 1016 64 10000 2.6 340 22:20 15.07.2019
5130 Clouds 17 1016 64 10000 2.1 360 21:57 15.07.2019
5131 Clouds 18 1015 56 10000 2.6 10 21:38 15.07.2019
5132 Clouds 18 1015 56 10000 2.6 10 21:19 15.07.2019
5133 Rain 18 1015 53 10000 2.1 10 20:42 15.07.2019
5134 Rain 19 1015 53 10000 2.1 10 20:22 15.07.2019
5135 Clouds 20 1015 49 10000 3.1 10 19:56 15.07.2019
5136 Clouds 19 1015 49 10000 3.1 10 19:38 15.07.2019
5137 Clouds 20 1014 46 10000 3.1 360 19:18 15.07.2019
5138 Clouds 20 1014 53 10000 2.6 360 18:43 15.07.2019
5139 Clouds 21 1014 53 10000 2.6 360 18:20 15.07.2019
5140 Clouds 22 1014 53 10000 2.6 360 17:55 15.07.2019
5141 Clouds 22 1015 56 10000 3.1 360 17:37 15.07.2019
5142 Clouds 22 1015 56 10000 2.1 280 17:19 15.07.2019
5143 Clouds 22 1015 56 10000 2.1 280 16:39 15.07.2019
5144 Clouds 22 1015 56 10000 2.1 280 16:21 15.07.2019
5145 Clouds 21 1015 56 10000 2.6 320 15:58 15.07.2019
5146 Clouds 21 1015 60 10000 3.1 280 15:37 15.07.2019
5147 Clouds 21 1015 60 10000 3.1 280 15:19 15.07.2019
5148 Clouds 21 1015 64 10000 4.1 280 14:45 15.07.2019
5149 Clouds 21 1015 64 10000 4.1 280 14:26 15.07.2019
5150 Clouds 20 1015 68 10000 4.6 280 13:57 15.07.2019
5151 Clouds 20 1015 68 10000 4.6 280 13:36 15.07.2019
5152 Clouds 19 1015 68 10000 3.1 270 13:18 15.07.2019
5153 Clouds 19 1015 68 10000 3.1 270 12:42 15.07.2019
5154 Clouds 19 1015 68 10000 3.1 270 12:21 15.07.2019
5155 Clouds 18 1015 72 10000 1.5 0 11:43 15.07.2019
5156 Clouds 18 1015 72 10000 1.5 0 11:25 15.07.2019
5157 Clouds 18 1015 72 10000 2.1 0 10:48 15.07.2019
5158 Clouds 17 1015 77 10000 2.1 40 10:29 15.07.2019
5159 Clouds 16 1015 82 10000 2.1 40 09:55 15.07.2019
5160 Clouds 15 1015 82 10000 2.1 20 09:36 15.07.2019
5161 Clouds 15 1015 82 10000 2.1 20 09:18 15.07.2019
5162 Mist 14 1016 100 5000 3.6 80 08:41 15.07.2019
5163 Mist 14 1016 100 5000 3.6 80 08:23 15.07.2019
5164 Mist 14 1015 100 3100 3.1 70 08:23 15.07.2019
5165 Fog 13 1014 87 10000 1.5 360 07:41 15.07.2019
5166 Fog 13 1014 87 10000 1.5 360 07:19 15.07.2019
5167 Fog 13 1015 100 1200 2.1 40 06:39 15.07.2019
5168 Clouds 12 1014 82 10000 3.6 30 05:47 15.07.2019
5169 Clouds 13 1014 82 10000 3.6 30 05:27 15.07.2019
5170 Clouds 13 1014 82 10000 3.1 30 04:42 15.07.2019
5171 Clouds 13 1014 82 10000 3.6 40 03:48 15.07.2019
5172 Clouds 13 1014 82 10000 1.5 0 02:45 15.07.2019
5173 Clouds 14 1015 82 10000 1.5 60 01:44 15.07.2019
5174 Clouds 14 1015 82 10000 1.5 60 01:26 15.07.2019
5175 Clouds 14 1015 82 10000 1.5 60 00:51 15.07.2019
5176 Clouds 14 1013 71 10000 1 360 00:20 15.07.2019
5177 Rain 15 1015 72 10000 4.1 30 23:55 14.07.2019
5178 Rain 15 1015 72 10000 3.6 40 23:36 14.07.2019
5179 Rain 15 1015 72 10000 3.6 40 23:36 14.07.2019
5180 Rain 15 1015 72 10000 3.6 40 23:18 14.07.2019
5181 Rain 15 1015 68 10000 3.1 20 22:41 14.07.2019
5182 Rain 15 1013 71 10000 1 40 22:22 14.07.2019
5183 Rain 15 1013 71 10000 1 40 22:22 14.07.2019
5184 Rain 15 1014 68 10000 3.6 20 21:59 14.07.2019
5185 Clouds 16 1014 68 10000 3.6 360 21:41 14.07.2019
5186 Clouds 17 1013 60 10000 4.6 10 21:18 14.07.2019
5187 Clouds 18 1013 60 10000 4.6 10 20:55 14.07.2019
5188 Clouds 18 1013 60 10000 4.6 10 20:36 14.07.2019
5189 Clouds 18 1013 60 10000 4.6 10 20:18 14.07.2019
5190 Rain 19 1013 53 10000 3.6 10 19:43 14.07.2019
5191 Clouds 20 1013 53 10000 3.6 10 19:24 14.07.2019
5192 Clouds 20 1013 53 10000 3.6 10 18:57 14.07.2019
5193 Clouds 20 1013 46 10000 3.1 20 18:38 14.07.2019
5194 Clear 20 1013 41 10000 3.1 10 18:18 14.07.2019
5195 Clear 21 1013 44 10000 3.6 10 17:47 14.07.2019
5196 Clear 21 1013 44 10000 3.6 10 17:20 14.07.2019
5197 Clear 21 1013 53 10000 2.6 360 16:46 14.07.2019
5198 Clear 21 1013 53 10000 2.6 360 16:24 14.07.2019
5199 Clear 21 1014 53 10000 2.6 340 15:54 14.07.2019
5200 Clear 21 1014 64 10000 4.1 270 15:29 14.07.2019
5201 Clear 21 1015 60 10000 3.6 270 14:49 14.07.2019
5202 Clear 21 1015 64 10000 3.1 280 14:21 14.07.2019
5203 Clear 21 1015 64 10000 3.1 280 13:49 14.07.2019
5204 Clear 21 1015 64 10000 3.1 280 13:26 14.07.2019
5205 Clear 20 1016 64 10000 2.6 270 12:59 14.07.2019
5206 Clear 20 1016 64 10000 2.6 270 12:40 14.07.2019
5207 Clear 19 1016 64 10000 2.6 270 12:21 14.07.2019
5208 Clear 19 1016 64 10000 2.6 270 11:52 14.07.2019
5209 Clear 18 1016 68 10000 1.5 0 11:22 14.07.2019
5210 Clear 19 1016 77 10000 1.5 0 10:50 14.07.2019
5211 Clear 18 1016 77 10000 1.5 0 10:23 14.07.2019
5212 Clear 18 1016 82 10000 1 0 09:55 14.07.2019
5213 Clear 16 1016 82 10000 0.5 0 09:37 14.07.2019
5214 Clear 15 1016 87 10000 1 0 09:18 14.07.2019
5215 Clear 14 1016 82 10000 0.5 0 08:41 14.07.2019
5216 Clear 14 1016 100 10000 0.5 0 07:56 14.07.2019
5217 Clouds 13 1016 93 10000 0.5 60 07:34 14.07.2019
5218 Clouds 11 1016 93 10000 1 110 06:23 14.07.2019
5219 Clear 12 1017 93 10000 0.5 0 05:43 14.07.2019
5220 Clear 12 1018 93 10000 1.5 0 03:45 14.07.2019
5221 Clear 12 1018 93 10000 1.5 0 03:27 14.07.2019
5222 Clouds 13 1018 87 10000 0.5 0 02:38 14.07.2019
5223 Clouds 13 1018 87 10000 0.5 0 02:20 14.07.2019
5224 Clouds 13 1018 82 10000 1.5 0 01:30 14.07.2019
5225 Clouds 13 1018 87 10000 2.1 120 00:55 14.07.2019
5226 Clouds 13 1018 87 10000 0.5 0 00:36 14.07.2019
5227 Clouds 14 1018 87 10000 0.5 0 00:18 14.07.2019
5228 Rain 14 1018 82 10000 1 0 23:41 13.07.2019
5229 Rain 14 1018 82 10000 1 0 23:22 13.07.2019
5230 Haze 15 1018 72 3900 1 0 22:43 13.07.2019
5231 Haze 15 1018 72 3900 1 0 22:22 13.07.2019
5232 Clouds 15 1018 72 10000 1 0 21:49 13.07.2019
5233 Rain 16 1017 68 10000 1 80 21:22 13.07.2019
5234 Rain 17 1017 68 10000 1 80 20:53 13.07.2019
5235 Clouds 18 1017 56 10000 1 50 20:34 13.07.2019
5236 Clear 18 1017 49 10000 0.5 0 19:54 13.07.2019
5237 Clear 19 1017 49 10000 0.5 0 19:31 13.07.2019
5238 Clouds 19 1017 49 10000 1 0 18:59 13.07.2019
5239 Rain 19 1018 49 10000 0.5 0 18:39 13.07.2019
5240 Clouds 19 1018 52 10000 1 0 18:19 13.07.2019
5241 Clouds 18 1018 52 10000 1.5 30 17:37 13.07.2019
5242 Clouds 18 1018 52 10000 1.5 30 17:19 13.07.2019
5243 Clouds 18 1018 52 10000 1.5 30 17:19 13.07.2019
5244 Clouds 19 1018 60 10000 2.1 50 16:44 13.07.2019
5245 Clouds 18 1018 60 10000 2.1 50 16:25 13.07.2019
5246 Clouds 18 1018 60 10000 2.1 50 15:48 13.07.2019
5247 Clouds 18 1018 56 10000 3.1 340 15:24 13.07.2019
5248 Clouds 17 1019 59 10000 3.1 340 14:56 13.07.2019
5249 Clouds 17 1019 64 10000 2.1 320 14:37 13.07.2019
5250 Clouds 17 1019 68 10000 2.1 320 14:18 13.07.2019
5251 Clouds 17 1019 68 10000 2.1 320 13:42 13.07.2019
5252 Clouds 17 1019 68 10000 2.1 320 13:19 13.07.2019
5253 Clouds 17 1019 68 10000 1.5 320 12:41 13.07.2019
5254 Clouds 17 1019 68 10000 1.5 320 12:23 13.07.2019
5255 Clouds 17 1018 72 10000 3.1 320 11:57 13.07.2019
5256 Clouds 17 1018 72 10000 3.1 320 11:20 13.07.2019
5257 Clouds 17 1018 72 10000 3.1 320 11:20 13.07.2019
5258 Clouds 16 1018 77 10000 3.6 300 10:57 13.07.2019
5259 Clouds 16 1018 82 10000 3.6 300 10:39 13.07.2019
5260 Clouds 16 1018 77 10000 3.6 300 10:20 13.07.2019
5261 Clouds 15 1018 77 10000 3.6 300 09:41 13.07.2019
5262 Clouds 15 1018 77 10000 3.6 300 09:22 13.07.2019
5263 Clouds 14 1017 87 10000 5.1 260 08:46 13.07.2019
5264 Clouds 14 1018 87 10000 1.5 0 08:26 13.07.2019
5265 Clouds 13 1017 100 10000 1.5 130 07:31 13.07.2019
5266 Clouds 13 1017 100 10000 1.5 130 06:54 13.07.2019
5267 Clouds 12 1017 100 10000 0.5 0 06:28 13.07.2019
5268 Clouds 12 1017 100 10000 1 0 05:38 13.07.2019
5269 Rain 12 1016 100 10000 1 0 04:36 13.07.2019
5270 Rain 12 1016 100 10000 1 0 04:18 13.07.2019
5271 Rain 13 1016 93 10000 2.1 260 03:40 13.07.2019
5272 Rain 13 1016 93 10000 1 140 02:28 13.07.2019
5273 Clouds 13 1016 93 10000 1 0 01:44 13.07.2019
5274 Clouds 14 1016 93 10000 1 0 01:20 13.07.2019
5275 Rain 13 1016 93 10000 1 0 00:57 13.07.2019
5276 Rain 14 1016 93 10000 1 0 00:20 13.07.2019
5277 Clouds 14 1015 100 10000 3.1 360 23:49 12.07.2019
5278 Thunderstorm 14 1014 93 10000 1 0 23:30 12.07.2019
5279 Thunderstorm 14 1014 93 10000 1 0 22:56 12.07.2019
5280 Mist 14 1014 93 4800 1 0 22:37 12.07.2019
5281 Mist 14 1014 93 4800 1 0 22:18 12.07.2019
5282 Rain 15 1014 100 9000 3.6 220 21:41 12.07.2019
5283 Thunderstorm 15 1014 93 6000 5.7 230 21:19 12.07.2019
5284 -273 0 0 0 0 0 20:43 12.07.2019
5285 Thunderstorm 16 1015 93 4000 8.7 320 20:21 12.07.2019
5286 Rain 16 1013 82 10000 3.1 170 19:42 12.07.2019
5287 Rain 17 1013 82 10000 3.1 170 19:24 12.07.2019
5288 Thunderstorm 18 1013 56 10000 3.6 170 18:46 12.07.2019
5289 Thunderstorm 19 1013 56 10000 3.6 170 18:22 12.07.2019
5290 Rain 19 1013 60 10000 3.6 170 17:55 12.07.2019
5291 Rain 19 1014 56 10000 3.6 170 17:30 12.07.2019
5292 Rain 18 1014 60 10000 4.6 180 16:59 12.07.2019
5293 Rain 18 1014 60 10000 3.6 0 16:27 12.07.2019
5294 Rain 17 1014 56 10000 3.6 0 15:57 12.07.2019
5295 Rain 17 1015 64 10000 4.1 130 15:37 12.07.2019
5296 Rain 17 1016 82 10000 3.1 150 15:18 12.07.2019
5297 Rain 16 1016 82 10000 3.1 150 14:44 12.07.2019
5298 Rain 16 1016 82 10000 3.1 150 14:21 12.07.2019
5299 Rain 15 1016 93 10000 2.1 160 13:46 12.07.2019
5300 Rain 14 1016 93 10000 2.1 160 13:23 12.07.2019
5301 Rain 14 1017 100 9000 1 0 12:42 12.07.2019
5302 Rain 14 1017 100 9000 1 0 12:23 12.07.2019
5303 Rain 14 1016 93 8000 2.6 110 11:47 12.07.2019
5304 Rain 14 1016 93 8000 2.1 120 11:24 12.07.2019
5305 Rain 15 1016 93 8000 2.1 120 10:58 12.07.2019
5306 Rain 14 1016 100 8000 2.1 110 10:40 12.07.2019
5307 Rain 14 1016 100 10000 3.1 100 10:22 12.07.2019
5308 Rain 14 1016 100 10000 3.1 100 09:51 12.07.2019
5309 Rain 14 1016 93 10000 1 0 09:25 12.07.2019
5310 Rain 14 1016 87 10000 4.6 220 08:47 12.07.2019
5311 Rain 14 1016 93 10000 6.7 280 08:23 12.07.2019
5312 Rain 14 1015 87 10000 2.1 210 07:47 12.07.2019
5313 Clouds 14 1015 93 10000 0.5 0 07:29 12.07.2019
5314 Clouds 13 1015 93 10000 1 0 06:30 12.07.2019
5315 Clouds 13 1015 93 10000 1.83 145.257 05:51 12.07.2019
5316 Clouds 13 1015 87 10000 1.83 145.257 04:52 12.07.2019
5317 Clouds 13 1016 93 10000 1 110 01:54 12.07.2019
5318 Clouds 13 1016 93 10000 0.5 0 01:34 12.07.2019
5319 Clouds 13 1016 93 10000 0.5 0 00:36 12.07.2019
5320 Rain 13 1016 93 10000 1.5 60 00:18 12.07.2019
5321 Clear 13 1017 100 10000 1 190 23:42 11.07.2019
5322 Clear 13 1017 100 10000 1 190 23:21 11.07.2019
5323 Rain 14 1016 87 6000 1 0 22:45 11.07.2019
5324 Rain 14 1016 87 6000 1 0 22:24 11.07.2019
5325 Rain 15 1016 82 10000 0.5 0 21:45 11.07.2019
5326 Rain 15 1017 87 10000 2.6 40 21:21 11.07.2019
5327 Clear 16 1016 77 10000 0.5 0 20:59 11.07.2019
5328 Rain 16 1016 77 10000 1.5 280 20:41 11.07.2019
5329 Rain 16 1016 77 10000 0.5 0 20:22 11.07.2019
5330 Rain 16 1016 77 10000 0.5 0 19:55 11.07.2019
5331 Rain 16 1016 77 10000 0.5 0 19:37 11.07.2019
5332 Drizzle 16 1016 77 10000 0.5 0 19:19 11.07.2019
5333 Drizzle 16 1016 77 10000 1 0 18:40 11.07.2019
5334 Drizzle 16 1016 77 10000 1 0 18:21 11.07.2019
5335 Rain 15 1016 68 10000 2.6 40 17:47 11.07.2019
5336 Rain 15 1016 68 10000 2.6 40 17:28 11.07.2019
5337 Rain 16 1015 68 10000 2.6 310 16:53 11.07.2019
5338 Rain 16 1015 68 10000 2.6 310 16:24 11.07.2019
5339 Rain 17 1015 64 10000 2.1 310 15:57 11.07.2019
5340 Rain 17 1015 68 10000 3.6 290 15:38 11.07.2019
5341 Rain 18 1015 68 10000 3.6 290 15:19 11.07.2019
5342 Clouds 18 1015 72 10000 3.1 280 14:44 11.07.2019
5343 Clouds 18 1015 72 10000 3.1 280 14:23 11.07.2019
5344 Drizzle 19 1016 68 10000 2.1 30 13:47 11.07.2019
5345 Drizzle 19 1016 68 10000 2.1 30 13:29 11.07.2019
5346 Drizzle 18 1016 72 10000 2.1 30 12:56 11.07.2019
5347 Clouds 18 1016 77 10000 1 0 12:37 11.07.2019
5348 Rain 18 1016 68 10000 1 0 12:18 11.07.2019
5349 Rain 18 1016 68 10000 1 0 12:18 11.07.2019
5350 Clouds 18 1016 72 10000 2.1 290 11:41 11.07.2019
5351 Clouds 18 1016 72 10000 2.1 290 11:22 11.07.2019
5352 Clear 17 1016 63 10000 1.5 230 10:46 11.07.2019
5353 Clear 17 1016 72 10000 1 0 10:19 11.07.2019
5354 Clear 16 1016 72 10000 1 0 09:48 11.07.2019
5355 Clear 16 1016 72 10000 1 0 09:29 11.07.2019
5356 Clear 15 1017 72 10000 1 0 08:53 11.07.2019
5357 Clear 15 1016 77 10000 1 0 08:27 11.07.2019
5358 Clear 13 1016 82 10000 1 0 07:55 11.07.2019
5359 Clear 12 1016 82 10000 1 0 07:36 11.07.2019
5360 Clouds 11 1016 82 10000 1 0 06:41 11.07.2019
5361 Clouds 10 1016 87 10000 2.1 100 05:53 11.07.2019
5362 Clear 10 1016 87 10000 1 0 05:30 11.07.2019
5363 Clouds 10 1016 87 10000 0.5 0 04:55 11.07.2019
5364 Clear 11 1018 81 10000 0.5 0 02:41 11.07.2019
5365 Clear 11 1018 81 10000 2.6 90 01:38 11.07.2019
5366 Clear 12 1018 81 10000 2.6 110 00:29 11.07.2019
5367 Clear 13 1018 50 10000 1.5 20 23:37 10.07.2019
5368 Clear 13 1018 50 10000 1.5 20 23:19 10.07.2019
5369 Haze 15 1018 45 3500 1.5 210 22:46 10.07.2019
5370 Haze 15 1018 45 3500 1.5 210 22:21 10.07.2019
5371 Clear 18 1018 55 10000 0.5 0 21:45 10.07.2019
5372 Clear 17 1018 55 10000 0.5 0 21:26 10.07.2019
5373 Clear 18 1018 40 10000 1.5 0 20:57 10.07.2019
5374 Clear 19 1018 37 10000 2.6 310 20:39 10.07.2019
5375 Clear 19 1018 37 10000 2.6 310 20:19 10.07.2019
5376 Clear 19 1018 28 10000 3.1 310 19:53 10.07.2019
5377 Clear 20 1018 28 10000 2.6 270 19:22 10.07.2019
5378 Clear 20 1018 28 10000 2.6 270 18:57 10.07.2019
5379 Clear 20 1018 46 10000 3.6 270 18:38 10.07.2019
5380 Clear 21 1018 46 10000 3.6 270 18:20 10.07.2019
5381 Clear 21 1018 46 10000 3.1 280 17:41 10.07.2019
5382 Clear 21 1018 46 10000 3.1 270 17:20 10.07.2019
5383 Clear 20 1018 43 10000 3.6 280 16:37 10.07.2019
5384 Clear 20 1018 43 10000 3.6 280 16:18 10.07.2019
5385 Clear 20 1018 52 10000 3.6 280 15:45 10.07.2019
5386 Clear 20 1018 52 10000 3.6 280 15:21 10.07.2019
5387 Clear 19 1019 56 10000 3.6 280 14:41 10.07.2019
5388 Clear 19 1019 56 10000 3.6 280 14:22 10.07.2019
5389 Clear 19 1019 59 10000 3.6 270 13:46 10.07.2019
5390 Clear 19 1019 63 10000 3.1 280 13:19 10.07.2019
5391 Clear 19 1019 63 10000 3.1 280 13:19 10.07.2019
5392 Clear 18 1019 63 10000 3.1 280 12:58 10.07.2019
5393 Clear 18 1019 63 10000 3.1 280 12:37 10.07.2019
5394 Clear 17 1019 63 10000 1.5 0 12:18 10.07.2019
5395 Clear 17 1019 63 10000 1.5 0 11:45 10.07.2019
5396 Clear 16 1019 63 10000 1.5 0 11:21 10.07.2019
5397 Clear 16 1019 67 10000 3.1 320 10:44 10.07.2019
5398 Clear 16 1019 67 10000 3.1 320 10:20 10.07.2019
5399 Clear 15 1019 72 10000 2.6 310 09:44 10.07.2019
5400 Clear 14 1019 72 10000 2.6 310 09:21 10.07.2019
5401 Clear 12 1019 71 10000 2.6 310 08:50 10.07.2019
5402 Clear 11 1019 76 10000 2.1 0 08:29 10.07.2019
5403 Clear 11 1019 76 10000 2.1 0 07:54 10.07.2019
5404 Clear 11 1019 76 10000 2.1 230 07:32 10.07.2019
5405 Clear 10 1019 81 10000 2.1 230 06:44 10.07.2019
5406 Clear 9 1019 87 10000 2.1 230 05:59 10.07.2019
5407 Clouds 10 1019 71 10000 1.5 0 04:36 10.07.2019
5408 Clear 11 1019 71 10000 1 0 03:38 10.07.2019
5409 Clear 13 1018 59 10000 2.1 350 00:45 10.07.2019
5410 Clear 14 1018 59 10000 2.6 30 23:59 09.07.2019
5411 Clear 14 1016 50 10000 2.1 20 23:39 09.07.2019
5412 Clear 14 1016 50 10000 2.1 20 23:21 09.07.2019
5413 Clear 16 1017 55 10000 3.1 20 22:40 09.07.2019
5414 Clear 15 1017 55 10000 3.1 20 22:22 09.07.2019
5415 Clouds 16 1017 52 10000 2.6 30 21:55 09.07.2019
5416 Clouds 17 1017 55 10000 3.6 40 21:36 09.07.2019
5417 Clear 17 1018 67 10000 3.1 360 21:18 09.07.2019
5418 Clouds 18 1014 82 10000 2.1 40 20:42 09.07.2019
5419 Clouds 18 1016 52 10000 1.5 290 20:24 09.07.2019
5420 Clouds 19 1016 49 10000 2.6 300 19:39 09.07.2019
5421 Clouds 19 1016 49 10000 2.6 300 19:20 09.07.2019
5422 Clouds 20 1016 56 10000 2.6 310 18:44 09.07.2019
5423 Clouds 20 1016 56 10000 2.6 310 18:23 09.07.2019
5424 Clouds 20 1016 56 10000 2.6 310 17:54 09.07.2019
5425 Clouds 20 1017 52 10000 1.5 140 17:36 09.07.2019
5426 Clouds 20 1017 52 10000 1.5 0 17:18 09.07.2019
5427 Clouds 20 1017 56 10000 1.5 0 16:41 09.07.2019
5428 Clouds 20 1017 56 10000 2.1 320 16:23 09.07.2019
5429 Clouds 20 1017 56 10000 2.1 320 15:44 09.07.2019
5430 Clouds 20 1017 56 10000 2.1 320 15:26 09.07.2019
5431 Clouds 19 1018 63 10000 1.5 0 14:47 09.07.2019
5432 Clouds 19 1018 63 10000 1.5 0 14:24 09.07.2019
5433 Clouds 19 1018 63 10000 2.1 310 13:59 09.07.2019
5434 Clouds 19 1018 63 10000 2.1 270 13:40 09.07.2019
5435 Clouds 19 1018 63 10000 2.1 270 13:20 09.07.2019
5436 Clouds 18 1018 72 10000 3.1 310 12:40 09.07.2019
5437 Clouds 17 1018 72 10000 3.1 310 12:19 09.07.2019
5438 Clouds 16 1018 72 10000 3.1 310 11:57 09.07.2019
5439 Clouds 16 1018 72 10000 3.1 280 11:38 09.07.2019
5440 Clouds 16 1018 72 10000 3.1 280 11:20 09.07.2019
5441 Clouds 16 1018 72 10000 3.1 280 10:48 09.07.2019
5442 Clouds 15 1018 77 10000 3.1 290 10:26 09.07.2019
5443 Clouds 14 1018 77 10000 1.5 340 09:39 09.07.2019
5444 Clouds 14 1018 77 10000 1.5 340 09:20 09.07.2019
5445 Clouds 14 1018 77 10000 1.5 340 09:20 09.07.2019
5446 Clouds 13 1017 77 10000 2.1 350 08:45 09.07.2019
5447 Clouds 13 1017 77 10000 2.1 350 08:21 09.07.2019
5448 Clear 15 1019 82 10000 0.5 0 03:52 05.07.2019
5449 Clear 15 1019 87 10000 0.5 0 03:24 05.07.2019
5450 Clear 15 1019 87 10000 0.5 0 02:54 05.07.2019
5451 Clear 15 1019 82 10000 0.5 0 02:36 05.07.2019
5452 Clear 16 1019 72 10000 1 0 01:37 05.07.2019
5453 Clear 17 1019 72 10000 1 0 00:54 05.07.2019
5454 Clear 17 1019 77 10000 1.5 210 00:33 05.07.2019
5455 Clear 18 1019 63 10000 1 0 23:47 04.07.2019
5456 Clear 18 1019 68 10000 1.5 200 23:20 04.07.2019
5457 Haze 19 1019 68 700 1.5 210 22:43 04.07.2019
5458 Clear 20 1019 68 10000 1 220 22:24 04.07.2019
5459 Clear 20 1019 68 10000 1 220 21:55 04.07.2019
5460 Clear 22 1019 50 10000 1.5 260 21:36 04.07.2019
5461 Clear 22 1019 50 10000 1.5 260 21:18 04.07.2019
5462 Clear 23 1019 41 10000 3.1 270 20:39 04.07.2019
5463 Clear 23 1019 39 10000 3.1 280 20:20 04.07.2019
5464 Clear 23 1019 39 10000 3.1 280 19:42 04.07.2019
5465 Clear 23 1019 39 10000 3.1 280 19:22 04.07.2019
5466 Clear 24 1019 39 10000 3.1 280 18:57 04.07.2019
5467 Clear 24 1019 39 10000 3.6 280 18:39 04.07.2019
5468 Clear 26 1019 41 10000 3.6 280 18:20 04.07.2019
5469 Clear 26 1019 41 10000 3.6 280 17:43 04.07.2019
5470 Clear 26 1019 41 10000 3.6 280 17:19 04.07.2019
5471 Clear 26 1020 47 10000 3.6 280 15:57 04.07.2019
5472 Clear 25 1020 50 10000 4.1 280 15:39 04.07.2019
5473 Clear 25 1020 50 10000 4.1 280 15:19 04.07.2019
5474 Clear 24 1021 47 10000 3.1 250 14:44 04.07.2019
5475 Clear 25 1021 47 10000 3.1 250 14:25 04.07.2019
5476 Clear 24 1021 47 10000 3.1 250 13:59 04.07.2019
5477 Clear 24 1021 49 10000 4.1 270 13:41 04.07.2019
5478 Clear 24 1021 49 10000 4.1 270 13:22 04.07.2019
5479 Clear 23 1022 60 10000 3.1 290 12:40 04.07.2019
5480 Clouds 22 1023 37 10000 3.6 20 12:21 04.07.2019
5481 Clear 22 1022 60 10000 3.1 290 11:57 04.07.2019
5482 Clear 21 1022 60 10000 3.6 310 11:37 04.07.2019
5483 Clear 20 1022 60 10000 3.6 310 11:19 04.07.2019
5484 Clear 21 1022 63 10000 3.1 300 10:40 04.07.2019
5485 Clear 19 1022 63 10000 3.1 300 10:20 04.07.2019
5486 Clear 19 1021 68 10000 3.1 270 09:41 04.07.2019
5487 Clear 18 1021 68 10000 3.1 270 09:21 04.07.2019
5488 Clear 17 1021 68 10000 3.1 270 08:56 04.07.2019
5489 Clear 16 1021 72 10000 3.1 260 08:22 04.07.2019
5490 Clear 16 1021 72 10000 2.6 260 07:43 04.07.2019
5491 Clear 15 1021 72 10000 2.6 260 07:22 04.07.2019
5492 Clear 14 1021 77 10000 2.6 260 06:39 04.07.2019
5493 Clear 13 1020 82 10000 2.6 270 05:50 04.07.2019
5494 Clear 13 1020 77 10000 2.1 260 05:31 04.07.2019
5495 Clear 16 1020 72 10000 2.1 330 02:41 04.07.2019
5496 Clear 17 1020 77 10000 1 0 01:41 04.07.2019
5497 Clouds 18 1020 77 10000 0.5 0 01:19 04.07.2019
5498 Clear 18 1020 72 10000 1 0 23:56 03.07.2019
5499 Clear 18 1020 72 10000 1 0 23:21 03.07.2019
5500 Clouds 18 1020 68 10000 1 0 22:59 03.07.2019
5501 Clear 18 1019 56 10000 3.1 40 22:39 03.07.2019
5502 Clouds 19 1019 56 10000 2.1 50 22:21 03.07.2019
5503 Clouds 19 1019 56 10000 2.1 50 21:56 03.07.2019
5504 Clear 19 1019 53 10000 2.6 360 21:37 03.07.2019
5505 Clear 19 1019 53 10000 2.6 360 21:37 03.07.2019
5506 Clear 21 1019 53 10000 2.6 360 21:19 03.07.2019
5507 Clear 21 1019 53 10000 3.1 360 20:41 03.07.2019
5508 Clear 22 1019 53 10000 3.1 360 20:23 03.07.2019
5509 Clouds 22 1019 53 10000 3.1 20 19:50 03.07.2019
5510 Clouds 22 1019 53 10000 3.1 20 19:31 03.07.2019
5511 Clouds 23 1019 60 10000 2.6 270 18:47 03.07.2019
5512 Clouds 24 1019 60 10000 2.6 270 18:25 03.07.2019
5513 Clouds 23 1019 60 10000 2.6 270 17:55 03.07.2019
5514 Clouds 23 1020 64 10000 2.6 270 17:36 03.07.2019
5515 Clouds 24 1020 64 10000 2.6 270 17:18 03.07.2019
5516 Clear 24 1020 64 10000 2.1 300 16:43 03.07.2019
5517 Clear 24 1020 64 10000 2.1 300 16:20 03.07.2019
5518 Clear 23 1021 53 10000 4.1 50 15:47 03.07.2019
5519 Clear 23 1020 60 10000 1.5 0 15:29 03.07.2019
5520 Clear 23 1020 64 10000 2.1 50 14:52 03.07.2019
5521 Clear 22 1020 69 10000 2.6 50 14:23 03.07.2019
5522 Clear 22 1021 64 10000 1 0 13:57 03.07.2019
5523 Clear 22 1021 64 10000 1 0 13:32 03.07.2019
5524 Clouds 22 1021 64 10000 1 0 12:54 03.07.2019
5525 Rain 20 1021 72 10000 1.5 270 12:21 03.07.2019
5526 Rain 20 1021 72 10000 1.5 270 11:58 03.07.2019
5527 Rain 19 1021 72 10000 1.5 270 11:39 03.07.2019
5528 Rain 19 1021 72 10000 1.5 270 11:20 03.07.2019
5529 Clouds 18 1021 72 10000 4.6 280 10:41 03.07.2019
5530 Clouds 18 1021 72 10000 4.6 280 10:22 03.07.2019
5531 Clouds 18 1020 72 10000 3.6 280 09:42 03.07.2019
5532 Clouds 17 1020 72 10000 3.6 280 09:21 03.07.2019
5533 Clouds 17 1020 72 10000 2.6 260 08:53 03.07.2019
5534 Clouds 17 1020 72 10000 2.6 260 08:53 03.07.2019
5535 Clouds 17 1020 72 10000 2.6 260 08:32 03.07.2019
5536 Clouds 17 1020 72 10000 2.1 240 07:53 03.07.2019
5537 Clouds 17 1020 72 10000 2.1 240 07:35 03.07.2019
5538 Clouds 16 1019 77 10000 2.6 250 06:52 03.07.2019
5539 Clear 16 1019 77 10000 2.1 300 05:53 03.07.2019
5540 Clear 16 1019 77 10000 2.1 300 05:21 03.07.2019
5541 Clear 16 1019 77 10000 1.5 280 03:36 03.07.2019
5542 Clear 17 1019 77 10000 1.5 280 02:38 03.07.2019
5543 Clear 17 1019 88 10000 0.5 0 01:23 03.07.2019
5544 Clear 18 1019 88 10000 1 0 00:57 03.07.2019
5545 Rain 19 1019 63 10000 4.6 360 00:36 03.07.2019
5546 Clear 19 1019 73 10000 2.1 0 23:48 02.07.2019
5547 Clear 19 1019 88 10000 1 0 23:21 02.07.2019
5548 Clear 19 1019 88 10000 1 0 22:59 02.07.2019
5549 Rain 19 1018 77 10000 1 0 22:40 02.07.2019
5550 Haze 20 1018 64 3700 1.5 0 22:22 02.07.2019
5551 Clear 21 1018 64 10000 2.1 30 21:56 02.07.2019
5552 Clear 21 1018 64 10000 2.1 30 21:37 02.07.2019
5553 Clear 22 1018 61 10000 1.5 360 21:18 02.07.2019
5554 Clear 23 1018 61 10000 1.5 360 20:41 02.07.2019
5555 Clear 23 1018 61 10000 2.1 290 20:23 02.07.2019
5556 Clear 23 1018 61 10000 2.1 310 19:45 02.07.2019
5557 Clear 23 1018 57 10000 2.1 320 19:25 02.07.2019
5558 Clear 24 1018 57 10000 2.1 320 18:59 02.07.2019
5559 Clouds 24 1020 56 10000 3.1 50 18:41 02.07.2019
5560 Clouds 24 1020 56 10000 3.1 50 18:41 02.07.2019
5561 Clear 25 1018 65 10000 2.6 280 18:18 02.07.2019
5562 Clear 25 1018 65 10000 2.6 280 17:38 02.07.2019
5563 Clear 25 1018 65 10000 2.6 280 17:20 02.07.2019
5564 Clouds 25 1019 57 10000 2.6 290 16:46 02.07.2019
5565 Clouds 25 1019 57 10000 2.6 290 16:27 02.07.2019
5566 Clouds 25 1019 65 10000 2.6 270 15:42 02.07.2019
5567 Rain 24 1019 65 10000 2.6 270 15:24 02.07.2019
5568 Rain 24 1020 73 10000 2.1 310 14:49 02.07.2019
5569 Rain 24 1020 73 10000 2.1 310 14:30 02.07.2019
5570 Clouds 25 1020 69 10000 2.1 330 13:45 02.07.2019
5571 Clouds 23 1020 78 10000 1.5 0 13:20 02.07.2019
5572 Clouds 23 1020 78 10000 1.5 0 12:46 02.07.2019
5573 Clouds 22 1022 68 10000 1.5 0 12:25 02.07.2019
5574 Clouds 22 1020 78 10000 2.6 330 11:57 02.07.2019
5575 Clouds 21 1020 78 10000 2.6 330 11:39 02.07.2019
5576 Clouds 21 1020 83 10000 4.1 300 11:18 02.07.2019
5577 Clouds 22 1020 83 10000 4.1 300 10:44 02.07.2019
5578 Clouds 21 1020 88 10000 3.6 300 10:24 02.07.2019
5579 Clouds 20 1020 88 10000 3.6 300 09:44 02.07.2019
5580 Clouds 19 1020 88 10000 2.6 280 09:21 02.07.2019
5581 Clouds 19 1020 88 10000 2.6 280 08:42 02.07.2019
5582 Clouds 18 1020 88 10000 2.6 260 08:20 02.07.2019
5583 Clouds 18 1020 88 10000 2.6 260 07:53 02.07.2019
5584 Clouds 17 1019 93 10000 2.6 260 07:21 02.07.2019
5585 Clouds 17 1019 93 10000 2.6 260 07:21 02.07.2019
5586 Clouds 17 1019 93 10000 2.6 260 06:47 02.07.2019
5587 Thunderstorm 17 1019 88 10000 1 0 05:58 02.07.2019
5588 Rain 17 1020 100 10000 1 0 04:39 02.07.2019
5589 Thunderstorm 18 1019 88 10000 1 0 01:27 02.07.2019
5590 Thunderstorm 19 1017 69 10000 1 0 23:47 01.07.2019
5591 Thunderstorm 19 1017 69 10000 1 0 23:20 01.07.2019
5592 Thunderstorm 19 1017 73 10000 5.7 20 22:45 01.07.2019
5593 Thunderstorm 19 1017 73 10000 5.7 20 22:27 01.07.2019
5594 Thunderstorm 21 1016 57 10000 3.1 240 21:47 01.07.2019
5595 Thunderstorm 22 1016 57 10000 3.1 240 21:26 01.07.2019
5596 Clouds 23 1016 39 10000 3.1 180 20:51 01.07.2019
5597 Clouds 24 1016 37 10000 3.1 180 20:22 01.07.2019
5598 Clouds 23 1016 37 10000 3.1 180 19:58 01.07.2019
5599 Clear 23 1016 40 10000 3.6 170 19:40 01.07.2019
5600 Thunderstorm 23 1016 37 10000 3.6 170 19:21 01.07.2019
5601 Thunderstorm 23 1016 37 10000 3.6 170 18:52 01.07.2019
5602 Thunderstorm 26 1016 33 10000 0.5 0 18:30 01.07.2019
5603 Thunderstorm 28 1020 77 10000 11.8 20 17:57 01.07.2019
5604 Thunderstorm 28 1020 77 10000 11.8 20 17:57 01.07.2019
5605 Clear 29 1017 43 10000 0.5 0 17:39 01.07.2019
5606 Clear 30 1017 48 10000 1.5 280 17:19 01.07.2019
5607 Clouds 30 1017 37 10000 2.6 0 16:46 01.07.2019
5608 Clouds 30 1017 37 10000 2.6 0 16:25 01.07.2019
5609 Clouds 29 1017 45 10000 1.5 0 15:47 01.07.2019
5610 Clouds 28 1017 45 10000 1.5 0 15:28 01.07.2019
5611 Clouds 28 1018 51 10000 2.6 230 14:57 01.07.2019
5612 Clouds 28 1018 51 10000 2.6 230 14:37 01.07.2019
5613 Clouds 28 1018 51 10000 2.6 230 14:18 01.07.2019
5614 Clouds 28 1018 54 10000 1.5 240 13:39 01.07.2019
5615 Clouds 29 1018 54 10000 0.5 0 13:20 01.07.2019
5616 Thunderstorm 29 1019 54 10000 2.1 330 12:40 01.07.2019
5617 Thunderstorm 29 1019 54 10000 2.1 330 12:40 01.07.2019
5618 Thunderstorm 28 1020 61 10000 5.1 330 12:22 01.07.2019
5619 -273 0 0 0 0 0 11:57 01.07.2019
5620 Clear 29 1018 51 10000 1.5 0 11:38 01.07.2019
5621 Clear 29 1019 54 10000 2.1 320 11:18 01.07.2019
5622 Clear 29 1019 65 10000 2.6 320 10:42 01.07.2019
5623 Clear 28 1019 74 10000 3.1 280 10:20 01.07.2019
5624 Clear 27 1019 74 10000 3.1 280 09:42 01.07.2019
5625 Clear 26 1018 69 10000 1 0 09:24 01.07.2019
5626 Clear 24 1018 65 10000 1.5 0 08:42 01.07.2019
5627 Rain 22 1018 83 10000 1.5 0 08:21 01.07.2019
5628 Clear 23 1019 73 10000 2.6 190 07:34 01.07.2019
5629 Clouds 21 1018 78 10000 1 0 06:51 01.07.2019
5630 Clouds 20 1018 78 10000 1.5 0 04:44 01.07.2019
5631 Clear 20 1017 77 10000 1.5 0 01:20 01.07.2019
5632 Clear 21 1017 64 10000 1 0 00:41 01.07.2019
5633 Clear 22 1017 73 10000 1 230 00:20 01.07.2019
5634 Clear 23 1017 54 10000 1 0 23:25 30.06.2019
5635 Clear 23 1017 47 10000 1.5 0 22:56 30.06.2019
5636 Haze 25 1017 45 4100 2.1 200 22:23 30.06.2019
5637 Clear 26 1017 45 10000 1 0 21:59 30.06.2019
5638 Clear 27 1017 45 10000 1 0 21:41 30.06.2019
5639 Clear 28 1017 54 10000 1 180 21:18 30.06.2019
5640 Clear 29 1017 66 10000 1 0 20:41 30.06.2019
5641 Clear 30 1017 55 10000 2.1 80 20:23 30.06.2019
5642 Clear 31 1017 55 10000 2.1 80 19:51 30.06.2019
5643 Clear 32 1017 38 10000 1.5 40 19:26 30.06.2019
5644 Clear 32 1017 38 10000 1.5 40 18:53 30.06.2019
5645 Clear 33 1018 49 10000 1.5 50 18:23 30.06.2019
5646 Clear 33 1018 38 10000 1.5 340 17:41 30.06.2019
5647 Clear 33 1018 49 10000 2.1 30 17:20 30.06.2019
5648 Clear 33 1018 46 10000 1.5 30 16:56 30.06.2019
5649 Clear 33 1018 46 10000 1.5 0 16:37 30.06.2019
5650 Clear 33 1018 46 10000 1.5 0 16:18 30.06.2019
5651 Clear 32 1018 58 10000 1.5 300 15:36 30.06.2019
5652 Clear 32 1018 58 10000 1.5 300 15:18 30.06.2019
5653 Clear 32 1018 52 10000 1.5 0 14:45 30.06.2019
5654 Clear 32 1018 52 10000 1.5 0 14:27 30.06.2019
5655 Clear 31 1019 58 10000 1.5 20 13:43 30.06.2019
5656 Clear 31 1019 62 10000 1.5 50 13:23 30.06.2019
5657 Clear 30 1019 58 10000 1.5 330 12:48 30.06.2019
5658 Clear 30 1019 58 10000 1.5 330 12:25 30.06.2019
5659 Clear 29 1019 65 10000 1 0 11:48 30.06.2019
5660 Clear 29 1019 65 10000 1 0 11:26 30.06.2019
5661 Clear 29 1019 69 10000 1.5 0 10:59 30.06.2019
5662 Clear 28 1019 69 10000 1.5 0 10:38 30.06.2019
5663 Clear 28 1019 69 10000 1.5 0 10:19 30.06.2019
5664 Clear 26 1019 73 10000 1.5 330 09:44 30.06.2019
5665 Clear 26 1019 73 10000 1.5 330 09:44 30.06.2019
5666 Clear 24 1019 73 10000 1 0 09:23 30.06.2019
5667 Clear 24 1018 73 10000 1.5 0 08:58 30.06.2019
5668 Clear 22 1018 78 10000 1.5 0 08:32 30.06.2019
5669 Clear 20 1018 83 10000 0.5 0 07:59 30.06.2019
5670 Clear 18 1018 88 10000 0.5 0 07:29 30.06.2019
5671 Clear 17 1018 93 10000 1 0 06:41 30.06.2019
5672 Clear 16 1018 82 10000 1 30 05:33 30.06.2019
5673 Clear 17 1017 88 10000 0.5 140 02:53 30.06.2019
5674 Clear 18 1018 82 10000 1 0 01:30 30.06.2019
5675 Clear 19 1017 82 10000 1.5 210 00:32 30.06.2019
5676 Clear 19 1017 82 10000 1.5 210 00:32 30.06.2019
5677 Clear 20 1017 77 10000 1 220 23:55 29.06.2019
5678 Clear 21 1017 68 10000 0.5 220 23:25 29.06.2019
5679 Clear 21 1017 64 10000 1.5 210 22:57 29.06.2019
5680 Clear 22 1017 64 10000 1 0 22:38 29.06.2019
5681 Clear 22 1017 64 10000 1 0 22:19 29.06.2019
5682 Clear 24 1017 60 10000 0.5 0 21:42 29.06.2019
5683 Clear 25 1017 69 10000 1.5 240 21:22 29.06.2019
5684 Clear 26 1017 51 10000 1.5 260 20:41 29.06.2019
5685 Clear 27 1017 54 10000 2.6 280 20:23 29.06.2019
5686 Clear 27 1017 54 10000 2.6 280 19:48 29.06.2019
5687 Clear 28 1017 51 10000 2.6 280 19:24 29.06.2019
5688 Clear 28 1017 51 10000 2.6 280 18:51 29.06.2019
5689 Clear 30 1017 45 10000 3.1 280 18:26 29.06.2019
5690 Clear 30 1020 42 10000 4.6 60 17:42 29.06.2019
5691 Clear 30 1018 51 10000 4.1 280 17:23 29.06.2019
5692 Clear 31 1018 51 10000 4.1 280 16:58 29.06.2019
5693 Clear 31 1018 48 10000 3.6 280 16:36 29.06.2019
5694 Clear 30 1018 51 10000 3.6 280 15:50 29.06.2019
5695 Clear 30 1018 51 10000 2.6 280 15:30 29.06.2019
5696 Clear 30 1018 54 10000 2.6 280 14:44 29.06.2019
5697 Clear 30 1018 51 10000 2.6 280 14:25 29.06.2019
5698 Clear 28 1019 54 10000 2.6 280 13:47 29.06.2019
5699 Clear 29 1019 57 10000 1.5 0 13:26 29.06.2019
5700 Clear 28 1019 51 10000 1.5 0 12:52 29.06.2019
5701 Clear 28 1021 50 10000 5.7 50 12:34 29.06.2019
5702 Clear 26 1019 64 10000 2.1 280 11:54 29.06.2019
5703 Clear 26 1019 69 10000 2.1 280 11:34 29.06.2019
5704 Clear 27 1020 73 10000 2.6 280 10:57 29.06.2019
5705 Clear 26 1020 73 10000 2.6 280 10:38 29.06.2019
5706 Clear 25 1020 73 10000 2.1 280 10:20 29.06.2019
5707 Clear 24 1020 73 10000 2.1 280 09:45 29.06.2019
5708 Clear 20 1020 73 10000 1 0 08:51 29.06.2019
5709 Clear 18 1020 77 10000 0.5 0 08:22 29.06.2019
5710 Clear 18 1020 82 10000 0.5 0 07:44 29.06.2019
5711 Clear 16 1020 87 10000 0.5 0 06:47 29.06.2019
5712 Clear 15 1020 93 10000 1 120 06:24 29.06.2019
5713 Clear 16 1021 88 10000 1 0 02:51 29.06.2019
5714 Clear 17 1021 77 10000 1.5 220 01:21 29.06.2019
5715 Clear 20 1021 72 10000 1 250 00:29 29.06.2019
5716 Clear 20 1021 64 10000 1 0 23:36 28.06.2019
5717 Clear 20 1021 60 10000 1 0 23:18 28.06.2019
5718 Clear 20 1021 64 10000 1 0 22:44 28.06.2019
5719 Clear 22 1020 64 10000 1.5 0 21:53 28.06.2019
5720 Clear 24 1020 42 10000 1 0 21:25 28.06.2019
5721 Clear 25 1020 61 10000 2.6 280 20:49 28.06.2019
5722 Clear 25 1020 61 10000 2.6 280 20:28 28.06.2019
5723 Clear 26 1020 48 10000 3.1 280 19:54 28.06.2019
5724 Clear 27 1020 48 10000 3.1 280 19:30 28.06.2019
5725 Clear 27 1020 45 10000 3.1 280 18:59 28.06.2019
5726 Clear 28 1020 45 10000 3.1 280 18:38 28.06.2019
5727 Clear 27 1020 45 10000 3.1 280 18:20 28.06.2019
5728 Clear 28 1020 37 10000 3.6 270 17:30 28.06.2019
5729 Clear 28 1021 37 10000 3.6 270 16:51 28.06.2019
5730 Clear 28 1021 39 10000 3.1 270 16:27 28.06.2019
5731 Clear 29 1021 37 10000 3.6 270 15:48 28.06.2019
5732 Clear 28 1021 48 10000 3.6 260 15:26 28.06.2019
5733 Clear 28 1021 48 10000 3.6 260 14:56 28.06.2019
5734 Clear 28 1021 48 10000 3.6 260 14:56 28.06.2019
5735 Clear 28 1021 48 10000 3.6 260 14:37 28.06.2019
5736 Clear 28 1022 47 10000 3.6 270 14:18 28.06.2019
5737 Clear 27 1022 47 10000 3.6 270 13:44 28.06.2019
5738 Clear 27 1022 50 10000 3.6 280 13:21 28.06.2019
5739 Clear 27 1022 61 10000 3.6 280 12:48 28.06.2019
5740 Clouds 25 1022 53 10000 3.6 290 11:56 28.06.2019
5741 Clear 23 1022 53 10000 3.6 300 11:27 28.06.2019
5742 Clear 25 1022 60 10000 3.6 300 10:46 28.06.2019
5743 Clouds 24 1023 60 10000 3.1 280 10:23 28.06.2019
5744 Clouds 24 1023 60 10000 3.1 280 10:23 28.06.2019
5745 Clouds 23 1023 60 10000 3.6 290 09:49 28.06.2019
5746 Clouds 22 1023 68 10000 3.6 290 09:30 28.06.2019
5747 Clouds 21 1022 68 10000 3.1 270 08:49 28.06.2019
5748 Clouds 19 1022 64 10000 4.1 280 08:27 28.06.2019
5749 Clouds 20 1022 68 10000 3.1 270 07:53 28.06.2019
5750 Clear 20 1022 64 10000 2.6 310 07:35 28.06.2019
5751 Clouds 17 1022 64 10000 3.6 280 06:33 28.06.2019
5752 Rain 21 1022 78 10000 3.1 280 01:42 28.06.2019
5753 Rain 22 1022 78 10000 2.1 290 00:44 28.06.2019
5754 Clouds 24 1022 69 10000 2.6 360 23:55 27.06.2019
5755 Clouds 24 1022 69 10000 2.6 360 23:37 27.06.2019
5756 Clouds 24 1022 65 10000 2.1 330 23:18 27.06.2019
5757 Clouds 23 1022 69 10000 1 0 22:41 27.06.2019
5758 Clouds 24 1022 78 10000 1.5 260 22:22 27.06.2019
5759 Clear 25 1021 66 10000 1.5 0 21:49 27.06.2019
5760 Clouds 27 1024 69 10000 5.7 40 21:31 27.06.2019
5761 Clear 28 1021 70 10000 1.5 280 20:57 27.06.2019
5762 Clear 29 1021 66 10000 1 270 20:39 27.06.2019
5763 Clear 29 1021 66 10000 1 270 20:19 27.06.2019
5764 Clear 30 1021 58 10000 2.6 280 19:44 27.06.2019
5765 Clear 30 1021 62 10000 2.6 280 19:25 27.06.2019
5766 Clear 31 1021 59 10000 2.1 270 18:43 27.06.2019
5767 Clear 31 1021 49 10000 2.6 300 18:21 27.06.2019
5768 Clear 32 1021 55 10000 2.1 330 17:44 27.06.2019
5769 Clear 32 1022 49 10000 1 0 17:22 27.06.2019
5770 Clear 32 1022 49 10000 1 0 17:22 27.06.2019
5771 Clouds 32 1024 55 10000 2.6 10 16:40 27.06.2019
5772 Clear 32 1022 43 10000 1.5 280 16:20 27.06.2019
5773 Clear 32 1022 52 10000 1.5 280 15:56 27.06.2019
5774 Clear 32 1022 52 10000 1.5 280 15:36 27.06.2019
5775 Clear 32 1022 52 10000 1.5 280 15:36 27.06.2019
5776 Clear 31 1023 58 10000 1.5 0 14:59 27.06.2019
5777 Clear 31 1023 58 10000 1.5 0 14:39 27.06.2019
5778 Clear 31 1023 58 10000 1.5 0 14:39 27.06.2019
5779 Clear 31 1023 66 10000 1.5 360 14:19 27.06.2019
5780 Clear 30 1025 58 10000 2.6 30 13:43 27.06.2019
5781 Clear 30 1023 55 10000 1.5 0 13:25 27.06.2019
5782 Clear 30 1024 54 10000 1.5 0 12:49 27.06.2019
5783 Clear 30 1024 54 10000 1.5 0 12:49 27.06.2019
5784 Clear 30 1024 61 10000 1 0 12:28 27.06.2019
5785 Clear 29 1024 65 10000 1.5 320 11:47 27.06.2019
5786 Clear 29 1024 69 10000 1.5 0 11:24 27.06.2019
5787 Clear 29 1024 74 10000 1 0 10:58 27.06.2019
5788 Clear 29 1024 74 10000 1 0 10:40 27.06.2019
5789 Clear 28 1024 83 10000 1.5 0 10:19 27.06.2019
5790 Clear 27 1024 78 10000 1 0 09:40 27.06.2019
5791 Clear 25 1024 78 10000 1 0 09:20 27.06.2019
5792 Clear 24 1024 78 10000 1 0 08:50 27.06.2019
5793 Clear 23 1024 78 10000 1 0 08:27 27.06.2019
5794 Clear 22 1024 94 10000 1 0 07:46 27.06.2019
5795 Clear 20 1023 94 10000 1 0 06:58 27.06.2019
5796 Clear 19 1023 93 10000 1.5 210 06:32 27.06.2019
5797 Clear 19 1023 94 10000 1 0 03:51 27.06.2019
5798 Clear 21 1023 88 10000 1.5 110 02:42 27.06.2019
5799 Clear 21 1023 88 10000 2.1 300 01:29 27.06.2019
5800 Clear 21 1023 83 10000 1 0 00:50 27.06.2019
5801 Clear 23 1023 78 10000 0.5 0 00:26 27.06.2019
5802 Clear 23 1023 78 10000 0.5 0 23:50 26.06.2019
5803 Clear 24 1026 78 10000 2.6 230 23:23 26.06.2019
5804 Clear 24 1023 73 10000 1 210 22:58 26.06.2019
5805 Clear 25 1023 73 10000 1 210 22:39 26.06.2019
5806 Clear 25 1023 69 10000 0.5 0 22:19 26.06.2019
5807 Clear 26 1024 69 10000 1.5 40 21:42 26.06.2019
5808 Clear 28 1022 78 10000 2.1 80 21:21 26.06.2019
5809 Clear 29 1022 78 10000 2.1 80 20:57 26.06.2019
5810 Clear 31 1022 55 10000 2.1 280 20:37 26.06.2019
5811 Clear 31 1022 55 10000 2.1 280 20:18 26.06.2019
5812 Clear 32 1022 55 10000 2.1 280 19:42 26.06.2019
5813 Clear 32 1022 55 10000 2.1 280 19:23 26.06.2019
5814 Clear 32 1022 55 10000 2.1 280 18:45 26.06.2019
5815 Clear 32 1023 52 10000 2.6 280 18:22 26.06.2019
5816 Clear 32 1023 52 10000 3.1 270 17:57 26.06.2019
5817 Clear 33 1023 52 10000 3.1 270 17:29 26.06.2019
5818 -273 0 0 0 0 0 16:57 26.06.2019
5819 Clear 32 1023 52 10000 3.1 270 16:57 26.06.2019
5820 Clear 33 1025 38 10000 2.1 20 16:39 26.06.2019
5821 Clear 33 1024 55 10000 2.1 300 16:19 26.06.2019
5822 Clear 33 1024 55 10000 2.1 300 15:37 26.06.2019
5823 Clear 32 1024 55 10000 1.5 0 15:19 26.06.2019
5824 Clear 32 1024 55 10000 1.5 0 14:38 26.06.2019
5825 Clear 32 1024 48 10000 1.5 0 14:19 26.06.2019
5826 Clear 31 1024 54 10000 1.5 0 13:41 26.06.2019
5827 Clear 31 1025 58 10000 1.5 360 13:19 26.06.2019
5828 Clear 30 1025 58 10000 1.5 360 12:41 26.06.2019
5829 Clear 29 1025 61 10000 1.5 0 12:22 26.06.2019
5830 Clear 29 1025 61 10000 1.5 0 11:44 26.06.2019
5831 Clear 28 1025 73 10000 1.5 0 11:19 26.06.2019
5832 Clear 28 1025 73 10000 1.5 0 10:41 26.06.2019
5833 Clear 28 1025 78 10000 2.1 300 10:21 26.06.2019
5834 Clear 26 1025 83 10000 2.1 320 09:41 26.06.2019
5835 Clear 24 1024 78 10000 2.6 280 09:18 26.06.2019
5836 Clear 23 1024 78 10000 2.6 280 08:39 26.06.2019
5837 Clear 22 1024 83 10000 1 0 08:19 26.06.2019
5838 Clear 21 1024 83 10000 1 0 07:45 26.06.2019
5839 Clear 18 1023 93 10000 2.1 120 06:34 26.06.2019
5840 Clear 17 1023 93 10000 2.1 120 05:55 26.06.2019
5841 Clear 20 1022 88 10000 1 220 00:57 26.06.2019
5842 Clear 21 1022 88 10000 1 0 00:19 26.06.2019
5843 Clear 22 1021 83 10000 0.5 0 23:41 25.06.2019
5844 Clear 22 1021 78 10000 0.5 0 23:23 25.06.2019
5845 Clear 22 1021 83 10000 0.5 0 22:55 25.06.2019
5846 Clear 23 1021 83 10000 0.5 0 22:37 25.06.2019
5847 Clear 24 1021 78 10000 0.5 270 22:18 25.06.2019
5848 Clear 26 1023 78 10000 2.6 80 21:37 25.06.2019
5849 Clear 27 1021 78 10000 1.5 90 21:19 25.06.2019
5850 Clear 28 1023 74 10000 3.1 70 20:38 25.06.2019
5851 Clear 29 1021 74 10000 1 70 20:20 25.06.2019
5852 Clear 30 1021 43 10000 0.5 0 19:45 25.06.2019
5853 Clear 31 1021 43 10000 0.5 0 19:22 25.06.2019
5854 Clear 31 1021 33 10000 0.5 0 18:43 25.06.2019
5855 Clear 31 1021 33 10000 0.5 0 18:43 25.06.2019
5856 Clear 32 1021 33 10000 0.5 0 18:25 25.06.2019
5857 -273 0 0 0 0 0 17:52 25.06.2019
5858 -273 0 0 0 0 0 17:52 25.06.2019
5859 -273 0 0 0 0 0 17:52 25.06.2019
5860 -273 0 0 0 0 0 17:51 25.06.2019
5861 -273 0 0 0 0 0 17:29 25.06.2019
5862 -273 0 0 0 0 0 17:29 25.06.2019
5863 -273 0 0 0 0 0 17:29 25.06.2019
5864 Clear 32 1021 51 10000 1.5 280 16:57 25.06.2019
5865 Clear 32 1023 43 10000 1 0 16:38 25.06.2019
5866 Clear 32 1021 51 10000 1.5 280 16:19 25.06.2019
5867 Clear 31 1021 61 10000 3.1 280 15:40 25.06.2019
5868 Clear 31 1021 61 10000 3.1 280 15:21 25.06.2019
5869 Clear 30 1022 65 10000 3.1 290 14:53 25.06.2019
5870 Clear 30 1023 42 10000 3.1 350 14:33 25.06.2019
5871 Clear 30 1022 69 10000 2.1 320 13:45 25.06.2019
5872 Clear 30 1022 69 10000 2.1 320 13:26 25.06.2019
5873 Clear 29 1021 69 10000 1.5 300 12:43 25.06.2019
5874 Clear 27 1022 73 10000 2.1 320 12:24 25.06.2019
5875 Clear 27 1022 73 10000 2.1 320 11:48 25.06.2019
5876 Clear 27 1021 78 10000 2.6 290 11:26 25.06.2019
5877 Clear 27 1021 83 10000 3.1 290 10:59 25.06.2019
5878 Clear 27 1021 83 10000 3.1 290 10:38 25.06.2019
5879 Clear 26 1021 83 10000 3.1 290 10:19 25.06.2019
5880 Clear 24 1021 83 10000 3.1 280 09:40 25.06.2019
5881 Clear 22 1021 83 10000 2.6 280 09:22 25.06.2019
5882 Clear 21 1020 88 10000 1.5 280 08:59 25.06.2019
5883 Clear 20 1020 88 10000 2.1 280 08:31 25.06.2019
5884 Clear 19 1020 88 10000 2.1 280 07:52 25.06.2019
5885 Clear 18 1020 93 10000 1.5 280 07:31 25.06.2019
5886 Clear 16 1020 93 10000 1.5 280 06:51 25.06.2019
5887 Clear 16 1020 88 10000 2.6 270 06:24 25.06.2019
5888 Clear 17 1019 100 10000 0.5 0 02:44 25.06.2019
5889 Clear 18 1019 93 10000 0.5 0 01:19 25.06.2019
5890 Clear 20 1019 83 10000 1.59 141.042 00:28 25.06.2019
5891 Clear 20 1019 83 10000 1 0 23:52 24.06.2019
5892 Clear 21 1019 68 10000 3.1 10 23:33 24.06.2019
5893 Clear 20 1019 78 10000 1 250 22:56 24.06.2019
5894 Clear 21 1019 78 10000 1 250 22:37 24.06.2019
5895 Clear 21 1019 78 10000 1 220 22:18 24.06.2019
5896 Clear 23 1018 73 10000 1 0 21:38 24.06.2019
5897 Clear 24 1018 69 10000 1.5 280 21:18 24.06.2019
5898 Clear 25 1018 61 10000 2.1 280 20:43 24.06.2019
5899 Clear 26 1018 61 10000 2.1 280 20:23 24.06.2019
5900 Clear 26 1018 51 10000 2.6 270 19:59 24.06.2019
5901 Clear 26 1018 51 10000 2.6 270 19:59 24.06.2019
5902 Clear 26 1018 51 10000 2.6 270 19:40 24.06.2019
5903 Clear 28 1018 51 10000 2.6 270 19:21 24.06.2019
5904 Clear 28 1018 51 10000 2.1 280 18:42 24.06.2019
5905 Clear 28 1018 51 10000 2.1 280 18:23 24.06.2019
5906 Clear 29 1018 48 10000 2.6 280 17:37 24.06.2019
5907 Clear 29 1021 54 10000 4.1 70 17:37 24.06.2019
5908 Clear 29 1018 48 10000 2.6 280 17:18 24.06.2019
5909 Clear 29 1019 61 10000 3.1 280 16:45 24.06.2019
5910 Clear 29 1019 61 10000 3.1 280 16:20 24.06.2019
5911 Clear 28 1019 65 10000 3.1 280 15:44 24.06.2019
5912 Clear 28 1019 65 10000 3.1 280 15:44 24.06.2019
5913 Clear 28 1019 65 10000 3.1 280 15:25 24.06.2019
5914 Clear 27 1019 65 10000 3.1 290 14:39 24.06.2019
5915 Clear 27 1019 65 10000 3.1 290 14:20 24.06.2019
5916 Clear 27 1021 61 10000 4.6 50 13:35 24.06.2019
5917 Clear 27 1020 73 10000 3.6 280 12:59 24.06.2019
5918 Clear 26 1020 73 10000 3.6 280 12:41 24.06.2019
5919 Clear 25 1020 77 10000 3.1 290 12:20 24.06.2019
5920 Clear 24 1020 83 10000 3.1 290 11:45 24.06.2019
5921 Clear 24 1020 83 10000 3.1 290 11:27 24.06.2019
5922 Clear 25 1020 88 10000 2.6 280 10:53 24.06.2019
5923 Clear 24 1021 73 10000 3.1 40 10:34 24.06.2019
5924 Clear 23 1020 88 10000 1 0 09:56 24.06.2019
5925 Fog 22 1020 88 10000 1 0 09:38 24.06.2019
5926 Fog 20 1020 88 10000 1.5 300 09:18 24.06.2019
5927 Fog 18 1022 100 9000 0.5 300 08:36 24.06.2019
5928 Fog 18 1021 100 800 1 240 07:50 24.06.2019
5929 Clear 16 1020 100 10000 1 0 07:27 24.06.2019
5930 Clear 15 1020 100 10000 1 0 06:57 24.06.2019
5931 Mist 15 1020 100 10000 0.5 0 06:23 24.06.2019
5932 Fog 15 1021 100 200 2.1 210 05:31 24.06.2019
5933 Clouds 14 1019 93 10000 2.6 40 04:35 24.06.2019
5934 Clouds 15 1020 93 10000 0.5 0 03:44 24.06.2019
5935 Clouds 16 1019 88 10000 1 10 02:35 24.06.2019
5936 Clear 16 1019 88 10000 1 130 01:54 24.06.2019
5937 Clear 16 1019 93 10000 1 200 01:28 24.06.2019
5938 Clear 17 1019 93 10000 1 220 00:46 24.06.2019
5939 Clear 17 1019 88 10000 1 220 00:20 24.06.2019
5940 Clear 18 1018 88 10000 0.5 0 23:47 23.06.2019
5941 Clear 18 1018 88 10000 1.5 0 23:28 23.06.2019
5942 Clear 18 1018 82 10000 1 0 22:56 23.06.2019
5943 Clear 18 1018 82 10000 1 0 22:38 23.06.2019
5944 Clear 19 1018 82 10000 1 0 22:19 23.06.2019
5945 Clear 20 1020 88 10000 4.1 60 21:40 23.06.2019
5946 Clear 21 1017 64 10000 1 0 21:21 23.06.2019
5947 Clear 21 1017 69 10000 2.6 270 20:49 23.06.2019
5948 Clear 22 1017 69 10000 2.6 270 20:29 23.06.2019
5949 Clouds 22 1017 64 10000 3.6 270 19:46 23.06.2019
5950 Clouds 22 1017 64 10000 3.6 270 19:46 23.06.2019
5951 Clouds 23 1017 64 10000 3.6 270 19:22 23.06.2019
5952 Clouds 23 1017 64 10000 3.6 280 18:54 23.06.2019
5953 Clear 24 1017 64 10000 3.6 280 18:25 23.06.2019
5954 Clouds 24 1017 60 10000 3.1 270 17:54 23.06.2019
5955 Clouds 24 1017 60 10000 3.1 270 17:28 23.06.2019
5956 Clouds 24 1018 69 10000 3.1 260 16:59 23.06.2019
5957 Clear 24 1018 64 10000 3.1 280 16:41 23.06.2019
5958 Clear 23 1018 64 10000 3.1 280 16:22 23.06.2019
5959 Clouds 23 1018 64 10000 2.1 280 15:41 23.06.2019
5960 Clouds 23 1018 64 10000 2.1 280 15:22 23.06.2019
5961 Clouds 22 1018 68 10000 3.1 320 14:42 23.06.2019
5962 Clear 21 1018 68 10000 1.5 0 14:24 23.06.2019
5963 Clouds 22 1018 68 10000 1.5 0 13:59 23.06.2019
5964 Clouds 21 1018 68 10000 1.5 0 13:40 23.06.2019
5965 Clouds 22 1018 77 10000 2.6 50 13:19 23.06.2019
5966 Clouds 22 1018 77 10000 2.6 50 13:19 23.06.2019
5967 Clouds 22 1018 77 10000 2.6 50 13:19 23.06.2019
5968 Clouds 21 1018 77 10000 2.6 50 12:46 23.06.2019
5969 Mist 20 1018 77 10000 2.6 360 12:23 23.06.2019
5970 Clouds 19 1018 77 10000 2.6 360 11:57 23.06.2019
5971 Clouds 19 1019 88 10000 1.5 0 11:38 23.06.2019
5972 Clouds 19 1018 88 10000 1 0 11:19 23.06.2019
5973 Clouds 18 1018 88 10000 1 0 10:44 23.06.2019
5974 Clouds 18 1018 88 10000 1 0 10:19 23.06.2019
5975 Clouds 17 1018 88 10000 1.5 0 09:42 23.06.2019
5976 Clouds 17 1018 88 10000 2.1 330 09:21 23.06.2019
5977 Mist 16 1018 88 10000 0.5 0 08:45 23.06.2019
5978 Mist 16 1018 93 10000 0.5 0 08:27 23.06.2019
5979 Drizzle 16 1018 100 10000 1 0 07:54 23.06.2019
5980 Drizzle 16 1018 100 10000 0.5 0 07:21 23.06.2019
5981 Drizzle 15 1018 100 10000 1 200 06:54 23.06.2019
5982 Clouds 15 1017 100 10000 1 40 05:55 23.06.2019
5983 Clouds 15 1017 100 10000 0.5 0 04:38 23.06.2019
5984 Clouds 15 1017 93 10000 1.5 270 01:57 23.06.2019
5985 Clouds 15 1017 88 10000 2.6 300 01:36 23.06.2019
5986 Clouds 16 1017 88 10000 0.5 0 00:36 23.06.2019
5987 Clouds 16 1017 88 10000 1 0 23:55 22.06.2019
5988 Clouds 16 1017 88 10000 1 0 23:55 22.06.2019
5989 Clouds 16 1017 100 10000 1.5 0 23:37 22.06.2019
5990 Clouds 15 1017 100 10000 1.5 0 23:18 22.06.2019
5991 Clouds 16 1017 93 10000 0.5 0 22:38 22.06.2019
5992 Clouds 16 1016 93 10000 1 0 22:19 22.06.2019
5993 Rain 16 1016 93 10000 1 0 21:37 22.06.2019
5994 Rain 16 1016 88 10000 1 0 21:19 22.06.2019
5995 Rain 16 1016 88 10000 1 0 20:50 22.06.2019
5996 Rain 17 1016 88 10000 1 0 20:25 22.06.2019
5997 Rain 17 1016 88 10000 1 0 19:47 22.06.2019
5998 Thunderstorm 17 1016 77 10000 4.6 310 19:23 22.06.2019
5999 Thunderstorm 18 1016 77 10000 4.6 310 18:48 22.06.2019
6000 Thunderstorm 18 1016 83 10000 4.1 320 18:30 22.06.2019
6001 Thunderstorm 20 1016 82 10000 3.6 330 17:56 22.06.2019
6002 Clouds 20 1016 83 10000 3.6 340 17:34 22.06.2019
6003 Clouds 21 1016 83 10000 3.6 340 16:51 22.06.2019
6004 Clouds 21 1016 88 10000 3.1 320 16:25 22.06.2019
6005 Clouds 20 1016 88 10000 3.1 320 15:56 22.06.2019
6006 Clouds 20 1016 88 10000 3.1 320 15:37 22.06.2019
6007 Clouds 20 1017 88 10000 3.1 300 15:19 22.06.2019
6008 Clouds 20 1016 60 10000 2.1 60 14:35 22.06.2019
6009 Rain 19 1017 88 10000 2.1 290 14:00 22.06.2019
6010 Rain 20 1017 88 10000 2.1 290 13:41 22.06.2019
6011 Clouds 20 1017 88 10000 2.1 290 13:21 22.06.2019
6012 Clouds 20 1017 88 10000 2.1 280 12:50 22.06.2019
6013 Rain 19 1017 93 10000 1.5 0 12:32 22.06.2019
6014 Rain 19 1017 93 10000 1.5 0 11:58 22.06.2019
6015 Clouds 18 1017 88 10000 1.5 290 11:32 22.06.2019
6016 Clouds 18 1017 88 10000 1.5 290 10:49 22.06.2019
6017 Clouds 18 1017 88 10000 1 0 10:21 22.06.2019
6018 Clouds 17 1017 88 10000 1 0 09:46 22.06.2019
6019 Clouds 17 1017 93 10000 1 0 09:22 22.06.2019
6020 Clouds 17 1017 93 10000 1 0 08:42 22.06.2019
6021 Clouds 16 1017 100 10000 1 0 08:20 22.06.2019
6022 Clouds 15 1017 100 8000 0.5 0 07:30 22.06.2019
6023 Clear 15 1017 100 10000 1 0 06:47 22.06.2019
6024 Clouds 15 1017 100 6000 1 110 04:53 22.06.2019
6025 Rain 16 1018 100 4400 1 190 02:33 22.06.2019
6026 Rain 15 1018 88 10000 1 0 01:18 22.06.2019
6027 Clouds 16 1018 88 10000 1.5 0 00:38 22.06.2019
6028 Clouds 16 1018 93 10000 1 240 23:59 21.06.2019
6029 Rain 16 1018 72 10000 2.6 10 23:39 21.06.2019
6030 Rain 16 1018 88 10000 0.5 0 23:19 21.06.2019
6031 Rain 16 1018 88 10000 0.5 0 23:19 21.06.2019
6032 Rain 17 1018 77 10000 3.1 10 22:43 21.06.2019
6033 Clear 17 1018 82 10000 1 0 22:23 21.06.2019
6034 Clear 17 1019 88 10000 2.1 130 21:40 21.06.2019
6035 Rain 18 1018 82 10000 1 0 21:22 21.06.2019
6036 Clouds 18 1018 77 10000 2.1 20 20:53 21.06.2019
6037 Clouds 18 1017 73 10000 2.6 20 20:27 21.06.2019
6038 Rain 19 1017 68 10000 2.1 360 19:58 21.06.2019
6039 Rain 19 1017 68 10000 0.5 0 19:30 21.06.2019
6040 Rain 19 1017 68 10000 2.1 280 18:46 21.06.2019
6041 Clouds 19 1017 68 10000 2.1 280 18:28 21.06.2019
6042 Clouds 20 1018 77 10000 2.6 280 17:45 21.06.2019
6043 Clouds 20 1018 77 10000 2.6 280 17:27 21.06.2019
6044 Clouds 21 1017 68 10000 1.5 260 16:38 21.06.2019
6045 Clouds 21 1017 68 10000 1.5 260 16:19 21.06.2019
6046 Clouds 21 1018 68 10000 1.5 260 15:39 21.06.2019
6047 Clouds 21 1018 68 10000 1.5 260 15:19 21.06.2019
6048 Clouds 21 1018 68 10000 2.1 250 14:45 21.06.2019
6049 Clouds 21 1018 73 10000 2.1 260 14:25 21.06.2019
6050 Clouds 22 1018 73 10000 2.1 260 13:44 21.06.2019
6051 Clouds 21 1018 73 10000 2.1 270 13:25 21.06.2019
6052 Clouds 21 1018 77 10000 3.1 280 12:54 21.06.2019
6053 Clouds 21 1018 72 10000 3.1 290 12:23 21.06.2019
6054 Clouds 21 1018 88 10000 3.1 290 11:59 21.06.2019
6055 Clouds 20 1018 88 10000 3.1 290 11:40 21.06.2019
6056 Clouds 20 1018 88 10000 1.5 340 11:22 21.06.2019
6057 Clouds 20 1018 88 10000 1.5 340 10:47 21.06.2019
6058 Clouds 21 1018 82 10000 2.6 360 10:21 21.06.2019
6059 Clouds 20 1018 82 10000 2.6 360 10:21 21.06.2019
6060 Clouds 20 1018 88 10000 2.1 20 09:55 21.06.2019
6061 Clouds 18 1019 88 10000 2.1 40 09:36 21.06.2019
6062 Clear 18 1018 93 10000 1 0 09:18 21.06.2019
6063 Clear 17 1018 93 10000 1 0 08:41 21.06.2019
6064 Clear 17 1018 93 10000 0.4 6.136 08:20 21.06.2019
6065 Clear 16 1018 93 10000 0.4 6.136 07:46 21.06.2019
6066 Clear 15 1017 93 10000 1 0 07:23 21.06.2019
6067 Clear 14 1017 93 10000 1 0 06:38 21.06.2019
6068 Clear 14 1018 100 10000 1 0 06:18 21.06.2019
6069 Clouds 14 1017 100 10000 0.5 110 04:57 21.06.2019
6070 Clouds 14 1017 93 10000 0.5 0 03:53 21.06.2019
6071 Clouds 15 1018 93 10000 0.5 0 03:32 21.06.2019
6072 Clouds 14 1017 100 10000 0.5 0 02:44 21.06.2019
6073 Clear 15 1018 93 10000 1.5 230 01:33 21.06.2019
6074 Clear 15 1017 93 10000 1.5 0 00:48 21.06.2019
6075 Clear 15 1017 88 10000 2.1 0 23:59 20.06.2019
6076 Clear 15 1017 88 10000 2.1 0 23:41 20.06.2019
6077 Clouds 15 1017 93 10000 1 0 23:21 20.06.2019
6078 Clouds 16 1017 93 10000 1 0 22:46 20.06.2019
6079 Clouds 16 1016 93 8000 1 210 22:24 20.06.2019
6080 Clouds 17 1016 93 10000 0.5 0 21:57 20.06.2019
6081 Clouds 17 1016 93 10000 0.5 0 21:38 20.06.2019
6082 Clouds 18 1016 93 10000 0.5 0 21:19 20.06.2019
6083 Thunderstorm 19 1016 82 10000 1 240 20:44 20.06.2019
6084 Thunderstorm 19 1016 82 10000 1 240 20:25 20.06.2019
6085 Thunderstorm 19 1016 82 10000 1 240 20:25 20.06.2019
6086 Clouds 19 1015 82 10000 2.6 290 19:55 20.06.2019
6087 Clear 20 1016 77 10000 2.1 220 19:36 20.06.2019
6088 Clear 20 1015 68 10000 2.6 20 19:18 20.06.2019
6089 Clear 20 1015 68 10000 2.6 20 18:41 20.06.2019
6090 Clear 20 1015 68 10000 3.1 10 18:21 20.06.2019
6091 Clear 20 1015 73 10000 3.6 20 17:49 20.06.2019
6092 Clouds 19 1015 82 10000 2.1 60 17:31 20.06.2019
6093 Clouds 19 1015 82 10000 2.1 60 16:47 20.06.2019
6094 Rain 19 1016 77 10000 2.6 70 16:20 20.06.2019
6095 Rain 18 1016 68 10000 2.1 0 15:58 20.06.2019
6096 Rain 19 1016 68 10000 2.1 0 15:40 20.06.2019
6097 Rain 18 1017 82 10000 1.5 350 15:21 20.06.2019
6098 Rain 19 1017 77 10000 3.1 280 14:44 20.06.2019
6099 Rain 18 1017 88 10000 2.1 260 14:22 20.06.2019
6100 Clouds 19 1016 82 10000 2.6 290 13:41 20.06.2019
6101 Clouds 19 1016 82 10000 2.6 290 13:20 20.06.2019
6102 Clouds 20 1015 77 10000 3.1 270 12:47 20.06.2019
6103 Clouds 20 1015 77 10000 3.1 270 12:23 20.06.2019
6104 Clouds 21 1015 68 10000 4.1 310 11:48 20.06.2019
6105 Clouds 20 1015 68 10000 4.1 310 11:29 20.06.2019
6106 Clear 20 1015 68 10000 2.1 350 10:57 20.06.2019
6107 Clear 20 1015 68 10000 2.1 350 10:39 20.06.2019
6108 Clear 20 1015 68 10000 1.5 0 10:20 20.06.2019
6109 Clear 19 1014 73 10000 2.1 80 09:40 20.06.2019
6110 Clear 18 1014 73 10000 2.1 80 09:21 20.06.2019
6111 Rain 18 1015 88 10000 1.5 80 08:46 20.06.2019
6112 Thunderstorm 18 1015 88 10000 1.5 80 08:27 20.06.2019
6113 Thunderstorm 16 1015 93 10000 1.5 60 07:53 20.06.2019
6114 Clouds 16 1015 93 10000 1.5 60 07:28 20.06.2019
6115 Clouds 15 1014 93 10000 2.1 120 06:28 20.06.2019
6116 Clouds 15 1013 93 10000 1.5 250 04:54 20.06.2019
6117 Rain 16 1014 93 10000 1.5 0 02:55 20.06.2019
6118 Rain 17 1014 82 10000 4.6 130 00:34 20.06.2019
6119 Thunderstorm 18 1014 72 10000 7.2 200 23:58 19.06.2019
6120 Thunderstorm 19 1014 72 10000 7.2 200 23:39 19.06.2019
6121 Thunderstorm 19 1012 56 10000 6.7 180 23:21 19.06.2019
6122 Thunderstorm 19 1011 60 10000 1 0 22:45 19.06.2019
6123 Clouds 20 1011 53 10000 2.6 200 22:18 19.06.2019
6124 Clear 20 1010 73 10000 2.1 210 21:46 19.06.2019
6125 Clear 23 1010 64 10000 1 210 21:25 19.06.2019
6126 Clear 25 1010 61 10000 0.5 0 20:43 19.06.2019
6127 Clear 26 1010 51 10000 0.5 0 20:22 19.06.2019
6128 Clear 26 1010 51 10000 0.5 0 20:22 19.06.2019
6129 Clear 27 1010 47 10000 1 110 19:58 19.06.2019
6130 Clear 26 1010 47 10000 1 110 19:39 19.06.2019
6131 Clear 27 1010 47 10000 1 0 19:20 19.06.2019
6132 Clouds 27 1010 37 10000 1 0 18:47 19.06.2019
6133 Clear 28 1010 30 10000 1 0 18:20 19.06.2019
6134 Clear 28 1011 34 10000 1 0 17:37 19.06.2019
6135 Clear 28 1012 44 10000 2.1 340 16:59 19.06.2019
6136 -273 0 0 0 0 0 16:39 19.06.2019
6137 Clear 28 1012 44 10000 2.1 340 16:21 19.06.2019
6138 Clear 28 1012 50 10000 2.6 270 15:48 19.06.2019
6139 Clear 28 1012 50 10000 2.6 270 15:27 19.06.2019
6140 Clear 27 1012 53 10000 1.5 0 14:50 19.06.2019
6141 Clear 28 1012 41 10000 1.5 0 14:31 19.06.2019
6142 Clear 27 1013 50 10000 1 0 13:59 19.06.2019
6143 Clear 27 1013 50 10000 1 0 13:40 19.06.2019
6144 Clear 27 1013 50 10000 1 0 13:21 19.06.2019
6145 Clear 26 1014 44 10000 3.6 230 12:44 19.06.2019
6146 Clear 25 1013 57 10000 1 0 12:21 19.06.2019
6147 Clear 25 1013 64 10000 3.1 290 11:45 19.06.2019
6148 Haze 24 1013 68 10000 3.1 290 11:25 19.06.2019
6149 Clear 25 1013 72 10000 3.1 290 10:58 19.06.2019
6150 Clear 24 1013 72 10000 3.1 290 10:40 19.06.2019
6151 Clear 24 1013 77 10000 3.1 290 10:22 19.06.2019
6152 Clear 22 1013 82 10000 3.1 270 09:39 19.06.2019
6153 Clear 20 1013 82 10000 3.1 270 09:19 19.06.2019
6154 Clear 19 1013 82 10000 3.1 290 08:48 19.06.2019
6155 Clear 18 1013 82 10000 3.1 290 08:28 19.06.2019
6156 Clear 17 1014 88 10000 3.6 280 07:47 19.06.2019
6157 Clear 16 1013 88 10000 2.1 250 07:23 19.06.2019
6158 Clear 15 1013 88 10000 2.1 250 06:52 19.06.2019
6159 Clouds 15 1013 88 10000 2.6 270 06:26 19.06.2019
6160 Clouds 15 1013 77 10000 2.6 0 05:49 19.06.2019
6161 Clear 16 1013 82 10000 1.5 0 04:19 19.06.2019
6162 Clear 16 1014 82 10000 1 0 03:30 19.06.2019
6163 Clear 16 1015 77 10000 2.1 0 01:53 19.06.2019
6164 Clear 16 1015 72 10000 1.5 310 01:18 19.06.2019
6165 Rain 16 1015 77 10000 2.1 0 00:43 19.06.2019
6166 Rain 17 1016 72 10000 2.6 40 00:20 19.06.2019
6167 Rain 17 1017 93 10000 4.6 150 23:52 18.06.2019
6168 Rain 17 1017 93 10000 4.6 240 23:27 18.06.2019
6169 Thunderstorm 17 1016 82 10000 9.3 210 22:46 18.06.2019
6170 Rain 18 1015 77 10000 4.1 130 22:24 18.06.2019
6171 Rain 18 1016 64 10000 1.5 210 21:57 18.06.2019
6172 Rain 18 1016 64 10000 1.5 210 21:38 18.06.2019
6173 Rain 20 1015 68 7000 4.1 240 21:20 18.06.2019
6174 Rain 23 1015 68 7000 4.1 240 20:43 18.06.2019
6175 Thunderstorm 23 1015 50 10000 2.6 240 20:25 18.06.2019
6176 Clouds 24 1014 47 10000 2.1 260 19:42 18.06.2019
6177 Clouds 25 1013 39 10000 2.6 260 19:23 18.06.2019
6178 Clouds 25 1013 39 10000 2.6 260 18:59 18.06.2019
6179 Clear 27 1015 47 10000 1.5 0 18:38 18.06.2019
6180 Clouds 27 1014 44 10000 3.1 270 18:20 18.06.2019
6181 Clouds 27 1014 44 10000 3.1 270 17:39 18.06.2019
6182 Clouds 27 1014 44 10000 3.1 270 17:39 18.06.2019
6183 Clouds 27 1014 36 10000 1 0 17:19 18.06.2019
6184 Clouds 27 1014 36 10000 1 0 16:43 18.06.2019
6185 Clouds 27 1015 24 10000 1.5 310 16:24 18.06.2019
6186 Clouds 27 1015 50 10000 2.6 270 15:43 18.06.2019
6187 Clouds 27 1015 61 10000 2.6 290 15:24 18.06.2019
6188 Clouds 27 1015 54 10000 1.5 310 14:58 18.06.2019
6189 Clouds 27 1015 54 10000 1.5 310 14:58 18.06.2019
6190 Clouds 27 1015 54 10000 1.5 310 14:40 18.06.2019
6191 Clouds 27 1016 57 10000 1 0 14:20 18.06.2019
6192 Clouds 26 1016 64 10000 2.1 320 13:52 18.06.2019
6193 Clouds 25 1016 64 10000 2.1 320 13:31 18.06.2019
6194 Clear 25 1016 69 10000 2.6 310 12:48 18.06.2019
6195 Clear 23 1017 68 10000 1.5 0 12:29 18.06.2019
6196 Clear 23 1017 68 10000 1.5 0 11:58 18.06.2019
6197 Clear 22 1017 68 10000 1.5 0 11:39 18.06.2019
6198 Clear 22 1017 82 10000 2.1 320 11:20 18.06.2019
6199 Clear 23 1017 82 10000 2.1 320 10:43 18.06.2019
6200 Clear 22 1017 82 10000 2.1 310 10:23 18.06.2019
6201 Clear 22 1017 82 10000 2.1 300 09:54 18.06.2019
6202 Clear 19 1017 88 10000 1.5 0 09:25 18.06.2019
6203 Clear 18 1017 88 10000 1.5 0 08:59 18.06.2019
6204 Clear 18 1017 88 10000 1.5 0 08:39 18.06.2019
6205 Clear 17 1017 100 10000 0.6 128.349 08:21 18.06.2019
6206 Clear 15 1017 100 10000 1 100 07:27 18.06.2019
6207 Clear 14 1017 100 10000 1 100 06:59 18.06.2019
6208 Clear 13 1017 100 10000 1.5 110 05:38 18.06.2019
6209 Clear 13 1017 100 10000 1 0 04:23 18.06.2019
6210 Rain 15 1017 93 10000 1 0 02:51 18.06.2019
6211 Rain 15 1017 93 10000 1.5 110 01:49 18.06.2019
6212 Rain 16 1017 88 10000 1 0 01:24 18.06.2019
6213 Clear 16 1017 93 10000 0.5 0 00:40 18.06.2019
6214 Clear 17 1017 88 10000 0.5 0 00:22 18.06.2019
6215 Clear 18 1017 82 10000 1.5 0 23:39 17.06.2019
6216 Clear 18 1017 82 10000 1.5 0 23:19 17.06.2019
6217 Clear 18 1017 82 10000 1.5 0 23:19 17.06.2019
6218 Clear 19 1018 82 10000 3.1 50 22:41 17.06.2019
6219 Clear 19 1016 82 10000 1 0 22:21 17.06.2019
6220 Clear 19 1016 82 10000 1 0 22:21 17.06.2019
6221 Clear 19 1016 82 10000 1 250 21:56 17.06.2019
6222 Clear 21 1018 77 10000 3.6 50 21:38 17.06.2019
6223 Clear 22 1018 72 10000 4.1 50 21:18 17.06.2019
6224 Clear 22 1016 64 10000 3.1 280 20:36 17.06.2019
6225 Clear 23 1016 64 10000 3.1 280 20:18 17.06.2019
6226 Clear 23 1016 69 10000 3.1 280 19:41 17.06.2019
6227 Clear 23 1016 64 10000 4.1 280 19:22 17.06.2019
6228 Clear 22 1016 64 10000 4.1 270 18:57 17.06.2019
6229 Clear 24 1017 60 10000 4.1 280 18:36 17.06.2019
6230 Clear 24 1017 60 10000 4.1 280 18:18 17.06.2019
6231 Clear 24 1017 57 10000 5.1 280 17:42 17.06.2019
6232 Clear 24 1017 64 10000 4.1 280 17:24 17.06.2019
6233 Clear 25 1017 64 10000 4.1 280 16:45 17.06.2019
6234 Clear 24 1017 64 10000 4.1 280 16:27 17.06.2019
6235 Clear 24 1017 60 10000 4.6 280 15:56 17.06.2019
6236 Clear 24 1018 64 10000 4.6 280 15:37 17.06.2019
6237 Clouds 24 1019 64 10000 5.7 60 15:18 17.06.2019
6238 Clear 24 1018 64 10000 4.6 280 15:18 17.06.2019
6239 Clear 23 1018 64 10000 4.6 280 14:47 17.06.2019
6240 Clear 23 1018 64 10000 4.6 280 14:26 17.06.2019
6241 Clear 23 1018 68 10000 4.6 280 13:49 17.06.2019
6242 Clear 22 1018 68 10000 3.1 270 13:23 17.06.2019
6243 Clear 22 1018 68 10000 3.1 270 12:51 17.06.2019
6244 Clear 21 1019 68 10000 3.1 280 12:31 17.06.2019
6245 Clouds 20 1020 72 10000 5.1 40 11:49 17.06.2019
6246 Clouds 19 1019 68 10000 1.5 0 11:26 17.06.2019
6247 Clouds 19 1020 82 10000 1.5 0 10:58 17.06.2019
6248 Clouds 19 1020 82 10000 1.5 0 10:40 17.06.2019
6249 Clouds 18 1020 82 10000 1.5 0 10:21 17.06.2019
6250 Clouds 17 1020 77 10000 2.1 350 09:51 17.06.2019
6251 Clouds 16 1021 87 10000 5.1 80 09:28 17.06.2019
6252 Mist 15 1020 87 10000 1.5 70 08:41 17.06.2019
6253 Fog 14 1021 93 10000 2.1 90 08:23 17.06.2019
6254 Fog 14 1021 93 10000 2.1 90 07:46 17.06.2019
6255 Fog 13 1021 93 10000 2.1 90 07:46 17.06.2019
6256 Fog 13 1021 93 10000 2.1 90 07:27 17.06.2019
6257 Fog 12 1021 100 10000 0.5 0 06:42 17.06.2019
6258 Clear 11 1021 87 10000 2.6 30 05:49 17.06.2019
6259 Clear 11 1021 100 10000 1 0 04:42 17.06.2019
6260 Clear 12 1021 100 10000 1 170 03:49 17.06.2019
6261 Clear 12 1021 100 10000 0.5 0 02:59 17.06.2019
6262 Clear 13 1021 93 10000 0.5 0 02:41 17.06.2019
6263 Clear 12 1021 93 10000 1 0 01:55 17.06.2019
6264 Clear 13 1021 93 10000 1 0 01:33 17.06.2019
6265 Clear 14 1021 93 10000 0.5 0 00:44 17.06.2019
6266 Clear 14 1021 93 10000 0.5 0 00:44 17.06.2019
6267 Clear 14 1022 93 10000 1 220 00:22 17.06.2019
6268 Clear 14 1022 93 10000 1 0 23:43 16.06.2019
6269 Clouds 14 1022 62 10000 3.6 20 23:23 16.06.2019
6270 Clear 14 1022 93 10000 1.5 220 22:57 16.06.2019
6271 Clouds 15 1022 87 10000 1 210 22:39 16.06.2019
6272 Clouds 15 1022 87 10000 1 250 22:18 16.06.2019
6273 Clouds 16 1022 87 10000 1 250 21:55 16.06.2019
6274 Clear 17 1022 72 10000 0.5 0 21:37 16.06.2019
6275 Clouds 17 1021 54 10000 3.6 350 21:19 16.06.2019
6276 Clear 18 1022 64 10000 1.5 310 20:37 16.06.2019
6277 Clear 19 1022 64 10000 1 0 20:19 16.06.2019
6278 Clear 19 1022 64 10000 1 0 19:43 16.06.2019
6279 Clear 19 1022 64 10000 1 0 19:22 16.06.2019
6280 Clear 19 1022 60 10000 1 0 18:59 16.06.2019
6281 Clear 19 1022 60 10000 1 0 18:41 16.06.2019
6282 Clear 19 1022 64 10000 2.6 310 18:20 16.06.2019
6283 Clear 19 1022 64 10000 2.6 310 18:20 16.06.2019
6284 Clouds 19 1022 60 10000 2.1 330 17:48 16.06.2019
6285 Clouds 19 1022 60 10000 2.1 330 17:24 16.06.2019
6286 Clouds 19 1022 60 10000 2.1 330 17:24 16.06.2019
6287 Clouds 19 1022 60 10000 2.1 330 16:57 16.06.2019
6288 Clouds 19 1022 60 10000 2.1 330 16:57 16.06.2019
6289 Clouds 19 1022 68 10000 2.1 340 16:39 16.06.2019
6290 Clouds 19 1022 68 10000 2.1 340 16:21 16.06.2019
6291 Clouds 19 1022 72 10000 2.1 10 15:45 16.06.2019
6292 Clouds 19 1022 72 10000 2.1 10 15:26 16.06.2019
6293 Clouds 19 1022 72 10000 2.1 10 14:56 16.06.2019
6294 Clouds 18 1023 72 10000 1.5 0 14:36 16.06.2019
6295 Clouds 18 1023 77 10000 1.5 310 14:18 16.06.2019
6296 Clouds 19 1023 77 10000 1.5 310 13:44 16.06.2019
6297 Clouds 18 1023 77 10000 1.5 310 13:24 16.06.2019
6298 Clouds 17 1023 87 10000 2.6 310 12:43 16.06.2019
6299 Clouds 16 1023 87 10000 2.6 310 12:21 16.06.2019
6300 Clouds 16 1023 87 10000 2.6 310 11:54 16.06.2019
6301 Rain 16 1023 87 10000 4.1 320 11:36 16.06.2019
6302 Clouds 16 1023 82 10000 1 0 11:18 16.06.2019
6303 Clouds 16 1023 82 10000 1 0 10:43 16.06.2019
6304 Clouds 15 1022 82 10000 1 0 10:19 16.06.2019
6305 Clouds 15 1022 87 10000 1.5 40 09:42 16.06.2019
6306 Clouds 15 1022 87 10000 1.5 40 09:23 16.06.2019
6307 Clouds 14 1022 93 10000 2.6 60 08:45 16.06.2019
6308 Clouds 14 1022 93 10000 2.6 60 08:20 16.06.2019
6309 Clouds 13 1022 100 10000 1.5 0 07:44 16.06.2019
6310 Clouds 13 1022 100 10000 1.5 0 07:26 16.06.2019
6311 Clouds 13 1021 100 10000 0.5 0 06:50 16.06.2019
6312 Clouds 13 1021 100 10000 1 170 05:53 16.06.2019
6313 Clear 13 1019 82 10000 2.6 30 05:19 16.06.2019
6314 Drizzle 13 1021 100 10000 0.5 0 04:00 16.06.2019
6315 Clouds 13 1021 100 10000 0.5 0 03:33 16.06.2019
6316 Rain 13 1021 93 10000 1.5 250 02:48 16.06.2019
6317 Clear 13 1019 76 10000 2.1 20 01:47 16.06.2019
6318 Clear 13 1019 76 10000 2.1 20 01:28 16.06.2019
6319 Clouds 13 1020 100 10000 1 0 00:42 16.06.2019
6320 Rain 13 1020 100 10000 1 0 00:23 16.06.2019
6321 Rain 13 1021 93 10000 0.5 0 23:55 15.06.2019
6322 Rain 14 1020 93 10000 6.2 300 23:36 15.06.2019
6323 Rain 14 1019 87 10000 7.7 280 23:18 15.06.2019
6324 Thunderstorm 15 1018 87 10000 8.7 270 22:41 15.06.2019
6325 Rain 15 1017 77 10000 2.1 20 22:22 15.06.2019
6326 Rain 17 1015 68 10000 2.1 270 21:42 15.06.2019
6327 Rain 18 1015 68 10000 2.1 270 21:20 15.06.2019
6328 Clouds 19 1016 49 10000 3.6 150 20:43 15.06.2019
6329 Clouds 19 1015 56 10000 1.5 0 20:22 15.06.2019
6330 Clouds 20 1015 56 10000 1.5 0 19:46 15.06.2019
6331 Clouds 21 1015 56 10000 1.5 0 19:25 15.06.2019
6332 Clouds 21 1015 56 10000 1 0 18:42 15.06.2019
6333 Clouds 22 1015 56 10000 1 0 18:23 15.06.2019
6334 Clouds 22 1016 60 10000 2.6 40 17:44 15.06.2019
6335 Clouds 21 1016 60 10000 2.6 40 17:25 15.06.2019
6336 Clouds 21 1016 60 10000 2.6 40 16:49 15.06.2019
6337 Clouds 21 1017 68 10000 0.5 0 16:20 15.06.2019
6338 Clouds 21 1017 68 10000 1.5 0 15:45 15.06.2019
6339 Clouds 21 1017 68 10000 1.5 0 15:24 15.06.2019
6340 Clouds 21 1017 68 10000 1.5 0 14:54 15.06.2019
6341 Clouds 21 1017 68 10000 1.5 0 14:36 15.06.2019
6342 Clouds 21 1017 72 10000 3.1 340 14:18 15.06.2019
6343 Clear 21 1017 72 10000 3.6 320 13:42 15.06.2019
6344 Clear 21 1017 72 10000 3.6 320 13:19 15.06.2019
6345 Clear 21 1017 72 10000 3.6 320 12:52 15.06.2019
6346 Clear 20 1017 72 10000 3.6 320 12:26 15.06.2019
6347 Clouds 20 1017 72 10000 2.1 360 11:54 15.06.2019
6348 Clear 20 1017 72 10000 2.1 320 11:34 15.06.2019
6349 Clear 21 1017 72 10000 2.1 320 10:55 15.06.2019
6350 Clear 20 1016 77 10000 2.1 290 10:37 15.06.2019
6351 Clear 20 1016 64 10000 7.2 230 10:18 15.06.2019
6352 Clouds 20 1016 77 10000 4.1 310 09:43 15.06.2019
6353 Clear 19 1015 82 10000 1.5 0 09:21 15.06.2019
6354 Clear 18 1015 82 10000 1.5 0 08:48 15.06.2019
6355 Clear 18 1015 82 10000 1.5 0 08:29 15.06.2019
6356 Clouds 18 1014 77 10000 3.6 300 07:49 15.06.2019
6357 Clouds 18 1014 77 10000 3.6 300 07:22 15.06.2019
6358 Clear 18 1013 72 10000 6.2 290 06:39 15.06.2019
6359 Clear 18 1013 72 10000 6.2 290 06:39 15.06.2019
6360 Clear 18 1013 72 10000 6.2 290 06:39 15.06.2019
6361 Clear 17 1013 60 10000 10.3 280 05:59 15.06.2019
6362 Clouds 16 1011 56 10000 2.6 240 05:24 15.06.2019
6363 Clouds 16 1020 76 10000 3.1 170 04:41 15.06.2019
6364 Clouds 16 1020 76 10000 3.1 170 04:41 15.06.2019
6365 Clear 17 1010 68 10000 3.1 100 03:42 15.06.2019
6366 Clear 18 1010 64 10000 2.1 110 02:55 15.06.2019
6367 Clear 18 1011 60 10000 2.6 100 02:21 15.06.2019
6368 Clear 18 1011 60 10000 2.6 100 01:42 15.06.2019
6369 Clear 18 1011 60 10000 4.1 60 00:47 15.06.2019
6370 Clear 19 1011 60 10000 4.1 60 00:29 15.06.2019
6371 Clear 19 1012 60 10000 4.1 110 23:54 14.06.2019
6372 Clouds 20 1021 36 10000 2.1 180 23:25 14.06.2019
6373 Clouds 20 1012 82 10000 3.1 110 22:43 14.06.2019
6374 Clouds 20 1012 82 10000 3.1 110 22:23 14.06.2019
6375 Clouds 20 1012 82 10000 3.1 110 22:23 14.06.2019
6376 Clouds 20 1012 82 10000 3.1 110 22:23 14.06.2019
6377 Clear 20 1012 88 10000 2.1 90 21:58 14.06.2019
6378 Clear 21 1012 88 10000 2.1 90 21:39 14.06.2019
6379 Clear 22 1012 73 10000 1 0 21:21 14.06.2019
6380 Clear 23 1012 73 10000 1 0 20:42 14.06.2019
6381 Clear 23 1014 64 10000 3.6 20 20:18 14.06.2019
6382 Clear 24 1013 64 10000 1.5 210 19:51 14.06.2019
6383 Clear 24 1013 64 10000 1.5 210 19:23 14.06.2019
6384 Clear 25 1012 69 10000 0.5 0 18:58 14.06.2019
6385 Clear 25 1013 64 10000 1.5 0 18:40 14.06.2019
6386 Clear 25 1013 64 10000 1.5 0 18:22 14.06.2019
6387 Clear 26 1015 60 10000 2.1 50 17:46 14.06.2019
6388 Clear 26 1015 60 10000 2.1 50 17:27 14.06.2019
6389 Clear 26 1015 57 10000 2.1 50 16:55 14.06.2019
6390 Clear 26 1015 57 10000 2.1 50 16:37 14.06.2019
6391 Clear 25 1016 57 10000 1.5 90 16:18 14.06.2019
6392 Clear 26 1017 64 10000 1.5 0 15:39 14.06.2019
6393 Clear 25 1017 68 10000 2.1 80 15:20 14.06.2019
6394 Clouds 25 1018 68 10000 2.6 70 14:52 14.06.2019
6395 Clouds 25 1018 68 10000 2.6 70 14:32 14.06.2019
6396 Clouds 25 1018 68 10000 2.6 70 14:32 14.06.2019
6397 Clear 25 1018 64 10000 2.1 310 13:54 14.06.2019
6398 Clear 25 1018 64 10000 2.1 310 13:36 14.06.2019
6399 Clear 25 1018 64 10000 2.1 310 13:18 14.06.2019
6400 Clear 24 1017 64 10000 3.1 290 12:40 14.06.2019
6401 Clear 22 1017 72 10000 3.6 280 12:22 14.06.2019
6402 Clear 22 1016 68 10000 3.6 280 11:44 14.06.2019
6403 Clear 21 1017 72 10000 3.1 320 11:24 14.06.2019
6404 Clouds 22 1016 77 10000 3.1 320 10:50 14.06.2019
6405 Clouds 21 1016 77 10000 3.1 320 10:23 14.06.2019
6406 Clouds 21 1017 56 10000 4.1 80 09:56 14.06.2019
6407 Clear 19 1016 82 10000 4.1 300 09:38 14.06.2019
6408 Clear 18 1016 82 10000 1 0 09:19 14.06.2019
6409 Clear 17 1016 82 10000 1 0 08:41 14.06.2019
6410 Clear 15 1015 87 10000 1.5 100 08:18 14.06.2019
6411 Fog 14 1015 100 10000 1.5 100 07:45 14.06.2019
6412 Fog 13 1015 100 10000 1.5 100 07:19 14.06.2019
6413 Clear 11 1016 100 10000 1 0 06:27 14.06.2019
6414 Clear 11 1016 93 10000 0.5 0 05:54 14.06.2019
6415 Clear 11 1016 93 10000 1 0 04:56 14.06.2019
6416 Clear 11 1016 93 10000 0.5 0 04:32 14.06.2019
6417 Clear 12 1017 87 10000 1 0 03:46 14.06.2019
6418 Clear 12 1017 87 10000 1 0 03:23 14.06.2019
6419 Clear 12 1017 93 10000 3.6 100 02:43 14.06.2019
6420 Clear 12 1017 93 10000 3.1 110 01:54 14.06.2019
6421 Clear 13 1017 82 10000 2.1 110 00:45 14.06.2019
6422 Clear 14 1017 82 10000 2.1 110 00:22 14.06.2019
6423 Clear 14 1017 87 10000 1.5 120 23:52 13.06.2019
6424 Clear 15 1016 82 10000 1.5 130 23:26 13.06.2019
6425 Clear 16 1016 68 10000 1 0 22:58 13.06.2019
6426 Clear 16 1020 35 10000 0.5 20 22:38 13.06.2019
6427 Clear 17 1017 82 10000 0.5 0 22:19 13.06.2019
6428 Clouds 18 1016 56 10000 1 190 21:38 13.06.2019
6429 Clouds 19 1016 53 10000 1.5 300 21:19 13.06.2019
6430 Clouds 21 1016 56 10000 1.5 300 20:45 13.06.2019
6431 Clouds 21 1016 56 10000 1.5 300 20:21 13.06.2019
6432 Clouds 21 1016 56 10000 1.5 300 19:55 13.06.2019
6433 Clouds 21 1015 49 10000 1.5 300 19:36 13.06.2019
6434 Clear 22 1015 49 10000 1.5 300 19:18 13.06.2019
6435 Clouds 22 1015 56 10000 2.1 300 18:43 13.06.2019
6436 Clouds 21 1015 56 10000 2.1 300 18:25 13.06.2019
6437 Clouds 22 1015 46 10000 2.1 300 17:57 13.06.2019
6438 Clouds 22 1015 46 10000 2.1 300 17:57 13.06.2019
6439 Clouds 22 1015 49 10000 2.1 330 17:38 13.06.2019
6440 Clear 22 1016 8 10000 4.6 210 17:19 13.06.2019
6441 Clouds 22 1015 53 10000 2.6 320 16:44 13.06.2019
6442 Clouds 22 1015 53 10000 2.6 320 16:21 13.06.2019
6443 Clouds 22 1015 56 10000 2.6 320 15:43 13.06.2019
6444 Clouds 21 1015 56 10000 2.6 320 15:24 13.06.2019
6445 Clouds 21 1015 56 10000 3.1 320 14:54 13.06.2019
6446 Clouds 21 1015 60 10000 2.6 320 14:31 13.06.2019
6447 Clouds 20 1015 63 10000 2.6 320 13:59 13.06.2019
6448 Clouds 20 1015 63 10000 2.6 320 13:39 13.06.2019
6449 Clouds 20 1015 63 10000 2.6 320 13:21 13.06.2019
6450 Clouds 20 1016 72 10000 2.6 330 12:42 13.06.2019
6451 Clouds 19 1016 72 10000 2.6 330 12:22 13.06.2019
6452 Clouds 18 1016 72 10000 3.1 310 11:47 13.06.2019
6453 Clouds 18 1016 72 10000 3.1 310 11:29 13.06.2019
6454 Clouds 18 1016 77 10000 1.5 0 10:55 13.06.2019
6455 Clouds 18 1016 77 10000 1.5 0 10:55 13.06.2019
6456 Clouds 17 1016 77 10000 2.1 300 10:37 13.06.2019
6457 Clouds 16 1016 82 10000 1.5 300 10:18 13.06.2019
6458 Clouds 16 1016 93 10000 2.1 310 09:42 13.06.2019
6459 Clouds 15 1016 93 10000 2.6 290 09:22 13.06.2019
6460 Clouds 14 1016 93 10000 2.1 290 08:43 13.06.2019
6461 Clouds 14 1016 93 10000 2.1 290 08:23 13.06.2019
6462 Clouds 14 1015 93 10000 0.5 0 07:50 13.06.2019
6463 Clouds 13 1015 93 10000 0.5 0 07:25 13.06.2019
6464 Rain 12 1015 93 10000 0.5 100 06:45 13.06.2019
6465 Clouds 12 1015 93 10000 0.5 100 06:22 13.06.2019
6466 Clouds 12 1015 93 10000 0.5 100 05:54 13.06.2019
6467 Clouds 12 1015 100 10000 1 110 05:36 13.06.2019
6468 Clouds 12 1015 100 10000 0.5 100 04:55 13.06.2019
6469 Clouds 12 1015 81 10000 0.34 188.346 02:23 13.06.2019
6470 Clouds 13 1014 82 10000 1.5 0 00:47 13.06.2019
6471 Rain 14 1014 93 10000 0.5 0 23:49 12.06.2019
6472 Rain 14 1014 82 10000 1 0 23:22 12.06.2019
6473 Clear 14 1013 87 10000 0.5 0 22:43 12.06.2019
6474 Clear 15 1013 87 10000 0.5 0 22:24 12.06.2019
6475 Clear 15 1013 87 10000 1.5 0 21:56 12.06.2019
6476 Clouds 16 1013 87 10000 0.5 0 21:36 12.06.2019
6477 Clouds 16 1013 58 10000 1 40 21:18 12.06.2019
6478 Clouds 17 1013 63 10000 1.5 0 20:37 12.06.2019
6479 Clouds 17 1013 63 10000 1.5 0 20:37 12.06.2019
6480 Clouds 17 1013 63 10000 1.5 0 20:19 12.06.2019
6481 Clouds 18 1012 63 10000 1.5 30 19:42 12.06.2019
6482 Clouds 18 1012 63 10000 1.5 30 19:23 12.06.2019
6483 Clouds 18 1012 63 10000 1.5 30 18:55 12.06.2019
6484 Clouds 18 1013 63 10000 2.1 40 18:37 12.06.2019
6485 Clouds 18 1012 55 10000 1 300 18:18 12.06.2019
6486 Clouds 18 1013 67 10000 3.1 60 17:43 12.06.2019
6487 Clouds 17 1013 67 10000 3.1 60 17:20 12.06.2019
6488 Clouds 18 1013 77 10000 3.1 40 16:42 12.06.2019
6489 Clouds 17 1013 77 10000 3.1 40 16:23 12.06.2019
6490 Clouds 17 1013 77 10000 3.1 40 15:52 12.06.2019
6491 Clouds 17 1013 82 10000 2.1 60 15:32 12.06.2019
6492 Rain 15 1013 93 10000 2.1 80 14:46 12.06.2019
6493 Rain 14 1013 93 10000 2.1 80 14:27 12.06.2019
6494 Clouds 13 1013 93 10000 2.1 80 13:44 12.06.2019
6495 Rain 13 1013 93 10000 2.6 70 13:20 12.06.2019
6496 Rain 13 1013 93 10000 2.6 70 12:59 12.06.2019
6497 Rain 13 1013 93 10000 2.6 70 12:38 12.06.2019
6498 Rain 13 1013 93 10000 2.6 70 12:38 12.06.2019
6499 Rain 13 1013 93 10000 2.6 70 12:38 12.06.2019
6500 Rain 12 1013 93 10000 2.6 70 12:19 12.06.2019
6501 Rain 12 1013 93 7000 4.6 300 12:19 12.06.2019
6502 Rain 12 1013 93 7000 4.6 300 12:19 12.06.2019
6503 Rain 12 1012 93 8000 7.7 280 11:46 12.06.2019
6504 Rain 12 1012 93 8000 7.7 280 11:28 12.06.2019
6505 Rain 13 1011 93 7000 7.7 270 10:51 12.06.2019
6506 Rain 13 1011 93 7000 7.2 270 10:31 12.06.2019
6507 Rain 14 1009 100 9000 3.1 330 09:45 12.06.2019
6508 Rain 14 1009 100 9000 3.1 330 09:23 12.06.2019
6509 Rain 14 1008 100 3500 2.6 310 08:56 12.06.2019
6510 Rain 14 1008 100 3500 2.6 310 08:56 12.06.2019
6511 Rain 14 1009 100 9000 1 0 08:23 12.06.2019
6512 Mist 14 1008 100 2900 2.1 270 07:48 12.06.2019
6513 Mist 14 1008 100 3300 2.1 0 06:54 12.06.2019
6514 Mist 14 1008 100 1400 3.1 50 06:54 12.06.2019
6515 Rain 14 1008 100 6000 1 0 05:37 12.06.2019
6516 Rain 14 1008 100 6000 1 0 05:19 12.06.2019
6517 Clouds 14 1010 100 6000 1 0 01:58 12.06.2019
6518 Rain 14 1010 93 8000 1.5 0 00:40 12.06.2019
6519 Clouds 14 1011 93 10000 2.1 330 23:50 11.06.2019
6520 Clouds 14 1011 93 10000 2.1 330 23:31 11.06.2019
6521 Clouds 15 1011 93 10000 3.6 280 22:44 11.06.2019
6522 Clouds 15 1011 93 10000 3.6 280 22:21 11.06.2019
6523 Clouds 15 1011 87 10000 3.6 280 21:58 11.06.2019
6524 Clouds 15 1011 87 10000 3.1 260 21:39 11.06.2019
6525 Clouds 15 1011 82 10000 3.6 260 21:20 11.06.2019
6526 Clouds 15 1011 82 10000 3.6 260 21:20 11.06.2019
6527 Clouds 15 1011 82 10000 3.6 260 20:49 11.06.2019
6528 Clouds 16 1011 82 10000 3.6 260 20:26 11.06.2019
6529 Clouds 16 1011 82 10000 4.6 290 19:57 11.06.2019
6530 -273 0 0 0 0 0 19:39 11.06.2019
6531 Clouds 16 1011 82 10000 4.6 290 19:38 11.06.2019
6532 Thunderstorm 17 1010 82 10000 4.1 280 18:59 11.06.2019
6533 Thunderstorm 16 1010 82 10000 4.1 280 18:58 11.06.2019
6534 Thunderstorm 17 1010 82 10000 4.1 280 18:23 11.06.2019
6535 Clouds 17 1010 77 10000 4.6 280 17:57 11.06.2019
6536 Clouds 17 1010 77 10000 4.6 280 17:39 11.06.2019
6537 Clouds 18 1010 77 10000 6.2 280 17:19 11.06.2019
6538 Clouds 18 1010 77 10000 6.2 280 16:42 11.06.2019
6539 Clouds 18 1010 77 10000 6.2 280 16:23 11.06.2019
6540 Clouds 19 1010 68 10000 6.7 290 15:43 11.06.2019
6541 Clouds 19 1010 68 10000 6.7 290 15:24 11.06.2019
6542 Clouds 19 1010 68 10000 5.1 280 14:54 11.06.2019
6543 Clouds 19 1010 72 10000 5.1 280 14:23 11.06.2019
6544 Clouds 18 1010 72 10000 5.1 280 13:57 11.06.2019
6545 Clouds 18 1010 72 10000 5.1 280 13:37 11.06.2019
6546 Clouds 18 1010 72 10000 5.1 280 13:18 11.06.2019
6547 Clouds 17 1010 72 10000 5.7 280 12:40 11.06.2019
6548 Clouds 17 1010 72 10000 5.7 280 12:21 11.06.2019
6549 Clouds 17 1010 77 10000 4.6 280 11:41 11.06.2019
6550 Clouds 16 1010 72 10000 1.5 0 11:21 11.06.2019
6551 Clouds 16 1010 72 10000 1.5 0 10:50 11.06.2019
6552 Clouds 16 1010 72 10000 1.5 0 10:26 11.06.2019
6553 Clear 15 1010 87 10000 4.6 90 09:50 11.06.2019
6554 Clear 14 1010 87 10000 4.6 90 09:25 11.06.2019
6555 Clouds 13 1012 87 10000 3.6 80 08:49 11.06.2019
6556 Clear 13 1010 87 10000 3.6 90 08:30 11.06.2019
6557 Clear 12 1011 93 10000 1 0 07:55 11.06.2019
6558 Clear 12 1011 93 10000 1 0 07:31 11.06.2019
6559 Clear 11 1012 100 10000 4.6 90 06:51 11.06.2019
6560 Rain 11 1015 100 10000 2.6 140 05:00 11.06.2019
6561 Rain 12 1014 93 9000 3.6 280 03:47 11.06.2019
6562 Rain 14 1013 87 10000 3.1 250 01:43 11.06.2019
6563 Rain 14 1012 93 10000 4.1 260 00:49 11.06.2019
6564 Rain 14 1012 93 5000 4.1 260 23:56 10.06.2019
6565 Clouds 14 1014 87 10000 1.47 312.402 23:38 10.06.2019
6566 Rain 14 1013 93 0 1.5 280 22:59 10.06.2019
6567 Clouds 15 1015 87 10000 1.57 298.977 22:41 10.06.2019
6568 Clouds 15 1013 93 10000 1.5 0 22:23 10.06.2019
6569 Clouds 15 1013 93 10000 1 0 21:41 10.06.2019
6570 Clouds 15 1013 93 10000 1 0 21:23 10.06.2019
6571 Rain 16 1014 87 10000 2.1 290 20:48 10.06.2019
6572 Rain 16 1013 100 10000 3.6 270 20:26 10.06.2019
6573 Rain 17 1014 93 10000 3.6 270 19:58 10.06.2019
6574 Rain 17 1014 93 10000 3.6 270 19:39 10.06.2019
6575 Rain 16 1013 93 10000 2.1 300 19:21 10.06.2019
6576 Rain 17 1013 93 10000 2.1 300 18:55 10.06.2019
6577 Rain 17 1013 93 10000 2.1 300 18:37 10.06.2019
6578 Rain 17 1011 100 10000 4.1 50 18:18 10.06.2019
6579 Rain 17 1013 93 10000 1 0 17:40 10.06.2019
6580 Thunderstorm 17 1014 93 10000 3.6 310 17:22 10.06.2019
6581 Thunderstorm 18 1017 72 6000 3.1 200 16:46 10.06.2019
6582 Thunderstorm 18 1017 72 6000 3.1 200 16:28 10.06.2019
6583 Rain 19 1014 93 10000 4.6 280 15:46 10.06.2019
6584 Rain 19 1014 93 10000 4.6 280 15:46 10.06.2019
6585 Rain 20 1014 93 10000 4.6 280 15:24 10.06.2019
6586 Clouds 19 1013 88 10000 3.1 280 14:59 10.06.2019
6587 Clouds 19 1014 87 10000 5.1 280 14:39 10.06.2019
6588 Clouds 19 1014 77 10000 3.1 310 14:21 10.06.2019
6589 Clouds 20 1014 77 10000 3.1 310 13:43 10.06.2019
6590 Clouds 20 1015 77 10000 3.1 20 13:22 10.06.2019
6591 Clouds 19 1015 77 10000 2.6 30 12:45 10.06.2019
6592 Clouds 18 1015 77 10000 2.6 30 12:27 10.06.2019
6593 Clouds 17 1016 93 10000 2.1 50 11:46 10.06.2019
6594 Clouds 17 1016 93 10000 2.1 50 11:46 10.06.2019
6595 Clouds 17 1016 93 10000 2.1 50 11:28 10.06.2019
6596 Rain 16 1017 93 10000 1 0 10:46 10.06.2019
6597 Rain 15 1018 100 9000 2.1 260 10:22 10.06.2019
6598 Rain 15 1018 100 9000 2.1 260 09:58 10.06.2019
6599 Rain 14 1018 100 9000 2.1 260 09:39 10.06.2019
6600 Rain 14 1017 100 9000 1 0 09:19 10.06.2019
6601 Rain 13 1016 100 10000 2.1 90 08:45 10.06.2019
6602 Rain 13 1016 100 10000 2.1 90 08:25 10.06.2019
6603 Rain 13 1016 100 10000 2.1 90 07:21 10.06.2019
6604 Clouds 13 1023 100 9000 1 50 04:30 10.06.2019
6605 Clear 13 1018 93 10000 2.6 270 01:59 10.06.2019
6606 Clear 13 1018 93 10000 2.6 270 01:26 10.06.2019
6607 Rain 13 1018 93 10000 2.1 250 00:58 10.06.2019
6608 Clouds 14 1018 93 10000 4.1 270 00:20 10.06.2019
6609 Rain 14 1018 87 10000 0.5 0 23:43 09.06.2019
6610 Rain 14 1018 87 10000 0.5 0 23:20 09.06.2019
6611 Rain 15 1019 87 10000 1 0 22:45 09.06.2019
6612 Rain 15 1019 87 10000 1 0 22:25 09.06.2019
6613 Clear 16 1019 77 10000 2.1 80 21:46 09.06.2019
6614 Clear 16 1019 77 10000 2.1 80 21:26 09.06.2019
6615 Clear 16 1020 77 10000 1 0 20:45 09.06.2019
6616 Clear 17 1020 77 10000 1 0 20:23 09.06.2019
6617 Rain 17 1020 68 10000 0.5 0 19:56 09.06.2019
6618 Rain 17 1020 68 10000 0.5 0 19:36 09.06.2019
6619 Rain 17 1021 77 10000 1 0 19:18 09.06.2019
6620 Rain 17 1021 72 10000 1.5 60 18:41 09.06.2019
6621 Rain 17 1021 72 10000 1.5 60 18:41 09.06.2019
6622 Rain 18 1022 72 10000 1.5 100 18:23 09.06.2019
6623 Rain 18 1022 68 10000 0.5 0 17:48 09.06.2019
6624 Rain 18 1022 68 10000 0.5 0 17:27 09.06.2019
6625 Rain 19 1022 68 10000 0.5 0 16:55 09.06.2019
6626 Rain 19 1022 72 10000 0.5 0 16:37 09.06.2019
6627 Clouds 19 1022 72 10000 2.1 290 16:19 09.06.2019
6628 Clouds 20 1022 72 10000 2.6 280 15:47 09.06.2019
6629 Clouds 20 1022 72 10000 2.6 280 15:27 09.06.2019
6630 Clouds 20 1022 59 10000 2.1 330 14:46 09.06.2019
6631 Clouds 20 1022 59 10000 2.1 330 14:26 09.06.2019
6632 Rain 20 1022 67 10000 2.6 320 13:56 09.06.2019
6633 Clouds 20 1022 67 10000 2.6 310 13:35 09.06.2019
6634 Clear 20 1022 67 10000 4.1 300 12:43 09.06.2019
6635 Clouds 19 1022 72 10000 3.1 280 12:25 09.06.2019
6636 Clouds 18 1022 67 10000 2.1 280 11:47 09.06.2019
6637 Clouds 18 1022 67 10000 1.5 0 11:28 09.06.2019
6638 Clouds 18 1022 63 10000 1 0 10:46 09.06.2019
6639 Clouds 18 1022 63 10000 1 0 10:46 09.06.2019
6640 Clouds 17 1022 63 10000 1 0 10:24 09.06.2019
6641 Clear 16 1023 62 10000 1 0 09:41 09.06.2019
6642 Clear 16 1023 67 10000 2.1 300 09:23 09.06.2019
6643 Clear 16 1023 62 10000 1 0 09:23 09.06.2019
6644 Clear 15 1023 67 10000 2.1 300 08:55 09.06.2019
6645 Clear 14 1023 71 10000 2.1 290 08:36 09.06.2019
6646 Clouds 12 1023 76 10000 1 0 07:46 09.06.2019
6647 Clear 10 1023 66 10000 1.5 270 06:30 09.06.2019
6648 Clouds 9 1023 87 10000 0.5 0 05:34 09.06.2019
6649 Clear 11 1024 76 10000 0.5 0 01:46 09.06.2019
6650 Clear 11 1024 76 10000 0.5 0 01:22 09.06.2019
6651 Clear 11 1024 71 10000 0.5 0 00:59 09.06.2019
6652 Clear 12 1024 66 10000 1 110 00:19 09.06.2019
6653 Clear 13 1024 54 10000 0.5 0 23:38 08.06.2019
6654 Clear 13 1024 66 10000 1 200 23:20 08.06.2019
6655 Clear 14 1023 67 10000 1 0 22:43 08.06.2019
6656 Clear 14 1023 67 10000 1 0 22:25 08.06.2019
6657 Clear 16 1023 62 10000 2.1 220 21:52 08.06.2019
6658 Clear 16 1023 62 10000 2.1 220 21:29 08.06.2019
6659 Clear 18 1023 34 10000 1 260 20:59 08.06.2019
6660 Clear 18 1023 42 10000 1 260 20:40 08.06.2019
6661 Clear 19 1023 45 10000 2.1 320 20:20 08.06.2019
6662 Clear 19 1023 45 10000 2.1 320 19:41 08.06.2019
6663 Clear 20 1023 34 10000 2.1 320 19:20 08.06.2019
6664 Clear 20 1023 34 10000 2.1 320 18:57 08.06.2019
6665 Clear 20 1024 32 10000 2.6 310 18:36 08.06.2019
6666 Clear 20 1024 32 10000 2.6 300 17:59 08.06.2019
6667 Clear 20 1024 37 10000 3.6 330 17:39 08.06.2019
6668 Clear 20 1024 40 10000 3.6 330 17:18 08.06.2019
6669 Clear 20 1024 40 10000 3.6 10 16:44 08.06.2019
6670 Clear 20 1024 42 10000 3.1 20 16:18 08.06.2019
6671 Clear 20 1025 48 10000 3.6 30 15:38 08.06.2019
6672 Clear 19 1025 48 10000 3.6 30 14:54 08.06.2019
6673 Clear 18 1025 52 10000 3.1 40 14:32 08.06.2019
6674 Clear 19 1025 55 10000 3.1 40 13:59 08.06.2019
6675 Clear 18 1025 52 10000 3.1 40 13:24 08.06.2019
6676 Clear 17 1025 52 10000 3.1 40 12:45 08.06.2019
6677 Clouds 16 1025 51 10000 2.6 10 12:20 08.06.2019
6678 Clouds 16 1025 51 10000 1.5 0 11:44 08.06.2019
6679 Clouds 15 1025 51 10000 1.5 0 11:22 08.06.2019
6680 Clouds 15 1025 62 10000 1 0 10:44 08.06.2019
6681 Clouds 15 1025 62 10000 1 0 10:22 08.06.2019
6682 Clouds 14 1025 82 10000 0.5 0 09:48 08.06.2019
6683 Clouds 14 1023 71 10000 3.6 170 09:21 08.06.2019
6684 Clouds 13 1024 87 10000 1 0 08:29 08.06.2019
6685 Clouds 13 1024 87 10000 1 0 07:49 08.06.2019
6686 Rain 12 1024 87 10000 1 0 06:50 08.06.2019
6687 Clouds 12 1022 71 10000 1 160 05:42 08.06.2019
6688 Clouds 13 1021 67 10000 2.1 120 02:57 08.06.2019
6689 Clouds 13 1021 62 10000 4.1 300 00:59 08.06.2019
6690 Clouds 14 1021 62 10000 4.1 300 00:25 08.06.2019
6691 Clear 15 1019 62 10000 10.3 280 23:41 07.06.2019
6692 Clear 15 1019 62 10000 10.3 280 23:19 07.06.2019
6693 Clear 16 1017 55 10000 10.8 270 22:36 07.06.2019
6694 Clouds 18 1014 55 10000 8.2 270 21:58 07.06.2019
6695 Clouds 20 1013 49 10000 7.7 270 21:40 07.06.2019
6696 Clouds 21 1011 56 10000 4.1 270 21:21 07.06.2019
6697 Clear 22 1011 49 10000 6.2 250 20:54 07.06.2019
6698 Clouds 23 1011 56 10000 4.1 270 20:35 07.06.2019
6699 Clear 23 1011 57 10000 6.2 300 19:46 07.06.2019
6700 Clear 25 1011 57 10000 6.2 300 19:20 07.06.2019
6701 Clouds 25 1009 39 10000 4.1 200 18:50 07.06.2019
6702 Clouds 27 1009 39 10000 4.1 200 18:28 07.06.2019
6703 Clear 28 1007 20 10000 7.7 180 17:47 07.06.2019
6704 Clear 28 1007 20 10000 7.7 180 17:26 07.06.2019
6705 Clear 28 1008 44 10000 2.6 330 16:48 07.06.2019
6706 Clear 27 1008 44 10000 2.6 330 16:30 07.06.2019
6707 Clear 27 1008 60 10000 2.6 330 15:50 07.06.2019
6708 Clear 27 1008 60 10000 2.6 330 15:50 07.06.2019
6709 Clear 25 1009 72 10000 3.6 300 15:21 07.06.2019
6710 Clear 24 1010 72 10000 3.6 310 14:46 07.06.2019
6711 Clear 23 1010 72 10000 3.6 300 14:23 07.06.2019
6712 Clear 24 1010 72 10000 3.6 280 13:39 07.06.2019
6713 Clear 25 1010 72 10000 3.6 280 13:20 07.06.2019
6714 Clouds 22 1011 82 10000 3.1 290 12:41 07.06.2019
6715 Clouds 19 1011 82 10000 3.1 290 12:19 07.06.2019
6716 Clouds 19 1012 82 10000 2.1 50 11:41 07.06.2019
6717 Clouds 18 1012 82 10000 2.1 50 11:22 07.06.2019
6718 Clouds 17 1013 87 10000 1 0 10:48 07.06.2019
6719 Clouds 17 1013 87 10000 1 0 10:22 07.06.2019
6720 Clouds 15 1013 87 7000 2.1 80 09:50 07.06.2019
6721 Clouds 15 1013 87 7000 2.1 80 09:28 07.06.2019
6722 Mist 13 1014 93 5000 3.1 70 08:55 07.06.2019
6723 Mist 12 1014 100 1500 2.6<